<?xml version="1.0" encoding="UTF-8" standalone="no" ?>
<gpx xmlns="http://www.topografix.com/GPX/1/1" xmlns:xsi="http://www.w3.org/2001/XMLSchema-instance" xsi:schemaLocation="http://www.topografix.com/GPX/1/1 http://www.topografix.com/GPX/1/1/gpx.xsd" version="1.1" creator="VisuGPX - https://www.visugpx.com">
  <metadata>
    <name>Cabrières/Vissounel</name>
    <desc><![CDATA[Sortie depuis Cabrières orientée AM avec des cotes et descentes variées. La meilleure descente reste celle du Vissounel (c'est la plus longue) car elle reste toujours aussi plaisante avec pente virages quelques marches.]]></desc>
  </metadata>
  <trk>
    <name><![CDATA[Cabrières/Vissounel_1]]></name>
    <trkseg>
      <trkpt lat="43.57739" lon="3.36257">
        <ele>178.8</ele>
        <time>2016-07-02T05:53:46Z</time>
      </trkpt>
      <trkpt lat="43.57739" lon="3.36257">
        <ele>178.8</ele>
        <time>2016-07-02T05:53:19Z</time>
      </trkpt>
      <trkpt lat="43.57736" lon="3.36252">
        <ele>170.8</ele>
        <time>2016-07-02T06:00:50Z</time>
      </trkpt>
      <trkpt lat="43.57738" lon="3.36256">
        <ele>170.7</ele>
        <time>2016-07-02T06:00:30Z</time>
      </trkpt>
      <trkpt lat="43.57739" lon="3.36257">
        <ele>171.1</ele>
        <time>2016-07-02T06:00:40Z</time>
      </trkpt>
      <trkpt lat="43.57731" lon="3.36261">
        <ele>174.4</ele>
        <time>2016-07-02T06:03:27Z</time>
      </trkpt>
      <trkpt lat="43.57724" lon="3.36257">
        <ele>173.2</ele>
        <time>2016-07-02T06:05:50Z</time>
      </trkpt>
      <trkpt lat="43.57729" lon="3.36259">
        <ele>173.4</ele>
        <time>2016-07-02T06:06:00Z</time>
      </trkpt>
      <trkpt lat="43.57734" lon="3.36258">
        <ele>173.5</ele>
        <time>2016-07-02T06:06:07Z</time>
      </trkpt>
      <trkpt lat="43.57734" lon="3.36254">
        <ele>173.6</ele>
        <time>2016-07-02T06:06:14Z</time>
      </trkpt>
      <trkpt lat="43.57732" lon="3.36252">
        <ele>173.8</ele>
        <time>2016-07-02T06:06:21Z</time>
      </trkpt>
      <trkpt lat="43.57731" lon="3.36256">
        <ele>174</ele>
        <time>2016-07-02T06:06:40Z</time>
      </trkpt>
      <trkpt lat="43.57733" lon="3.36255">
        <ele>173.7</ele>
        <time>2016-07-02T06:06:47Z</time>
      </trkpt>
      <trkpt lat="43.57731" lon="3.36264">
        <ele>173.3</ele>
        <time>2016-07-02T06:06:25Z</time>
      </trkpt>
      <trkpt lat="43.57732" lon="3.36276">
        <ele>173.3</ele>
        <time>2016-07-02T06:07:34Z</time>
      </trkpt>
      <trkpt lat="43.57737" lon="3.36283">
        <ele>173.2</ele>
        <time>2016-07-02T06:07:37Z</time>
      </trkpt>
      <trkpt lat="43.57741" lon="3.36292">
        <ele>173.2</ele>
        <time>2016-07-02T06:07:39Z</time>
      </trkpt>
      <trkpt lat="43.57744" lon="3.36301">
        <ele>172.5</ele>
        <time>2016-07-02T06:07:41Z</time>
      </trkpt>
      <trkpt lat="43.57752" lon="3.36304">
        <ele>171.9</ele>
        <time>2016-07-02T06:07:44Z</time>
      </trkpt>
      <trkpt lat="43.5776" lon="3.36304">
        <ele>172</ele>
        <time>2016-07-02T06:07:47Z</time>
      </trkpt>
      <trkpt lat="43.57768" lon="3.36305">
        <ele>172.2</ele>
        <time>2016-07-02T06:07:50Z</time>
      </trkpt>
      <trkpt lat="43.57777" lon="3.36309">
        <ele>172.4</ele>
        <time>2016-07-02T06:07:53Z</time>
      </trkpt>
      <trkpt lat="43.57784" lon="3.36312">
        <ele>172.4</ele>
        <time>2016-07-02T06:07:55Z</time>
      </trkpt>
      <trkpt lat="43.57793" lon="3.36314">
        <ele>172.5</ele>
        <time>2016-07-02T06:07:58Z</time>
      </trkpt>
      <trkpt lat="43.57802" lon="3.36318">
        <ele>172.9</ele>
        <time>2016-07-02T06:08:00Z</time>
      </trkpt>
      <trkpt lat="43.57813" lon="3.36325">
        <ele>172.9</ele>
        <time>2016-07-02T06:08:02Z</time>
      </trkpt>
      <trkpt lat="43.57824" lon="3.36333">
        <ele>172.2</ele>
        <time>2016-07-02T06:08:04Z</time>
      </trkpt>
      <trkpt lat="43.57834" lon="3.36339">
        <ele>171.7</ele>
        <time>2016-07-02T06:08:06Z</time>
      </trkpt>
      <trkpt lat="43.57841" lon="3.36349">
        <ele>171.3</ele>
        <time>2016-07-02T06:08:08Z</time>
      </trkpt>
      <trkpt lat="43.57849" lon="3.36361">
        <ele>170.8</ele>
        <time>2016-07-02T06:08:10Z</time>
      </trkpt>
      <trkpt lat="43.57856" lon="3.36369">
        <ele>170.1</ele>
        <time>2016-07-02T06:08:12Z</time>
      </trkpt>
      <trkpt lat="43.57863" lon="3.36377">
        <ele>169.2</ele>
        <time>2016-07-02T06:08:14Z</time>
      </trkpt>
      <trkpt lat="43.57873" lon="3.3638">
        <ele>169</ele>
        <time>2016-07-02T06:08:17Z</time>
      </trkpt>
      <trkpt lat="43.5788" lon="3.36383">
        <ele>168.8</ele>
        <time>2016-07-02T06:08:20Z</time>
      </trkpt>
      <trkpt lat="43.57885" lon="3.36392">
        <ele>168.2</ele>
        <time>2016-07-02T06:08:23Z</time>
      </trkpt>
      <trkpt lat="43.57887" lon="3.36403">
        <ele>167.3</ele>
        <time>2016-07-02T06:08:25Z</time>
      </trkpt>
      <trkpt lat="43.57889" lon="3.36415">
        <ele>166.8</ele>
        <time>2016-07-02T06:08:27Z</time>
      </trkpt>
      <trkpt lat="43.5789" lon="3.36427">
        <ele>166.5</ele>
        <time>2016-07-02T06:08:29Z</time>
      </trkpt>
      <trkpt lat="43.57891" lon="3.36442">
        <ele>165.7</ele>
        <time>2016-07-02T06:08:31Z</time>
      </trkpt>
      <trkpt lat="43.57895" lon="3.36457">
        <ele>164.6</ele>
        <time>2016-07-02T06:08:33Z</time>
      </trkpt>
      <trkpt lat="43.57901" lon="3.3647">
        <ele>163.8</ele>
        <time>2016-07-02T06:08:35Z</time>
      </trkpt>
      <trkpt lat="43.57908" lon="3.36484">
        <ele>163.8</ele>
        <time>2016-07-02T06:08:37Z</time>
      </trkpt>
      <trkpt lat="43.57913" lon="3.36496">
        <ele>163.8</ele>
        <time>2016-07-02T06:08:39Z</time>
      </trkpt>
      <trkpt lat="43.57914" lon="3.3651">
        <ele>163.7</ele>
        <time>2016-07-02T06:08:42Z</time>
      </trkpt>
      <trkpt lat="43.57911" lon="3.3652">
        <ele>163.7</ele>
        <time>2016-07-02T06:08:45Z</time>
      </trkpt>
      <trkpt lat="43.57905" lon="3.36527">
        <ele>163.7</ele>
        <time>2016-07-02T06:08:49Z</time>
      </trkpt>
      <trkpt lat="43.57897" lon="3.36531">
        <ele>163.7</ele>
        <time>2016-07-02T06:08:53Z</time>
      </trkpt>
      <trkpt lat="43.57888" lon="3.36532">
        <ele>163.7</ele>
        <time>2016-07-02T06:08:57Z</time>
      </trkpt>
      <trkpt lat="43.57879" lon="3.36532">
        <ele>163.8</ele>
        <time>2016-07-02T06:09:01Z</time>
      </trkpt>
      <trkpt lat="43.57869" lon="3.36532">
        <ele>164.1</ele>
        <time>2016-07-02T06:09:05Z</time>
      </trkpt>
      <trkpt lat="43.5786" lon="3.36534">
        <ele>164.4</ele>
        <time>2016-07-02T06:09:09Z</time>
      </trkpt>
      <trkpt lat="43.57853" lon="3.36536">
        <ele>164.7</ele>
        <time>2016-07-02T06:09:12Z</time>
      </trkpt>
      <trkpt lat="43.57845" lon="3.3654">
        <ele>165</ele>
        <time>2016-07-02T06:09:16Z</time>
      </trkpt>
      <trkpt lat="43.57839" lon="3.36548">
        <ele>165.3</ele>
        <time>2016-07-02T06:09:19Z</time>
      </trkpt>
      <trkpt lat="43.57834" lon="3.36557">
        <ele>165.6</ele>
        <time>2016-07-02T06:09:22Z</time>
      </trkpt>
      <trkpt lat="43.57832" lon="3.36569">
        <ele>166</ele>
        <time>2016-07-02T06:09:25Z</time>
      </trkpt>
      <trkpt lat="43.5783" lon="3.36581">
        <ele>166.2</ele>
        <time>2016-07-02T06:09:28Z</time>
      </trkpt>
      <trkpt lat="43.57828" lon="3.36592">
        <ele>166.4</ele>
        <time>2016-07-02T06:09:31Z</time>
      </trkpt>
      <trkpt lat="43.57827" lon="3.36603">
        <ele>166.7</ele>
        <time>2016-07-02T06:09:34Z</time>
      </trkpt>
      <trkpt lat="43.57825" lon="3.36614">
        <ele>166.9</ele>
        <time>2016-07-02T06:09:37Z</time>
      </trkpt>
      <trkpt lat="43.5782" lon="3.36622">
        <ele>167</ele>
        <time>2016-07-02T06:09:40Z</time>
      </trkpt>
      <trkpt lat="43.57815" lon="3.36631">
        <ele>167.1</ele>
        <time>2016-07-02T06:09:43Z</time>
      </trkpt>
      <trkpt lat="43.5781" lon="3.3664">
        <ele>167.1</ele>
        <time>2016-07-02T06:09:46Z</time>
      </trkpt>
      <trkpt lat="43.57804" lon="3.3665">
        <ele>167.2</ele>
        <time>2016-07-02T06:09:49Z</time>
      </trkpt>
      <trkpt lat="43.57797" lon="3.36659">
        <ele>167.2</ele>
        <time>2016-07-02T06:09:52Z</time>
      </trkpt>
      <trkpt lat="43.57792" lon="3.36667">
        <ele>167.2</ele>
        <time>2016-07-02T06:09:55Z</time>
      </trkpt>
      <trkpt lat="43.57787" lon="3.36675">
        <ele>167.2</ele>
        <time>2016-07-02T06:09:58Z</time>
      </trkpt>
      <trkpt lat="43.57782" lon="3.36682">
        <ele>167.2</ele>
        <time>2016-07-02T06:10:01Z</time>
      </trkpt>
      <trkpt lat="43.57777" lon="3.36691">
        <ele>167.2</ele>
        <time>2016-07-02T06:10:04Z</time>
      </trkpt>
      <trkpt lat="43.57773" lon="3.367">
        <ele>167.3</ele>
        <time>2016-07-02T06:10:07Z</time>
      </trkpt>
      <trkpt lat="43.5777" lon="3.36709">
        <ele>167.4</ele>
        <time>2016-07-02T06:10:10Z</time>
      </trkpt>
      <trkpt lat="43.5777" lon="3.36722">
        <ele>167.5</ele>
        <time>2016-07-02T06:10:14Z</time>
      </trkpt>
      <trkpt lat="43.57773" lon="3.36732">
        <ele>167.7</ele>
        <time>2016-07-02T06:10:17Z</time>
      </trkpt>
      <trkpt lat="43.57776" lon="3.36743">
        <ele>167.9</ele>
        <time>2016-07-02T06:10:20Z</time>
      </trkpt>
      <trkpt lat="43.57779" lon="3.36753">
        <ele>168</ele>
        <time>2016-07-02T06:10:23Z</time>
      </trkpt>
      <trkpt lat="43.57782" lon="3.36764">
        <ele>168.1</ele>
        <time>2016-07-02T06:10:26Z</time>
      </trkpt>
      <trkpt lat="43.57784" lon="3.36774">
        <ele>168.2</ele>
        <time>2016-07-02T06:10:29Z</time>
      </trkpt>
      <trkpt lat="43.57786" lon="3.36785">
        <ele>168.3</ele>
        <time>2016-07-02T06:10:32Z</time>
      </trkpt>
      <trkpt lat="43.57788" lon="3.36798">
        <ele>168.5</ele>
        <time>2016-07-02T06:10:36Z</time>
      </trkpt>
      <trkpt lat="43.57791" lon="3.36807">
        <ele>168.7</ele>
        <time>2016-07-02T06:10:39Z</time>
      </trkpt>
      <trkpt lat="43.57793" lon="3.36817">
        <ele>168.9</ele>
        <time>2016-07-02T06:10:42Z</time>
      </trkpt>
      <trkpt lat="43.57797" lon="3.36827">
        <ele>169.2</ele>
        <time>2016-07-02T06:10:45Z</time>
      </trkpt>
      <trkpt lat="43.578" lon="3.36837">
        <ele>169.4</ele>
        <time>2016-07-02T06:10:48Z</time>
      </trkpt>
      <trkpt lat="43.57803" lon="3.36849">
        <ele>169.8</ele>
        <time>2016-07-02T06:10:52Z</time>
      </trkpt>
      <trkpt lat="43.57805" lon="3.36861">
        <ele>170.4</ele>
        <time>2016-07-02T06:10:56Z</time>
      </trkpt>
      <trkpt lat="43.57806" lon="3.3687">
        <ele>170.8</ele>
        <time>2016-07-02T06:10:59Z</time>
      </trkpt>
      <trkpt lat="43.57806" lon="3.36884">
        <ele>172</ele>
        <time>2016-07-02T06:11:02Z</time>
      </trkpt>
      <trkpt lat="43.57807" lon="3.36896">
        <ele>173.3</ele>
        <time>2016-07-02T06:11:04Z</time>
      </trkpt>
      <trkpt lat="43.57808" lon="3.36909">
        <ele>174</ele>
        <time>2016-07-02T06:11:06Z</time>
      </trkpt>
      <trkpt lat="43.57807" lon="3.36924">
        <ele>174.4</ele>
        <time>2016-07-02T06:11:08Z</time>
      </trkpt>
      <trkpt lat="43.57808" lon="3.36941">
        <ele>174.5</ele>
        <time>2016-07-02T06:11:10Z</time>
      </trkpt>
      <trkpt lat="43.5781" lon="3.36953">
        <ele>174.3</ele>
        <time>2016-07-02T06:11:12Z</time>
      </trkpt>
      <trkpt lat="43.57812" lon="3.36962">
        <ele>174.3</ele>
        <time>2016-07-02T06:11:14Z</time>
      </trkpt>
      <trkpt lat="43.57815" lon="3.36975">
        <ele>174.3</ele>
        <time>2016-07-02T06:11:17Z</time>
      </trkpt>
      <trkpt lat="43.57818" lon="3.36986">
        <ele>174.4</ele>
        <time>2016-07-02T06:11:20Z</time>
      </trkpt>
      <trkpt lat="43.5782" lon="3.36998">
        <ele>174.4</ele>
        <time>2016-07-02T06:11:23Z</time>
      </trkpt>
      <trkpt lat="43.57821" lon="3.37011">
        <ele>174.4</ele>
        <time>2016-07-02T06:11:26Z</time>
      </trkpt>
      <trkpt lat="43.57824" lon="3.37022">
        <ele>174.4</ele>
        <time>2016-07-02T06:11:29Z</time>
      </trkpt>
      <trkpt lat="43.57828" lon="3.37032">
        <ele>174.4</ele>
        <time>2016-07-02T06:11:32Z</time>
      </trkpt>
      <trkpt lat="43.57834" lon="3.37041">
        <ele>174.5</ele>
        <time>2016-07-02T06:11:35Z</time>
      </trkpt>
      <trkpt lat="43.57842" lon="3.37047">
        <ele>174.6</ele>
        <time>2016-07-02T06:11:38Z</time>
      </trkpt>
      <trkpt lat="43.57849" lon="3.37051">
        <ele>174.9</ele>
        <time>2016-07-02T06:11:41Z</time>
      </trkpt>
      <trkpt lat="43.57856" lon="3.37056">
        <ele>175.2</ele>
        <time>2016-07-02T06:11:44Z</time>
      </trkpt>
      <trkpt lat="43.57862" lon="3.37063">
        <ele>175.4</ele>
        <time>2016-07-02T06:11:47Z</time>
      </trkpt>
      <trkpt lat="43.57867" lon="3.3707">
        <ele>175.7</ele>
        <time>2016-07-02T06:11:50Z</time>
      </trkpt>
      <trkpt lat="43.57873" lon="3.37077">
        <ele>176</ele>
        <time>2016-07-02T06:11:53Z</time>
      </trkpt>
      <trkpt lat="43.57877" lon="3.37085">
        <ele>176.3</ele>
        <time>2016-07-02T06:11:56Z</time>
      </trkpt>
      <trkpt lat="43.57882" lon="3.37093">
        <ele>176.7</ele>
        <time>2016-07-02T06:11:59Z</time>
      </trkpt>
      <trkpt lat="43.57888" lon="3.37099">
        <ele>177</ele>
        <time>2016-07-02T06:12:02Z</time>
      </trkpt>
      <trkpt lat="43.57896" lon="3.37107">
        <ele>177.3</ele>
        <time>2016-07-02T06:12:06Z</time>
      </trkpt>
      <trkpt lat="43.57904" lon="3.37112">
        <ele>177.7</ele>
        <time>2016-07-02T06:12:10Z</time>
      </trkpt>
      <trkpt lat="43.57911" lon="3.3712">
        <ele>178.2</ele>
        <time>2016-07-02T06:12:14Z</time>
      </trkpt>
      <trkpt lat="43.5792" lon="3.37125">
        <ele>178.8</ele>
        <time>2016-07-02T06:12:18Z</time>
      </trkpt>
      <trkpt lat="43.57928" lon="3.37129">
        <ele>179.5</ele>
        <time>2016-07-02T06:12:22Z</time>
      </trkpt>
      <trkpt lat="43.57937" lon="3.37133">
        <ele>180.3</ele>
        <time>2016-07-02T06:12:26Z</time>
      </trkpt>
      <trkpt lat="43.57946" lon="3.37136">
        <ele>181.1</ele>
        <time>2016-07-02T06:12:30Z</time>
      </trkpt>
      <trkpt lat="43.57953" lon="3.37138">
        <ele>181.6</ele>
        <time>2016-07-02T06:12:33Z</time>
      </trkpt>
      <trkpt lat="43.5796" lon="3.37139">
        <ele>182.1</ele>
        <time>2016-07-02T06:12:36Z</time>
      </trkpt>
      <trkpt lat="43.57969" lon="3.37138">
        <ele>182.9</ele>
        <time>2016-07-02T06:12:40Z</time>
      </trkpt>
      <trkpt lat="43.57978" lon="3.37136">
        <ele>183.5</ele>
        <time>2016-07-02T06:12:44Z</time>
      </trkpt>
      <trkpt lat="43.57987" lon="3.37135">
        <ele>184</ele>
        <time>2016-07-02T06:12:47Z</time>
      </trkpt>
      <trkpt lat="43.57995" lon="3.37136">
        <ele>184.4</ele>
        <time>2016-07-02T06:12:50Z</time>
      </trkpt>
      <trkpt lat="43.58003" lon="3.37138">
        <ele>184.8</ele>
        <time>2016-07-02T06:12:53Z</time>
      </trkpt>
      <trkpt lat="43.58012" lon="3.37142">
        <ele>185.1</ele>
        <time>2016-07-02T06:12:56Z</time>
      </trkpt>
      <trkpt lat="43.58021" lon="3.37145">
        <ele>185.4</ele>
        <time>2016-07-02T06:12:59Z</time>
      </trkpt>
      <trkpt lat="43.58029" lon="3.37149">
        <ele>185.6</ele>
        <time>2016-07-02T06:13:02Z</time>
      </trkpt>
      <trkpt lat="43.58037" lon="3.37154">
        <ele>186</ele>
        <time>2016-07-02T06:13:05Z</time>
      </trkpt>
      <trkpt lat="43.58044" lon="3.37158">
        <ele>186.4</ele>
        <time>2016-07-02T06:13:08Z</time>
      </trkpt>
      <trkpt lat="43.58053" lon="3.37162">
        <ele>186.7</ele>
        <time>2016-07-02T06:13:11Z</time>
      </trkpt>
      <trkpt lat="43.58061" lon="3.37163">
        <ele>187</ele>
        <time>2016-07-02T06:13:14Z</time>
      </trkpt>
      <trkpt lat="43.58068" lon="3.37164">
        <ele>187.3</ele>
        <time>2016-07-02T06:13:17Z</time>
      </trkpt>
      <trkpt lat="43.58077" lon="3.37168">
        <ele>187.7</ele>
        <time>2016-07-02T06:13:21Z</time>
      </trkpt>
      <trkpt lat="43.58084" lon="3.37174">
        <ele>188</ele>
        <time>2016-07-02T06:13:24Z</time>
      </trkpt>
      <trkpt lat="43.58089" lon="3.37184">
        <ele>188.5</ele>
        <time>2016-07-02T06:13:28Z</time>
      </trkpt>
      <trkpt lat="43.58095" lon="3.37194">
        <ele>189.1</ele>
        <time>2016-07-02T06:13:32Z</time>
      </trkpt>
      <trkpt lat="43.581" lon="3.37204">
        <ele>189.6</ele>
        <time>2016-07-02T06:13:36Z</time>
      </trkpt>
      <trkpt lat="43.58105" lon="3.37212">
        <ele>190.2</ele>
        <time>2016-07-02T06:13:40Z</time>
      </trkpt>
      <trkpt lat="43.58111" lon="3.37218">
        <ele>190.9</ele>
        <time>2016-07-02T06:13:44Z</time>
      </trkpt>
      <trkpt lat="43.58118" lon="3.37224">
        <ele>191.7</ele>
        <time>2016-07-02T06:13:48Z</time>
      </trkpt>
      <trkpt lat="43.58127" lon="3.37228">
        <ele>192.3</ele>
        <time>2016-07-02T06:13:52Z</time>
      </trkpt>
      <trkpt lat="43.58135" lon="3.37234">
        <ele>192.9</ele>
        <time>2016-07-02T06:13:56Z</time>
      </trkpt>
      <trkpt lat="43.58142" lon="3.3724">
        <ele>193.5</ele>
        <time>2016-07-02T06:14:00Z</time>
      </trkpt>
      <trkpt lat="43.58146" lon="3.37248">
        <ele>193.8</ele>
        <time>2016-07-02T06:14:03Z</time>
      </trkpt>
      <trkpt lat="43.58152" lon="3.37256">
        <ele>194.1</ele>
        <time>2016-07-02T06:14:06Z</time>
      </trkpt>
      <trkpt lat="43.58157" lon="3.37265">
        <ele>194.4</ele>
        <time>2016-07-02T06:14:09Z</time>
      </trkpt>
      <trkpt lat="43.58162" lon="3.37273">
        <ele>194.7</ele>
        <time>2016-07-02T06:14:12Z</time>
      </trkpt>
      <trkpt lat="43.58169" lon="3.37281">
        <ele>195</ele>
        <time>2016-07-02T06:14:15Z</time>
      </trkpt>
      <trkpt lat="43.58178" lon="3.37285">
        <ele>195.3</ele>
        <time>2016-07-02T06:14:18Z</time>
      </trkpt>
      <trkpt lat="43.58189" lon="3.37284">
        <ele>196.5</ele>
        <time>2016-07-02T06:14:21Z</time>
      </trkpt>
      <trkpt lat="43.58198" lon="3.37282">
        <ele>197.9</ele>
        <time>2016-07-02T06:14:23Z</time>
      </trkpt>
      <trkpt lat="43.58206" lon="3.37284">
        <ele>198.4</ele>
        <time>2016-07-02T06:14:25Z</time>
      </trkpt>
      <trkpt lat="43.58213" lon="3.3729">
        <ele>198.6</ele>
        <time>2016-07-02T06:14:27Z</time>
      </trkpt>
      <trkpt lat="43.58214" lon="3.37303">
        <ele>198.7</ele>
        <time>2016-07-02T06:14:30Z</time>
      </trkpt>
      <trkpt lat="43.58207" lon="3.37314">
        <ele>198.8</ele>
        <time>2016-07-02T06:14:33Z</time>
      </trkpt>
      <trkpt lat="43.58202" lon="3.37322">
        <ele>198.8</ele>
        <time>2016-07-02T06:14:36Z</time>
      </trkpt>
      <trkpt lat="43.58197" lon="3.37332">
        <ele>198.9</ele>
        <time>2016-07-02T06:14:39Z</time>
      </trkpt>
      <trkpt lat="43.58194" lon="3.37344">
        <ele>198.8</ele>
        <time>2016-07-02T06:14:42Z</time>
      </trkpt>
      <trkpt lat="43.58194" lon="3.37354">
        <ele>198.6</ele>
        <time>2016-07-02T06:14:44Z</time>
      </trkpt>
      <trkpt lat="43.58195" lon="3.37366">
        <ele>198.2</ele>
        <time>2016-07-02T06:14:46Z</time>
      </trkpt>
      <trkpt lat="43.58196" lon="3.3738">
        <ele>197.8</ele>
        <time>2016-07-02T06:14:48Z</time>
      </trkpt>
      <trkpt lat="43.58198" lon="3.37395">
        <ele>197.7</ele>
        <time>2016-07-02T06:14:50Z</time>
      </trkpt>
      <trkpt lat="43.58199" lon="3.37409">
        <ele>197.7</ele>
        <time>2016-07-02T06:14:52Z</time>
      </trkpt>
      <trkpt lat="43.58199" lon="3.37422">
        <ele>197.6</ele>
        <time>2016-07-02T06:14:54Z</time>
      </trkpt>
      <trkpt lat="43.58198" lon="3.37438">
        <ele>197</ele>
        <time>2016-07-02T06:14:56Z</time>
      </trkpt>
      <trkpt lat="43.58202" lon="3.37456">
        <ele>196.4</ele>
        <time>2016-07-02T06:14:58Z</time>
      </trkpt>
      <trkpt lat="43.58208" lon="3.37475">
        <ele>195.9</ele>
        <time>2016-07-02T06:15:00Z</time>
      </trkpt>
      <trkpt lat="43.58213" lon="3.37494">
        <ele>193.7</ele>
        <time>2016-07-02T06:15:02Z</time>
      </trkpt>
      <trkpt lat="43.58218" lon="3.37504">
        <ele>192.7</ele>
        <time>2016-07-02T06:15:03Z</time>
      </trkpt>
      <trkpt lat="43.58222" lon="3.37513">
        <ele>191.9</ele>
        <time>2016-07-02T06:15:04Z</time>
      </trkpt>
      <trkpt lat="43.58227" lon="3.37521">
        <ele>191.7</ele>
        <time>2016-07-02T06:15:05Z</time>
      </trkpt>
      <trkpt lat="43.58235" lon="3.37536">
        <ele>191.5</ele>
        <time>2016-07-02T06:15:07Z</time>
      </trkpt>
      <trkpt lat="43.58239" lon="3.37549">
        <ele>191.3</ele>
        <time>2016-07-02T06:15:09Z</time>
      </trkpt>
      <trkpt lat="43.58241" lon="3.37559">
        <ele>191.3</ele>
        <time>2016-07-02T06:15:11Z</time>
      </trkpt>
      <trkpt lat="43.58241" lon="3.37572">
        <ele>191.3</ele>
        <time>2016-07-02T06:15:14Z</time>
      </trkpt>
      <trkpt lat="43.58241" lon="3.37583">
        <ele>191.2</ele>
        <time>2016-07-02T06:15:18Z</time>
      </trkpt>
      <trkpt lat="43.5824" lon="3.37595">
        <ele>191.1</ele>
        <time>2016-07-02T06:15:22Z</time>
      </trkpt>
      <trkpt lat="43.58237" lon="3.37606">
        <ele>191.3</ele>
        <time>2016-07-02T06:15:26Z</time>
      </trkpt>
      <trkpt lat="43.58235" lon="3.37615">
        <ele>191.4</ele>
        <time>2016-07-02T06:15:30Z</time>
      </trkpt>
      <trkpt lat="43.58234" lon="3.37626">
        <ele>191.8</ele>
        <time>2016-07-02T06:15:34Z</time>
      </trkpt>
      <trkpt lat="43.58231" lon="3.37638">
        <ele>192.4</ele>
        <time>2016-07-02T06:15:39Z</time>
      </trkpt>
      <trkpt lat="43.58228" lon="3.37649">
        <ele>193</ele>
        <time>2016-07-02T06:15:44Z</time>
      </trkpt>
      <trkpt lat="43.58224" lon="3.37659">
        <ele>193.5</ele>
        <time>2016-07-02T06:15:48Z</time>
      </trkpt>
      <trkpt lat="43.5822" lon="3.37667">
        <ele>193.9</ele>
        <time>2016-07-02T06:15:52Z</time>
      </trkpt>
      <trkpt lat="43.58214" lon="3.37674">
        <ele>194.5</ele>
        <time>2016-07-02T06:15:56Z</time>
      </trkpt>
      <trkpt lat="43.58207" lon="3.37679">
        <ele>195.4</ele>
        <time>2016-07-02T06:16:01Z</time>
      </trkpt>
      <trkpt lat="43.58201" lon="3.37668">
        <ele>196.6</ele>
        <time>2016-07-02T06:16:06Z</time>
      </trkpt>
      <trkpt lat="43.58198" lon="3.37659">
        <ele>197.9</ele>
        <time>2016-07-02T06:16:11Z</time>
      </trkpt>
      <trkpt lat="43.58192" lon="3.3765">
        <ele>199</ele>
        <time>2016-07-02T06:16:16Z</time>
      </trkpt>
      <trkpt lat="43.58185" lon="3.37644">
        <ele>200</ele>
        <time>2016-07-02T06:16:21Z</time>
      </trkpt>
      <trkpt lat="43.58178" lon="3.3764">
        <ele>200.8</ele>
        <time>2016-07-02T06:16:25Z</time>
      </trkpt>
      <trkpt lat="43.5817" lon="3.37634">
        <ele>201.6</ele>
        <time>2016-07-02T06:16:29Z</time>
      </trkpt>
      <trkpt lat="43.58163" lon="3.37625">
        <ele>202.5</ele>
        <time>2016-07-02T06:16:34Z</time>
      </trkpt>
      <trkpt lat="43.58157" lon="3.37617">
        <ele>203.1</ele>
        <time>2016-07-02T06:16:38Z</time>
      </trkpt>
      <trkpt lat="43.58152" lon="3.37606">
        <ele>203.9</ele>
        <time>2016-07-02T06:16:42Z</time>
      </trkpt>
      <trkpt lat="43.58144" lon="3.376">
        <ele>205</ele>
        <time>2016-07-02T06:16:47Z</time>
      </trkpt>
      <trkpt lat="43.58136" lon="3.37594">
        <ele>206.1</ele>
        <time>2016-07-02T06:16:52Z</time>
      </trkpt>
      <trkpt lat="43.58127" lon="3.37593">
        <ele>206.7</ele>
        <time>2016-07-02T06:16:56Z</time>
      </trkpt>
      <trkpt lat="43.58118" lon="3.37596">
        <ele>207.3</ele>
        <time>2016-07-02T06:17:00Z</time>
      </trkpt>
      <trkpt lat="43.58121" lon="3.37606">
        <ele>208.1</ele>
        <time>2016-07-02T06:17:06Z</time>
      </trkpt>
      <trkpt lat="43.58127" lon="3.37614">
        <ele>208.9</ele>
        <time>2016-07-02T06:17:11Z</time>
      </trkpt>
      <trkpt lat="43.58129" lon="3.37625">
        <ele>209.4</ele>
        <time>2016-07-02T06:17:15Z</time>
      </trkpt>
      <trkpt lat="43.58128" lon="3.37636">
        <ele>209.7</ele>
        <time>2016-07-02T06:17:19Z</time>
      </trkpt>
      <trkpt lat="43.58125" lon="3.37645">
        <ele>210.1</ele>
        <time>2016-07-02T06:17:23Z</time>
      </trkpt>
      <trkpt lat="43.58123" lon="3.37655">
        <ele>210.5</ele>
        <time>2016-07-02T06:17:27Z</time>
      </trkpt>
      <trkpt lat="43.58121" lon="3.37665">
        <ele>210.9</ele>
        <time>2016-07-02T06:17:31Z</time>
      </trkpt>
      <trkpt lat="43.5812" lon="3.37675">
        <ele>211.3</ele>
        <time>2016-07-02T06:17:35Z</time>
      </trkpt>
      <trkpt lat="43.58118" lon="3.37685">
        <ele>211.7</ele>
        <time>2016-07-02T06:17:39Z</time>
      </trkpt>
      <trkpt lat="43.58117" lon="3.37695">
        <ele>212.2</ele>
        <time>2016-07-02T06:17:43Z</time>
      </trkpt>
      <trkpt lat="43.58117" lon="3.37706">
        <ele>212.5</ele>
        <time>2016-07-02T06:17:47Z</time>
      </trkpt>
      <trkpt lat="43.58118" lon="3.37716">
        <ele>213</ele>
        <time>2016-07-02T06:17:51Z</time>
      </trkpt>
      <trkpt lat="43.58124" lon="3.37727">
        <ele>213.4</ele>
        <time>2016-07-02T06:17:55Z</time>
      </trkpt>
      <trkpt lat="43.5813" lon="3.37734">
        <ele>214.2</ele>
        <time>2016-07-02T06:18:00Z</time>
      </trkpt>
      <trkpt lat="43.58136" lon="3.37742">
        <ele>214.9</ele>
        <time>2016-07-02T06:18:04Z</time>
      </trkpt>
      <trkpt lat="43.58142" lon="3.37751">
        <ele>215.7</ele>
        <time>2016-07-02T06:18:08Z</time>
      </trkpt>
      <trkpt lat="43.58148" lon="3.3776">
        <ele>216.4</ele>
        <time>2016-07-02T06:18:12Z</time>
      </trkpt>
      <trkpt lat="43.58153" lon="3.37769">
        <ele>217</ele>
        <time>2016-07-02T06:18:16Z</time>
      </trkpt>
      <trkpt lat="43.58158" lon="3.3778">
        <ele>217.6</ele>
        <time>2016-07-02T06:18:20Z</time>
      </trkpt>
      <trkpt lat="43.58162" lon="3.3779">
        <ele>218.1</ele>
        <time>2016-07-02T06:18:23Z</time>
      </trkpt>
      <trkpt lat="43.58165" lon="3.37799">
        <ele>218.4</ele>
        <time>2016-07-02T06:18:26Z</time>
      </trkpt>
      <trkpt lat="43.58171" lon="3.37807">
        <ele>218.8</ele>
        <time>2016-07-02T06:18:29Z</time>
      </trkpt>
      <trkpt lat="43.58178" lon="3.37812">
        <ele>219.1</ele>
        <time>2016-07-02T06:18:32Z</time>
      </trkpt>
      <trkpt lat="43.58186" lon="3.37818">
        <ele>219.4</ele>
        <time>2016-07-02T06:18:35Z</time>
      </trkpt>
      <trkpt lat="43.58194" lon="3.37823">
        <ele>219.6</ele>
        <time>2016-07-02T06:18:38Z</time>
      </trkpt>
      <trkpt lat="43.58201" lon="3.37829">
        <ele>219.8</ele>
        <time>2016-07-02T06:18:41Z</time>
      </trkpt>
      <trkpt lat="43.58206" lon="3.37838">
        <ele>220.1</ele>
        <time>2016-07-02T06:18:44Z</time>
      </trkpt>
      <trkpt lat="43.58211" lon="3.37847">
        <ele>220.4</ele>
        <time>2016-07-02T06:18:47Z</time>
      </trkpt>
      <trkpt lat="43.58216" lon="3.37856">
        <ele>220.7</ele>
        <time>2016-07-02T06:18:50Z</time>
      </trkpt>
      <trkpt lat="43.58223" lon="3.37863">
        <ele>222.2</ele>
        <time>2016-07-02T06:18:52Z</time>
      </trkpt>
      <trkpt lat="43.58229" lon="3.37869">
        <ele>223.2</ele>
        <time>2016-07-02T06:18:54Z</time>
      </trkpt>
      <trkpt lat="43.58237" lon="3.37874">
        <ele>223.5</ele>
        <time>2016-07-02T06:18:56Z</time>
      </trkpt>
      <trkpt lat="43.58245" lon="3.37879">
        <ele>223.2</ele>
        <time>2016-07-02T06:18:58Z</time>
      </trkpt>
      <trkpt lat="43.58254" lon="3.37884">
        <ele>222.5</ele>
        <time>2016-07-02T06:19:00Z</time>
      </trkpt>
      <trkpt lat="43.58264" lon="3.37892">
        <ele>221.9</ele>
        <time>2016-07-02T06:19:02Z</time>
      </trkpt>
      <trkpt lat="43.58275" lon="3.37901">
        <ele>221.3</ele>
        <time>2016-07-02T06:19:04Z</time>
      </trkpt>
      <trkpt lat="43.58284" lon="3.37911">
        <ele>221</ele>
        <time>2016-07-02T06:19:06Z</time>
      </trkpt>
      <trkpt lat="43.58292" lon="3.37918">
        <ele>220.7</ele>
        <time>2016-07-02T06:19:08Z</time>
      </trkpt>
      <trkpt lat="43.58299" lon="3.37926">
        <ele>220.3</ele>
        <time>2016-07-02T06:19:10Z</time>
      </trkpt>
      <trkpt lat="43.58306" lon="3.37933">
        <ele>220.4</ele>
        <time>2016-07-02T06:19:12Z</time>
      </trkpt>
      <trkpt lat="43.58313" lon="3.37941">
        <ele>220.4</ele>
        <time>2016-07-02T06:19:15Z</time>
      </trkpt>
      <trkpt lat="43.5832" lon="3.37952">
        <ele>220.4</ele>
        <time>2016-07-02T06:19:18Z</time>
      </trkpt>
      <trkpt lat="43.58323" lon="3.37961">
        <ele>220.5</ele>
        <time>2016-07-02T06:19:21Z</time>
      </trkpt>
      <trkpt lat="43.58323" lon="3.37972">
        <ele>220.7</ele>
        <time>2016-07-02T06:19:24Z</time>
      </trkpt>
      <trkpt lat="43.58322" lon="3.37984">
        <ele>220.8</ele>
        <time>2016-07-02T06:19:27Z</time>
      </trkpt>
      <trkpt lat="43.58321" lon="3.37995">
        <ele>220.9</ele>
        <time>2016-07-02T06:19:30Z</time>
      </trkpt>
      <trkpt lat="43.58323" lon="3.38005">
        <ele>220.9</ele>
        <time>2016-07-02T06:19:33Z</time>
      </trkpt>
      <trkpt lat="43.58325" lon="3.38016">
        <ele>221</ele>
        <time>2016-07-02T06:19:36Z</time>
      </trkpt>
      <trkpt lat="43.58326" lon="3.38026">
        <ele>221.1</ele>
        <time>2016-07-02T06:19:39Z</time>
      </trkpt>
      <trkpt lat="43.58328" lon="3.38036">
        <ele>221.2</ele>
        <time>2016-07-02T06:19:42Z</time>
      </trkpt>
      <trkpt lat="43.58332" lon="3.38047">
        <ele>221.6</ele>
        <time>2016-07-02T06:19:46Z</time>
      </trkpt>
      <trkpt lat="43.58338" lon="3.38058">
        <ele>222</ele>
        <time>2016-07-02T06:19:50Z</time>
      </trkpt>
      <trkpt lat="43.58343" lon="3.38067">
        <ele>222.3</ele>
        <time>2016-07-02T06:19:53Z</time>
      </trkpt>
      <trkpt lat="43.58347" lon="3.38077">
        <ele>222.5</ele>
        <time>2016-07-02T06:19:56Z</time>
      </trkpt>
      <trkpt lat="43.58349" lon="3.38087">
        <ele>222.7</ele>
        <time>2016-07-02T06:19:59Z</time>
      </trkpt>
      <trkpt lat="43.5835" lon="3.38098">
        <ele>222.8</ele>
        <time>2016-07-02T06:20:02Z</time>
      </trkpt>
      <trkpt lat="43.58352" lon="3.3811">
        <ele>223.1</ele>
        <time>2016-07-02T06:20:05Z</time>
      </trkpt>
      <trkpt lat="43.58357" lon="3.38122">
        <ele>223.4</ele>
        <time>2016-07-02T06:20:08Z</time>
      </trkpt>
      <trkpt lat="43.58362" lon="3.38132">
        <ele>223.6</ele>
        <time>2016-07-02T06:20:11Z</time>
      </trkpt>
      <trkpt lat="43.58368" lon="3.38141">
        <ele>223.8</ele>
        <time>2016-07-02T06:20:14Z</time>
      </trkpt>
      <trkpt lat="43.58375" lon="3.38151">
        <ele>223.9</ele>
        <time>2016-07-02T06:20:17Z</time>
      </trkpt>
      <trkpt lat="43.5838" lon="3.38159">
        <ele>224.1</ele>
        <time>2016-07-02T06:20:20Z</time>
      </trkpt>
      <trkpt lat="43.58386" lon="3.38167">
        <ele>224.1</ele>
        <time>2016-07-02T06:20:23Z</time>
      </trkpt>
      <trkpt lat="43.58391" lon="3.38174">
        <ele>224.3</ele>
        <time>2016-07-02T06:20:26Z</time>
      </trkpt>
      <trkpt lat="43.58398" lon="3.38182">
        <ele>224.7</ele>
        <time>2016-07-02T06:20:29Z</time>
      </trkpt>
      <trkpt lat="43.58404" lon="3.3819">
        <ele>224.9</ele>
        <time>2016-07-02T06:20:32Z</time>
      </trkpt>
      <trkpt lat="43.58408" lon="3.382">
        <ele>225.1</ele>
        <time>2016-07-02T06:20:35Z</time>
      </trkpt>
      <trkpt lat="43.58408" lon="3.38211">
        <ele>225.3</ele>
        <time>2016-07-02T06:20:38Z</time>
      </trkpt>
      <trkpt lat="43.58409" lon="3.38223">
        <ele>225.5</ele>
        <time>2016-07-02T06:20:42Z</time>
      </trkpt>
      <trkpt lat="43.5841" lon="3.38234">
        <ele>226</ele>
        <time>2016-07-02T06:20:46Z</time>
      </trkpt>
      <trkpt lat="43.58413" lon="3.38246">
        <ele>226.6</ele>
        <time>2016-07-02T06:20:50Z</time>
      </trkpt>
      <trkpt lat="43.58417" lon="3.38255">
        <ele>227.5</ele>
        <time>2016-07-02T06:20:55Z</time>
      </trkpt>
      <trkpt lat="43.58422" lon="3.38267">
        <ele>228.3</ele>
        <time>2016-07-02T06:21:00Z</time>
      </trkpt>
      <trkpt lat="43.58425" lon="3.38278">
        <ele>229.2</ele>
        <time>2016-07-02T06:21:05Z</time>
      </trkpt>
      <trkpt lat="43.58427" lon="3.38289">
        <ele>230.1</ele>
        <time>2016-07-02T06:21:09Z</time>
      </trkpt>
      <trkpt lat="43.5843" lon="3.38298">
        <ele>231</ele>
        <time>2016-07-02T06:21:13Z</time>
      </trkpt>
      <trkpt lat="43.58432" lon="3.3831">
        <ele>232.1</ele>
        <time>2016-07-02T06:21:18Z</time>
      </trkpt>
      <trkpt lat="43.58433" lon="3.38321">
        <ele>233</ele>
        <time>2016-07-02T06:21:23Z</time>
      </trkpt>
      <trkpt lat="43.58433" lon="3.38332">
        <ele>233.7</ele>
        <time>2016-07-02T06:21:27Z</time>
      </trkpt>
      <trkpt lat="43.58434" lon="3.38343">
        <ele>234.4</ele>
        <time>2016-07-02T06:21:31Z</time>
      </trkpt>
      <trkpt lat="43.58435" lon="3.38353">
        <ele>235.1</ele>
        <time>2016-07-02T06:21:35Z</time>
      </trkpt>
      <trkpt lat="43.58438" lon="3.38365">
        <ele>235.6</ele>
        <time>2016-07-02T06:21:39Z</time>
      </trkpt>
      <trkpt lat="43.5844" lon="3.38375">
        <ele>236</ele>
        <time>2016-07-02T06:21:43Z</time>
      </trkpt>
      <trkpt lat="43.58441" lon="3.38386">
        <ele>236.5</ele>
        <time>2016-07-02T06:21:47Z</time>
      </trkpt>
      <trkpt lat="43.58442" lon="3.38398">
        <ele>237</ele>
        <time>2016-07-02T06:21:51Z</time>
      </trkpt>
      <trkpt lat="43.58442" lon="3.38408">
        <ele>237.5</ele>
        <time>2016-07-02T06:21:55Z</time>
      </trkpt>
      <trkpt lat="43.58441" lon="3.38419">
        <ele>237.9</ele>
        <time>2016-07-02T06:21:59Z</time>
      </trkpt>
      <trkpt lat="43.58439" lon="3.3843">
        <ele>238.4</ele>
        <time>2016-07-02T06:22:03Z</time>
      </trkpt>
      <trkpt lat="43.58434" lon="3.38438">
        <ele>238.9</ele>
        <time>2016-07-02T06:22:07Z</time>
      </trkpt>
      <trkpt lat="43.58432" lon="3.3845">
        <ele>239.5</ele>
        <time>2016-07-02T06:22:11Z</time>
      </trkpt>
      <trkpt lat="43.58435" lon="3.38459">
        <ele>240.1</ele>
        <time>2016-07-02T06:22:15Z</time>
      </trkpt>
      <trkpt lat="43.58443" lon="3.38465">
        <ele>240.8</ele>
        <time>2016-07-02T06:22:19Z</time>
      </trkpt>
      <trkpt lat="43.5845" lon="3.38467">
        <ele>242.9</ele>
        <time>2016-07-02T06:22:21Z</time>
      </trkpt>
      <trkpt lat="43.5846" lon="3.38471">
        <ele>245.4</ele>
        <time>2016-07-02T06:22:23Z</time>
      </trkpt>
      <trkpt lat="43.58467" lon="3.38475">
        <ele>246.3</ele>
        <time>2016-07-02T06:22:25Z</time>
      </trkpt>
      <trkpt lat="43.58473" lon="3.38482">
        <ele>246.3</ele>
        <time>2016-07-02T06:22:27Z</time>
      </trkpt>
      <trkpt lat="43.58481" lon="3.3849">
        <ele>246.2</ele>
        <time>2016-07-02T06:22:29Z</time>
      </trkpt>
      <trkpt lat="43.58487" lon="3.385">
        <ele>246.2</ele>
        <time>2016-07-02T06:22:31Z</time>
      </trkpt>
      <trkpt lat="43.58491" lon="3.38511">
        <ele>246.3</ele>
        <time>2016-07-02T06:22:33Z</time>
      </trkpt>
      <trkpt lat="43.58493" lon="3.38523">
        <ele>245.9</ele>
        <time>2016-07-02T06:22:35Z</time>
      </trkpt>
      <trkpt lat="43.58493" lon="3.38534">
        <ele>245.6</ele>
        <time>2016-07-02T06:22:37Z</time>
      </trkpt>
      <trkpt lat="43.58493" lon="3.38546">
        <ele>245.3</ele>
        <time>2016-07-02T06:22:39Z</time>
      </trkpt>
      <trkpt lat="43.58494" lon="3.38558">
        <ele>245.2</ele>
        <time>2016-07-02T06:22:41Z</time>
      </trkpt>
      <trkpt lat="43.58496" lon="3.38569">
        <ele>245.2</ele>
        <time>2016-07-02T06:22:43Z</time>
      </trkpt>
      <trkpt lat="43.58498" lon="3.38579">
        <ele>245.2</ele>
        <time>2016-07-02T06:22:45Z</time>
      </trkpt>
      <trkpt lat="43.585" lon="3.38592">
        <ele>245.2</ele>
        <time>2016-07-02T06:22:48Z</time>
      </trkpt>
      <trkpt lat="43.58502" lon="3.38603">
        <ele>245.1</ele>
        <time>2016-07-02T06:22:51Z</time>
      </trkpt>
      <trkpt lat="43.58503" lon="3.38616">
        <ele>245</ele>
        <time>2016-07-02T06:22:54Z</time>
      </trkpt>
      <trkpt lat="43.58503" lon="3.38628">
        <ele>245</ele>
        <time>2016-07-02T06:22:57Z</time>
      </trkpt>
      <trkpt lat="43.58504" lon="3.38638">
        <ele>245.2</ele>
        <time>2016-07-02T06:23:00Z</time>
      </trkpt>
      <trkpt lat="43.58506" lon="3.3865">
        <ele>245.4</ele>
        <time>2016-07-02T06:23:03Z</time>
      </trkpt>
      <trkpt lat="43.58508" lon="3.38661">
        <ele>245.5</ele>
        <time>2016-07-02T06:23:06Z</time>
      </trkpt>
      <trkpt lat="43.58509" lon="3.38673">
        <ele>245.7</ele>
        <time>2016-07-02T06:23:09Z</time>
      </trkpt>
      <trkpt lat="43.58511" lon="3.38685">
        <ele>245.8</ele>
        <time>2016-07-02T06:23:12Z</time>
      </trkpt>
      <trkpt lat="43.58513" lon="3.38696">
        <ele>246</ele>
        <time>2016-07-02T06:23:15Z</time>
      </trkpt>
      <trkpt lat="43.58516" lon="3.38708">
        <ele>246.1</ele>
        <time>2016-07-02T06:23:18Z</time>
      </trkpt>
      <trkpt lat="43.58518" lon="3.3872">
        <ele>246.2</ele>
        <time>2016-07-02T06:23:21Z</time>
      </trkpt>
      <trkpt lat="43.58518" lon="3.38732">
        <ele>246.3</ele>
        <time>2016-07-02T06:23:24Z</time>
      </trkpt>
      <trkpt lat="43.58518" lon="3.38742">
        <ele>246.4</ele>
        <time>2016-07-02T06:23:27Z</time>
      </trkpt>
      <trkpt lat="43.58517" lon="3.38752">
        <ele>246.5</ele>
        <time>2016-07-02T06:23:30Z</time>
      </trkpt>
      <trkpt lat="43.58518" lon="3.38765">
        <ele>246.9</ele>
        <time>2016-07-02T06:23:34Z</time>
      </trkpt>
      <trkpt lat="43.58519" lon="3.38777">
        <ele>247.2</ele>
        <time>2016-07-02T06:23:37Z</time>
      </trkpt>
      <trkpt lat="43.58518" lon="3.38788">
        <ele>247.5</ele>
        <time>2016-07-02T06:23:40Z</time>
      </trkpt>
      <trkpt lat="43.58518" lon="3.38798">
        <ele>247.8</ele>
        <time>2016-07-02T06:23:43Z</time>
      </trkpt>
      <trkpt lat="43.58515" lon="3.38809">
        <ele>248</ele>
        <time>2016-07-02T06:23:46Z</time>
      </trkpt>
      <trkpt lat="43.58512" lon="3.38818">
        <ele>248.2</ele>
        <time>2016-07-02T06:23:49Z</time>
      </trkpt>
      <trkpt lat="43.58511" lon="3.38829">
        <ele>248.5</ele>
        <time>2016-07-02T06:23:52Z</time>
      </trkpt>
      <trkpt lat="43.58511" lon="3.38841">
        <ele>249</ele>
        <time>2016-07-02T06:23:56Z</time>
      </trkpt>
      <trkpt lat="43.5851" lon="3.38852">
        <ele>249.5</ele>
        <time>2016-07-02T06:24:00Z</time>
      </trkpt>
      <trkpt lat="43.5851" lon="3.38863">
        <ele>250</ele>
        <time>2016-07-02T06:24:04Z</time>
      </trkpt>
      <trkpt lat="43.58509" lon="3.38874">
        <ele>250.4</ele>
        <time>2016-07-02T06:24:08Z</time>
      </trkpt>
      <trkpt lat="43.58506" lon="3.38884">
        <ele>251</ele>
        <time>2016-07-02T06:24:12Z</time>
      </trkpt>
      <trkpt lat="43.58499" lon="3.38893">
        <ele>251.5</ele>
        <time>2016-07-02T06:24:16Z</time>
      </trkpt>
      <trkpt lat="43.58492" lon="3.38901">
        <ele>252.1</ele>
        <time>2016-07-02T06:24:20Z</time>
      </trkpt>
      <trkpt lat="43.58484" lon="3.38907">
        <ele>252.6</ele>
        <time>2016-07-02T06:24:24Z</time>
      </trkpt>
      <trkpt lat="43.58477" lon="3.38915">
        <ele>253.1</ele>
        <time>2016-07-02T06:24:28Z</time>
      </trkpt>
      <trkpt lat="43.5847" lon="3.38924">
        <ele>253.6</ele>
        <time>2016-07-02T06:24:32Z</time>
      </trkpt>
      <trkpt lat="43.58465" lon="3.38933">
        <ele>254.2</ele>
        <time>2016-07-02T06:24:36Z</time>
      </trkpt>
      <trkpt lat="43.58462" lon="3.38942">
        <ele>254.8</ele>
        <time>2016-07-02T06:24:40Z</time>
      </trkpt>
      <trkpt lat="43.58459" lon="3.38953">
        <ele>255.4</ele>
        <time>2016-07-02T06:24:44Z</time>
      </trkpt>
      <trkpt lat="43.58457" lon="3.38964">
        <ele>256</ele>
        <time>2016-07-02T06:24:48Z</time>
      </trkpt>
      <trkpt lat="43.58455" lon="3.38975">
        <ele>256.7</ele>
        <time>2016-07-02T06:24:52Z</time>
      </trkpt>
      <trkpt lat="43.58453" lon="3.38986">
        <ele>257.3</ele>
        <time>2016-07-02T06:24:56Z</time>
      </trkpt>
      <trkpt lat="43.58452" lon="3.38998">
        <ele>258</ele>
        <time>2016-07-02T06:25:00Z</time>
      </trkpt>
      <trkpt lat="43.5845" lon="3.39009">
        <ele>258.7</ele>
        <time>2016-07-02T06:25:04Z</time>
      </trkpt>
      <trkpt lat="43.58447" lon="3.39021">
        <ele>259.4</ele>
        <time>2016-07-02T06:25:08Z</time>
      </trkpt>
      <trkpt lat="43.58444" lon="3.3903">
        <ele>259.9</ele>
        <time>2016-07-02T06:25:11Z</time>
      </trkpt>
      <trkpt lat="43.58441" lon="3.3904">
        <ele>260.6</ele>
        <time>2016-07-02T06:25:15Z</time>
      </trkpt>
      <trkpt lat="43.58437" lon="3.39051">
        <ele>261.5</ele>
        <time>2016-07-02T06:25:20Z</time>
      </trkpt>
      <trkpt lat="43.58433" lon="3.39061">
        <ele>262.2</ele>
        <time>2016-07-02T06:25:24Z</time>
      </trkpt>
      <trkpt lat="43.58427" lon="3.3907">
        <ele>263.2</ele>
        <time>2016-07-02T06:25:29Z</time>
      </trkpt>
      <trkpt lat="43.58422" lon="3.39079">
        <ele>264</ele>
        <time>2016-07-02T06:25:34Z</time>
      </trkpt>
      <trkpt lat="43.58418" lon="3.39088">
        <ele>264.5</ele>
        <time>2016-07-02T06:25:38Z</time>
      </trkpt>
      <trkpt lat="43.58417" lon="3.39099">
        <ele>265.1</ele>
        <time>2016-07-02T06:25:42Z</time>
      </trkpt>
      <trkpt lat="43.58416" lon="3.39111">
        <ele>265.9</ele>
        <time>2016-07-02T06:25:47Z</time>
      </trkpt>
      <trkpt lat="43.58415" lon="3.39121">
        <ele>266.5</ele>
        <time>2016-07-02T06:25:51Z</time>
      </trkpt>
      <trkpt lat="43.58411" lon="3.39132">
        <ele>267.3</ele>
        <time>2016-07-02T06:25:56Z</time>
      </trkpt>
      <trkpt lat="43.58406" lon="3.39141">
        <ele>267.8</ele>
        <time>2016-07-02T06:26:00Z</time>
      </trkpt>
      <trkpt lat="43.58402" lon="3.39151">
        <ele>268.5</ele>
        <time>2016-07-02T06:26:05Z</time>
      </trkpt>
      <trkpt lat="43.58397" lon="3.3916">
        <ele>269.1</ele>
        <time>2016-07-02T06:26:09Z</time>
      </trkpt>
      <trkpt lat="43.58394" lon="3.39169">
        <ele>269.8</ele>
        <time>2016-07-02T06:26:13Z</time>
      </trkpt>
      <trkpt lat="43.58391" lon="3.3918">
        <ele>270.5</ele>
        <time>2016-07-02T06:26:17Z</time>
      </trkpt>
      <trkpt lat="43.58387" lon="3.3919">
        <ele>271.1</ele>
        <time>2016-07-02T06:26:21Z</time>
      </trkpt>
      <trkpt lat="43.58382" lon="3.392">
        <ele>271.8</ele>
        <time>2016-07-02T06:26:25Z</time>
      </trkpt>
      <trkpt lat="43.58376" lon="3.3921">
        <ele>272.3</ele>
        <time>2016-07-02T06:26:29Z</time>
      </trkpt>
      <trkpt lat="43.58371" lon="3.39217">
        <ele>272.8</ele>
        <time>2016-07-02T06:26:32Z</time>
      </trkpt>
      <trkpt lat="43.58365" lon="3.39225">
        <ele>273.4</ele>
        <time>2016-07-02T06:26:36Z</time>
      </trkpt>
      <trkpt lat="43.58358" lon="3.39232">
        <ele>274</ele>
        <time>2016-07-02T06:26:40Z</time>
      </trkpt>
      <trkpt lat="43.58352" lon="3.39238">
        <ele>274.6</ele>
        <time>2016-07-02T06:26:44Z</time>
      </trkpt>
      <trkpt lat="43.58345" lon="3.39244">
        <ele>275.2</ele>
        <time>2016-07-02T06:26:48Z</time>
      </trkpt>
      <trkpt lat="43.58339" lon="3.39253">
        <ele>275.8</ele>
        <time>2016-07-02T06:26:52Z</time>
      </trkpt>
      <trkpt lat="43.58332" lon="3.39262">
        <ele>276.3</ele>
        <time>2016-07-02T06:26:56Z</time>
      </trkpt>
      <trkpt lat="43.58326" lon="3.3927">
        <ele>276.9</ele>
        <time>2016-07-02T06:27:00Z</time>
      </trkpt>
      <trkpt lat="43.5832" lon="3.39278">
        <ele>277.5</ele>
        <time>2016-07-02T06:27:04Z</time>
      </trkpt>
      <trkpt lat="43.58314" lon="3.39287">
        <ele>278.1</ele>
        <time>2016-07-02T06:27:08Z</time>
      </trkpt>
      <trkpt lat="43.58309" lon="3.39298">
        <ele>278.6</ele>
        <time>2016-07-02T06:27:12Z</time>
      </trkpt>
      <trkpt lat="43.58305" lon="3.39309">
        <ele>279.2</ele>
        <time>2016-07-02T06:27:16Z</time>
      </trkpt>
      <trkpt lat="43.58302" lon="3.39318">
        <ele>279.8</ele>
        <time>2016-07-02T06:27:20Z</time>
      </trkpt>
      <trkpt lat="43.58298" lon="3.39329">
        <ele>280.7</ele>
        <time>2016-07-02T06:27:25Z</time>
      </trkpt>
      <trkpt lat="43.58295" lon="3.39341">
        <ele>281.6</ele>
        <time>2016-07-02T06:27:30Z</time>
      </trkpt>
      <trkpt lat="43.58292" lon="3.39351">
        <ele>282.2</ele>
        <time>2016-07-02T06:27:34Z</time>
      </trkpt>
      <trkpt lat="43.58285" lon="3.39359">
        <ele>283.1</ele>
        <time>2016-07-02T06:27:39Z</time>
      </trkpt>
      <trkpt lat="43.58282" lon="3.3937">
        <ele>283.9</ele>
        <time>2016-07-02T06:27:44Z</time>
      </trkpt>
      <trkpt lat="43.58289" lon="3.39378">
        <ele>284.9</ele>
        <time>2016-07-02T06:27:50Z</time>
      </trkpt>
      <trkpt lat="43.58295" lon="3.39382">
        <ele>285.7</ele>
        <time>2016-07-02T06:27:54Z</time>
      </trkpt>
      <trkpt lat="43.58302" lon="3.39388">
        <ele>286.5</ele>
        <time>2016-07-02T06:27:58Z</time>
      </trkpt>
      <trkpt lat="43.58308" lon="3.39394">
        <ele>287.3</ele>
        <time>2016-07-02T06:28:02Z</time>
      </trkpt>
      <trkpt lat="43.58314" lon="3.39399">
        <ele>288</ele>
        <time>2016-07-02T06:28:06Z</time>
      </trkpt>
      <trkpt lat="43.58321" lon="3.39407">
        <ele>288.8</ele>
        <time>2016-07-02T06:28:10Z</time>
      </trkpt>
      <trkpt lat="43.58328" lon="3.39413">
        <ele>289.4</ele>
        <time>2016-07-02T06:28:13Z</time>
      </trkpt>
      <trkpt lat="43.58336" lon="3.39419">
        <ele>290</ele>
        <time>2016-07-02T06:28:17Z</time>
      </trkpt>
      <trkpt lat="43.58342" lon="3.39425">
        <ele>290.5</ele>
        <time>2016-07-02T06:28:20Z</time>
      </trkpt>
      <trkpt lat="43.58348" lon="3.39433">
        <ele>290.9</ele>
        <time>2016-07-02T06:28:23Z</time>
      </trkpt>
      <trkpt lat="43.58353" lon="3.39442">
        <ele>291.3</ele>
        <time>2016-07-02T06:28:26Z</time>
      </trkpt>
      <trkpt lat="43.58357" lon="3.39451">
        <ele>291.7</ele>
        <time>2016-07-02T06:28:29Z</time>
      </trkpt>
      <trkpt lat="43.58361" lon="3.3946">
        <ele>292</ele>
        <time>2016-07-02T06:28:32Z</time>
      </trkpt>
      <trkpt lat="43.58363" lon="3.39473">
        <ele>292.5</ele>
        <time>2016-07-02T06:28:36Z</time>
      </trkpt>
      <trkpt lat="43.58365" lon="3.39483">
        <ele>292.8</ele>
        <time>2016-07-02T06:28:39Z</time>
      </trkpt>
      <trkpt lat="43.58368" lon="3.39493">
        <ele>293.2</ele>
        <time>2016-07-02T06:28:43Z</time>
      </trkpt>
      <trkpt lat="43.58371" lon="3.39504">
        <ele>293.8</ele>
        <time>2016-07-02T06:28:48Z</time>
      </trkpt>
      <trkpt lat="43.58372" lon="3.39514">
        <ele>294.1</ele>
        <time>2016-07-02T06:28:51Z</time>
      </trkpt>
      <trkpt lat="43.58374" lon="3.39525">
        <ele>294.5</ele>
        <time>2016-07-02T06:28:54Z</time>
      </trkpt>
      <trkpt lat="43.58379" lon="3.39534">
        <ele>294.8</ele>
        <time>2016-07-02T06:28:57Z</time>
      </trkpt>
      <trkpt lat="43.58385" lon="3.39544">
        <ele>295</ele>
        <time>2016-07-02T06:29:00Z</time>
      </trkpt>
      <trkpt lat="43.58391" lon="3.39553">
        <ele>295.4</ele>
        <time>2016-07-02T06:29:03Z</time>
      </trkpt>
      <trkpt lat="43.58395" lon="3.39564">
        <ele>296</ele>
        <time>2016-07-02T06:29:07Z</time>
      </trkpt>
      <trkpt lat="43.58397" lon="3.39576">
        <ele>296.6</ele>
        <time>2016-07-02T06:29:11Z</time>
      </trkpt>
      <trkpt lat="43.58395" lon="3.39586">
        <ele>297</ele>
        <time>2016-07-02T06:29:14Z</time>
      </trkpt>
      <trkpt lat="43.58391" lon="3.39595">
        <ele>297.4</ele>
        <time>2016-07-02T06:29:18Z</time>
      </trkpt>
      <trkpt lat="43.58383" lon="3.39599">
        <ele>298</ele>
        <time>2016-07-02T06:29:22Z</time>
      </trkpt>
      <trkpt lat="43.58376" lon="3.39605">
        <ele>298.6</ele>
        <time>2016-07-02T06:29:26Z</time>
      </trkpt>
      <trkpt lat="43.58371" lon="3.39614">
        <ele>299.3</ele>
        <time>2016-07-02T06:29:30Z</time>
      </trkpt>
      <trkpt lat="43.58368" lon="3.39624">
        <ele>300</ele>
        <time>2016-07-02T06:29:34Z</time>
      </trkpt>
      <trkpt lat="43.58367" lon="3.39634">
        <ele>300.8</ele>
        <time>2016-07-02T06:29:38Z</time>
      </trkpt>
      <trkpt lat="43.58367" lon="3.39645">
        <ele>301.6</ele>
        <time>2016-07-02T06:29:42Z</time>
      </trkpt>
      <trkpt lat="43.58368" lon="3.39656">
        <ele>302.6</ele>
        <time>2016-07-02T06:29:46Z</time>
      </trkpt>
      <trkpt lat="43.58369" lon="3.39667">
        <ele>303.6</ele>
        <time>2016-07-02T06:29:50Z</time>
      </trkpt>
      <trkpt lat="43.58371" lon="3.39679">
        <ele>304.5</ele>
        <time>2016-07-02T06:29:54Z</time>
      </trkpt>
      <trkpt lat="43.58373" lon="3.39691">
        <ele>305.4</ele>
        <time>2016-07-02T06:29:58Z</time>
      </trkpt>
      <trkpt lat="43.58374" lon="3.39703">
        <ele>306.2</ele>
        <time>2016-07-02T06:30:02Z</time>
      </trkpt>
      <trkpt lat="43.58374" lon="3.39715">
        <ele>306.9</ele>
        <time>2016-07-02T06:30:06Z</time>
      </trkpt>
      <trkpt lat="43.58373" lon="3.39727">
        <ele>307.6</ele>
        <time>2016-07-02T06:30:10Z</time>
      </trkpt>
      <trkpt lat="43.58372" lon="3.39737">
        <ele>308.3</ele>
        <time>2016-07-02T06:30:14Z</time>
      </trkpt>
      <trkpt lat="43.58374" lon="3.39747">
        <ele>309.1</ele>
        <time>2016-07-02T06:30:19Z</time>
      </trkpt>
      <trkpt lat="43.5838" lon="3.39756">
        <ele>310</ele>
        <time>2016-07-02T06:30:24Z</time>
      </trkpt>
      <trkpt lat="43.58386" lon="3.39763">
        <ele>310.9</ele>
        <time>2016-07-02T06:30:28Z</time>
      </trkpt>
      <trkpt lat="43.58392" lon="3.3977">
        <ele>311.9</ele>
        <time>2016-07-02T06:30:33Z</time>
      </trkpt>
      <trkpt lat="43.58398" lon="3.39776">
        <ele>312.9</ele>
        <time>2016-07-02T06:30:38Z</time>
      </trkpt>
      <trkpt lat="43.58406" lon="3.39782">
        <ele>313.9</ele>
        <time>2016-07-02T06:30:43Z</time>
      </trkpt>
      <trkpt lat="43.58413" lon="3.39787">
        <ele>314.6</ele>
        <time>2016-07-02T06:30:47Z</time>
      </trkpt>
      <trkpt lat="43.5842" lon="3.39793">
        <ele>315.5</ele>
        <time>2016-07-02T06:30:52Z</time>
      </trkpt>
      <trkpt lat="43.58428" lon="3.39797">
        <ele>316.1</ele>
        <time>2016-07-02T06:30:56Z</time>
      </trkpt>
      <trkpt lat="43.58435" lon="3.398">
        <ele>316.7</ele>
        <time>2016-07-02T06:31:00Z</time>
      </trkpt>
      <trkpt lat="43.58444" lon="3.39804">
        <ele>318.3</ele>
        <time>2016-07-02T06:31:03Z</time>
      </trkpt>
      <trkpt lat="43.58451" lon="3.39808">
        <ele>318.6</ele>
        <time>2016-07-02T06:31:06Z</time>
      </trkpt>
      <trkpt lat="43.58459" lon="3.39811">
        <ele>318.9</ele>
        <time>2016-07-02T06:31:09Z</time>
      </trkpt>
      <trkpt lat="43.58467" lon="3.39812">
        <ele>319.3</ele>
        <time>2016-07-02T06:31:12Z</time>
      </trkpt>
      <trkpt lat="43.58475" lon="3.39815">
        <ele>319.9</ele>
        <time>2016-07-02T06:31:16Z</time>
      </trkpt>
      <trkpt lat="43.58484" lon="3.39819">
        <ele>320.7</ele>
        <time>2016-07-02T06:31:20Z</time>
      </trkpt>
      <trkpt lat="43.58491" lon="3.39822">
        <ele>321.5</ele>
        <time>2016-07-02T06:31:24Z</time>
      </trkpt>
      <trkpt lat="43.58498" lon="3.39825">
        <ele>322.1</ele>
        <time>2016-07-02T06:31:28Z</time>
      </trkpt>
      <trkpt lat="43.58506" lon="3.39828">
        <ele>323.1</ele>
        <time>2016-07-02T06:31:33Z</time>
      </trkpt>
      <trkpt lat="43.58513" lon="3.39822">
        <ele>323.9</ele>
        <time>2016-07-02T06:31:38Z</time>
      </trkpt>
      <trkpt lat="43.5852" lon="3.39819">
        <ele>324.4</ele>
        <time>2016-07-02T06:31:41Z</time>
      </trkpt>
      <trkpt lat="43.58527" lon="3.39815">
        <ele>324.8</ele>
        <time>2016-07-02T06:31:45Z</time>
      </trkpt>
      <trkpt lat="43.58535" lon="3.39813">
        <ele>325.4</ele>
        <time>2016-07-02T06:31:49Z</time>
      </trkpt>
      <trkpt lat="43.58544" lon="3.39816">
        <ele>326.3</ele>
        <time>2016-07-02T06:31:54Z</time>
      </trkpt>
      <trkpt lat="43.58552" lon="3.39819">
        <ele>327.1</ele>
        <time>2016-07-02T06:31:59Z</time>
      </trkpt>
      <trkpt lat="43.58561" lon="3.39818">
        <ele>327.7</ele>
        <time>2016-07-02T06:32:03Z</time>
      </trkpt>
      <trkpt lat="43.58569" lon="3.39817">
        <ele>328.3</ele>
        <time>2016-07-02T06:32:07Z</time>
      </trkpt>
      <trkpt lat="43.58577" lon="3.39818">
        <ele>328.7</ele>
        <time>2016-07-02T06:32:11Z</time>
      </trkpt>
      <trkpt lat="43.58585" lon="3.3982">
        <ele>329.3</ele>
        <time>2016-07-02T06:32:15Z</time>
      </trkpt>
      <trkpt lat="43.58594" lon="3.39823">
        <ele>330.1</ele>
        <time>2016-07-02T06:32:20Z</time>
      </trkpt>
      <trkpt lat="43.58601" lon="3.39824">
        <ele>330.7</ele>
        <time>2016-07-02T06:32:24Z</time>
      </trkpt>
      <trkpt lat="43.58609" lon="3.39825">
        <ele>331.4</ele>
        <time>2016-07-02T06:32:29Z</time>
      </trkpt>
      <trkpt lat="43.58617" lon="3.39827">
        <ele>331.9</ele>
        <time>2016-07-02T06:32:33Z</time>
      </trkpt>
      <trkpt lat="43.58627" lon="3.39827">
        <ele>332.4</ele>
        <time>2016-07-02T06:32:37Z</time>
      </trkpt>
      <trkpt lat="43.58635" lon="3.39828">
        <ele>332.9</ele>
        <time>2016-07-02T06:32:41Z</time>
      </trkpt>
      <trkpt lat="43.58643" lon="3.39829">
        <ele>333.4</ele>
        <time>2016-07-02T06:32:45Z</time>
      </trkpt>
      <trkpt lat="43.58652" lon="3.39831">
        <ele>333.8</ele>
        <time>2016-07-02T06:32:49Z</time>
      </trkpt>
      <trkpt lat="43.58659" lon="3.39836">
        <ele>334.3</ele>
        <time>2016-07-02T06:32:53Z</time>
      </trkpt>
      <trkpt lat="43.58667" lon="3.39839">
        <ele>334.6</ele>
        <time>2016-07-02T06:32:57Z</time>
      </trkpt>
      <trkpt lat="43.58675" lon="3.39839">
        <ele>335</ele>
        <time>2016-07-02T06:33:02Z</time>
      </trkpt>
      <trkpt lat="43.58683" lon="3.39839">
        <ele>335.2</ele>
        <time>2016-07-02T06:33:07Z</time>
      </trkpt>
      <trkpt lat="43.58691" lon="3.39838">
        <ele>335.5</ele>
        <time>2016-07-02T06:33:13Z</time>
      </trkpt>
      <trkpt lat="43.587" lon="3.39838">
        <ele>335.8</ele>
        <time>2016-07-02T06:33:19Z</time>
      </trkpt>
      <trkpt lat="43.58708" lon="3.39837">
        <ele>336.1</ele>
        <time>2016-07-02T06:33:26Z</time>
      </trkpt>
      <trkpt lat="43.58715" lon="3.39836">
        <ele>336.3</ele>
        <time>2016-07-02T06:33:32Z</time>
      </trkpt>
      <trkpt lat="43.58723" lon="3.3984">
        <ele>336.4</ele>
        <time>2016-07-02T06:33:36Z</time>
      </trkpt>
      <trkpt lat="43.58731" lon="3.39842">
        <ele>336.5</ele>
        <time>2016-07-02T06:33:41Z</time>
      </trkpt>
      <trkpt lat="43.58731" lon="3.39836">
        <ele>336.6</ele>
        <time>2016-07-02T06:33:48Z</time>
      </trkpt>
      <trkpt lat="43.58728" lon="3.39843">
        <ele>336.5</ele>
        <time>2016-07-02T06:33:55Z</time>
      </trkpt>
      <trkpt lat="43.58728" lon="3.39845">
        <ele>336.3</ele>
        <time>2016-07-02T06:34:06Z</time>
      </trkpt>
      <trkpt lat="43.58728" lon="3.39844">
        <ele>336</ele>
        <time>2016-07-02T06:34:38Z</time>
      </trkpt>
      <trkpt lat="43.5873" lon="3.39845">
        <ele>335.9</ele>
        <time>2016-07-02T06:34:45Z</time>
      </trkpt>
      <trkpt lat="43.5873" lon="3.39847">
        <ele>335.8</ele>
        <time>2016-07-02T06:34:52Z</time>
      </trkpt>
      <trkpt lat="43.58728" lon="3.39843">
        <ele>335.6</ele>
        <time>2016-07-02T06:35:58Z</time>
      </trkpt>
      <trkpt lat="43.58729" lon="3.39842">
        <ele>335.5</ele>
        <time>2016-07-02T06:36:27Z</time>
      </trkpt>
      <trkpt lat="43.58738" lon="3.39839">
        <ele>335.7</ele>
        <time>2016-07-02T06:36:31Z</time>
      </trkpt>
      <trkpt lat="43.58745" lon="3.39838">
        <ele>335.7</ele>
        <time>2016-07-02T06:36:34Z</time>
      </trkpt>
      <trkpt lat="43.58753" lon="3.39838">
        <ele>335.8</ele>
        <time>2016-07-02T06:36:37Z</time>
      </trkpt>
      <trkpt lat="43.58762" lon="3.39838">
        <ele>335.9</ele>
        <time>2016-07-02T06:36:41Z</time>
      </trkpt>
      <trkpt lat="43.5877" lon="3.39837">
        <ele>336.1</ele>
        <time>2016-07-02T06:36:45Z</time>
      </trkpt>
      <trkpt lat="43.58777" lon="3.39837">
        <ele>336.2</ele>
        <time>2016-07-02T06:36:48Z</time>
      </trkpt>
      <trkpt lat="43.58785" lon="3.39838">
        <ele>336.4</ele>
        <time>2016-07-02T06:36:51Z</time>
      </trkpt>
      <trkpt lat="43.58792" lon="3.39837">
        <ele>336.5</ele>
        <time>2016-07-02T06:36:54Z</time>
      </trkpt>
      <trkpt lat="43.588" lon="3.39838">
        <ele>336.6</ele>
        <time>2016-07-02T06:36:57Z</time>
      </trkpt>
      <trkpt lat="43.5881" lon="3.39837">
        <ele>336.8</ele>
        <time>2016-07-02T06:37:01Z</time>
      </trkpt>
      <trkpt lat="43.58817" lon="3.39837">
        <ele>336.8</ele>
        <time>2016-07-02T06:37:04Z</time>
      </trkpt>
      <trkpt lat="43.58825" lon="3.39837">
        <ele>337</ele>
        <time>2016-07-02T06:37:07Z</time>
      </trkpt>
      <trkpt lat="43.58834" lon="3.39837">
        <ele>337.1</ele>
        <time>2016-07-02T06:37:10Z</time>
      </trkpt>
      <trkpt lat="43.58843" lon="3.39836">
        <ele>337.2</ele>
        <time>2016-07-02T06:37:13Z</time>
      </trkpt>
      <trkpt lat="43.58852" lon="3.39835">
        <ele>337.3</ele>
        <time>2016-07-02T06:37:16Z</time>
      </trkpt>
      <trkpt lat="43.58862" lon="3.39833">
        <ele>337.4</ele>
        <time>2016-07-02T06:37:19Z</time>
      </trkpt>
      <trkpt lat="43.58872" lon="3.3983">
        <ele>337.5</ele>
        <time>2016-07-02T06:37:22Z</time>
      </trkpt>
      <trkpt lat="43.58882" lon="3.39826">
        <ele>337.7</ele>
        <time>2016-07-02T06:37:25Z</time>
      </trkpt>
      <trkpt lat="43.58892" lon="3.39821">
        <ele>337.2</ele>
        <time>2016-07-02T06:37:28Z</time>
      </trkpt>
      <trkpt lat="43.589" lon="3.39817">
        <ele>337</ele>
        <time>2016-07-02T06:37:30Z</time>
      </trkpt>
      <trkpt lat="43.58907" lon="3.39814">
        <ele>337</ele>
        <time>2016-07-02T06:37:32Z</time>
      </trkpt>
      <trkpt lat="43.58914" lon="3.39811">
        <ele>337</ele>
        <time>2016-07-02T06:37:34Z</time>
      </trkpt>
      <trkpt lat="43.58924" lon="3.39807">
        <ele>337</ele>
        <time>2016-07-02T06:37:37Z</time>
      </trkpt>
      <trkpt lat="43.58935" lon="3.39804">
        <ele>336.3</ele>
        <time>2016-07-02T06:37:40Z</time>
      </trkpt>
      <trkpt lat="43.58945" lon="3.39805">
        <ele>336.2</ele>
        <time>2016-07-02T06:37:43Z</time>
      </trkpt>
      <trkpt lat="43.58956" lon="3.39805">
        <ele>336.3</ele>
        <time>2016-07-02T06:37:46Z</time>
      </trkpt>
      <trkpt lat="43.58966" lon="3.39807">
        <ele>336.4</ele>
        <time>2016-07-02T06:37:49Z</time>
      </trkpt>
      <trkpt lat="43.58975" lon="3.3981">
        <ele>336.5</ele>
        <time>2016-07-02T06:37:52Z</time>
      </trkpt>
      <trkpt lat="43.58983" lon="3.39815">
        <ele>336.6</ele>
        <time>2016-07-02T06:37:55Z</time>
      </trkpt>
      <trkpt lat="43.5899" lon="3.39826">
        <ele>336.6</ele>
        <time>2016-07-02T06:37:58Z</time>
      </trkpt>
      <trkpt lat="43.58994" lon="3.39834">
        <ele>336.6</ele>
        <time>2016-07-02T06:38:00Z</time>
      </trkpt>
      <trkpt lat="43.58999" lon="3.39843">
        <ele>336.5</ele>
        <time>2016-07-02T06:38:02Z</time>
      </trkpt>
      <trkpt lat="43.59008" lon="3.39847">
        <ele>336.6</ele>
        <time>2016-07-02T06:38:05Z</time>
      </trkpt>
      <trkpt lat="43.59015" lon="3.39846">
        <ele>336.6</ele>
        <time>2016-07-02T06:38:07Z</time>
      </trkpt>
      <trkpt lat="43.59023" lon="3.39843">
        <ele>336.4</ele>
        <time>2016-07-02T06:38:09Z</time>
      </trkpt>
      <trkpt lat="43.5903" lon="3.39841">
        <ele>336.4</ele>
        <time>2016-07-02T06:38:11Z</time>
      </trkpt>
      <trkpt lat="43.59037" lon="3.39838">
        <ele>336.4</ele>
        <time>2016-07-02T06:38:13Z</time>
      </trkpt>
      <trkpt lat="43.59047" lon="3.39837">
        <ele>336.4</ele>
        <time>2016-07-02T06:38:16Z</time>
      </trkpt>
      <trkpt lat="43.59057" lon="3.39838">
        <ele>336.5</ele>
        <time>2016-07-02T06:38:19Z</time>
      </trkpt>
      <trkpt lat="43.59064" lon="3.39839">
        <ele>336.5</ele>
        <time>2016-07-02T06:38:21Z</time>
      </trkpt>
      <trkpt lat="43.59072" lon="3.39841">
        <ele>336.6</ele>
        <time>2016-07-02T06:38:23Z</time>
      </trkpt>
      <trkpt lat="43.59082" lon="3.39841">
        <ele>336.7</ele>
        <time>2016-07-02T06:38:26Z</time>
      </trkpt>
      <trkpt lat="43.5909" lon="3.39834">
        <ele>336.8</ele>
        <time>2016-07-02T06:38:29Z</time>
      </trkpt>
      <trkpt lat="43.59098" lon="3.39827">
        <ele>336.9</ele>
        <time>2016-07-02T06:38:32Z</time>
      </trkpt>
      <trkpt lat="43.59104" lon="3.39817">
        <ele>337.1</ele>
        <time>2016-07-02T06:38:35Z</time>
      </trkpt>
      <trkpt lat="43.59108" lon="3.39809">
        <ele>337.3</ele>
        <time>2016-07-02T06:38:38Z</time>
      </trkpt>
      <trkpt lat="43.59113" lon="3.398">
        <ele>337.6</ele>
        <time>2016-07-02T06:38:41Z</time>
      </trkpt>
      <trkpt lat="43.59119" lon="3.39792">
        <ele>337.9</ele>
        <time>2016-07-02T06:38:44Z</time>
      </trkpt>
      <trkpt lat="43.59124" lon="3.39782">
        <ele>338.1</ele>
        <time>2016-07-02T06:38:47Z</time>
      </trkpt>
      <trkpt lat="43.59129" lon="3.39773">
        <ele>338.3</ele>
        <time>2016-07-02T06:38:50Z</time>
      </trkpt>
      <trkpt lat="43.59135" lon="3.39764">
        <ele>338.5</ele>
        <time>2016-07-02T06:38:53Z</time>
      </trkpt>
      <trkpt lat="43.5914" lon="3.39754">
        <ele>338.6</ele>
        <time>2016-07-02T06:38:56Z</time>
      </trkpt>
      <trkpt lat="43.59147" lon="3.39748">
        <ele>338.8</ele>
        <time>2016-07-02T06:38:59Z</time>
      </trkpt>
      <trkpt lat="43.59155" lon="3.39745">
        <ele>338.9</ele>
        <time>2016-07-02T06:39:02Z</time>
      </trkpt>
      <trkpt lat="43.59163" lon="3.39745">
        <ele>339.1</ele>
        <time>2016-07-02T06:39:05Z</time>
      </trkpt>
      <trkpt lat="43.59172" lon="3.39746">
        <ele>339.3</ele>
        <time>2016-07-02T06:39:08Z</time>
      </trkpt>
      <trkpt lat="43.5918" lon="3.39748">
        <ele>339.5</ele>
        <time>2016-07-02T06:39:11Z</time>
      </trkpt>
      <trkpt lat="43.59188" lon="3.39749">
        <ele>339.7</ele>
        <time>2016-07-02T06:39:14Z</time>
      </trkpt>
      <trkpt lat="43.59197" lon="3.3975">
        <ele>340</ele>
        <time>2016-07-02T06:39:17Z</time>
      </trkpt>
      <trkpt lat="43.59204" lon="3.39751">
        <ele>340.2</ele>
        <time>2016-07-02T06:39:20Z</time>
      </trkpt>
      <trkpt lat="43.59211" lon="3.39752">
        <ele>340.4</ele>
        <time>2016-07-02T06:39:23Z</time>
      </trkpt>
      <trkpt lat="43.59219" lon="3.39753">
        <ele>340.6</ele>
        <time>2016-07-02T06:39:26Z</time>
      </trkpt>
      <trkpt lat="43.59227" lon="3.39753">
        <ele>340.8</ele>
        <time>2016-07-02T06:39:29Z</time>
      </trkpt>
      <trkpt lat="43.59237" lon="3.39755">
        <ele>341.1</ele>
        <time>2016-07-02T06:39:32Z</time>
      </trkpt>
      <trkpt lat="43.59245" lon="3.39756">
        <ele>341.4</ele>
        <time>2016-07-02T06:39:35Z</time>
      </trkpt>
      <trkpt lat="43.59253" lon="3.39755">
        <ele>341.6</ele>
        <time>2016-07-02T06:39:38Z</time>
      </trkpt>
      <trkpt lat="43.5926" lon="3.39753">
        <ele>341.8</ele>
        <time>2016-07-02T06:39:41Z</time>
      </trkpt>
      <trkpt lat="43.59267" lon="3.39749">
        <ele>341.8</ele>
        <time>2016-07-02T06:39:44Z</time>
      </trkpt>
      <trkpt lat="43.59275" lon="3.39745">
        <ele>341.9</ele>
        <time>2016-07-02T06:39:47Z</time>
      </trkpt>
      <trkpt lat="43.59283" lon="3.39743">
        <ele>341.9</ele>
        <time>2016-07-02T06:39:50Z</time>
      </trkpt>
      <trkpt lat="43.59292" lon="3.39742">
        <ele>341.9</ele>
        <time>2016-07-02T06:39:53Z</time>
      </trkpt>
      <trkpt lat="43.593" lon="3.39742">
        <ele>342</ele>
        <time>2016-07-02T06:39:56Z</time>
      </trkpt>
      <trkpt lat="43.59302" lon="3.39741">
        <ele>342</ele>
        <time>2016-07-02T06:40:03Z</time>
      </trkpt>
      <trkpt lat="43.59306" lon="3.39742">
        <ele>341.9</ele>
        <time>2016-07-02T06:40:20Z</time>
      </trkpt>
      <trkpt lat="43.59306" lon="3.39741">
        <ele>342.1</ele>
        <time>2016-07-02T06:41:11Z</time>
      </trkpt>
      <trkpt lat="43.59308" lon="3.39742">
        <ele>342</ele>
        <time>2016-07-02T06:41:30Z</time>
      </trkpt>
      <trkpt lat="43.59317" lon="3.39741">
        <ele>342</ele>
        <time>2016-07-02T06:41:34Z</time>
      </trkpt>
      <trkpt lat="43.59324" lon="3.39741">
        <ele>341.9</ele>
        <time>2016-07-02T06:41:36Z</time>
      </trkpt>
      <trkpt lat="43.59332" lon="3.39739">
        <ele>341.5</ele>
        <time>2016-07-02T06:41:38Z</time>
      </trkpt>
      <trkpt lat="43.59341" lon="3.39739">
        <ele>341</ele>
        <time>2016-07-02T06:41:40Z</time>
      </trkpt>
      <trkpt lat="43.59349" lon="3.39742">
        <ele>341.1</ele>
        <time>2016-07-02T06:41:42Z</time>
      </trkpt>
      <trkpt lat="43.59356" lon="3.39747">
        <ele>341.2</ele>
        <time>2016-07-02T06:41:44Z</time>
      </trkpt>
      <trkpt lat="43.59363" lon="3.39753">
        <ele>341.2</ele>
        <time>2016-07-02T06:41:46Z</time>
      </trkpt>
      <trkpt lat="43.59371" lon="3.39759">
        <ele>341.3</ele>
        <time>2016-07-02T06:41:48Z</time>
      </trkpt>
      <trkpt lat="43.5938" lon="3.39766">
        <ele>341.4</ele>
        <time>2016-07-02T06:41:50Z</time>
      </trkpt>
      <trkpt lat="43.59389" lon="3.39774">
        <ele>341.3</ele>
        <time>2016-07-02T06:41:52Z</time>
      </trkpt>
      <trkpt lat="43.594" lon="3.39783">
        <ele>340.8</ele>
        <time>2016-07-02T06:41:54Z</time>
      </trkpt>
      <trkpt lat="43.59411" lon="3.39796">
        <ele>340.9</ele>
        <time>2016-07-02T06:41:56Z</time>
      </trkpt>
      <trkpt lat="43.59417" lon="3.39804">
        <ele>340.6</ele>
        <time>2016-07-02T06:41:57Z</time>
      </trkpt>
      <trkpt lat="43.59422" lon="3.39811">
        <ele>340.1</ele>
        <time>2016-07-02T06:41:58Z</time>
      </trkpt>
      <trkpt lat="43.59428" lon="3.39818">
        <ele>339.5</ele>
        <time>2016-07-02T06:41:59Z</time>
      </trkpt>
      <trkpt lat="43.59433" lon="3.39826">
        <ele>338.9</ele>
        <time>2016-07-02T06:42:00Z</time>
      </trkpt>
      <trkpt lat="43.59438" lon="3.39833">
        <ele>338.4</ele>
        <time>2016-07-02T06:42:01Z</time>
      </trkpt>
      <trkpt lat="43.59443" lon="3.39841">
        <ele>337.8</ele>
        <time>2016-07-02T06:42:02Z</time>
      </trkpt>
      <trkpt lat="43.59448" lon="3.3985">
        <ele>337.2</ele>
        <time>2016-07-02T06:42:03Z</time>
      </trkpt>
      <trkpt lat="43.59452" lon="3.39858">
        <ele>336.7</ele>
        <time>2016-07-02T06:42:04Z</time>
      </trkpt>
      <trkpt lat="43.59458" lon="3.39877">
        <ele>335.7</ele>
        <time>2016-07-02T06:42:06Z</time>
      </trkpt>
      <trkpt lat="43.59462" lon="3.39888">
        <ele>335.2</ele>
        <time>2016-07-02T06:42:07Z</time>
      </trkpt>
      <trkpt lat="43.59465" lon="3.39898">
        <ele>334.9</ele>
        <time>2016-07-02T06:42:08Z</time>
      </trkpt>
      <trkpt lat="43.59468" lon="3.39909">
        <ele>334.6</ele>
        <time>2016-07-02T06:42:09Z</time>
      </trkpt>
      <trkpt lat="43.59473" lon="3.39917">
        <ele>334</ele>
        <time>2016-07-02T06:42:10Z</time>
      </trkpt>
      <trkpt lat="43.59478" lon="3.39925">
        <ele>333.5</ele>
        <time>2016-07-02T06:42:11Z</time>
      </trkpt>
      <trkpt lat="43.59483" lon="3.39933">
        <ele>333.6</ele>
        <time>2016-07-02T06:42:12Z</time>
      </trkpt>
      <trkpt lat="43.59494" lon="3.39948">
        <ele>332.5</ele>
        <time>2016-07-02T06:42:14Z</time>
      </trkpt>
      <trkpt lat="43.595" lon="3.39957">
        <ele>331.9</ele>
        <time>2016-07-02T06:42:15Z</time>
      </trkpt>
      <trkpt lat="43.59507" lon="3.39966">
        <ele>330.9</ele>
        <time>2016-07-02T06:42:16Z</time>
      </trkpt>
      <trkpt lat="43.59512" lon="3.39975">
        <ele>329.9</ele>
        <time>2016-07-02T06:42:17Z</time>
      </trkpt>
      <trkpt lat="43.59516" lon="3.39983">
        <ele>328.9</ele>
        <time>2016-07-02T06:42:18Z</time>
      </trkpt>
      <trkpt lat="43.5952" lon="3.39992">
        <ele>327.9</ele>
        <time>2016-07-02T06:42:19Z</time>
      </trkpt>
      <trkpt lat="43.59527" lon="3.40006">
        <ele>327.1</ele>
        <time>2016-07-02T06:42:21Z</time>
      </trkpt>
      <trkpt lat="43.59533" lon="3.40022">
        <ele>326.3</ele>
        <time>2016-07-02T06:42:23Z</time>
      </trkpt>
      <trkpt lat="43.59537" lon="3.40031">
        <ele>326</ele>
        <time>2016-07-02T06:42:24Z</time>
      </trkpt>
      <trkpt lat="43.5954" lon="3.4004">
        <ele>326.1</ele>
        <time>2016-07-02T06:42:25Z</time>
      </trkpt>
      <trkpt lat="43.59543" lon="3.40049">
        <ele>325.6</ele>
        <time>2016-07-02T06:42:26Z</time>
      </trkpt>
      <trkpt lat="43.5955" lon="3.40058">
        <ele>325</ele>
        <time>2016-07-02T06:42:27Z</time>
      </trkpt>
      <trkpt lat="43.59556" lon="3.40063">
        <ele>324.2</ele>
        <time>2016-07-02T06:42:28Z</time>
      </trkpt>
      <trkpt lat="43.5956" lon="3.40072">
        <ele>323.8</ele>
        <time>2016-07-02T06:42:29Z</time>
      </trkpt>
      <trkpt lat="43.59563" lon="3.40088">
        <ele>322.7</ele>
        <time>2016-07-02T06:42:31Z</time>
      </trkpt>
      <trkpt lat="43.59564" lon="3.40107">
        <ele>321.7</ele>
        <time>2016-07-02T06:42:33Z</time>
      </trkpt>
      <trkpt lat="43.5956" lon="3.40116">
        <ele>321.2</ele>
        <time>2016-07-02T06:42:34Z</time>
      </trkpt>
      <trkpt lat="43.59552" lon="3.4013">
        <ele>319.7</ele>
        <time>2016-07-02T06:42:36Z</time>
      </trkpt>
      <trkpt lat="43.59544" lon="3.40146">
        <ele>318.5</ele>
        <time>2016-07-02T06:42:38Z</time>
      </trkpt>
      <trkpt lat="43.5954" lon="3.40155">
        <ele>318</ele>
        <time>2016-07-02T06:42:39Z</time>
      </trkpt>
      <trkpt lat="43.59536" lon="3.40165">
        <ele>317.7</ele>
        <time>2016-07-02T06:42:40Z</time>
      </trkpt>
      <trkpt lat="43.59531" lon="3.40173">
        <ele>317.5</ele>
        <time>2016-07-02T06:42:41Z</time>
      </trkpt>
      <trkpt lat="43.59523" lon="3.40191">
        <ele>316.9</ele>
        <time>2016-07-02T06:42:43Z</time>
      </trkpt>
      <trkpt lat="43.59518" lon="3.402">
        <ele>316.3</ele>
        <time>2016-07-02T06:42:44Z</time>
      </trkpt>
      <trkpt lat="43.59509" lon="3.40215">
        <ele>314.1</ele>
        <time>2016-07-02T06:42:46Z</time>
      </trkpt>
      <trkpt lat="43.59499" lon="3.40228">
        <ele>312.8</ele>
        <time>2016-07-02T06:42:48Z</time>
      </trkpt>
      <trkpt lat="43.59487" lon="3.40239">
        <ele>312.1</ele>
        <time>2016-07-02T06:42:50Z</time>
      </trkpt>
      <trkpt lat="43.59479" lon="3.40244">
        <ele>311.8</ele>
        <time>2016-07-02T06:42:51Z</time>
      </trkpt>
      <trkpt lat="43.59471" lon="3.40249">
        <ele>311.4</ele>
        <time>2016-07-02T06:42:52Z</time>
      </trkpt>
      <trkpt lat="43.59463" lon="3.40252">
        <ele>311.2</ele>
        <time>2016-07-02T06:42:53Z</time>
      </trkpt>
      <trkpt lat="43.59452" lon="3.40258">
        <ele>310.9</ele>
        <time>2016-07-02T06:42:54Z</time>
      </trkpt>
      <trkpt lat="43.59443" lon="3.40261">
        <ele>310.1</ele>
        <time>2016-07-02T06:42:55Z</time>
      </trkpt>
      <trkpt lat="43.59433" lon="3.40263">
        <ele>309.3</ele>
        <time>2016-07-02T06:42:56Z</time>
      </trkpt>
      <trkpt lat="43.59424" lon="3.40263">
        <ele>308.3</ele>
        <time>2016-07-02T06:42:57Z</time>
      </trkpt>
      <trkpt lat="43.59416" lon="3.40264">
        <ele>307.3</ele>
        <time>2016-07-02T06:42:58Z</time>
      </trkpt>
      <trkpt lat="43.59403" lon="3.40273">
        <ele>305.1</ele>
        <time>2016-07-02T06:43:00Z</time>
      </trkpt>
      <trkpt lat="43.59397" lon="3.40278">
        <ele>304.2</ele>
        <time>2016-07-02T06:43:01Z</time>
      </trkpt>
      <trkpt lat="43.5939" lon="3.40283">
        <ele>303.2</ele>
        <time>2016-07-02T06:43:02Z</time>
      </trkpt>
      <trkpt lat="43.59382" lon="3.40288">
        <ele>302.4</ele>
        <time>2016-07-02T06:43:03Z</time>
      </trkpt>
      <trkpt lat="43.59376" lon="3.40292">
        <ele>301.6</ele>
        <time>2016-07-02T06:43:04Z</time>
      </trkpt>
      <trkpt lat="43.59362" lon="3.40294">
        <ele>300.2</ele>
        <time>2016-07-02T06:43:06Z</time>
      </trkpt>
      <trkpt lat="43.5935" lon="3.40303">
        <ele>299.3</ele>
        <time>2016-07-02T06:43:08Z</time>
      </trkpt>
      <trkpt lat="43.5934" lon="3.40311">
        <ele>298.1</ele>
        <time>2016-07-02T06:43:10Z</time>
      </trkpt>
      <trkpt lat="43.59333" lon="3.40315">
        <ele>297.4</ele>
        <time>2016-07-02T06:43:12Z</time>
      </trkpt>
      <trkpt lat="43.59322" lon="3.40316">
        <ele>296.3</ele>
        <time>2016-07-02T06:43:14Z</time>
      </trkpt>
      <trkpt lat="43.59314" lon="3.40316">
        <ele>295.8</ele>
        <time>2016-07-02T06:43:16Z</time>
      </trkpt>
      <trkpt lat="43.59305" lon="3.40315">
        <ele>295.7</ele>
        <time>2016-07-02T06:43:18Z</time>
      </trkpt>
      <trkpt lat="43.59294" lon="3.40316">
        <ele>295.9</ele>
        <time>2016-07-02T06:43:20Z</time>
      </trkpt>
      <trkpt lat="43.59284" lon="3.40317">
        <ele>295.6</ele>
        <time>2016-07-02T06:43:22Z</time>
      </trkpt>
      <trkpt lat="43.59274" lon="3.40317">
        <ele>295.8</ele>
        <time>2016-07-02T06:43:24Z</time>
      </trkpt>
      <trkpt lat="43.59263" lon="3.40318">
        <ele>295.7</ele>
        <time>2016-07-02T06:43:26Z</time>
      </trkpt>
      <trkpt lat="43.59253" lon="3.40318">
        <ele>296</ele>
        <time>2016-07-02T06:43:28Z</time>
      </trkpt>
      <trkpt lat="43.5924" lon="3.40318">
        <ele>296.1</ele>
        <time>2016-07-02T06:43:30Z</time>
      </trkpt>
      <trkpt lat="43.59228" lon="3.40318">
        <ele>295.8</ele>
        <time>2016-07-02T06:43:32Z</time>
      </trkpt>
      <trkpt lat="43.59216" lon="3.40319">
        <ele>295.2</ele>
        <time>2016-07-02T06:43:34Z</time>
      </trkpt>
      <trkpt lat="43.59205" lon="3.40327">
        <ele>294.4</ele>
        <time>2016-07-02T06:43:36Z</time>
      </trkpt>
      <trkpt lat="43.59198" lon="3.40332">
        <ele>293.7</ele>
        <time>2016-07-02T06:43:37Z</time>
      </trkpt>
      <trkpt lat="43.59187" lon="3.40337">
        <ele>291.7</ele>
        <time>2016-07-02T06:43:39Z</time>
      </trkpt>
      <trkpt lat="43.59179" lon="3.40336">
        <ele>291</ele>
        <time>2016-07-02T06:43:41Z</time>
      </trkpt>
      <trkpt lat="43.59175" lon="3.40346">
        <ele>290.8</ele>
        <time>2016-07-02T06:43:46Z</time>
      </trkpt>
      <trkpt lat="43.59182" lon="3.40354">
        <ele>289.5</ele>
        <time>2016-07-02T06:43:48Z</time>
      </trkpt>
      <trkpt lat="43.59191" lon="3.40364">
        <ele>288.4</ele>
        <time>2016-07-02T06:43:50Z</time>
      </trkpt>
      <trkpt lat="43.59201" lon="3.40375">
        <ele>287.3</ele>
        <time>2016-07-02T06:43:52Z</time>
      </trkpt>
      <trkpt lat="43.59208" lon="3.40381">
        <ele>286.8</ele>
        <time>2016-07-02T06:43:53Z</time>
      </trkpt>
      <trkpt lat="43.59214" lon="3.40386">
        <ele>286.2</ele>
        <time>2016-07-02T06:43:54Z</time>
      </trkpt>
      <trkpt lat="43.59226" lon="3.40396">
        <ele>285.1</ele>
        <time>2016-07-02T06:43:56Z</time>
      </trkpt>
      <trkpt lat="43.59233" lon="3.40401">
        <ele>284.7</ele>
        <time>2016-07-02T06:43:57Z</time>
      </trkpt>
      <trkpt lat="43.59239" lon="3.40405">
        <ele>284.4</ele>
        <time>2016-07-02T06:43:58Z</time>
      </trkpt>
      <trkpt lat="43.59252" lon="3.40409">
        <ele>284.1</ele>
        <time>2016-07-02T06:44:00Z</time>
      </trkpt>
      <trkpt lat="43.59261" lon="3.40409">
        <ele>283.9</ele>
        <time>2016-07-02T06:44:02Z</time>
      </trkpt>
      <trkpt lat="43.59267" lon="3.40407">
        <ele>284</ele>
        <time>2016-07-02T06:44:09Z</time>
      </trkpt>
      <trkpt lat="43.59275" lon="3.40403">
        <ele>284.1</ele>
        <time>2016-07-02T06:43:57Z</time>
      </trkpt>
      <trkpt lat="43.59284" lon="3.40402">
        <ele>284.5</ele>
        <time>2016-07-02T06:43:59Z</time>
      </trkpt>
      <trkpt lat="43.59295" lon="3.40402">
        <ele>284.5</ele>
        <time>2016-07-02T06:45:08Z</time>
      </trkpt>
      <trkpt lat="43.59304" lon="3.40402">
        <ele>284.5</ele>
        <time>2016-07-02T06:45:11Z</time>
      </trkpt>
      <trkpt lat="43.59314" lon="3.40403">
        <ele>284.4</ele>
        <time>2016-07-02T06:45:14Z</time>
      </trkpt>
      <trkpt lat="43.59324" lon="3.40402">
        <ele>284.2</ele>
        <time>2016-07-02T06:45:17Z</time>
      </trkpt>
      <trkpt lat="43.59332" lon="3.404">
        <ele>284.2</ele>
        <time>2016-07-02T06:45:19Z</time>
      </trkpt>
      <trkpt lat="43.5934" lon="3.40399">
        <ele>284.2</ele>
        <time>2016-07-02T06:45:22Z</time>
      </trkpt>
      <trkpt lat="43.59349" lon="3.40397">
        <ele>284.6</ele>
        <time>2016-07-02T06:45:24Z</time>
      </trkpt>
      <trkpt lat="43.5936" lon="3.40397">
        <ele>284.7</ele>
        <time>2016-07-02T06:45:27Z</time>
      </trkpt>
      <trkpt lat="43.59367" lon="3.40395">
        <ele>284.7</ele>
        <time>2016-07-02T06:45:29Z</time>
      </trkpt>
      <trkpt lat="43.59377" lon="3.40393">
        <ele>284.2</ele>
        <time>2016-07-02T06:45:32Z</time>
      </trkpt>
      <trkpt lat="43.59385" lon="3.40389">
        <ele>284.2</ele>
        <time>2016-07-02T06:45:34Z</time>
      </trkpt>
      <trkpt lat="43.59395" lon="3.40386">
        <ele>284.4</ele>
        <time>2016-07-02T06:45:37Z</time>
      </trkpt>
      <trkpt lat="43.59403" lon="3.40387">
        <ele>284.7</ele>
        <time>2016-07-02T06:45:40Z</time>
      </trkpt>
      <trkpt lat="43.59406" lon="3.40391">
        <ele>285.2</ele>
        <time>2016-07-02T06:45:47Z</time>
      </trkpt>
      <trkpt lat="43.59408" lon="3.40402">
        <ele>285.8</ele>
        <time>2016-07-02T06:46:17Z</time>
      </trkpt>
      <trkpt lat="43.59413" lon="3.4041">
        <ele>286.1</ele>
        <time>2016-07-02T06:46:20Z</time>
      </trkpt>
      <trkpt lat="43.59422" lon="3.4041">
        <ele>286.7</ele>
        <time>2016-07-02T06:46:24Z</time>
      </trkpt>
      <trkpt lat="43.59424" lon="3.40408">
        <ele>287.1</ele>
        <time>2016-07-02T06:46:31Z</time>
      </trkpt>
      <trkpt lat="43.59432" lon="3.40407">
        <ele>287.5</ele>
        <time>2016-07-02T06:46:27Z</time>
      </trkpt>
      <trkpt lat="43.5944" lon="3.40411">
        <ele>288.3</ele>
        <time>2016-07-02T06:46:29Z</time>
      </trkpt>
      <trkpt lat="43.59453" lon="3.40417">
        <ele>288.7</ele>
        <time>2016-07-02T06:46:31Z</time>
      </trkpt>
      <trkpt lat="43.5946" lon="3.40419">
        <ele>288.1</ele>
        <time>2016-07-02T06:46:32Z</time>
      </trkpt>
      <trkpt lat="43.59472" lon="3.40421">
        <ele>287.1</ele>
        <time>2016-07-02T06:46:34Z</time>
      </trkpt>
      <trkpt lat="43.59486" lon="3.40428">
        <ele>285.6</ele>
        <time>2016-07-02T06:46:36Z</time>
      </trkpt>
      <trkpt lat="43.59497" lon="3.40436">
        <ele>284.5</ele>
        <time>2016-07-02T06:46:38Z</time>
      </trkpt>
      <trkpt lat="43.59506" lon="3.40441">
        <ele>283.7</ele>
        <time>2016-07-02T06:46:40Z</time>
      </trkpt>
      <trkpt lat="43.59516" lon="3.40447">
        <ele>283.3</ele>
        <time>2016-07-02T06:46:42Z</time>
      </trkpt>
      <trkpt lat="43.59528" lon="3.40456">
        <ele>282.1</ele>
        <time>2016-07-02T06:46:44Z</time>
      </trkpt>
      <trkpt lat="43.5954" lon="3.40464">
        <ele>281</ele>
        <time>2016-07-02T06:46:46Z</time>
      </trkpt>
      <trkpt lat="43.59547" lon="3.40471">
        <ele>279.4</ele>
        <time>2016-07-02T06:46:48Z</time>
      </trkpt>
      <trkpt lat="43.59551" lon="3.40479">
        <ele>278.6</ele>
        <time>2016-07-02T06:46:50Z</time>
      </trkpt>
      <trkpt lat="43.5955" lon="3.40494">
        <ele>278.5</ele>
        <time>2016-07-02T06:47:59Z</time>
      </trkpt>
      <trkpt lat="43.5955" lon="3.40508">
        <ele>277.2</ele>
        <time>2016-07-02T06:48:02Z</time>
      </trkpt>
      <trkpt lat="43.59552" lon="3.40522">
        <ele>275.8</ele>
        <time>2016-07-02T06:48:05Z</time>
      </trkpt>
      <trkpt lat="43.59553" lon="3.40535">
        <ele>275.4</ele>
        <time>2016-07-02T06:48:08Z</time>
      </trkpt>
      <trkpt lat="43.59554" lon="3.40548">
        <ele>274.9</ele>
        <time>2016-07-02T06:48:11Z</time>
      </trkpt>
      <trkpt lat="43.59556" lon="3.40557">
        <ele>274.5</ele>
        <time>2016-07-02T06:48:14Z</time>
      </trkpt>
      <trkpt lat="43.59562" lon="3.4057">
        <ele>271.2</ele>
        <time>2016-07-02T06:48:17Z</time>
      </trkpt>
      <trkpt lat="43.59569" lon="3.40577">
        <ele>268.3</ele>
        <time>2016-07-02T06:48:19Z</time>
      </trkpt>
      <trkpt lat="43.59577" lon="3.40586">
        <ele>266.5</ele>
        <time>2016-07-02T06:48:21Z</time>
      </trkpt>
      <trkpt lat="43.59582" lon="3.40594">
        <ele>265.7</ele>
        <time>2016-07-02T06:48:23Z</time>
      </trkpt>
      <trkpt lat="43.59589" lon="3.40602">
        <ele>265.5</ele>
        <time>2016-07-02T06:48:26Z</time>
      </trkpt>
      <trkpt lat="43.59594" lon="3.40613">
        <ele>265.3</ele>
        <time>2016-07-02T06:48:29Z</time>
      </trkpt>
      <trkpt lat="43.596" lon="3.40622">
        <ele>264.8</ele>
        <time>2016-07-02T06:48:33Z</time>
      </trkpt>
      <trkpt lat="43.59608" lon="3.40623">
        <ele>264</ele>
        <time>2016-07-02T06:48:37Z</time>
      </trkpt>
      <trkpt lat="43.59614" lon="3.40632">
        <ele>262.6</ele>
        <time>2016-07-02T06:48:43Z</time>
      </trkpt>
      <trkpt lat="43.59621" lon="3.40637">
        <ele>259.4</ele>
        <time>2016-07-02T06:48:45Z</time>
      </trkpt>
      <trkpt lat="43.5963" lon="3.40639">
        <ele>255.3</ele>
        <time>2016-07-02T06:48:47Z</time>
      </trkpt>
      <trkpt lat="43.59637" lon="3.40641">
        <ele>253.6</ele>
        <time>2016-07-02T06:48:49Z</time>
      </trkpt>
      <trkpt lat="43.59644" lon="3.40636">
        <ele>253.2</ele>
        <time>2016-07-02T06:48:52Z</time>
      </trkpt>
      <trkpt lat="43.59649" lon="3.40625">
        <ele>252.8</ele>
        <time>2016-07-02T06:48:55Z</time>
      </trkpt>
      <trkpt lat="43.59659" lon="3.40624">
        <ele>250.5</ele>
        <time>2016-07-02T06:48:58Z</time>
      </trkpt>
      <trkpt lat="43.59669" lon="3.40622">
        <ele>249.9</ele>
        <time>2016-07-02T06:49:01Z</time>
      </trkpt>
      <trkpt lat="43.59676" lon="3.40618">
        <ele>249.2</ele>
        <time>2016-07-02T06:49:04Z</time>
      </trkpt>
      <trkpt lat="43.59678" lon="3.40618">
        <ele>247.7</ele>
        <time>2016-07-02T06:49:11Z</time>
      </trkpt>
      <trkpt lat="43.59685" lon="3.40625">
        <ele>243.4</ele>
        <time>2016-07-02T06:49:39Z</time>
      </trkpt>
      <trkpt lat="43.59694" lon="3.40622">
        <ele>242.6</ele>
        <time>2016-07-02T06:49:43Z</time>
      </trkpt>
      <trkpt lat="43.59703" lon="3.40621">
        <ele>241.7</ele>
        <time>2016-07-02T06:49:47Z</time>
      </trkpt>
      <trkpt lat="43.59712" lon="3.40619">
        <ele>240.8</ele>
        <time>2016-07-02T06:49:51Z</time>
      </trkpt>
      <trkpt lat="43.59721" lon="3.4062">
        <ele>239.9</ele>
        <time>2016-07-02T06:49:55Z</time>
      </trkpt>
      <trkpt lat="43.59724" lon="3.40619">
        <ele>238.8</ele>
        <time>2016-07-02T06:50:02Z</time>
      </trkpt>
      <trkpt lat="43.59731" lon="3.40619">
        <ele>238.2</ele>
        <time>2016-07-02T06:50:05Z</time>
      </trkpt>
      <trkpt lat="43.59742" lon="3.40624">
        <ele>237.6</ele>
        <time>2016-07-02T06:50:08Z</time>
      </trkpt>
      <trkpt lat="43.59751" lon="3.40624">
        <ele>233</ele>
        <time>2016-07-02T06:50:10Z</time>
      </trkpt>
      <trkpt lat="43.59759" lon="3.40622">
        <ele>229.5</ele>
        <time>2016-07-02T06:50:12Z</time>
      </trkpt>
      <trkpt lat="43.5977" lon="3.40622">
        <ele>227.5</ele>
        <time>2016-07-02T06:50:15Z</time>
      </trkpt>
      <trkpt lat="43.59778" lon="3.40625">
        <ele>225.8</ele>
        <time>2016-07-02T06:50:18Z</time>
      </trkpt>
      <trkpt lat="43.59777" lon="3.40638">
        <ele>223.8</ele>
        <time>2016-07-02T06:50:21Z</time>
      </trkpt>
      <trkpt lat="43.59778" lon="3.4065">
        <ele>221.6</ele>
        <time>2016-07-02T06:50:23Z</time>
      </trkpt>
      <trkpt lat="43.59779" lon="3.40662">
        <ele>219.4</ele>
        <time>2016-07-02T06:50:25Z</time>
      </trkpt>
      <trkpt lat="43.59781" lon="3.40674">
        <ele>217.5</ele>
        <time>2016-07-02T06:50:27Z</time>
      </trkpt>
      <trkpt lat="43.59785" lon="3.40684">
        <ele>216.9</ele>
        <time>2016-07-02T06:50:29Z</time>
      </trkpt>
      <trkpt lat="43.59787" lon="3.40696">
        <ele>216.6</ele>
        <time>2016-07-02T06:50:32Z</time>
      </trkpt>
      <trkpt lat="43.59782" lon="3.40709">
        <ele>214.1</ele>
        <time>2016-07-02T06:50:35Z</time>
      </trkpt>
      <trkpt lat="43.59779" lon="3.40721">
        <ele>212</ele>
        <time>2016-07-02T06:50:37Z</time>
      </trkpt>
      <trkpt lat="43.59774" lon="3.40732">
        <ele>211</ele>
        <time>2016-07-02T06:50:39Z</time>
      </trkpt>
      <trkpt lat="43.59769" lon="3.40743">
        <ele>208.5</ele>
        <time>2016-07-02T06:50:41Z</time>
      </trkpt>
      <trkpt lat="43.5977" lon="3.40756">
        <ele>206.6</ele>
        <time>2016-07-02T06:50:43Z</time>
      </trkpt>
      <trkpt lat="43.59778" lon="3.40763">
        <ele>206.4</ele>
        <time>2016-07-02T06:50:47Z</time>
      </trkpt>
      <trkpt lat="43.59787" lon="3.40767">
        <ele>205.4</ele>
        <time>2016-07-02T06:50:49Z</time>
      </trkpt>
      <trkpt lat="43.59796" lon="3.40771">
        <ele>204.5</ele>
        <time>2016-07-02T06:50:51Z</time>
      </trkpt>
      <trkpt lat="43.59804" lon="3.40773">
        <ele>204.3</ele>
        <time>2016-07-02T06:50:53Z</time>
      </trkpt>
      <trkpt lat="43.59812" lon="3.40766">
        <ele>202.8</ele>
        <time>2016-07-02T06:51:18Z</time>
      </trkpt>
      <trkpt lat="43.59821" lon="3.40765">
        <ele>202.6</ele>
        <time>2016-07-02T06:51:20Z</time>
      </trkpt>
      <trkpt lat="43.59828" lon="3.40766">
        <ele>202.4</ele>
        <time>2016-07-02T06:51:22Z</time>
      </trkpt>
      <trkpt lat="43.59836" lon="3.4076">
        <ele>201.8</ele>
        <time>2016-07-02T06:51:26Z</time>
      </trkpt>
      <trkpt lat="43.59843" lon="3.40764">
        <ele>201.1</ele>
        <time>2016-07-02T06:51:30Z</time>
      </trkpt>
      <trkpt lat="43.59848" lon="3.40762">
        <ele>199.7</ele>
        <time>2016-07-02T06:51:37Z</time>
      </trkpt>
      <trkpt lat="43.5985" lon="3.40765">
        <ele>193.5</ele>
        <time>2016-07-02T06:53:34Z</time>
      </trkpt>
      <trkpt lat="43.5985" lon="3.40761">
        <ele>192.1</ele>
        <time>2016-07-02T06:54:11Z</time>
      </trkpt>
      <trkpt lat="43.59848" lon="3.40751">
        <ele>191.8</ele>
        <time>2016-07-02T06:54:16Z</time>
      </trkpt>
      <trkpt lat="43.59853" lon="3.4074">
        <ele>189.1</ele>
        <time>2016-07-02T06:54:19Z</time>
      </trkpt>
      <trkpt lat="43.59861" lon="3.40731">
        <ele>187.2</ele>
        <time>2016-07-02T06:54:21Z</time>
      </trkpt>
      <trkpt lat="43.59868" lon="3.40722">
        <ele>186.6</ele>
        <time>2016-07-02T06:54:23Z</time>
      </trkpt>
      <trkpt lat="43.59875" lon="3.40712">
        <ele>186.2</ele>
        <time>2016-07-02T06:54:25Z</time>
      </trkpt>
      <trkpt lat="43.59882" lon="3.407">
        <ele>185.1</ele>
        <time>2016-07-02T06:54:27Z</time>
      </trkpt>
      <trkpt lat="43.59894" lon="3.40684">
        <ele>183.5</ele>
        <time>2016-07-02T06:54:29Z</time>
      </trkpt>
      <trkpt lat="43.599" lon="3.40677">
        <ele>182.7</ele>
        <time>2016-07-02T06:54:30Z</time>
      </trkpt>
      <trkpt lat="43.59907" lon="3.40669">
        <ele>182</ele>
        <time>2016-07-02T06:54:31Z</time>
      </trkpt>
      <trkpt lat="43.59913" lon="3.40662">
        <ele>181.2</ele>
        <time>2016-07-02T06:54:32Z</time>
      </trkpt>
      <trkpt lat="43.5992" lon="3.40654">
        <ele>180.1</ele>
        <time>2016-07-02T06:54:33Z</time>
      </trkpt>
      <trkpt lat="43.59928" lon="3.40647">
        <ele>178.6</ele>
        <time>2016-07-02T06:54:34Z</time>
      </trkpt>
      <trkpt lat="43.59935" lon="3.40641">
        <ele>177.5</ele>
        <time>2016-07-02T06:54:35Z</time>
      </trkpt>
      <trkpt lat="43.59941" lon="3.40635">
        <ele>176.8</ele>
        <time>2016-07-02T06:54:36Z</time>
      </trkpt>
      <trkpt lat="43.59947" lon="3.40627">
        <ele>176.1</ele>
        <time>2016-07-02T06:54:37Z</time>
      </trkpt>
      <trkpt lat="43.59951" lon="3.40613">
        <ele>175.3</ele>
        <time>2016-07-02T06:54:39Z</time>
      </trkpt>
      <trkpt lat="43.59956" lon="3.40599">
        <ele>174.7</ele>
        <time>2016-07-02T06:54:41Z</time>
      </trkpt>
      <trkpt lat="43.59961" lon="3.4059">
        <ele>175.3</ele>
        <time>2016-07-02T06:54:43Z</time>
      </trkpt>
      <trkpt lat="43.59965" lon="3.40583">
        <ele>175.4</ele>
        <time>2016-07-02T06:54:45Z</time>
      </trkpt>
      <trkpt lat="43.59971" lon="3.40576">
        <ele>176.2</ele>
        <time>2016-07-02T06:54:47Z</time>
      </trkpt>
      <trkpt lat="43.59977" lon="3.4057">
        <ele>176.3</ele>
        <time>2016-07-02T06:54:49Z</time>
      </trkpt>
      <trkpt lat="43.59986" lon="3.40566">
        <ele>176.7</ele>
        <time>2016-07-02T06:54:52Z</time>
      </trkpt>
      <trkpt lat="43.59995" lon="3.40567">
        <ele>177.2</ele>
        <time>2016-07-02T06:54:55Z</time>
      </trkpt>
      <trkpt lat="43.60005" lon="3.40571">
        <ele>177.7</ele>
        <time>2016-07-02T06:54:58Z</time>
      </trkpt>
      <trkpt lat="43.60014" lon="3.40575">
        <ele>178.2</ele>
        <time>2016-07-02T06:55:01Z</time>
      </trkpt>
      <trkpt lat="43.60023" lon="3.40575">
        <ele>178.7</ele>
        <time>2016-07-02T06:55:04Z</time>
      </trkpt>
      <trkpt lat="43.60031" lon="3.40572">
        <ele>179.2</ele>
        <time>2016-07-02T06:55:07Z</time>
      </trkpt>
      <trkpt lat="43.60037" lon="3.40564">
        <ele>179.5</ele>
        <time>2016-07-02T06:55:10Z</time>
      </trkpt>
      <trkpt lat="43.6004" lon="3.40556">
        <ele>179.7</ele>
        <time>2016-07-02T06:55:13Z</time>
      </trkpt>
      <trkpt lat="43.60043" lon="3.40545">
        <ele>180.1</ele>
        <time>2016-07-02T06:55:17Z</time>
      </trkpt>
      <trkpt lat="43.60047" lon="3.40534">
        <ele>180.5</ele>
        <time>2016-07-02T06:55:21Z</time>
      </trkpt>
      <trkpt lat="43.60049" lon="3.40522">
        <ele>180.8</ele>
        <time>2016-07-02T06:55:25Z</time>
      </trkpt>
      <trkpt lat="43.60053" lon="3.40511">
        <ele>181.2</ele>
        <time>2016-07-02T06:55:30Z</time>
      </trkpt>
      <trkpt lat="43.60054" lon="3.40508">
        <ele>181.6</ele>
        <time>2016-07-02T06:55:37Z</time>
      </trkpt>
      <trkpt lat="43.60058" lon="3.40497">
        <ele>182.3</ele>
        <time>2016-07-02T06:55:42Z</time>
      </trkpt>
      <trkpt lat="43.60063" lon="3.40486">
        <ele>182.7</ele>
        <time>2016-07-02T06:55:46Z</time>
      </trkpt>
      <trkpt lat="43.60068" lon="3.40477">
        <ele>183</ele>
        <time>2016-07-02T06:55:50Z</time>
      </trkpt>
      <trkpt lat="43.60072" lon="3.40466">
        <ele>183.5</ele>
        <time>2016-07-02T06:55:54Z</time>
      </trkpt>
      <trkpt lat="43.60075" lon="3.40456">
        <ele>183.7</ele>
        <time>2016-07-02T06:55:57Z</time>
      </trkpt>
      <trkpt lat="43.60076" lon="3.40444">
        <ele>184</ele>
        <time>2016-07-02T06:56:01Z</time>
      </trkpt>
      <trkpt lat="43.60077" lon="3.40433">
        <ele>184.5</ele>
        <time>2016-07-02T06:56:05Z</time>
      </trkpt>
      <trkpt lat="43.60077" lon="3.40422">
        <ele>184.7</ele>
        <time>2016-07-02T06:56:08Z</time>
      </trkpt>
      <trkpt lat="43.60078" lon="3.4041">
        <ele>184.9</ele>
        <time>2016-07-02T06:56:11Z</time>
      </trkpt>
      <trkpt lat="43.60078" lon="3.404">
        <ele>185</ele>
        <time>2016-07-02T06:56:14Z</time>
      </trkpt>
      <trkpt lat="43.6008" lon="3.40389">
        <ele>185.1</ele>
        <time>2016-07-02T06:56:17Z</time>
      </trkpt>
      <trkpt lat="43.60083" lon="3.40378">
        <ele>185.2</ele>
        <time>2016-07-02T06:56:20Z</time>
      </trkpt>
      <trkpt lat="43.60086" lon="3.40368">
        <ele>185.3</ele>
        <time>2016-07-02T06:56:23Z</time>
      </trkpt>
      <trkpt lat="43.6009" lon="3.40357">
        <ele>185.3</ele>
        <time>2016-07-02T06:56:26Z</time>
      </trkpt>
      <trkpt lat="43.60094" lon="3.40345">
        <ele>185.5</ele>
        <time>2016-07-02T06:56:30Z</time>
      </trkpt>
      <trkpt lat="43.60095" lon="3.40332">
        <ele>185.8</ele>
        <time>2016-07-02T06:56:34Z</time>
      </trkpt>
      <trkpt lat="43.60094" lon="3.40321">
        <ele>186</ele>
        <time>2016-07-02T06:56:38Z</time>
      </trkpt>
      <trkpt lat="43.60092" lon="3.40311">
        <ele>185.9</ele>
        <time>2016-07-02T06:56:42Z</time>
      </trkpt>
      <trkpt lat="43.60092" lon="3.40299">
        <ele>186.2</ele>
        <time>2016-07-02T06:56:46Z</time>
      </trkpt>
      <trkpt lat="43.60092" lon="3.40285">
        <ele>186.5</ele>
        <time>2016-07-02T06:56:49Z</time>
      </trkpt>
      <trkpt lat="43.60093" lon="3.40271">
        <ele>186.7</ele>
        <time>2016-07-02T06:56:52Z</time>
      </trkpt>
      <trkpt lat="43.60096" lon="3.4026">
        <ele>187.5</ele>
        <time>2016-07-02T06:56:54Z</time>
      </trkpt>
      <trkpt lat="43.60099" lon="3.4025">
        <ele>187.5</ele>
        <time>2016-07-02T06:56:56Z</time>
      </trkpt>
      <trkpt lat="43.60105" lon="3.40239">
        <ele>187.4</ele>
        <time>2016-07-02T06:56:58Z</time>
      </trkpt>
      <trkpt lat="43.60114" lon="3.40229">
        <ele>187.1</ele>
        <time>2016-07-02T06:57:00Z</time>
      </trkpt>
      <trkpt lat="43.60125" lon="3.40224">
        <ele>187.2</ele>
        <time>2016-07-02T06:57:02Z</time>
      </trkpt>
      <trkpt lat="43.60138" lon="3.40225">
        <ele>186.9</ele>
        <time>2016-07-02T06:57:04Z</time>
      </trkpt>
      <trkpt lat="43.60146" lon="3.40226">
        <ele>186.6</ele>
        <time>2016-07-02T06:57:05Z</time>
      </trkpt>
      <trkpt lat="43.60153" lon="3.40227">
        <ele>186.3</ele>
        <time>2016-07-02T06:57:06Z</time>
      </trkpt>
      <trkpt lat="43.60161" lon="3.40228">
        <ele>186</ele>
        <time>2016-07-02T06:57:07Z</time>
      </trkpt>
      <trkpt lat="43.60168" lon="3.40233">
        <ele>185.5</ele>
        <time>2016-07-02T06:57:08Z</time>
      </trkpt>
      <trkpt lat="43.60174" lon="3.40239">
        <ele>185</ele>
        <time>2016-07-02T06:57:09Z</time>
      </trkpt>
      <trkpt lat="43.6018" lon="3.40246">
        <ele>184.2</ele>
        <time>2016-07-02T06:57:10Z</time>
      </trkpt>
      <trkpt lat="43.60187" lon="3.40252">
        <ele>183.1</ele>
        <time>2016-07-02T06:57:11Z</time>
      </trkpt>
      <trkpt lat="43.60193" lon="3.40259">
        <ele>182.5</ele>
        <time>2016-07-02T06:57:12Z</time>
      </trkpt>
      <trkpt lat="43.602" lon="3.40266">
        <ele>182</ele>
        <time>2016-07-02T06:57:13Z</time>
      </trkpt>
      <trkpt lat="43.60206" lon="3.40274">
        <ele>181.5</ele>
        <time>2016-07-02T06:57:14Z</time>
      </trkpt>
      <trkpt lat="43.6021" lon="3.40283">
        <ele>180.9</ele>
        <time>2016-07-02T06:57:15Z</time>
      </trkpt>
      <trkpt lat="43.60215" lon="3.40295">
        <ele>180.7</ele>
        <time>2016-07-02T06:57:16Z</time>
      </trkpt>
      <trkpt lat="43.60217" lon="3.40306">
        <ele>180.3</ele>
        <time>2016-07-02T06:57:17Z</time>
      </trkpt>
      <trkpt lat="43.60221" lon="3.4032">
        <ele>179.8</ele>
        <time>2016-07-02T06:57:18Z</time>
      </trkpt>
      <trkpt lat="43.60224" lon="3.40333">
        <ele>178.9</ele>
        <time>2016-07-02T06:57:19Z</time>
      </trkpt>
      <trkpt lat="43.60231" lon="3.40344">
        <ele>178</ele>
        <time>2016-07-02T06:57:20Z</time>
      </trkpt>
      <trkpt lat="43.60237" lon="3.40354">
        <ele>176.8</ele>
        <time>2016-07-02T06:57:21Z</time>
      </trkpt>
      <trkpt lat="43.60242" lon="3.40364">
        <ele>175.8</ele>
        <time>2016-07-02T06:57:22Z</time>
      </trkpt>
      <trkpt lat="43.60243" lon="3.40378">
        <ele>173.7</ele>
        <time>2016-07-02T06:57:24Z</time>
      </trkpt>
      <trkpt lat="43.6024" lon="3.4039">
        <ele>171.6</ele>
        <time>2016-07-02T06:57:26Z</time>
      </trkpt>
      <trkpt lat="43.60235" lon="3.40404">
        <ele>169.7</ele>
        <time>2016-07-02T06:57:28Z</time>
      </trkpt>
      <trkpt lat="43.60228" lon="3.40417">
        <ele>168.4</ele>
        <time>2016-07-02T06:57:30Z</time>
      </trkpt>
      <trkpt lat="43.60219" lon="3.40429">
        <ele>168</ele>
        <time>2016-07-02T06:57:32Z</time>
      </trkpt>
      <trkpt lat="43.60209" lon="3.40438">
        <ele>167.9</ele>
        <time>2016-07-02T06:57:34Z</time>
      </trkpt>
      <trkpt lat="43.60199" lon="3.40447">
        <ele>167.8</ele>
        <time>2016-07-02T06:57:36Z</time>
      </trkpt>
      <trkpt lat="43.60193" lon="3.40455">
        <ele>167.9</ele>
        <time>2016-07-02T06:57:38Z</time>
      </trkpt>
      <trkpt lat="43.60192" lon="3.40467">
        <ele>167</ele>
        <time>2016-07-02T06:57:40Z</time>
      </trkpt>
      <trkpt lat="43.60194" lon="3.40479">
        <ele>166.8</ele>
        <time>2016-07-02T06:57:42Z</time>
      </trkpt>
      <trkpt lat="43.602" lon="3.40491">
        <ele>167.7</ele>
        <time>2016-07-02T06:57:44Z</time>
      </trkpt>
      <trkpt lat="43.60206" lon="3.40502">
        <ele>167.7</ele>
        <time>2016-07-02T06:57:46Z</time>
      </trkpt>
      <trkpt lat="43.60211" lon="3.40511">
        <ele>168.5</ele>
        <time>2016-07-02T06:57:48Z</time>
      </trkpt>
      <trkpt lat="43.60217" lon="3.40522">
        <ele>169.3</ele>
        <time>2016-07-02T06:57:50Z</time>
      </trkpt>
      <trkpt lat="43.60224" lon="3.40534">
        <ele>169.6</ele>
        <time>2016-07-02T06:57:52Z</time>
      </trkpt>
      <trkpt lat="43.60229" lon="3.40545">
        <ele>169.2</ele>
        <time>2016-07-02T06:57:54Z</time>
      </trkpt>
      <trkpt lat="43.60232" lon="3.40556">
        <ele>168.8</ele>
        <time>2016-07-02T06:57:56Z</time>
      </trkpt>
      <trkpt lat="43.60235" lon="3.40568">
        <ele>168.8</ele>
        <time>2016-07-02T06:57:59Z</time>
      </trkpt>
      <trkpt lat="43.60242" lon="3.40574">
        <ele>169</ele>
        <time>2016-07-02T06:58:03Z</time>
      </trkpt>
      <trkpt lat="43.6025" lon="3.40578">
        <ele>169.3</ele>
        <time>2016-07-02T06:58:06Z</time>
      </trkpt>
      <trkpt lat="43.60259" lon="3.40581">
        <ele>169.6</ele>
        <time>2016-07-02T06:58:09Z</time>
      </trkpt>
      <trkpt lat="43.60268" lon="3.40584">
        <ele>169.8</ele>
        <time>2016-07-02T06:58:12Z</time>
      </trkpt>
      <trkpt lat="43.60278" lon="3.40585">
        <ele>170.1</ele>
        <time>2016-07-02T06:58:15Z</time>
      </trkpt>
      <trkpt lat="43.60287" lon="3.40585">
        <ele>170.6</ele>
        <time>2016-07-02T06:58:18Z</time>
      </trkpt>
      <trkpt lat="43.60297" lon="3.40583">
        <ele>171</ele>
        <time>2016-07-02T06:58:21Z</time>
      </trkpt>
      <trkpt lat="43.60304" lon="3.40583">
        <ele>171.4</ele>
        <time>2016-07-02T06:58:24Z</time>
      </trkpt>
      <trkpt lat="43.60313" lon="3.40582">
        <ele>171.9</ele>
        <time>2016-07-02T06:58:27Z</time>
      </trkpt>
      <trkpt lat="43.60321" lon="3.40582">
        <ele>172.4</ele>
        <time>2016-07-02T06:58:30Z</time>
      </trkpt>
      <trkpt lat="43.60332" lon="3.40584">
        <ele>172.7</ele>
        <time>2016-07-02T06:58:33Z</time>
      </trkpt>
      <trkpt lat="43.6034" lon="3.40586">
        <ele>173.4</ele>
        <time>2016-07-02T06:58:35Z</time>
      </trkpt>
      <trkpt lat="43.60348" lon="3.4059">
        <ele>175</ele>
        <time>2016-07-02T06:58:37Z</time>
      </trkpt>
      <trkpt lat="43.60356" lon="3.40594">
        <ele>175.7</ele>
        <time>2016-07-02T06:58:39Z</time>
      </trkpt>
      <trkpt lat="43.60364" lon="3.40599">
        <ele>175.5</ele>
        <time>2016-07-02T06:58:41Z</time>
      </trkpt>
      <trkpt lat="43.6037" lon="3.40606">
        <ele>175.5</ele>
        <time>2016-07-02T06:58:43Z</time>
      </trkpt>
      <trkpt lat="43.60377" lon="3.40612">
        <ele>175.6</ele>
        <time>2016-07-02T06:58:45Z</time>
      </trkpt>
      <trkpt lat="43.60384" lon="3.40618">
        <ele>175.7</ele>
        <time>2016-07-02T06:58:48Z</time>
      </trkpt>
      <trkpt lat="43.60391" lon="3.40626">
        <ele>175.8</ele>
        <time>2016-07-02T06:58:51Z</time>
      </trkpt>
      <trkpt lat="43.60397" lon="3.40632">
        <ele>175.8</ele>
        <time>2016-07-02T06:58:54Z</time>
      </trkpt>
      <trkpt lat="43.60405" lon="3.40638">
        <ele>175.9</ele>
        <time>2016-07-02T06:58:58Z</time>
      </trkpt>
      <trkpt lat="43.60412" lon="3.40645">
        <ele>176.1</ele>
        <time>2016-07-02T06:59:01Z</time>
      </trkpt>
      <trkpt lat="43.60417" lon="3.40654">
        <ele>176.4</ele>
        <time>2016-07-02T06:59:05Z</time>
      </trkpt>
      <trkpt lat="43.60424" lon="3.40661">
        <ele>176.7</ele>
        <time>2016-07-02T06:59:09Z</time>
      </trkpt>
      <trkpt lat="43.60432" lon="3.40666">
        <ele>176.8</ele>
        <time>2016-07-02T06:59:12Z</time>
      </trkpt>
      <trkpt lat="43.6044" lon="3.40671">
        <ele>178</ele>
        <time>2016-07-02T06:59:14Z</time>
      </trkpt>
      <trkpt lat="43.60449" lon="3.40673">
        <ele>178.7</ele>
        <time>2016-07-02T06:59:16Z</time>
      </trkpt>
      <trkpt lat="43.60457" lon="3.40672">
        <ele>178.7</ele>
        <time>2016-07-02T06:59:18Z</time>
      </trkpt>
      <trkpt lat="43.60465" lon="3.40669">
        <ele>178.6</ele>
        <time>2016-07-02T06:59:21Z</time>
      </trkpt>
      <trkpt lat="43.60472" lon="3.40664">
        <ele>178.6</ele>
        <time>2016-07-02T06:59:24Z</time>
      </trkpt>
      <trkpt lat="43.6048" lon="3.40657">
        <ele>178.8</ele>
        <time>2016-07-02T06:59:28Z</time>
      </trkpt>
      <trkpt lat="43.6049" lon="3.40649">
        <ele>179.1</ele>
        <time>2016-07-02T06:59:31Z</time>
      </trkpt>
      <trkpt lat="43.60499" lon="3.40644">
        <ele>178.9</ele>
        <time>2016-07-02T06:59:33Z</time>
      </trkpt>
      <trkpt lat="43.60506" lon="3.40641">
        <ele>179</ele>
        <time>2016-07-02T06:59:34Z</time>
      </trkpt>
      <trkpt lat="43.60518" lon="3.4064">
        <ele>178.8</ele>
        <time>2016-07-02T06:59:36Z</time>
      </trkpt>
      <trkpt lat="43.60526" lon="3.40642">
        <ele>178.7</ele>
        <time>2016-07-02T06:59:38Z</time>
      </trkpt>
      <trkpt lat="43.60533" lon="3.40634">
        <ele>178.2</ele>
        <time>2016-07-02T06:59:44Z</time>
      </trkpt>
      <trkpt lat="43.6054" lon="3.40636">
        <ele>178</ele>
        <time>2016-07-02T06:59:46Z</time>
      </trkpt>
      <trkpt lat="43.60546" lon="3.40642">
        <ele>177.8</ele>
        <time>2016-07-02T06:59:48Z</time>
      </trkpt>
      <trkpt lat="43.60553" lon="3.40649">
        <ele>177.7</ele>
        <time>2016-07-02T06:59:51Z</time>
      </trkpt>
      <trkpt lat="43.60564" lon="3.40652">
        <ele>177.6</ele>
        <time>2016-07-02T06:59:56Z</time>
      </trkpt>
      <trkpt lat="43.60572" lon="3.40654">
        <ele>177.7</ele>
        <time>2016-07-02T07:00:00Z</time>
      </trkpt>
      <trkpt lat="43.60579" lon="3.40649">
        <ele>178</ele>
        <time>2016-07-02T07:00:05Z</time>
      </trkpt>
      <trkpt lat="43.60588" lon="3.40645">
        <ele>178.1</ele>
        <time>2016-07-02T07:00:08Z</time>
      </trkpt>
      <trkpt lat="43.60594" lon="3.40636">
        <ele>178.3</ele>
        <time>2016-07-02T07:00:14Z</time>
      </trkpt>
      <trkpt lat="43.60598" lon="3.40626">
        <ele>178.6</ele>
        <time>2016-07-02T07:00:18Z</time>
      </trkpt>
      <trkpt lat="43.60604" lon="3.40616">
        <ele>178.9</ele>
        <time>2016-07-02T07:00:23Z</time>
      </trkpt>
      <trkpt lat="43.6061" lon="3.40607">
        <ele>179</ele>
        <time>2016-07-02T07:00:27Z</time>
      </trkpt>
      <trkpt lat="43.60615" lon="3.40598">
        <ele>178.9</ele>
        <time>2016-07-02T07:00:31Z</time>
      </trkpt>
      <trkpt lat="43.60621" lon="3.40593">
        <ele>179</ele>
        <time>2016-07-02T07:00:34Z</time>
      </trkpt>
      <trkpt lat="43.60628" lon="3.40588">
        <ele>179.2</ele>
        <time>2016-07-02T07:00:38Z</time>
      </trkpt>
      <trkpt lat="43.60635" lon="3.40585">
        <ele>179.4</ele>
        <time>2016-07-02T07:00:41Z</time>
      </trkpt>
      <trkpt lat="43.60643" lon="3.40584">
        <ele>179.5</ele>
        <time>2016-07-02T07:00:46Z</time>
      </trkpt>
      <trkpt lat="43.60651" lon="3.40587">
        <ele>179.8</ele>
        <time>2016-07-02T07:00:50Z</time>
      </trkpt>
      <trkpt lat="43.60658" lon="3.40588">
        <ele>179.9</ele>
        <time>2016-07-02T07:00:54Z</time>
      </trkpt>
      <trkpt lat="43.60667" lon="3.40591">
        <ele>180.1</ele>
        <time>2016-07-02T07:01:01Z</time>
      </trkpt>
      <trkpt lat="43.60674" lon="3.40595">
        <ele>180.2</ele>
        <time>2016-07-02T07:01:05Z</time>
      </trkpt>
      <trkpt lat="43.60681" lon="3.40599">
        <ele>180.3</ele>
        <time>2016-07-02T07:01:09Z</time>
      </trkpt>
      <trkpt lat="43.6069" lon="3.40601">
        <ele>180.8</ele>
        <time>2016-07-02T07:01:14Z</time>
      </trkpt>
      <trkpt lat="43.60698" lon="3.40603">
        <ele>181.2</ele>
        <time>2016-07-02T07:01:20Z</time>
      </trkpt>
      <trkpt lat="43.60706" lon="3.40607">
        <ele>181.3</ele>
        <time>2016-07-02T07:01:24Z</time>
      </trkpt>
      <trkpt lat="43.60714" lon="3.40608">
        <ele>182</ele>
        <time>2016-07-02T07:01:30Z</time>
      </trkpt>
      <trkpt lat="43.60721" lon="3.40612">
        <ele>182.5</ele>
        <time>2016-07-02T07:01:36Z</time>
      </trkpt>
      <trkpt lat="43.60719" lon="3.40614">
        <ele>182.7</ele>
        <time>2016-07-02T07:01:43Z</time>
      </trkpt>
      <trkpt lat="43.60711" lon="3.40615">
        <ele>182.8</ele>
        <time>2016-07-02T07:01:48Z</time>
      </trkpt>
      <trkpt lat="43.60704" lon="3.40619">
        <ele>182.9</ele>
        <time>2016-07-02T07:01:53Z</time>
      </trkpt>
      <trkpt lat="43.60696" lon="3.40626">
        <ele>183.4</ele>
        <time>2016-07-02T07:01:59Z</time>
      </trkpt>
      <trkpt lat="43.60688" lon="3.40628">
        <ele>184</ele>
        <time>2016-07-02T07:02:05Z</time>
      </trkpt>
      <trkpt lat="43.60687" lon="3.40628">
        <ele>184.5</ele>
        <time>2016-07-02T07:02:12Z</time>
      </trkpt>
      <trkpt lat="43.6068" lon="3.40634">
        <ele>186.8</ele>
        <time>2016-07-02T07:02:36Z</time>
      </trkpt>
      <trkpt lat="43.60674" lon="3.40639">
        <ele>187.2</ele>
        <time>2016-07-02T07:02:43Z</time>
      </trkpt>
      <trkpt lat="43.60669" lon="3.40647">
        <ele>187.5</ele>
        <time>2016-07-02T07:02:47Z</time>
      </trkpt>
      <trkpt lat="43.60665" lon="3.40657">
        <ele>187.9</ele>
        <time>2016-07-02T07:02:52Z</time>
      </trkpt>
      <trkpt lat="43.6066" lon="3.40664">
        <ele>188.2</ele>
        <time>2016-07-02T07:02:56Z</time>
      </trkpt>
      <trkpt lat="43.60653" lon="3.40673">
        <ele>188.5</ele>
        <time>2016-07-02T07:02:59Z</time>
      </trkpt>
      <trkpt lat="43.60647" lon="3.4068">
        <ele>188.9</ele>
        <time>2016-07-02T07:03:03Z</time>
      </trkpt>
      <trkpt lat="43.60642" lon="3.40689">
        <ele>189.4</ele>
        <time>2016-07-02T07:03:08Z</time>
      </trkpt>
      <trkpt lat="43.60639" lon="3.40699">
        <ele>189.9</ele>
        <time>2016-07-02T07:03:12Z</time>
      </trkpt>
      <trkpt lat="43.60637" lon="3.40708">
        <ele>190.3</ele>
        <time>2016-07-02T07:03:16Z</time>
      </trkpt>
      <trkpt lat="43.60634" lon="3.40718">
        <ele>190.6</ele>
        <time>2016-07-02T07:03:20Z</time>
      </trkpt>
      <trkpt lat="43.60632" lon="3.40727">
        <ele>190.9</ele>
        <time>2016-07-02T07:03:24Z</time>
      </trkpt>
      <trkpt lat="43.60632" lon="3.40738">
        <ele>191.3</ele>
        <time>2016-07-02T07:03:28Z</time>
      </trkpt>
      <trkpt lat="43.6063" lon="3.40751">
        <ele>191.6</ele>
        <time>2016-07-02T07:03:33Z</time>
      </trkpt>
      <trkpt lat="43.60627" lon="3.40762">
        <ele>192.1</ele>
        <time>2016-07-02T07:03:38Z</time>
      </trkpt>
      <trkpt lat="43.60624" lon="3.40772">
        <ele>192.4</ele>
        <time>2016-07-02T07:03:42Z</time>
      </trkpt>
      <trkpt lat="43.60618" lon="3.40781">
        <ele>192.6</ele>
        <time>2016-07-02T07:03:46Z</time>
      </trkpt>
      <trkpt lat="43.60613" lon="3.40791">
        <ele>193</ele>
        <time>2016-07-02T07:03:50Z</time>
      </trkpt>
      <trkpt lat="43.60608" lon="3.40799">
        <ele>193.4</ele>
        <time>2016-07-02T07:03:54Z</time>
      </trkpt>
      <trkpt lat="43.60601" lon="3.40805">
        <ele>193.7</ele>
        <time>2016-07-02T07:03:58Z</time>
      </trkpt>
      <trkpt lat="43.60595" lon="3.40811">
        <ele>193.9</ele>
        <time>2016-07-02T07:04:02Z</time>
      </trkpt>
      <trkpt lat="43.60593" lon="3.40822">
        <ele>194.7</ele>
        <time>2016-07-02T07:04:08Z</time>
      </trkpt>
      <trkpt lat="43.60592" lon="3.40834">
        <ele>195.3</ele>
        <time>2016-07-02T07:04:12Z</time>
      </trkpt>
      <trkpt lat="43.60593" lon="3.40846">
        <ele>195.8</ele>
        <time>2016-07-02T07:04:18Z</time>
      </trkpt>
      <trkpt lat="43.60596" lon="3.40857">
        <ele>196.5</ele>
        <time>2016-07-02T07:04:23Z</time>
      </trkpt>
      <trkpt lat="43.60591" lon="3.40866">
        <ele>197.5</ele>
        <time>2016-07-02T07:04:29Z</time>
      </trkpt>
      <trkpt lat="43.60587" lon="3.40874">
        <ele>198.3</ele>
        <time>2016-07-02T07:04:34Z</time>
      </trkpt>
      <trkpt lat="43.60582" lon="3.40885">
        <ele>199.5</ele>
        <time>2016-07-02T07:04:41Z</time>
      </trkpt>
      <trkpt lat="43.60578" lon="3.40894">
        <ele>200.8</ele>
        <time>2016-07-02T07:04:47Z</time>
      </trkpt>
      <trkpt lat="43.60571" lon="3.40901">
        <ele>201.8</ele>
        <time>2016-07-02T07:04:54Z</time>
      </trkpt>
      <trkpt lat="43.60566" lon="3.40905">
        <ele>202.8</ele>
        <time>2016-07-02T07:05:01Z</time>
      </trkpt>
      <trkpt lat="43.60566" lon="3.40909">
        <ele>203.8</ele>
        <time>2016-07-02T07:05:08Z</time>
      </trkpt>
      <trkpt lat="43.60564" lon="3.40917">
        <ele>205.2</ele>
        <time>2016-07-02T07:05:15Z</time>
      </trkpt>
      <trkpt lat="43.60564" lon="3.40929">
        <ele>206.3</ele>
        <time>2016-07-02T07:05:21Z</time>
      </trkpt>
      <trkpt lat="43.60568" lon="3.40936">
        <ele>207.7</ele>
        <time>2016-07-02T07:05:28Z</time>
      </trkpt>
      <trkpt lat="43.60574" lon="3.4094">
        <ele>209.2</ele>
        <time>2016-07-02T07:05:35Z</time>
      </trkpt>
      <trkpt lat="43.6058" lon="3.40941">
        <ele>210.2</ele>
        <time>2016-07-02T07:05:42Z</time>
      </trkpt>
      <trkpt lat="43.60584" lon="3.40943">
        <ele>211</ele>
        <time>2016-07-02T07:05:49Z</time>
      </trkpt>
      <trkpt lat="43.60587" lon="3.40946">
        <ele>212.4</ele>
        <time>2016-07-02T07:05:56Z</time>
      </trkpt>
      <trkpt lat="43.60593" lon="3.40949">
        <ele>214.4</ele>
        <time>2016-07-02T07:06:03Z</time>
      </trkpt>
      <trkpt lat="43.606" lon="3.40956">
        <ele>215.9</ele>
        <time>2016-07-02T07:06:10Z</time>
      </trkpt>
      <trkpt lat="43.60604" lon="3.40958">
        <ele>217.7</ele>
        <time>2016-07-02T07:06:17Z</time>
      </trkpt>
      <trkpt lat="43.60611" lon="3.40964">
        <ele>220.2</ele>
        <time>2016-07-02T07:06:32Z</time>
      </trkpt>
      <trkpt lat="43.6062" lon="3.40962">
        <ele>220.8</ele>
        <time>2016-07-02T07:06:37Z</time>
      </trkpt>
      <trkpt lat="43.60627" lon="3.40959">
        <ele>221.6</ele>
        <time>2016-07-02T07:06:41Z</time>
      </trkpt>
      <trkpt lat="43.60634" lon="3.40954">
        <ele>222.3</ele>
        <time>2016-07-02T07:06:45Z</time>
      </trkpt>
      <trkpt lat="43.60642" lon="3.40949">
        <ele>222.7</ele>
        <time>2016-07-02T07:06:49Z</time>
      </trkpt>
      <trkpt lat="43.60648" lon="3.40943">
        <ele>223.1</ele>
        <time>2016-07-02T07:06:53Z</time>
      </trkpt>
      <trkpt lat="43.60653" lon="3.40935">
        <ele>223.4</ele>
        <time>2016-07-02T07:06:56Z</time>
      </trkpt>
      <trkpt lat="43.60661" lon="3.40931">
        <ele>223.7</ele>
        <time>2016-07-02T07:06:59Z</time>
      </trkpt>
      <trkpt lat="43.60668" lon="3.40927">
        <ele>224</ele>
        <time>2016-07-02T07:07:01Z</time>
      </trkpt>
      <trkpt lat="43.60675" lon="3.40922">
        <ele>224.2</ele>
        <time>2016-07-02T07:07:03Z</time>
      </trkpt>
      <trkpt lat="43.60684" lon="3.40917">
        <ele>224.5</ele>
        <time>2016-07-02T07:07:06Z</time>
      </trkpt>
      <trkpt lat="43.60693" lon="3.40913">
        <ele>224.9</ele>
        <time>2016-07-02T07:07:09Z</time>
      </trkpt>
      <trkpt lat="43.60701" lon="3.4091">
        <ele>225.2</ele>
        <time>2016-07-02T07:07:11Z</time>
      </trkpt>
      <trkpt lat="43.6071" lon="3.40907">
        <ele>225.5</ele>
        <time>2016-07-02T07:07:14Z</time>
      </trkpt>
      <trkpt lat="43.6072" lon="3.40906">
        <ele>225.8</ele>
        <time>2016-07-02T07:07:17Z</time>
      </trkpt>
      <trkpt lat="43.60728" lon="3.40908">
        <ele>226</ele>
        <time>2016-07-02T07:07:21Z</time>
      </trkpt>
      <trkpt lat="43.60736" lon="3.40913">
        <ele>226</ele>
        <time>2016-07-02T07:07:26Z</time>
      </trkpt>
      <trkpt lat="43.60743" lon="3.40917">
        <ele>226.2</ele>
        <time>2016-07-02T07:07:31Z</time>
      </trkpt>
      <trkpt lat="43.6075" lon="3.40922">
        <ele>226.8</ele>
        <time>2016-07-02T07:07:36Z</time>
      </trkpt>
      <trkpt lat="43.60756" lon="3.40929">
        <ele>227.5</ele>
        <time>2016-07-02T07:07:41Z</time>
      </trkpt>
      <trkpt lat="43.60763" lon="3.40934">
        <ele>228.3</ele>
        <time>2016-07-02T07:07:47Z</time>
      </trkpt>
      <trkpt lat="43.60769" lon="3.40942">
        <ele>228.9</ele>
        <time>2016-07-02T07:07:52Z</time>
      </trkpt>
      <trkpt lat="43.60776" lon="3.40948">
        <ele>229.8</ele>
        <time>2016-07-02T07:07:58Z</time>
      </trkpt>
      <trkpt lat="43.60784" lon="3.4095">
        <ele>230.6</ele>
        <time>2016-07-02T07:08:03Z</time>
      </trkpt>
      <trkpt lat="43.60793" lon="3.40951">
        <ele>231.4</ele>
        <time>2016-07-02T07:08:07Z</time>
      </trkpt>
      <trkpt lat="43.608" lon="3.40951">
        <ele>232.3</ele>
        <time>2016-07-02T07:08:12Z</time>
      </trkpt>
      <trkpt lat="43.60807" lon="3.40953">
        <ele>233.1</ele>
        <time>2016-07-02T07:08:17Z</time>
      </trkpt>
      <trkpt lat="43.60815" lon="3.40951">
        <ele>234.2</ele>
        <time>2016-07-02T07:08:22Z</time>
      </trkpt>
      <trkpt lat="43.60823" lon="3.40947">
        <ele>234.5</ele>
        <time>2016-07-02T07:08:24Z</time>
      </trkpt>
      <trkpt lat="43.60831" lon="3.40944">
        <ele>235.7</ele>
        <time>2016-07-02T07:08:26Z</time>
      </trkpt>
      <trkpt lat="43.60841" lon="3.40942">
        <ele>236.2</ele>
        <time>2016-07-02T07:08:28Z</time>
      </trkpt>
      <trkpt lat="43.60853" lon="3.40939">
        <ele>236.7</ele>
        <time>2016-07-02T07:08:30Z</time>
      </trkpt>
      <trkpt lat="43.60865" lon="3.40939">
        <ele>236.8</ele>
        <time>2016-07-02T07:08:32Z</time>
      </trkpt>
      <trkpt lat="43.60877" lon="3.40938">
        <ele>237</ele>
        <time>2016-07-02T07:08:34Z</time>
      </trkpt>
      <trkpt lat="43.60891" lon="3.40936">
        <ele>237.6</ele>
        <time>2016-07-02T07:08:36Z</time>
      </trkpt>
      <trkpt lat="43.60904" lon="3.40933">
        <ele>238.1</ele>
        <time>2016-07-02T07:08:38Z</time>
      </trkpt>
      <trkpt lat="43.60914" lon="3.40927">
        <ele>237.7</ele>
        <time>2016-07-02T07:08:40Z</time>
      </trkpt>
      <trkpt lat="43.60926" lon="3.4092">
        <ele>236.8</ele>
        <time>2016-07-02T07:08:42Z</time>
      </trkpt>
      <trkpt lat="43.60937" lon="3.40912">
        <ele>234.8</ele>
        <time>2016-07-02T07:08:44Z</time>
      </trkpt>
      <trkpt lat="43.6095" lon="3.40903">
        <ele>232.3</ele>
        <time>2016-07-02T07:08:46Z</time>
      </trkpt>
      <trkpt lat="43.60963" lon="3.40902">
        <ele>230.7</ele>
        <time>2016-07-02T07:08:48Z</time>
      </trkpt>
      <trkpt lat="43.60974" lon="3.40903">
        <ele>229.8</ele>
        <time>2016-07-02T07:08:50Z</time>
      </trkpt>
      <trkpt lat="43.60985" lon="3.40903">
        <ele>229.1</ele>
        <time>2016-07-02T07:08:52Z</time>
      </trkpt>
      <trkpt lat="43.60994" lon="3.40903">
        <ele>228.9</ele>
        <time>2016-07-02T07:08:54Z</time>
      </trkpt>
      <trkpt lat="43.61002" lon="3.40903">
        <ele>228.5</ele>
        <time>2016-07-02T07:08:56Z</time>
      </trkpt>
      <trkpt lat="43.6101" lon="3.40902">
        <ele>229</ele>
        <time>2016-07-02T07:08:58Z</time>
      </trkpt>
      <trkpt lat="43.61021" lon="3.40902">
        <ele>229.3</ele>
        <time>2016-07-02T07:09:00Z</time>
      </trkpt>
      <trkpt lat="43.6103" lon="3.40905">
        <ele>229.6</ele>
        <time>2016-07-02T07:09:02Z</time>
      </trkpt>
      <trkpt lat="43.61042" lon="3.40909">
        <ele>228.9</ele>
        <time>2016-07-02T07:09:04Z</time>
      </trkpt>
      <trkpt lat="43.6105" lon="3.40915">
        <ele>228.9</ele>
        <time>2016-07-02T07:09:07Z</time>
      </trkpt>
      <trkpt lat="43.61051" lon="3.40927">
        <ele>228.7</ele>
        <time>2016-07-02T07:09:11Z</time>
      </trkpt>
      <trkpt lat="43.61053" lon="3.40937">
        <ele>228.6</ele>
        <time>2016-07-02T07:09:15Z</time>
      </trkpt>
      <trkpt lat="43.6106" lon="3.40945">
        <ele>228.6</ele>
        <time>2016-07-02T07:09:17Z</time>
      </trkpt>
      <trkpt lat="43.6107" lon="3.40949">
        <ele>229.1</ele>
        <time>2016-07-02T07:09:20Z</time>
      </trkpt>
      <trkpt lat="43.61081" lon="3.40946">
        <ele>229.1</ele>
        <time>2016-07-02T07:09:23Z</time>
      </trkpt>
      <trkpt lat="43.61089" lon="3.40946">
        <ele>229</ele>
        <time>2016-07-02T07:09:25Z</time>
      </trkpt>
      <trkpt lat="43.61099" lon="3.40948">
        <ele>229.1</ele>
        <time>2016-07-02T07:09:28Z</time>
      </trkpt>
      <trkpt lat="43.61107" lon="3.40952">
        <ele>228.8</ele>
        <time>2016-07-02T07:09:30Z</time>
      </trkpt>
      <trkpt lat="43.61117" lon="3.4096">
        <ele>227.7</ele>
        <time>2016-07-02T07:09:32Z</time>
      </trkpt>
      <trkpt lat="43.61124" lon="3.40967">
        <ele>227.5</ele>
        <time>2016-07-02T07:09:34Z</time>
      </trkpt>
      <trkpt lat="43.61133" lon="3.40975">
        <ele>227.9</ele>
        <time>2016-07-02T07:09:36Z</time>
      </trkpt>
      <trkpt lat="43.6114" lon="3.40982">
        <ele>227.6</ele>
        <time>2016-07-02T07:09:38Z</time>
      </trkpt>
      <trkpt lat="43.61149" lon="3.40989">
        <ele>226.9</ele>
        <time>2016-07-02T07:09:40Z</time>
      </trkpt>
      <trkpt lat="43.61157" lon="3.40995">
        <ele>227.1</ele>
        <time>2016-07-02T07:09:42Z</time>
      </trkpt>
      <trkpt lat="43.61164" lon="3.41001">
        <ele>227</ele>
        <time>2016-07-02T07:09:44Z</time>
      </trkpt>
      <trkpt lat="43.61172" lon="3.41008">
        <ele>226.5</ele>
        <time>2016-07-02T07:09:46Z</time>
      </trkpt>
      <trkpt lat="43.61181" lon="3.41015">
        <ele>227</ele>
        <time>2016-07-02T07:09:48Z</time>
      </trkpt>
      <trkpt lat="43.61189" lon="3.41021">
        <ele>226.6</ele>
        <time>2016-07-02T07:09:50Z</time>
      </trkpt>
      <trkpt lat="43.612" lon="3.41031">
        <ele>226.6</ele>
        <time>2016-07-02T07:09:52Z</time>
      </trkpt>
      <trkpt lat="43.61211" lon="3.41038">
        <ele>226</ele>
        <time>2016-07-02T07:09:54Z</time>
      </trkpt>
      <trkpt lat="43.61222" lon="3.41043">
        <ele>224.6</ele>
        <time>2016-07-02T07:09:56Z</time>
      </trkpt>
      <trkpt lat="43.61233" lon="3.4105">
        <ele>223</ele>
        <time>2016-07-02T07:09:58Z</time>
      </trkpt>
      <trkpt lat="43.61243" lon="3.41054">
        <ele>222.2</ele>
        <time>2016-07-02T07:10:00Z</time>
      </trkpt>
      <trkpt lat="43.61253" lon="3.41058">
        <ele>221.1</ele>
        <time>2016-07-02T07:10:02Z</time>
      </trkpt>
      <trkpt lat="43.61262" lon="3.41058">
        <ele>221</ele>
        <time>2016-07-02T07:10:04Z</time>
      </trkpt>
      <trkpt lat="43.61272" lon="3.41055">
        <ele>220.9</ele>
        <time>2016-07-02T07:10:07Z</time>
      </trkpt>
      <trkpt lat="43.61281" lon="3.4105">
        <ele>220.7</ele>
        <time>2016-07-02T07:10:10Z</time>
      </trkpt>
      <trkpt lat="43.61291" lon="3.41045">
        <ele>220.5</ele>
        <time>2016-07-02T07:10:13Z</time>
      </trkpt>
      <trkpt lat="43.61298" lon="3.41042">
        <ele>220.2</ele>
        <time>2016-07-02T07:10:17Z</time>
      </trkpt>
      <trkpt lat="43.613" lon="3.41053">
        <ele>219.7</ele>
        <time>2016-07-02T07:10:23Z</time>
      </trkpt>
      <trkpt lat="43.61297" lon="3.41063">
        <ele>219.6</ele>
        <time>2016-07-02T07:10:28Z</time>
      </trkpt>
      <trkpt lat="43.61294" lon="3.41074">
        <ele>219.5</ele>
        <time>2016-07-02T07:10:33Z</time>
      </trkpt>
      <trkpt lat="43.61291" lon="3.41085">
        <ele>219.4</ele>
        <time>2016-07-02T07:10:40Z</time>
      </trkpt>
      <trkpt lat="43.61287" lon="3.41094">
        <ele>219.2</ele>
        <time>2016-07-02T07:10:45Z</time>
      </trkpt>
      <trkpt lat="43.61284" lon="3.41103">
        <ele>219.2</ele>
        <time>2016-07-02T07:10:50Z</time>
      </trkpt>
      <trkpt lat="43.61281" lon="3.41115">
        <ele>219.5</ele>
        <time>2016-07-02T07:10:56Z</time>
      </trkpt>
      <trkpt lat="43.61276" lon="3.41124">
        <ele>219.9</ele>
        <time>2016-07-02T07:11:01Z</time>
      </trkpt>
      <trkpt lat="43.61272" lon="3.41134">
        <ele>220.7</ele>
        <time>2016-07-02T07:11:07Z</time>
      </trkpt>
      <trkpt lat="43.61272" lon="3.41144">
        <ele>221.5</ele>
        <time>2016-07-02T07:11:12Z</time>
      </trkpt>
      <trkpt lat="43.61271" lon="3.41154">
        <ele>222.7</ele>
        <time>2016-07-02T07:11:18Z</time>
      </trkpt>
      <trkpt lat="43.61269" lon="3.41165">
        <ele>223.9</ele>
        <time>2016-07-02T07:11:24Z</time>
      </trkpt>
      <trkpt lat="43.61271" lon="3.41177">
        <ele>225.2</ele>
        <time>2016-07-02T07:11:31Z</time>
      </trkpt>
      <trkpt lat="43.61272" lon="3.41186">
        <ele>226.2</ele>
        <time>2016-07-02T07:11:37Z</time>
      </trkpt>
      <trkpt lat="43.61274" lon="3.41189">
        <ele>227.1</ele>
        <time>2016-07-02T07:11:44Z</time>
      </trkpt>
      <trkpt lat="43.61281" lon="3.41199">
        <ele>231</ele>
        <time>2016-07-02T07:12:16Z</time>
      </trkpt>
      <trkpt lat="43.61285" lon="3.41208">
        <ele>231.4</ele>
        <time>2016-07-02T07:12:20Z</time>
      </trkpt>
      <trkpt lat="43.61286" lon="3.4121">
        <ele>232.3</ele>
        <time>2016-07-02T07:12:27Z</time>
      </trkpt>
      <trkpt lat="43.61288" lon="3.41216">
        <ele>233.4</ele>
        <time>2016-07-02T07:12:34Z</time>
      </trkpt>
      <trkpt lat="43.61292" lon="3.41225">
        <ele>234.6</ele>
        <time>2016-07-02T07:12:41Z</time>
      </trkpt>
      <trkpt lat="43.61293" lon="3.41229">
        <ele>235.9</ele>
        <time>2016-07-02T07:12:48Z</time>
      </trkpt>
      <trkpt lat="43.61292" lon="3.41237">
        <ele>237.6</ele>
        <time>2016-07-02T07:12:55Z</time>
      </trkpt>
      <trkpt lat="43.61296" lon="3.41247">
        <ele>238.8</ele>
        <time>2016-07-02T07:13:00Z</time>
      </trkpt>
      <trkpt lat="43.61293" lon="3.41258">
        <ele>240.4</ele>
        <time>2016-07-02T07:13:09Z</time>
      </trkpt>
      <trkpt lat="43.61294" lon="3.41264">
        <ele>241.7</ele>
        <time>2016-07-02T07:13:16Z</time>
      </trkpt>
      <trkpt lat="43.61295" lon="3.41273">
        <ele>242.8</ele>
        <time>2016-07-02T07:13:23Z</time>
      </trkpt>
      <trkpt lat="43.61295" lon="3.41284">
        <ele>243.9</ele>
        <time>2016-07-02T07:13:29Z</time>
      </trkpt>
      <trkpt lat="43.61295" lon="3.41294">
        <ele>245.3</ele>
        <time>2016-07-02T07:13:36Z</time>
      </trkpt>
      <trkpt lat="43.61296" lon="3.413">
        <ele>247</ele>
        <time>2016-07-02T07:13:43Z</time>
      </trkpt>
      <trkpt lat="43.61296" lon="3.4131">
        <ele>248.1</ele>
        <time>2016-07-02T07:13:48Z</time>
      </trkpt>
      <trkpt lat="43.61296" lon="3.41321">
        <ele>249.3</ele>
        <time>2016-07-02T07:13:55Z</time>
      </trkpt>
      <trkpt lat="43.61297" lon="3.41331">
        <ele>250.5</ele>
        <time>2016-07-02T07:14:02Z</time>
      </trkpt>
      <trkpt lat="43.61294" lon="3.41336">
        <ele>251.9</ele>
        <time>2016-07-02T07:14:09Z</time>
      </trkpt>
      <trkpt lat="43.61291" lon="3.41347">
        <ele>253.3</ele>
        <time>2016-07-02T07:14:16Z</time>
      </trkpt>
      <trkpt lat="43.61291" lon="3.41358">
        <ele>254.6</ele>
        <time>2016-07-02T07:14:23Z</time>
      </trkpt>
      <trkpt lat="43.61288" lon="3.41363">
        <ele>255.9</ele>
        <time>2016-07-02T07:14:30Z</time>
      </trkpt>
      <trkpt lat="43.61286" lon="3.4137">
        <ele>257.8</ele>
        <time>2016-07-02T07:14:37Z</time>
      </trkpt>
      <trkpt lat="43.61284" lon="3.41376">
        <ele>259.4</ele>
        <time>2016-07-02T07:14:44Z</time>
      </trkpt>
      <trkpt lat="43.61281" lon="3.41384">
        <ele>260.6</ele>
        <time>2016-07-02T07:14:51Z</time>
      </trkpt>
      <trkpt lat="43.61277" lon="3.4139">
        <ele>261.5</ele>
        <time>2016-07-02T07:14:58Z</time>
      </trkpt>
      <trkpt lat="43.61271" lon="3.41397">
        <ele>262.6</ele>
        <time>2016-07-02T07:15:05Z</time>
      </trkpt>
      <trkpt lat="43.61264" lon="3.414">
        <ele>263.5</ele>
        <time>2016-07-02T07:15:12Z</time>
      </trkpt>
      <trkpt lat="43.61258" lon="3.41402">
        <ele>264.2</ele>
        <time>2016-07-02T07:15:19Z</time>
      </trkpt>
      <trkpt lat="43.61254" lon="3.41406">
        <ele>265.3</ele>
        <time>2016-07-02T07:15:26Z</time>
      </trkpt>
      <trkpt lat="43.6125" lon="3.41409">
        <ele>266.4</ele>
        <time>2016-07-02T07:15:33Z</time>
      </trkpt>
      <trkpt lat="43.61244" lon="3.41413">
        <ele>267.5</ele>
        <time>2016-07-02T07:15:40Z</time>
      </trkpt>
      <trkpt lat="43.6124" lon="3.41418">
        <ele>268.6</ele>
        <time>2016-07-02T07:15:47Z</time>
      </trkpt>
      <trkpt lat="43.61237" lon="3.41422">
        <ele>269.9</ele>
        <time>2016-07-02T07:15:54Z</time>
      </trkpt>
      <trkpt lat="43.6124" lon="3.41433">
        <ele>272.1</ele>
        <time>2016-07-02T07:16:50Z</time>
      </trkpt>
      <trkpt lat="43.61241" lon="3.41433">
        <ele>272.8</ele>
        <time>2016-07-02T07:16:57Z</time>
      </trkpt>
      <trkpt lat="43.6124" lon="3.41431">
        <ele>272.9</ele>
        <time>2016-07-02T07:17:04Z</time>
      </trkpt>
      <trkpt lat="43.61239" lon="3.41429">
        <ele>273.5</ele>
        <time>2016-07-02T07:17:16Z</time>
      </trkpt>
      <trkpt lat="43.61241" lon="3.41427">
        <ele>274</ele>
        <time>2016-07-02T07:17:35Z</time>
      </trkpt>
      <trkpt lat="43.61238" lon="3.41428">
        <ele>274.4</ele>
        <time>2016-07-02T07:18:01Z</time>
      </trkpt>
      <trkpt lat="43.61237" lon="3.41426">
        <ele>274.5</ele>
        <time>2016-07-02T07:18:08Z</time>
      </trkpt>
      <trkpt lat="43.61238" lon="3.41427">
        <ele>275.3</ele>
        <time>2016-07-02T07:20:16Z</time>
      </trkpt>
      <trkpt lat="43.61236" lon="3.41429">
        <ele>275.6</ele>
        <time>2016-07-02T07:20:27Z</time>
      </trkpt>
      <trkpt lat="43.61239" lon="3.41428">
        <ele>275.8</ele>
        <time>2016-07-02T07:20:45Z</time>
      </trkpt>
      <trkpt lat="43.6124" lon="3.41425">
        <ele>275.9</ele>
        <time>2016-07-02T07:20:52Z</time>
      </trkpt>
      <trkpt lat="43.61237" lon="3.41426">
        <ele>276</ele>
        <time>2016-07-02T07:22:11Z</time>
      </trkpt>
      <trkpt lat="43.61238" lon="3.41426">
        <ele>276.1</ele>
        <time>2016-07-02T07:22:18Z</time>
      </trkpt>
      <trkpt lat="43.61236" lon="3.41428">
        <ele>276.5</ele>
        <time>2016-07-02T07:22:35Z</time>
      </trkpt>
      <trkpt lat="43.61238" lon="3.41428">
        <ele>276.7</ele>
        <time>2016-07-02T07:22:56Z</time>
      </trkpt>
      <trkpt lat="43.61238" lon="3.41428">
        <ele>276.9</ele>
        <time>2016-07-02T07:23:14Z</time>
      </trkpt>
      <trkpt lat="43.61235" lon="3.41429">
        <ele>276.7</ele>
        <time>2016-07-02T07:23:33Z</time>
      </trkpt>
      <trkpt lat="43.61236" lon="3.41428">
        <ele>276</ele>
        <time>2016-07-02T07:24:18Z</time>
      </trkpt>
      <trkpt lat="43.61229" lon="3.41428">
        <ele>276</ele>
        <time>2016-07-02T07:24:57Z</time>
      </trkpt>
      <trkpt lat="43.61232" lon="3.41431">
        <ele>276</ele>
        <time>2016-07-02T07:25:04Z</time>
      </trkpt>
      <trkpt lat="43.61228" lon="3.41435">
        <ele>275.8</ele>
        <time>2016-07-02T07:25:17Z</time>
      </trkpt>
      <trkpt lat="43.61223" lon="3.41444">
        <ele>276</ele>
        <time>2016-07-02T07:25:24Z</time>
      </trkpt>
      <trkpt lat="43.61216" lon="3.41449">
        <ele>276.2</ele>
        <time>2016-07-02T07:25:29Z</time>
      </trkpt>
      <trkpt lat="43.61208" lon="3.41449">
        <ele>276.4</ele>
        <time>2016-07-02T07:25:34Z</time>
      </trkpt>
      <trkpt lat="43.61199" lon="3.41449">
        <ele>276.8</ele>
        <time>2016-07-02T07:25:40Z</time>
      </trkpt>
      <trkpt lat="43.61192" lon="3.41447">
        <ele>277.3</ele>
        <time>2016-07-02T07:25:45Z</time>
      </trkpt>
      <trkpt lat="43.61184" lon="3.41446">
        <ele>278</ele>
        <time>2016-07-02T07:25:50Z</time>
      </trkpt>
      <trkpt lat="43.61176" lon="3.41443">
        <ele>278.8</ele>
        <time>2016-07-02T07:25:56Z</time>
      </trkpt>
      <trkpt lat="43.61169" lon="3.41437">
        <ele>279.8</ele>
        <time>2016-07-02T07:26:03Z</time>
      </trkpt>
      <trkpt lat="43.61163" lon="3.41428">
        <ele>280.8</ele>
        <time>2016-07-02T07:26:09Z</time>
      </trkpt>
      <trkpt lat="43.61159" lon="3.41418">
        <ele>281.7</ele>
        <time>2016-07-02T07:26:16Z</time>
      </trkpt>
      <trkpt lat="43.61153" lon="3.41409">
        <ele>282.4</ele>
        <time>2016-07-02T07:26:21Z</time>
      </trkpt>
      <trkpt lat="43.61148" lon="3.41402">
        <ele>283.2</ele>
        <time>2016-07-02T07:26:26Z</time>
      </trkpt>
      <trkpt lat="43.61144" lon="3.41392">
        <ele>284.5</ele>
        <time>2016-07-02T07:26:32Z</time>
      </trkpt>
      <trkpt lat="43.6114" lon="3.41382">
        <ele>285.4</ele>
        <time>2016-07-02T07:26:37Z</time>
      </trkpt>
      <trkpt lat="43.61133" lon="3.41375">
        <ele>286.1</ele>
        <time>2016-07-02T07:26:42Z</time>
      </trkpt>
      <trkpt lat="43.61126" lon="3.41369">
        <ele>287.1</ele>
        <time>2016-07-02T07:26:48Z</time>
      </trkpt>
      <trkpt lat="43.61119" lon="3.41362">
        <ele>287.8</ele>
        <time>2016-07-02T07:26:53Z</time>
      </trkpt>
      <trkpt lat="43.61113" lon="3.41355">
        <ele>288.4</ele>
        <time>2016-07-02T07:26:57Z</time>
      </trkpt>
      <trkpt lat="43.61106" lon="3.41348">
        <ele>289</ele>
        <time>2016-07-02T07:27:01Z</time>
      </trkpt>
      <trkpt lat="43.611" lon="3.41339">
        <ele>289.5</ele>
        <time>2016-07-02T07:27:06Z</time>
      </trkpt>
      <trkpt lat="43.61093" lon="3.41334">
        <ele>289.9</ele>
        <time>2016-07-02T07:27:10Z</time>
      </trkpt>
      <trkpt lat="43.61086" lon="3.41328">
        <ele>290.4</ele>
        <time>2016-07-02T07:27:14Z</time>
      </trkpt>
      <trkpt lat="43.6108" lon="3.4132">
        <ele>290.9</ele>
        <time>2016-07-02T07:27:18Z</time>
      </trkpt>
      <trkpt lat="43.61074" lon="3.41312">
        <ele>291.3</ele>
        <time>2016-07-02T07:27:22Z</time>
      </trkpt>
      <trkpt lat="43.61069" lon="3.41304">
        <ele>291.5</ele>
        <time>2016-07-02T07:27:25Z</time>
      </trkpt>
      <trkpt lat="43.61063" lon="3.41294">
        <ele>291.9</ele>
        <time>2016-07-02T07:27:29Z</time>
      </trkpt>
      <trkpt lat="43.61057" lon="3.41286">
        <ele>292.4</ele>
        <time>2016-07-02T07:27:33Z</time>
      </trkpt>
      <trkpt lat="43.61051" lon="3.41279">
        <ele>292.8</ele>
        <time>2016-07-02T07:27:37Z</time>
      </trkpt>
      <trkpt lat="43.61045" lon="3.41274">
        <ele>293.3</ele>
        <time>2016-07-02T07:27:41Z</time>
      </trkpt>
      <trkpt lat="43.61038" lon="3.41271">
        <ele>293.8</ele>
        <time>2016-07-02T07:27:45Z</time>
      </trkpt>
      <trkpt lat="43.61031" lon="3.41266">
        <ele>294.3</ele>
        <time>2016-07-02T07:27:49Z</time>
      </trkpt>
      <trkpt lat="43.61025" lon="3.4126">
        <ele>294.8</ele>
        <time>2016-07-02T07:27:53Z</time>
      </trkpt>
      <trkpt lat="43.61019" lon="3.41251">
        <ele>295.4</ele>
        <time>2016-07-02T07:27:57Z</time>
      </trkpt>
      <trkpt lat="43.61014" lon="3.41241">
        <ele>296</ele>
        <time>2016-07-02T07:28:01Z</time>
      </trkpt>
      <trkpt lat="43.61007" lon="3.41235">
        <ele>296.6</ele>
        <time>2016-07-02T07:28:05Z</time>
      </trkpt>
      <trkpt lat="43.60998" lon="3.41233">
        <ele>297.2</ele>
        <time>2016-07-02T07:28:09Z</time>
      </trkpt>
      <trkpt lat="43.60989" lon="3.41229">
        <ele>297.8</ele>
        <time>2016-07-02T07:28:13Z</time>
      </trkpt>
      <trkpt lat="43.60981" lon="3.41224">
        <ele>298.4</ele>
        <time>2016-07-02T07:28:17Z</time>
      </trkpt>
      <trkpt lat="43.60974" lon="3.41218">
        <ele>299.1</ele>
        <time>2016-07-02T07:28:21Z</time>
      </trkpt>
      <trkpt lat="43.60966" lon="3.41211">
        <ele>299.9</ele>
        <time>2016-07-02T07:28:25Z</time>
      </trkpt>
      <trkpt lat="43.60958" lon="3.41204">
        <ele>300.3</ele>
        <time>2016-07-02T07:28:29Z</time>
      </trkpt>
      <trkpt lat="43.6095" lon="3.41202">
        <ele>300.9</ele>
        <time>2016-07-02T07:28:34Z</time>
      </trkpt>
      <trkpt lat="43.6094" lon="3.41204">
        <ele>302.9</ele>
        <time>2016-07-02T07:28:37Z</time>
      </trkpt>
      <trkpt lat="43.60932" lon="3.41203">
        <ele>303.8</ele>
        <time>2016-07-02T07:28:39Z</time>
      </trkpt>
      <trkpt lat="43.60924" lon="3.41203">
        <ele>304.6</ele>
        <time>2016-07-02T07:28:41Z</time>
      </trkpt>
      <trkpt lat="43.60914" lon="3.41203">
        <ele>304.7</ele>
        <time>2016-07-02T07:28:44Z</time>
      </trkpt>
      <trkpt lat="43.60904" lon="3.41205">
        <ele>304.8</ele>
        <time>2016-07-02T07:28:47Z</time>
      </trkpt>
      <trkpt lat="43.60897" lon="3.41207">
        <ele>304.9</ele>
        <time>2016-07-02T07:28:49Z</time>
      </trkpt>
      <trkpt lat="43.60889" lon="3.41209">
        <ele>304.9</ele>
        <time>2016-07-02T07:28:51Z</time>
      </trkpt>
      <trkpt lat="43.60878" lon="3.41211">
        <ele>304.8</ele>
        <time>2016-07-02T07:28:54Z</time>
      </trkpt>
      <trkpt lat="43.6087" lon="3.41213">
        <ele>304.1</ele>
        <time>2016-07-02T07:28:56Z</time>
      </trkpt>
      <trkpt lat="43.60863" lon="3.41217">
        <ele>304.1</ele>
        <time>2016-07-02T07:28:58Z</time>
      </trkpt>
      <trkpt lat="43.60853" lon="3.41221">
        <ele>304.1</ele>
        <time>2016-07-02T07:29:00Z</time>
      </trkpt>
      <trkpt lat="43.60846" lon="3.41223">
        <ele>304.4</ele>
        <time>2016-07-02T07:29:02Z</time>
      </trkpt>
      <trkpt lat="43.6084" lon="3.4122">
        <ele>304.3</ele>
        <time>2016-07-02T07:29:09Z</time>
      </trkpt>
      <trkpt lat="43.60836" lon="3.41211">
        <ele>304.9</ele>
        <time>2016-07-02T07:29:30Z</time>
      </trkpt>
      <trkpt lat="43.60837" lon="3.412">
        <ele>305.2</ele>
        <time>2016-07-02T07:29:34Z</time>
      </trkpt>
      <trkpt lat="43.60835" lon="3.4119">
        <ele>305.1</ele>
        <time>2016-07-02T07:29:37Z</time>
      </trkpt>
      <trkpt lat="43.6084" lon="3.41182">
        <ele>305</ele>
        <time>2016-07-02T07:29:40Z</time>
      </trkpt>
      <trkpt lat="43.60842" lon="3.41172">
        <ele>304.6</ele>
        <time>2016-07-02T07:29:43Z</time>
      </trkpt>
      <trkpt lat="43.60842" lon="3.41161">
        <ele>303.8</ele>
        <time>2016-07-02T07:29:47Z</time>
      </trkpt>
      <trkpt lat="43.60836" lon="3.41157">
        <ele>302.8</ele>
        <time>2016-07-02T07:29:50Z</time>
      </trkpt>
      <trkpt lat="43.60836" lon="3.41145">
        <ele>301.2</ele>
        <time>2016-07-02T07:29:55Z</time>
      </trkpt>
      <trkpt lat="43.60838" lon="3.41134">
        <ele>300.1</ele>
        <time>2016-07-02T07:29:58Z</time>
      </trkpt>
      <trkpt lat="43.60844" lon="3.41124">
        <ele>298.6</ele>
        <time>2016-07-02T07:30:02Z</time>
      </trkpt>
      <trkpt lat="43.6084" lon="3.41115">
        <ele>296.9</ele>
        <time>2016-07-02T07:30:06Z</time>
      </trkpt>
      <trkpt lat="43.60835" lon="3.41102">
        <ele>291.3</ele>
        <time>2016-07-02T07:30:09Z</time>
      </trkpt>
      <trkpt lat="43.60834" lon="3.41092">
        <ele>290.5</ele>
        <time>2016-07-02T07:30:11Z</time>
      </trkpt>
      <trkpt lat="43.60836" lon="3.41081">
        <ele>289</ele>
        <time>2016-07-02T07:30:14Z</time>
      </trkpt>
      <trkpt lat="43.60841" lon="3.41072">
        <ele>287.4</ele>
        <time>2016-07-02T07:30:17Z</time>
      </trkpt>
      <trkpt lat="43.60835" lon="3.41065">
        <ele>285.4</ele>
        <time>2016-07-02T07:30:21Z</time>
      </trkpt>
      <trkpt lat="43.60832" lon="3.41051">
        <ele>275.3</ele>
        <time>2016-07-02T07:30:24Z</time>
      </trkpt>
      <trkpt lat="43.60827" lon="3.41034">
        <ele>268.3</ele>
        <time>2016-07-02T07:30:26Z</time>
      </trkpt>
      <trkpt lat="43.60822" lon="3.41015">
        <ele>262.7</ele>
        <time>2016-07-02T07:30:28Z</time>
      </trkpt>
      <trkpt lat="43.60819" lon="3.41002">
        <ele>259.4</ele>
        <time>2016-07-02T07:30:29Z</time>
      </trkpt>
      <trkpt lat="43.60816" lon="3.40991">
        <ele>256.1</ele>
        <time>2016-07-02T07:30:30Z</time>
      </trkpt>
      <trkpt lat="43.60814" lon="3.40982">
        <ele>253.3</ele>
        <time>2016-07-02T07:30:31Z</time>
      </trkpt>
      <trkpt lat="43.60812" lon="3.40972">
        <ele>250.7</ele>
        <time>2016-07-02T07:30:32Z</time>
      </trkpt>
      <trkpt lat="43.60809" lon="3.4096">
        <ele>248.4</ele>
        <time>2016-07-02T07:30:34Z</time>
      </trkpt>
      <trkpt lat="43.60805" lon="3.4095">
        <ele>247.7</ele>
        <time>2016-07-02T07:30:38Z</time>
      </trkpt>
      <trkpt lat="43.60796" lon="3.40948">
        <ele>244.6</ele>
        <time>2016-07-02T07:35:01Z</time>
      </trkpt>
      <trkpt lat="43.60787" lon="3.40945">
        <ele>244.2</ele>
        <time>2016-07-02T07:35:04Z</time>
      </trkpt>
      <trkpt lat="43.60777" lon="3.40943">
        <ele>244</ele>
        <time>2016-07-02T07:35:07Z</time>
      </trkpt>
      <trkpt lat="43.60769" lon="3.40937">
        <ele>243.5</ele>
        <time>2016-07-02T07:35:10Z</time>
      </trkpt>
      <trkpt lat="43.60766" lon="3.40933">
        <ele>243.1</ele>
        <time>2016-07-02T07:35:17Z</time>
      </trkpt>
      <trkpt lat="43.60763" lon="3.40929">
        <ele>240.5</ele>
        <time>2016-07-02T07:35:48Z</time>
      </trkpt>
      <trkpt lat="43.60754" lon="3.40924">
        <ele>239.5</ele>
        <time>2016-07-02T07:35:52Z</time>
      </trkpt>
      <trkpt lat="43.60746" lon="3.40919">
        <ele>237.4</ele>
        <time>2016-07-02T07:35:54Z</time>
      </trkpt>
      <trkpt lat="43.60736" lon="3.40911">
        <ele>234.1</ele>
        <time>2016-07-02T07:35:56Z</time>
      </trkpt>
      <trkpt lat="43.60729" lon="3.40908">
        <ele>232.7</ele>
        <time>2016-07-02T07:35:57Z</time>
      </trkpt>
      <trkpt lat="43.60722" lon="3.40905">
        <ele>231.2</ele>
        <time>2016-07-02T07:35:58Z</time>
      </trkpt>
      <trkpt lat="43.60708" lon="3.40908">
        <ele>229.1</ele>
        <time>2016-07-02T07:36:00Z</time>
      </trkpt>
      <trkpt lat="43.60695" lon="3.40912">
        <ele>228.1</ele>
        <time>2016-07-02T07:36:02Z</time>
      </trkpt>
      <trkpt lat="43.60687" lon="3.40915">
        <ele>228</ele>
        <time>2016-07-02T07:36:03Z</time>
      </trkpt>
      <trkpt lat="43.60678" lon="3.40918">
        <ele>228.1</ele>
        <time>2016-07-02T07:36:04Z</time>
      </trkpt>
      <trkpt lat="43.60668" lon="3.40923">
        <ele>226.9</ele>
        <time>2016-07-02T07:36:06Z</time>
      </trkpt>
      <trkpt lat="43.60658" lon="3.40931">
        <ele>225.9</ele>
        <time>2016-07-02T07:36:08Z</time>
      </trkpt>
      <trkpt lat="43.6065" lon="3.40939">
        <ele>225.1</ele>
        <time>2016-07-02T07:36:10Z</time>
      </trkpt>
      <trkpt lat="43.60642" lon="3.40947">
        <ele>225</ele>
        <time>2016-07-02T07:36:12Z</time>
      </trkpt>
      <trkpt lat="43.60632" lon="3.40956">
        <ele>225.6</ele>
        <time>2016-07-02T07:36:14Z</time>
      </trkpt>
      <trkpt lat="43.60623" lon="3.40959">
        <ele>226.4</ele>
        <time>2016-07-02T07:36:16Z</time>
      </trkpt>
      <trkpt lat="43.60613" lon="3.40957">
        <ele>225.9</ele>
        <time>2016-07-02T07:36:19Z</time>
      </trkpt>
      <trkpt lat="43.60601" lon="3.40949">
        <ele>226.3</ele>
        <time>2016-07-02T07:36:21Z</time>
      </trkpt>
      <trkpt lat="43.60592" lon="3.40943">
        <ele>226</ele>
        <time>2016-07-02T07:36:22Z</time>
      </trkpt>
      <trkpt lat="43.60584" lon="3.40939">
        <ele>225.4</ele>
        <time>2016-07-02T07:36:23Z</time>
      </trkpt>
      <trkpt lat="43.60575" lon="3.40934">
        <ele>224.2</ele>
        <time>2016-07-02T07:36:24Z</time>
      </trkpt>
      <trkpt lat="43.60565" lon="3.40927">
        <ele>221.6</ele>
        <time>2016-07-02T07:36:26Z</time>
      </trkpt>
      <trkpt lat="43.60564" lon="3.40914">
        <ele>219.4</ele>
        <time>2016-07-02T07:36:29Z</time>
      </trkpt>
      <trkpt lat="43.60568" lon="3.40904">
        <ele>217.7</ele>
        <time>2016-07-02T07:36:31Z</time>
      </trkpt>
      <trkpt lat="43.60575" lon="3.40899">
        <ele>215.6</ele>
        <time>2016-07-02T07:36:33Z</time>
      </trkpt>
      <trkpt lat="43.60579" lon="3.40891">
        <ele>214.7</ele>
        <time>2016-07-02T07:36:35Z</time>
      </trkpt>
      <trkpt lat="43.60584" lon="3.40876">
        <ele>213.6</ele>
        <time>2016-07-02T07:36:37Z</time>
      </trkpt>
      <trkpt lat="43.60589" lon="3.40868">
        <ele>212.6</ele>
        <time>2016-07-02T07:36:38Z</time>
      </trkpt>
      <trkpt lat="43.60592" lon="3.40855">
        <ele>211.1</ele>
        <time>2016-07-02T07:36:40Z</time>
      </trkpt>
      <trkpt lat="43.60591" lon="3.40839">
        <ele>208.5</ele>
        <time>2016-07-02T07:36:42Z</time>
      </trkpt>
      <trkpt lat="43.60592" lon="3.40824">
        <ele>205.8</ele>
        <time>2016-07-02T07:36:44Z</time>
      </trkpt>
      <trkpt lat="43.60594" lon="3.40814">
        <ele>205.5</ele>
        <time>2016-07-02T07:36:47Z</time>
      </trkpt>
      <trkpt lat="43.606" lon="3.40807">
        <ele>204.4</ele>
        <time>2016-07-02T07:36:49Z</time>
      </trkpt>
      <trkpt lat="43.60608" lon="3.408">
        <ele>202.7</ele>
        <time>2016-07-02T07:36:51Z</time>
      </trkpt>
      <trkpt lat="43.60615" lon="3.40789">
        <ele>201.9</ele>
        <time>2016-07-02T07:36:53Z</time>
      </trkpt>
      <trkpt lat="43.60621" lon="3.40776">
        <ele>201.2</ele>
        <time>2016-07-02T07:36:55Z</time>
      </trkpt>
      <trkpt lat="43.60624" lon="3.40762">
        <ele>200.6</ele>
        <time>2016-07-02T07:36:57Z</time>
      </trkpt>
      <trkpt lat="43.60627" lon="3.40747">
        <ele>200.3</ele>
        <time>2016-07-02T07:36:59Z</time>
      </trkpt>
      <trkpt lat="43.6063" lon="3.40733">
        <ele>200.2</ele>
        <time>2016-07-02T07:37:01Z</time>
      </trkpt>
      <trkpt lat="43.60634" lon="3.40718">
        <ele>200</ele>
        <time>2016-07-02T07:37:03Z</time>
      </trkpt>
      <trkpt lat="43.60639" lon="3.40702">
        <ele>199.6</ele>
        <time>2016-07-02T07:37:05Z</time>
      </trkpt>
      <trkpt lat="43.60641" lon="3.40693">
        <ele>199.1</ele>
        <time>2016-07-02T07:37:06Z</time>
      </trkpt>
      <trkpt lat="43.60645" lon="3.40684">
        <ele>198.5</ele>
        <time>2016-07-02T07:37:07Z</time>
      </trkpt>
      <trkpt lat="43.60654" lon="3.40672">
        <ele>197.3</ele>
        <time>2016-07-02T07:37:09Z</time>
      </trkpt>
      <trkpt lat="43.60662" lon="3.40663">
        <ele>196.1</ele>
        <time>2016-07-02T07:37:11Z</time>
      </trkpt>
      <trkpt lat="43.60667" lon="3.40651">
        <ele>195.2</ele>
        <time>2016-07-02T07:37:13Z</time>
      </trkpt>
      <trkpt lat="43.60674" lon="3.40639">
        <ele>194.7</ele>
        <time>2016-07-02T07:37:15Z</time>
      </trkpt>
      <trkpt lat="43.60681" lon="3.4063">
        <ele>193.4</ele>
        <time>2016-07-02T07:37:17Z</time>
      </trkpt>
      <trkpt lat="43.60689" lon="3.40625">
        <ele>191.8</ele>
        <time>2016-07-02T07:37:19Z</time>
      </trkpt>
      <trkpt lat="43.60698" lon="3.40622">
        <ele>190.9</ele>
        <time>2016-07-02T07:37:21Z</time>
      </trkpt>
      <trkpt lat="43.60709" lon="3.40617">
        <ele>190.1</ele>
        <time>2016-07-02T07:37:23Z</time>
      </trkpt>
      <trkpt lat="43.60717" lon="3.40619">
        <ele>189.5</ele>
        <time>2016-07-02T07:37:25Z</time>
      </trkpt>
      <trkpt lat="43.60715" lon="3.40609">
        <ele>189.2</ele>
        <time>2016-07-02T07:37:31Z</time>
      </trkpt>
      <trkpt lat="43.60702" lon="3.40603">
        <ele>184.1</ele>
        <time>2016-07-02T07:37:34Z</time>
      </trkpt>
      <trkpt lat="43.6069" lon="3.40602">
        <ele>183.5</ele>
        <time>2016-07-02T07:37:36Z</time>
      </trkpt>
      <trkpt lat="43.6068" lon="3.40599">
        <ele>182.4</ele>
        <time>2016-07-02T07:37:38Z</time>
      </trkpt>
      <trkpt lat="43.6067" lon="3.40592">
        <ele>181.2</ele>
        <time>2016-07-02T07:37:40Z</time>
      </trkpt>
      <trkpt lat="43.60659" lon="3.40587">
        <ele>180</ele>
        <time>2016-07-02T07:37:42Z</time>
      </trkpt>
      <trkpt lat="43.60649" lon="3.40585">
        <ele>179.7</ele>
        <time>2016-07-02T07:37:44Z</time>
      </trkpt>
      <trkpt lat="43.60642" lon="3.4058">
        <ele>179.7</ele>
        <time>2016-07-02T07:37:46Z</time>
      </trkpt>
      <trkpt lat="43.60647" lon="3.40572">
        <ele>178.7</ele>
        <time>2016-07-02T07:38:23Z</time>
      </trkpt>
      <trkpt lat="43.60655" lon="3.40566">
        <ele>178.5</ele>
        <time>2016-07-02T07:38:26Z</time>
      </trkpt>
      <trkpt lat="43.60663" lon="3.40561">
        <ele>178.3</ele>
        <time>2016-07-02T07:38:29Z</time>
      </trkpt>
      <trkpt lat="43.6067" lon="3.40557">
        <ele>178.3</ele>
        <time>2016-07-02T07:38:32Z</time>
      </trkpt>
      <trkpt lat="43.60677" lon="3.40553">
        <ele>178.2</ele>
        <time>2016-07-02T07:38:33Z</time>
      </trkpt>
      <trkpt lat="43.60684" lon="3.40548">
        <ele>178.3</ele>
        <time>2016-07-02T07:38:35Z</time>
      </trkpt>
      <trkpt lat="43.60694" lon="3.40541">
        <ele>178.2</ele>
        <time>2016-07-02T07:38:38Z</time>
      </trkpt>
      <trkpt lat="43.607" lon="3.40536">
        <ele>177.3</ele>
        <time>2016-07-02T07:38:40Z</time>
      </trkpt>
      <trkpt lat="43.60707" lon="3.40531">
        <ele>177.1</ele>
        <time>2016-07-02T07:38:42Z</time>
      </trkpt>
      <trkpt lat="43.60714" lon="3.40526">
        <ele>176.1</ele>
        <time>2016-07-02T07:38:44Z</time>
      </trkpt>
      <trkpt lat="43.60721" lon="3.40521">
        <ele>175.4</ele>
        <time>2016-07-02T07:38:46Z</time>
      </trkpt>
      <trkpt lat="43.60728" lon="3.40516">
        <ele>175.3</ele>
        <time>2016-07-02T07:38:48Z</time>
      </trkpt>
      <trkpt lat="43.60737" lon="3.40509">
        <ele>175.1</ele>
        <time>2016-07-02T07:38:51Z</time>
      </trkpt>
      <trkpt lat="43.60746" lon="3.40501">
        <ele>175</ele>
        <time>2016-07-02T07:38:54Z</time>
      </trkpt>
      <trkpt lat="43.60753" lon="3.40496">
        <ele>174.8</ele>
        <time>2016-07-02T07:38:56Z</time>
      </trkpt>
      <trkpt lat="43.6076" lon="3.40492">
        <ele>175.2</ele>
        <time>2016-07-02T07:38:58Z</time>
      </trkpt>
      <trkpt lat="43.60767" lon="3.40487">
        <ele>175.4</ele>
        <time>2016-07-02T07:39:00Z</time>
      </trkpt>
      <trkpt lat="43.60776" lon="3.4048">
        <ele>175.5</ele>
        <time>2016-07-02T07:39:03Z</time>
      </trkpt>
      <trkpt lat="43.60782" lon="3.40475">
        <ele>175.6</ele>
        <time>2016-07-02T07:39:05Z</time>
      </trkpt>
      <trkpt lat="43.60789" lon="3.4047">
        <ele>175.8</ele>
        <time>2016-07-02T07:39:07Z</time>
      </trkpt>
      <trkpt lat="43.60797" lon="3.40464">
        <ele>175.9</ele>
        <time>2016-07-02T07:39:09Z</time>
      </trkpt>
      <trkpt lat="43.60804" lon="3.40459">
        <ele>176</ele>
        <time>2016-07-02T07:39:11Z</time>
      </trkpt>
      <trkpt lat="43.6081" lon="3.40453">
        <ele>176.1</ele>
        <time>2016-07-02T07:39:13Z</time>
      </trkpt>
      <trkpt lat="43.60818" lon="3.40445">
        <ele>176</ele>
        <time>2016-07-02T07:39:16Z</time>
      </trkpt>
      <trkpt lat="43.60826" lon="3.40437">
        <ele>176</ele>
        <time>2016-07-02T07:39:19Z</time>
      </trkpt>
      <trkpt lat="43.60832" lon="3.4043">
        <ele>176</ele>
        <time>2016-07-02T07:39:21Z</time>
      </trkpt>
      <trkpt lat="43.60838" lon="3.40422">
        <ele>176</ele>
        <time>2016-07-02T07:39:24Z</time>
      </trkpt>
      <trkpt lat="43.60844" lon="3.40415">
        <ele>176</ele>
        <time>2016-07-02T07:39:26Z</time>
      </trkpt>
      <trkpt lat="43.60849" lon="3.40408">
        <ele>176</ele>
        <time>2016-07-02T07:39:28Z</time>
      </trkpt>
      <trkpt lat="43.60855" lon="3.404">
        <ele>176</ele>
        <time>2016-07-02T07:39:31Z</time>
      </trkpt>
      <trkpt lat="43.60862" lon="3.4039">
        <ele>175.9</ele>
        <time>2016-07-02T07:39:34Z</time>
      </trkpt>
      <trkpt lat="43.6087" lon="3.40381">
        <ele>175.9</ele>
        <time>2016-07-02T07:39:37Z</time>
      </trkpt>
      <trkpt lat="43.60876" lon="3.40373">
        <ele>176</ele>
        <time>2016-07-02T07:39:40Z</time>
      </trkpt>
      <trkpt lat="43.60882" lon="3.40365">
        <ele>176.3</ele>
        <time>2016-07-02T07:39:43Z</time>
      </trkpt>
      <trkpt lat="43.60889" lon="3.40356">
        <ele>176.6</ele>
        <time>2016-07-02T07:39:46Z</time>
      </trkpt>
      <trkpt lat="43.60895" lon="3.4035">
        <ele>176.9</ele>
        <time>2016-07-02T07:39:49Z</time>
      </trkpt>
      <trkpt lat="43.60902" lon="3.40343">
        <ele>177.5</ele>
        <time>2016-07-02T07:39:52Z</time>
      </trkpt>
      <trkpt lat="43.60909" lon="3.40332">
        <ele>177.9</ele>
        <time>2016-07-02T07:39:55Z</time>
      </trkpt>
      <trkpt lat="43.60916" lon="3.40323">
        <ele>178.5</ele>
        <time>2016-07-02T07:39:58Z</time>
      </trkpt>
      <trkpt lat="43.60922" lon="3.40315">
        <ele>179</ele>
        <time>2016-07-02T07:40:01Z</time>
      </trkpt>
      <trkpt lat="43.60929" lon="3.40305">
        <ele>179.4</ele>
        <time>2016-07-02T07:40:04Z</time>
      </trkpt>
      <trkpt lat="43.60936" lon="3.40297">
        <ele>179.6</ele>
        <time>2016-07-02T07:40:06Z</time>
      </trkpt>
      <trkpt lat="43.60943" lon="3.40287">
        <ele>179.8</ele>
        <time>2016-07-02T07:40:09Z</time>
      </trkpt>
      <trkpt lat="43.60948" lon="3.40279">
        <ele>179.9</ele>
        <time>2016-07-02T07:40:11Z</time>
      </trkpt>
      <trkpt lat="43.60954" lon="3.40273">
        <ele>180</ele>
        <time>2016-07-02T07:40:13Z</time>
      </trkpt>
      <trkpt lat="43.6096" lon="3.40263">
        <ele>180.1</ele>
        <time>2016-07-02T07:40:16Z</time>
      </trkpt>
      <trkpt lat="43.60967" lon="3.40255">
        <ele>180.3</ele>
        <time>2016-07-02T07:40:19Z</time>
      </trkpt>
      <trkpt lat="43.60974" lon="3.40246">
        <ele>180.6</ele>
        <time>2016-07-02T07:40:22Z</time>
      </trkpt>
      <trkpt lat="43.60981" lon="3.40238">
        <ele>180.8</ele>
        <time>2016-07-02T07:40:25Z</time>
      </trkpt>
      <trkpt lat="43.60989" lon="3.4023">
        <ele>181.1</ele>
        <time>2016-07-02T07:40:29Z</time>
      </trkpt>
      <trkpt lat="43.60995" lon="3.40221">
        <ele>181.4</ele>
        <time>2016-07-02T07:40:32Z</time>
      </trkpt>
      <trkpt lat="43.60999" lon="3.40211">
        <ele>181.9</ele>
        <time>2016-07-02T07:40:35Z</time>
      </trkpt>
      <trkpt lat="43.61004" lon="3.40204">
        <ele>182.4</ele>
        <time>2016-07-02T07:40:38Z</time>
      </trkpt>
      <trkpt lat="43.61012" lon="3.40196">
        <ele>183.1</ele>
        <time>2016-07-02T07:40:42Z</time>
      </trkpt>
      <trkpt lat="43.61018" lon="3.40189">
        <ele>183.6</ele>
        <time>2016-07-02T07:40:45Z</time>
      </trkpt>
      <trkpt lat="43.61026" lon="3.40181">
        <ele>184.3</ele>
        <time>2016-07-02T07:40:49Z</time>
      </trkpt>
      <trkpt lat="43.61031" lon="3.40174">
        <ele>184.8</ele>
        <time>2016-07-02T07:40:53Z</time>
      </trkpt>
      <trkpt lat="43.61036" lon="3.40167">
        <ele>185.7</ele>
        <time>2016-07-02T07:40:57Z</time>
      </trkpt>
      <trkpt lat="43.61042" lon="3.40156">
        <ele>186.3</ele>
        <time>2016-07-02T07:41:01Z</time>
      </trkpt>
      <trkpt lat="43.61046" lon="3.40147">
        <ele>187.1</ele>
        <time>2016-07-02T07:41:05Z</time>
      </trkpt>
      <trkpt lat="43.61053" lon="3.40137">
        <ele>187.9</ele>
        <time>2016-07-02T07:41:09Z</time>
      </trkpt>
      <trkpt lat="43.61058" lon="3.40126">
        <ele>188.5</ele>
        <time>2016-07-02T07:41:12Z</time>
      </trkpt>
      <trkpt lat="43.61063" lon="3.40114">
        <ele>189</ele>
        <time>2016-07-02T07:41:15Z</time>
      </trkpt>
      <trkpt lat="43.61069" lon="3.40105">
        <ele>189.5</ele>
        <time>2016-07-02T07:41:19Z</time>
      </trkpt>
      <trkpt lat="43.61074" lon="3.40093">
        <ele>189.7</ele>
        <time>2016-07-02T07:41:22Z</time>
      </trkpt>
      <trkpt lat="43.6108" lon="3.40085">
        <ele>190</ele>
        <time>2016-07-02T07:41:25Z</time>
      </trkpt>
      <trkpt lat="43.61087" lon="3.40079">
        <ele>190.2</ele>
        <time>2016-07-02T07:41:28Z</time>
      </trkpt>
      <trkpt lat="43.61095" lon="3.40073">
        <ele>190.4</ele>
        <time>2016-07-02T07:41:31Z</time>
      </trkpt>
      <trkpt lat="43.61103" lon="3.40067">
        <ele>190.4</ele>
        <time>2016-07-02T07:41:34Z</time>
      </trkpt>
      <trkpt lat="43.6111" lon="3.40062">
        <ele>190.5</ele>
        <time>2016-07-02T07:41:37Z</time>
      </trkpt>
      <trkpt lat="43.61117" lon="3.40054">
        <ele>190.6</ele>
        <time>2016-07-02T07:41:40Z</time>
      </trkpt>
      <trkpt lat="43.61126" lon="3.40049">
        <ele>190.8</ele>
        <time>2016-07-02T07:41:43Z</time>
      </trkpt>
      <trkpt lat="43.61136" lon="3.40048">
        <ele>191.6</ele>
        <time>2016-07-02T07:41:45Z</time>
      </trkpt>
      <trkpt lat="43.61143" lon="3.40044">
        <ele>191.7</ele>
        <time>2016-07-02T07:41:47Z</time>
      </trkpt>
      <trkpt lat="43.61152" lon="3.40041">
        <ele>191.6</ele>
        <time>2016-07-02T07:41:52Z</time>
      </trkpt>
      <trkpt lat="43.61159" lon="3.40039">
        <ele>191.3</ele>
        <time>2016-07-02T07:41:57Z</time>
      </trkpt>
      <trkpt lat="43.61165" lon="3.40033">
        <ele>191.3</ele>
        <time>2016-07-02T07:42:04Z</time>
      </trkpt>
      <trkpt lat="43.61173" lon="3.40028">
        <ele>191.4</ele>
        <time>2016-07-02T07:42:08Z</time>
      </trkpt>
      <trkpt lat="43.6118" lon="3.40023">
        <ele>191.5</ele>
        <time>2016-07-02T07:42:11Z</time>
      </trkpt>
      <trkpt lat="43.61187" lon="3.40019">
        <ele>191.6</ele>
        <time>2016-07-02T07:42:14Z</time>
      </trkpt>
      <trkpt lat="43.61194" lon="3.40016">
        <ele>191.6</ele>
        <time>2016-07-02T07:42:17Z</time>
      </trkpt>
      <trkpt lat="43.61202" lon="3.4001">
        <ele>191.6</ele>
        <time>2016-07-02T07:42:20Z</time>
      </trkpt>
      <trkpt lat="43.61211" lon="3.40006">
        <ele>191.7</ele>
        <time>2016-07-02T07:42:23Z</time>
      </trkpt>
      <trkpt lat="43.61217" lon="3.40001">
        <ele>191.7</ele>
        <time>2016-07-02T07:42:25Z</time>
      </trkpt>
      <trkpt lat="43.61225" lon="3.39997">
        <ele>191.7</ele>
        <time>2016-07-02T07:42:28Z</time>
      </trkpt>
      <trkpt lat="43.61233" lon="3.39994">
        <ele>191.9</ele>
        <time>2016-07-02T07:42:31Z</time>
      </trkpt>
      <trkpt lat="43.61243" lon="3.39997">
        <ele>192.3</ele>
        <time>2016-07-02T07:42:34Z</time>
      </trkpt>
      <trkpt lat="43.61253" lon="3.40001">
        <ele>192.6</ele>
        <time>2016-07-02T07:42:37Z</time>
      </trkpt>
      <trkpt lat="43.6126" lon="3.40003">
        <ele>192.7</ele>
        <time>2016-07-02T07:42:39Z</time>
      </trkpt>
      <trkpt lat="43.6127" lon="3.39999">
        <ele>192.8</ele>
        <time>2016-07-02T07:42:42Z</time>
      </trkpt>
      <trkpt lat="43.61278" lon="3.39995">
        <ele>192.9</ele>
        <time>2016-07-02T07:42:45Z</time>
      </trkpt>
      <trkpt lat="43.61288" lon="3.39994">
        <ele>193.1</ele>
        <time>2016-07-02T07:42:48Z</time>
      </trkpt>
      <trkpt lat="43.61296" lon="3.39996">
        <ele>193.3</ele>
        <time>2016-07-02T07:42:51Z</time>
      </trkpt>
      <trkpt lat="43.61305" lon="3.39999">
        <ele>193.5</ele>
        <time>2016-07-02T07:42:54Z</time>
      </trkpt>
      <trkpt lat="43.61314" lon="3.40003">
        <ele>194</ele>
        <time>2016-07-02T07:42:57Z</time>
      </trkpt>
      <trkpt lat="43.61321" lon="3.40003">
        <ele>194.3</ele>
        <time>2016-07-02T07:42:59Z</time>
      </trkpt>
      <trkpt lat="43.61329" lon="3.39999">
        <ele>194.6</ele>
        <time>2016-07-02T07:43:02Z</time>
      </trkpt>
      <trkpt lat="43.61336" lon="3.39992">
        <ele>194.9</ele>
        <time>2016-07-02T07:43:05Z</time>
      </trkpt>
      <trkpt lat="43.61343" lon="3.39984">
        <ele>195</ele>
        <time>2016-07-02T07:43:08Z</time>
      </trkpt>
      <trkpt lat="43.61345" lon="3.39974">
        <ele>195.3</ele>
        <time>2016-07-02T07:43:11Z</time>
      </trkpt>
      <trkpt lat="43.6135" lon="3.39964">
        <ele>195.6</ele>
        <time>2016-07-02T07:43:14Z</time>
      </trkpt>
      <trkpt lat="43.61358" lon="3.39958">
        <ele>196</ele>
        <time>2016-07-02T07:43:18Z</time>
      </trkpt>
      <trkpt lat="43.61365" lon="3.39951">
        <ele>196.4</ele>
        <time>2016-07-02T07:43:21Z</time>
      </trkpt>
      <trkpt lat="43.61367" lon="3.3994">
        <ele>196.8</ele>
        <time>2016-07-02T07:43:25Z</time>
      </trkpt>
      <trkpt lat="43.61363" lon="3.39932">
        <ele>196.9</ele>
        <time>2016-07-02T07:43:28Z</time>
      </trkpt>
      <trkpt lat="43.61358" lon="3.39922">
        <ele>197</ele>
        <time>2016-07-02T07:43:31Z</time>
      </trkpt>
      <trkpt lat="43.61355" lon="3.39909">
        <ele>197.1</ele>
        <time>2016-07-02T07:43:34Z</time>
      </trkpt>
      <trkpt lat="43.61351" lon="3.39897">
        <ele>197.4</ele>
        <time>2016-07-02T07:43:37Z</time>
      </trkpt>
      <trkpt lat="43.61348" lon="3.39886">
        <ele>197.6</ele>
        <time>2016-07-02T07:43:40Z</time>
      </trkpt>
      <trkpt lat="43.61345" lon="3.39876">
        <ele>197.7</ele>
        <time>2016-07-02T07:43:42Z</time>
      </trkpt>
      <trkpt lat="43.6134" lon="3.39865">
        <ele>197.7</ele>
        <time>2016-07-02T07:43:45Z</time>
      </trkpt>
      <trkpt lat="43.61336" lon="3.39855">
        <ele>197.5</ele>
        <time>2016-07-02T07:43:48Z</time>
      </trkpt>
      <trkpt lat="43.61333" lon="3.39842">
        <ele>197.3</ele>
        <time>2016-07-02T07:43:51Z</time>
      </trkpt>
      <trkpt lat="43.6133" lon="3.3983">
        <ele>197.1</ele>
        <time>2016-07-02T07:43:54Z</time>
      </trkpt>
      <trkpt lat="43.61329" lon="3.39819">
        <ele>196.9</ele>
        <time>2016-07-02T07:43:57Z</time>
      </trkpt>
      <trkpt lat="43.61326" lon="3.39809">
        <ele>197</ele>
        <time>2016-07-02T07:44:00Z</time>
      </trkpt>
      <trkpt lat="43.61322" lon="3.39799">
        <ele>197.2</ele>
        <time>2016-07-02T07:44:03Z</time>
      </trkpt>
      <trkpt lat="43.6132" lon="3.39789">
        <ele>197.2</ele>
        <time>2016-07-02T07:44:06Z</time>
      </trkpt>
      <trkpt lat="43.61314" lon="3.39779">
        <ele>197.3</ele>
        <time>2016-07-02T07:44:10Z</time>
      </trkpt>
      <trkpt lat="43.61311" lon="3.39767">
        <ele>197.5</ele>
        <time>2016-07-02T07:44:14Z</time>
      </trkpt>
      <trkpt lat="43.61307" lon="3.39755">
        <ele>197.5</ele>
        <time>2016-07-02T07:44:18Z</time>
      </trkpt>
      <trkpt lat="43.61309" lon="3.39745">
        <ele>197.7</ele>
        <time>2016-07-02T07:44:25Z</time>
      </trkpt>
      <trkpt lat="43.61316" lon="3.3974">
        <ele>197.9</ele>
        <time>2016-07-02T07:44:30Z</time>
      </trkpt>
      <trkpt lat="43.61323" lon="3.39736">
        <ele>198.1</ele>
        <time>2016-07-02T07:44:35Z</time>
      </trkpt>
      <trkpt lat="43.61332" lon="3.39731">
        <ele>198.7</ele>
        <time>2016-07-02T07:44:40Z</time>
      </trkpt>
      <trkpt lat="43.61339" lon="3.39727">
        <ele>199</ele>
        <time>2016-07-02T07:44:44Z</time>
      </trkpt>
      <trkpt lat="43.61347" lon="3.39723">
        <ele>199.1</ele>
        <time>2016-07-02T07:44:47Z</time>
      </trkpt>
      <trkpt lat="43.61354" lon="3.39718">
        <ele>199.3</ele>
        <time>2016-07-02T07:44:51Z</time>
      </trkpt>
      <trkpt lat="43.61361" lon="3.39714">
        <ele>199.5</ele>
        <time>2016-07-02T07:44:55Z</time>
      </trkpt>
      <trkpt lat="43.61368" lon="3.3971">
        <ele>199.7</ele>
        <time>2016-07-02T07:44:58Z</time>
      </trkpt>
      <trkpt lat="43.61376" lon="3.39705">
        <ele>200.2</ele>
        <time>2016-07-02T07:45:03Z</time>
      </trkpt>
      <trkpt lat="43.6138" lon="3.39696">
        <ele>200.6</ele>
        <time>2016-07-02T07:45:10Z</time>
      </trkpt>
      <trkpt lat="43.61372" lon="3.39693">
        <ele>200.9</ele>
        <time>2016-07-02T07:45:15Z</time>
      </trkpt>
      <trkpt lat="43.61365" lon="3.39692">
        <ele>201.2</ele>
        <time>2016-07-02T07:45:19Z</time>
      </trkpt>
      <trkpt lat="43.61357" lon="3.39692">
        <ele>201.6</ele>
        <time>2016-07-02T07:45:23Z</time>
      </trkpt>
      <trkpt lat="43.61349" lon="3.39692">
        <ele>201.9</ele>
        <time>2016-07-02T07:45:28Z</time>
      </trkpt>
      <trkpt lat="43.61341" lon="3.39693">
        <ele>202.1</ele>
        <time>2016-07-02T07:45:32Z</time>
      </trkpt>
      <trkpt lat="43.61333" lon="3.39694">
        <ele>202.3</ele>
        <time>2016-07-02T07:45:36Z</time>
      </trkpt>
      <trkpt lat="43.61325" lon="3.39696">
        <ele>202.4</ele>
        <time>2016-07-02T07:45:40Z</time>
      </trkpt>
      <trkpt lat="43.61316" lon="3.39695">
        <ele>202.5</ele>
        <time>2016-07-02T07:45:44Z</time>
      </trkpt>
      <trkpt lat="43.61308" lon="3.39696">
        <ele>202.7</ele>
        <time>2016-07-02T07:45:48Z</time>
      </trkpt>
      <trkpt lat="43.61299" lon="3.39698">
        <ele>202.9</ele>
        <time>2016-07-02T07:45:52Z</time>
      </trkpt>
      <trkpt lat="43.61292" lon="3.39696">
        <ele>203.1</ele>
        <time>2016-07-02T07:45:56Z</time>
      </trkpt>
      <trkpt lat="43.61285" lon="3.39697">
        <ele>203.4</ele>
        <time>2016-07-02T07:46:00Z</time>
      </trkpt>
      <trkpt lat="43.61277" lon="3.39699">
        <ele>203.7</ele>
        <time>2016-07-02T07:46:05Z</time>
      </trkpt>
      <trkpt lat="43.6127" lon="3.39694">
        <ele>204.1</ele>
        <time>2016-07-02T07:46:09Z</time>
      </trkpt>
      <trkpt lat="43.61262" lon="3.39693">
        <ele>204.8</ele>
        <time>2016-07-02T07:46:15Z</time>
      </trkpt>
      <trkpt lat="43.61254" lon="3.3969">
        <ele>205.6</ele>
        <time>2016-07-02T07:46:19Z</time>
      </trkpt>
      <trkpt lat="43.61247" lon="3.39685">
        <ele>206.6</ele>
        <time>2016-07-02T07:46:24Z</time>
      </trkpt>
      <trkpt lat="43.6124" lon="3.3968">
        <ele>207.4</ele>
        <time>2016-07-02T07:46:30Z</time>
      </trkpt>
      <trkpt lat="43.61233" lon="3.39675">
        <ele>208.3</ele>
        <time>2016-07-02T07:46:35Z</time>
      </trkpt>
      <trkpt lat="43.61226" lon="3.39668">
        <ele>209.3</ele>
        <time>2016-07-02T07:46:41Z</time>
      </trkpt>
      <trkpt lat="43.61222" lon="3.39659">
        <ele>209.9</ele>
        <time>2016-07-02T07:46:45Z</time>
      </trkpt>
      <trkpt lat="43.61223" lon="3.39649">
        <ele>211</ele>
        <time>2016-07-02T07:46:51Z</time>
      </trkpt>
      <trkpt lat="43.61229" lon="3.39642">
        <ele>212.1</ele>
        <time>2016-07-02T07:46:57Z</time>
      </trkpt>
      <trkpt lat="43.61234" lon="3.39633">
        <ele>213</ele>
        <time>2016-07-02T07:47:03Z</time>
      </trkpt>
      <trkpt lat="43.61232" lon="3.39623">
        <ele>214</ele>
        <time>2016-07-02T07:47:08Z</time>
      </trkpt>
      <trkpt lat="43.61227" lon="3.39623">
        <ele>216.1</ele>
        <time>2016-07-02T07:47:22Z</time>
      </trkpt>
      <trkpt lat="43.61221" lon="3.39632">
        <ele>218.9</ele>
        <time>2016-07-02T07:48:44Z</time>
      </trkpt>
      <trkpt lat="43.61215" lon="3.39638">
        <ele>219.2</ele>
        <time>2016-07-02T07:48:47Z</time>
      </trkpt>
      <trkpt lat="43.61205" lon="3.39641">
        <ele>219.4</ele>
        <time>2016-07-02T07:48:50Z</time>
      </trkpt>
      <trkpt lat="43.61198" lon="3.39645">
        <ele>219.5</ele>
        <time>2016-07-02T07:48:52Z</time>
      </trkpt>
      <trkpt lat="43.61188" lon="3.39648">
        <ele>220.1</ele>
        <time>2016-07-02T07:48:55Z</time>
      </trkpt>
      <trkpt lat="43.61181" lon="3.39646">
        <ele>220.2</ele>
        <time>2016-07-02T07:48:58Z</time>
      </trkpt>
      <trkpt lat="43.61171" lon="3.3965">
        <ele>220.1</ele>
        <time>2016-07-02T07:49:01Z</time>
      </trkpt>
      <trkpt lat="43.61164" lon="3.39655">
        <ele>220</ele>
        <time>2016-07-02T07:49:04Z</time>
      </trkpt>
      <trkpt lat="43.61155" lon="3.39661">
        <ele>219.8</ele>
        <time>2016-07-02T07:49:07Z</time>
      </trkpt>
      <trkpt lat="43.61148" lon="3.39669">
        <ele>219.6</ele>
        <time>2016-07-02T07:49:10Z</time>
      </trkpt>
      <trkpt lat="43.61142" lon="3.39674">
        <ele>219.6</ele>
        <time>2016-07-02T07:49:13Z</time>
      </trkpt>
      <trkpt lat="43.61136" lon="3.39682">
        <ele>219.6</ele>
        <time>2016-07-02T07:49:16Z</time>
      </trkpt>
      <trkpt lat="43.61129" lon="3.39688">
        <ele>219.5</ele>
        <time>2016-07-02T07:49:19Z</time>
      </trkpt>
      <trkpt lat="43.6112" lon="3.39694">
        <ele>219.3</ele>
        <time>2016-07-02T07:49:22Z</time>
      </trkpt>
      <trkpt lat="43.6111" lon="3.39701">
        <ele>219</ele>
        <time>2016-07-02T07:49:25Z</time>
      </trkpt>
      <trkpt lat="43.61104" lon="3.39706">
        <ele>218.9</ele>
        <time>2016-07-02T07:49:27Z</time>
      </trkpt>
      <trkpt lat="43.61098" lon="3.39718">
        <ele>217.9</ele>
        <time>2016-07-02T07:49:30Z</time>
      </trkpt>
      <trkpt lat="43.61095" lon="3.39727">
        <ele>217.7</ele>
        <time>2016-07-02T07:49:33Z</time>
      </trkpt>
      <trkpt lat="43.61091" lon="3.3974">
        <ele>217.4</ele>
        <time>2016-07-02T07:49:36Z</time>
      </trkpt>
      <trkpt lat="43.61088" lon="3.39752">
        <ele>217.1</ele>
        <time>2016-07-02T07:49:39Z</time>
      </trkpt>
      <trkpt lat="43.61082" lon="3.39763">
        <ele>216.8</ele>
        <time>2016-07-02T07:49:42Z</time>
      </trkpt>
      <trkpt lat="43.61076" lon="3.3977">
        <ele>216.4</ele>
        <time>2016-07-02T07:49:45Z</time>
      </trkpt>
      <trkpt lat="43.61071" lon="3.39777">
        <ele>216.1</ele>
        <time>2016-07-02T07:49:48Z</time>
      </trkpt>
      <trkpt lat="43.61066" lon="3.39789">
        <ele>215.8</ele>
        <time>2016-07-02T07:49:51Z</time>
      </trkpt>
      <trkpt lat="43.6106" lon="3.39798">
        <ele>215.4</ele>
        <time>2016-07-02T07:49:55Z</time>
      </trkpt>
      <trkpt lat="43.61052" lon="3.39808">
        <ele>214.9</ele>
        <time>2016-07-02T07:49:58Z</time>
      </trkpt>
      <trkpt lat="43.61045" lon="3.39816">
        <ele>214.6</ele>
        <time>2016-07-02T07:50:01Z</time>
      </trkpt>
      <trkpt lat="43.61037" lon="3.39826">
        <ele>214.3</ele>
        <time>2016-07-02T07:50:04Z</time>
      </trkpt>
      <trkpt lat="43.61035" lon="3.39835">
        <ele>214</ele>
        <time>2016-07-02T07:50:09Z</time>
      </trkpt>
      <trkpt lat="43.61032" lon="3.39843">
        <ele>212.7</ele>
        <time>2016-07-02T07:50:34Z</time>
      </trkpt>
      <trkpt lat="43.61029" lon="3.39852">
        <ele>212.5</ele>
        <time>2016-07-02T07:50:36Z</time>
      </trkpt>
      <trkpt lat="43.61025" lon="3.39863">
        <ele>212.3</ele>
        <time>2016-07-02T07:50:39Z</time>
      </trkpt>
      <trkpt lat="43.61023" lon="3.39871">
        <ele>211.8</ele>
        <time>2016-07-02T07:50:46Z</time>
      </trkpt>
      <trkpt lat="43.61021" lon="3.39867">
        <ele>209.4</ele>
        <time>2016-07-02T07:51:01Z</time>
      </trkpt>
      <trkpt lat="43.61018" lon="3.39871">
        <ele>208.9</ele>
        <time>2016-07-02T07:51:08Z</time>
      </trkpt>
      <trkpt lat="43.61014" lon="3.3988">
        <ele>207.2</ele>
        <time>2016-07-02T07:51:10Z</time>
      </trkpt>
      <trkpt lat="43.61009" lon="3.39889">
        <ele>206.6</ele>
        <time>2016-07-02T07:51:12Z</time>
      </trkpt>
      <trkpt lat="43.61005" lon="3.39901">
        <ele>205.5</ele>
        <time>2016-07-02T07:51:14Z</time>
      </trkpt>
      <trkpt lat="43.61006" lon="3.39912">
        <ele>205.4</ele>
        <time>2016-07-02T07:51:17Z</time>
      </trkpt>
      <trkpt lat="43.61001" lon="3.39923">
        <ele>204.8</ele>
        <time>2016-07-02T07:51:22Z</time>
      </trkpt>
      <trkpt lat="43.60994" lon="3.39927">
        <ele>204.3</ele>
        <time>2016-07-02T07:51:25Z</time>
      </trkpt>
      <trkpt lat="43.60988" lon="3.39935">
        <ele>203.5</ele>
        <time>2016-07-02T07:51:30Z</time>
      </trkpt>
      <trkpt lat="43.60984" lon="3.39943">
        <ele>202.2</ele>
        <time>2016-07-02T07:51:37Z</time>
      </trkpt>
      <trkpt lat="43.60981" lon="3.39952">
        <ele>200.9</ele>
        <time>2016-07-02T07:51:44Z</time>
      </trkpt>
      <trkpt lat="43.60986" lon="3.39962">
        <ele>199.9</ele>
        <time>2016-07-02T07:51:49Z</time>
      </trkpt>
      <trkpt lat="43.60992" lon="3.39972">
        <ele>199.4</ele>
        <time>2016-07-02T07:51:52Z</time>
      </trkpt>
      <trkpt lat="43.60998" lon="3.39985">
        <ele>199</ele>
        <time>2016-07-02T07:51:55Z</time>
      </trkpt>
      <trkpt lat="43.60998" lon="3.39998">
        <ele>198.6</ele>
        <time>2016-07-02T07:51:58Z</time>
      </trkpt>
      <trkpt lat="43.60998" lon="3.40009">
        <ele>198.5</ele>
        <time>2016-07-02T07:52:00Z</time>
      </trkpt>
      <trkpt lat="43.60998" lon="3.40019">
        <ele>198.3</ele>
        <time>2016-07-02T07:52:02Z</time>
      </trkpt>
      <trkpt lat="43.61" lon="3.40032">
        <ele>197.9</ele>
        <time>2016-07-02T07:52:05Z</time>
      </trkpt>
      <trkpt lat="43.61003" lon="3.40042">
        <ele>197.6</ele>
        <time>2016-07-02T07:52:09Z</time>
      </trkpt>
      <trkpt lat="43.61008" lon="3.40054">
        <ele>197.3</ele>
        <time>2016-07-02T07:52:13Z</time>
      </trkpt>
      <trkpt lat="43.61011" lon="3.40064">
        <ele>197.2</ele>
        <time>2016-07-02T07:52:15Z</time>
      </trkpt>
      <trkpt lat="43.61014" lon="3.40074">
        <ele>197.2</ele>
        <time>2016-07-02T07:52:17Z</time>
      </trkpt>
      <trkpt lat="43.61017" lon="3.40085">
        <ele>196.8</ele>
        <time>2016-07-02T07:52:21Z</time>
      </trkpt>
      <trkpt lat="43.61021" lon="3.40088">
        <ele>196.1</ele>
        <time>2016-07-02T07:52:28Z</time>
      </trkpt>
      <trkpt lat="43.61017" lon="3.40078">
        <ele>195.5</ele>
        <time>2016-07-02T07:52:35Z</time>
      </trkpt>
      <trkpt lat="43.61014" lon="3.40076">
        <ele>194.7</ele>
        <time>2016-07-02T07:52:42Z</time>
      </trkpt>
      <trkpt lat="43.61018" lon="3.40087">
        <ele>194.4</ele>
        <time>2016-07-02T07:52:47Z</time>
      </trkpt>
      <trkpt lat="43.61022" lon="3.40099">
        <ele>194.2</ele>
        <time>2016-07-02T07:52:50Z</time>
      </trkpt>
      <trkpt lat="43.61026" lon="3.40109">
        <ele>194.2</ele>
        <time>2016-07-02T07:52:53Z</time>
      </trkpt>
      <trkpt lat="43.61028" lon="3.40121">
        <ele>194.1</ele>
        <time>2016-07-02T07:52:56Z</time>
      </trkpt>
      <trkpt lat="43.61033" lon="3.40135">
        <ele>194.1</ele>
        <time>2016-07-02T07:52:59Z</time>
      </trkpt>
      <trkpt lat="43.61037" lon="3.40144">
        <ele>194</ele>
        <time>2016-07-02T07:53:01Z</time>
      </trkpt>
      <trkpt lat="43.61038" lon="3.40155">
        <ele>193.8</ele>
        <time>2016-07-02T07:53:05Z</time>
      </trkpt>
      <trkpt lat="43.61033" lon="3.40165">
        <ele>193.4</ele>
        <time>2016-07-02T07:53:09Z</time>
      </trkpt>
      <trkpt lat="43.61032" lon="3.40173">
        <ele>192.7</ele>
        <time>2016-07-02T07:53:16Z</time>
      </trkpt>
      <trkpt lat="43.61036" lon="3.40175">
        <ele>192.5</ele>
        <time>2016-07-02T07:53:23Z</time>
      </trkpt>
      <trkpt lat="43.61041" lon="3.40175">
        <ele>191.9</ele>
        <time>2016-07-02T07:53:36Z</time>
      </trkpt>
      <trkpt lat="43.61032" lon="3.40181">
        <ele>190.5</ele>
        <time>2016-07-02T07:53:41Z</time>
      </trkpt>
      <trkpt lat="43.61025" lon="3.40185">
        <ele>190.4</ele>
        <time>2016-07-02T07:53:43Z</time>
      </trkpt>
      <trkpt lat="43.61018" lon="3.40192">
        <ele>190.4</ele>
        <time>2016-07-02T07:53:45Z</time>
      </trkpt>
      <trkpt lat="43.61012" lon="3.40199">
        <ele>189.7</ele>
        <time>2016-07-02T07:53:47Z</time>
      </trkpt>
      <trkpt lat="43.61005" lon="3.40206">
        <ele>189.6</ele>
        <time>2016-07-02T07:53:49Z</time>
      </trkpt>
      <trkpt lat="43.60999" lon="3.40212">
        <ele>189.5</ele>
        <time>2016-07-02T07:53:51Z</time>
      </trkpt>
      <trkpt lat="43.60992" lon="3.40217">
        <ele>189.4</ele>
        <time>2016-07-02T07:53:54Z</time>
      </trkpt>
      <trkpt lat="43.60985" lon="3.40212">
        <ele>189.4</ele>
        <time>2016-07-02T07:53:57Z</time>
      </trkpt>
      <trkpt lat="43.60979" lon="3.40206">
        <ele>189.3</ele>
        <time>2016-07-02T07:53:59Z</time>
      </trkpt>
      <trkpt lat="43.6097" lon="3.40197">
        <ele>188.6</ele>
        <time>2016-07-02T07:54:02Z</time>
      </trkpt>
      <trkpt lat="43.60962" lon="3.4019">
        <ele>187.9</ele>
        <time>2016-07-02T07:54:05Z</time>
      </trkpt>
      <trkpt lat="43.60955" lon="3.40185">
        <ele>187.8</ele>
        <time>2016-07-02T07:54:07Z</time>
      </trkpt>
      <trkpt lat="43.60945" lon="3.40182">
        <ele>187</ele>
        <time>2016-07-02T07:54:10Z</time>
      </trkpt>
      <trkpt lat="43.60934" lon="3.40178">
        <ele>186.6</ele>
        <time>2016-07-02T07:54:13Z</time>
      </trkpt>
      <trkpt lat="43.60928" lon="3.40172">
        <ele>186.3</ele>
        <time>2016-07-02T07:54:15Z</time>
      </trkpt>
      <trkpt lat="43.60922" lon="3.40165">
        <ele>186</ele>
        <time>2016-07-02T07:54:17Z</time>
      </trkpt>
      <trkpt lat="43.60918" lon="3.40155">
        <ele>186.1</ele>
        <time>2016-07-02T07:54:20Z</time>
      </trkpt>
      <trkpt lat="43.60912" lon="3.40144">
        <ele>186.2</ele>
        <time>2016-07-02T07:54:22Z</time>
      </trkpt>
      <trkpt lat="43.60907" lon="3.40132">
        <ele>186.6</ele>
        <time>2016-07-02T07:54:24Z</time>
      </trkpt>
      <trkpt lat="43.60903" lon="3.40122">
        <ele>187</ele>
        <time>2016-07-02T07:54:26Z</time>
      </trkpt>
      <trkpt lat="43.609" lon="3.40111">
        <ele>187</ele>
        <time>2016-07-02T07:54:28Z</time>
      </trkpt>
      <trkpt lat="43.60898" lon="3.40101">
        <ele>187.2</ele>
        <time>2016-07-02T07:54:30Z</time>
      </trkpt>
      <trkpt lat="43.60891" lon="3.40092">
        <ele>187.3</ele>
        <time>2016-07-02T07:54:33Z</time>
      </trkpt>
      <trkpt lat="43.60881" lon="3.4009">
        <ele>187.4</ele>
        <time>2016-07-02T07:54:36Z</time>
      </trkpt>
      <trkpt lat="43.60872" lon="3.40094">
        <ele>187.5</ele>
        <time>2016-07-02T07:54:41Z</time>
      </trkpt>
      <trkpt lat="43.60865" lon="3.40097">
        <ele>187.9</ele>
        <time>2016-07-02T07:54:45Z</time>
      </trkpt>
      <trkpt lat="43.60858" lon="3.40098">
        <ele>188.2</ele>
        <time>2016-07-02T07:54:48Z</time>
      </trkpt>
      <trkpt lat="43.60849" lon="3.40097">
        <ele>188.3</ele>
        <time>2016-07-02T07:54:51Z</time>
      </trkpt>
      <trkpt lat="43.60841" lon="3.401">
        <ele>188.8</ele>
        <time>2016-07-02T07:54:56Z</time>
      </trkpt>
      <trkpt lat="43.60832" lon="3.40104">
        <ele>189.4</ele>
        <time>2016-07-02T07:55:01Z</time>
      </trkpt>
      <trkpt lat="43.60824" lon="3.40108">
        <ele>189.9</ele>
        <time>2016-07-02T07:55:06Z</time>
      </trkpt>
      <trkpt lat="43.60816" lon="3.40109">
        <ele>190.4</ele>
        <time>2016-07-02T07:55:10Z</time>
      </trkpt>
      <trkpt lat="43.60811" lon="3.40105">
        <ele>191.3</ele>
        <time>2016-07-02T07:55:17Z</time>
      </trkpt>
      <trkpt lat="43.60815" lon="3.40096">
        <ele>191.7</ele>
        <time>2016-07-02T07:55:22Z</time>
      </trkpt>
      <trkpt lat="43.60821" lon="3.40088">
        <ele>192.3</ele>
        <time>2016-07-02T07:55:27Z</time>
      </trkpt>
      <trkpt lat="43.60819" lon="3.40078">
        <ele>192.8</ele>
        <time>2016-07-02T07:55:32Z</time>
      </trkpt>
      <trkpt lat="43.60811" lon="3.40074">
        <ele>193.3</ele>
        <time>2016-07-02T07:55:37Z</time>
      </trkpt>
      <trkpt lat="43.60802" lon="3.40074">
        <ele>194.1</ele>
        <time>2016-07-02T07:55:43Z</time>
      </trkpt>
      <trkpt lat="43.60795" lon="3.40078">
        <ele>195.2</ele>
        <time>2016-07-02T07:55:49Z</time>
      </trkpt>
      <trkpt lat="43.60788" lon="3.40082">
        <ele>196.2</ele>
        <time>2016-07-02T07:55:55Z</time>
      </trkpt>
      <trkpt lat="43.60781" lon="3.40087">
        <ele>197.7</ele>
        <time>2016-07-02T07:56:02Z</time>
      </trkpt>
      <trkpt lat="43.60775" lon="3.40095">
        <ele>198.4</ele>
        <time>2016-07-02T07:56:06Z</time>
      </trkpt>
      <trkpt lat="43.6077" lon="3.40102">
        <ele>199</ele>
        <time>2016-07-02T07:56:10Z</time>
      </trkpt>
      <trkpt lat="43.60764" lon="3.4011">
        <ele>199.6</ele>
        <time>2016-07-02T07:56:14Z</time>
      </trkpt>
      <trkpt lat="43.60757" lon="3.40115">
        <ele>200.3</ele>
        <time>2016-07-02T07:56:19Z</time>
      </trkpt>
      <trkpt lat="43.60749" lon="3.40116">
        <ele>201</ele>
        <time>2016-07-02T07:56:23Z</time>
      </trkpt>
      <trkpt lat="43.60741" lon="3.40116">
        <ele>202.1</ele>
        <time>2016-07-02T07:56:29Z</time>
      </trkpt>
      <trkpt lat="43.60734" lon="3.40121">
        <ele>203.2</ele>
        <time>2016-07-02T07:56:34Z</time>
      </trkpt>
      <trkpt lat="43.60728" lon="3.40125">
        <ele>203.9</ele>
        <time>2016-07-02T07:56:37Z</time>
      </trkpt>
      <trkpt lat="43.6072" lon="3.40132">
        <ele>205.2</ele>
        <time>2016-07-02T07:56:42Z</time>
      </trkpt>
      <trkpt lat="43.60713" lon="3.40137">
        <ele>206</ele>
        <time>2016-07-02T07:56:45Z</time>
      </trkpt>
      <trkpt lat="43.60705" lon="3.40138">
        <ele>206.8</ele>
        <time>2016-07-02T07:56:49Z</time>
      </trkpt>
      <trkpt lat="43.60697" lon="3.40138">
        <ele>207.5</ele>
        <time>2016-07-02T07:56:53Z</time>
      </trkpt>
      <trkpt lat="43.60688" lon="3.40141">
        <ele>208.3</ele>
        <time>2016-07-02T07:56:57Z</time>
      </trkpt>
      <trkpt lat="43.60681" lon="3.40146">
        <ele>209.5</ele>
        <time>2016-07-02T07:57:02Z</time>
      </trkpt>
      <trkpt lat="43.60674" lon="3.40151">
        <ele>210.3</ele>
        <time>2016-07-02T07:57:05Z</time>
      </trkpt>
      <trkpt lat="43.60668" lon="3.40163">
        <ele>210.8</ele>
        <time>2016-07-02T07:57:08Z</time>
      </trkpt>
      <trkpt lat="43.60665" lon="3.40173">
        <ele>211.3</ele>
        <time>2016-07-02T07:57:11Z</time>
      </trkpt>
      <trkpt lat="43.60662" lon="3.40184">
        <ele>211.6</ele>
        <time>2016-07-02T07:57:14Z</time>
      </trkpt>
      <trkpt lat="43.60661" lon="3.40195">
        <ele>212</ele>
        <time>2016-07-02T07:57:17Z</time>
      </trkpt>
      <trkpt lat="43.60659" lon="3.40208">
        <ele>212.2</ele>
        <time>2016-07-02T07:57:20Z</time>
      </trkpt>
      <trkpt lat="43.60656" lon="3.40219">
        <ele>212.3</ele>
        <time>2016-07-02T07:57:24Z</time>
      </trkpt>
      <trkpt lat="43.60652" lon="3.40227">
        <ele>212.5</ele>
        <time>2016-07-02T07:57:27Z</time>
      </trkpt>
      <trkpt lat="43.60646" lon="3.40235">
        <ele>212.7</ele>
        <time>2016-07-02T07:57:31Z</time>
      </trkpt>
      <trkpt lat="43.6064" lon="3.40243">
        <ele>213.1</ele>
        <time>2016-07-02T07:57:35Z</time>
      </trkpt>
      <trkpt lat="43.60632" lon="3.40251">
        <ele>213.5</ele>
        <time>2016-07-02T07:57:40Z</time>
      </trkpt>
      <trkpt lat="43.60626" lon="3.40258">
        <ele>213.8</ele>
        <time>2016-07-02T07:57:44Z</time>
      </trkpt>
      <trkpt lat="43.60621" lon="3.40265">
        <ele>214.2</ele>
        <time>2016-07-02T07:57:48Z</time>
      </trkpt>
      <trkpt lat="43.60614" lon="3.40273">
        <ele>214.8</ele>
        <time>2016-07-02T07:57:52Z</time>
      </trkpt>
      <trkpt lat="43.60608" lon="3.40281">
        <ele>215.2</ele>
        <time>2016-07-02T07:57:56Z</time>
      </trkpt>
      <trkpt lat="43.60603" lon="3.40289">
        <ele>215.6</ele>
        <time>2016-07-02T07:58:00Z</time>
      </trkpt>
      <trkpt lat="43.60598" lon="3.40297">
        <ele>215.9</ele>
        <time>2016-07-02T07:58:03Z</time>
      </trkpt>
      <trkpt lat="43.60592" lon="3.40304">
        <ele>216.2</ele>
        <time>2016-07-02T07:58:06Z</time>
      </trkpt>
      <trkpt lat="43.60584" lon="3.40306">
        <ele>216.8</ele>
        <time>2016-07-02T07:58:11Z</time>
      </trkpt>
      <trkpt lat="43.60577" lon="3.40307">
        <ele>217.2</ele>
        <time>2016-07-02T07:58:15Z</time>
      </trkpt>
      <trkpt lat="43.60569" lon="3.40309">
        <ele>217.6</ele>
        <time>2016-07-02T07:58:19Z</time>
      </trkpt>
      <trkpt lat="43.60562" lon="3.40308">
        <ele>218.1</ele>
        <time>2016-07-02T07:58:23Z</time>
      </trkpt>
      <trkpt lat="43.60553" lon="3.40307">
        <ele>218.9</ele>
        <time>2016-07-02T07:58:28Z</time>
      </trkpt>
      <trkpt lat="43.60545" lon="3.40305">
        <ele>219.5</ele>
        <time>2016-07-02T07:58:33Z</time>
      </trkpt>
      <trkpt lat="43.60542" lon="3.40297">
        <ele>220.4</ele>
        <time>2016-07-02T07:58:40Z</time>
      </trkpt>
      <trkpt lat="43.60543" lon="3.40294">
        <ele>221.3</ele>
        <time>2016-07-02T07:58:47Z</time>
      </trkpt>
      <trkpt lat="43.60545" lon="3.40293">
        <ele>222.8</ele>
        <time>2016-07-02T07:58:58Z</time>
      </trkpt>
      <trkpt lat="43.60552" lon="3.40287">
        <ele>223.6</ele>
        <time>2016-07-02T07:59:03Z</time>
      </trkpt>
      <trkpt lat="43.60557" lon="3.40278">
        <ele>224.6</ele>
        <time>2016-07-02T07:59:09Z</time>
      </trkpt>
      <trkpt lat="43.60561" lon="3.4027">
        <ele>225.1</ele>
        <time>2016-07-02T07:59:13Z</time>
      </trkpt>
      <trkpt lat="43.60564" lon="3.4026">
        <ele>225.8</ele>
        <time>2016-07-02T07:59:18Z</time>
      </trkpt>
      <trkpt lat="43.60568" lon="3.4025">
        <ele>226.4</ele>
        <time>2016-07-02T07:59:23Z</time>
      </trkpt>
      <trkpt lat="43.6057" lon="3.4024">
        <ele>227</ele>
        <time>2016-07-02T07:59:28Z</time>
      </trkpt>
      <trkpt lat="43.60573" lon="3.40231">
        <ele>227.5</ele>
        <time>2016-07-02T07:59:32Z</time>
      </trkpt>
      <trkpt lat="43.60574" lon="3.40221">
        <ele>227.9</ele>
        <time>2016-07-02T07:59:36Z</time>
      </trkpt>
      <trkpt lat="43.60575" lon="3.40209">
        <ele>228.5</ele>
        <time>2016-07-02T07:59:41Z</time>
      </trkpt>
      <trkpt lat="43.60576" lon="3.40196">
        <ele>228.8</ele>
        <time>2016-07-02T07:59:45Z</time>
      </trkpt>
      <trkpt lat="43.60574" lon="3.40186">
        <ele>229</ele>
        <time>2016-07-02T07:59:48Z</time>
      </trkpt>
      <trkpt lat="43.60574" lon="3.40174">
        <ele>229.3</ele>
        <time>2016-07-02T07:59:52Z</time>
      </trkpt>
      <trkpt lat="43.60574" lon="3.40163">
        <ele>229.7</ele>
        <time>2016-07-02T07:59:56Z</time>
      </trkpt>
      <trkpt lat="43.60577" lon="3.4015">
        <ele>230</ele>
        <time>2016-07-02T08:00:00Z</time>
      </trkpt>
      <trkpt lat="43.60581" lon="3.40141">
        <ele>230.3</ele>
        <time>2016-07-02T08:00:03Z</time>
      </trkpt>
      <trkpt lat="43.60585" lon="3.40133">
        <ele>231.5</ele>
        <time>2016-07-02T08:00:05Z</time>
      </trkpt>
      <trkpt lat="43.6059" lon="3.40124">
        <ele>232.2</ele>
        <time>2016-07-02T08:00:07Z</time>
      </trkpt>
      <trkpt lat="43.60592" lon="3.40115">
        <ele>232.4</ele>
        <time>2016-07-02T08:00:10Z</time>
      </trkpt>
      <trkpt lat="43.60597" lon="3.40102">
        <ele>232.7</ele>
        <time>2016-07-02T08:00:14Z</time>
      </trkpt>
      <trkpt lat="43.60599" lon="3.40092">
        <ele>233.1</ele>
        <time>2016-07-02T08:00:17Z</time>
      </trkpt>
      <trkpt lat="43.60599" lon="3.40082">
        <ele>233.6</ele>
        <time>2016-07-02T08:00:20Z</time>
      </trkpt>
      <trkpt lat="43.60598" lon="3.40071">
        <ele>234</ele>
        <time>2016-07-02T08:00:23Z</time>
      </trkpt>
      <trkpt lat="43.60599" lon="3.40059">
        <ele>234.6</ele>
        <time>2016-07-02T08:00:27Z</time>
      </trkpt>
      <trkpt lat="43.60599" lon="3.40049">
        <ele>234.7</ele>
        <time>2016-07-02T08:00:30Z</time>
      </trkpt>
      <trkpt lat="43.60599" lon="3.40038">
        <ele>235.1</ele>
        <time>2016-07-02T08:00:34Z</time>
      </trkpt>
      <trkpt lat="43.606" lon="3.40027">
        <ele>235.7</ele>
        <time>2016-07-02T08:00:39Z</time>
      </trkpt>
      <trkpt lat="43.60601" lon="3.40016">
        <ele>236.2</ele>
        <time>2016-07-02T08:00:43Z</time>
      </trkpt>
      <trkpt lat="43.60604" lon="3.40005">
        <ele>237.1</ele>
        <time>2016-07-02T08:00:49Z</time>
      </trkpt>
      <trkpt lat="43.6061" lon="3.39996">
        <ele>238.2</ele>
        <time>2016-07-02T08:00:55Z</time>
      </trkpt>
      <trkpt lat="43.60614" lon="3.39987">
        <ele>238.9</ele>
        <time>2016-07-02T08:00:59Z</time>
      </trkpt>
      <trkpt lat="43.60612" lon="3.39975">
        <ele>239.5</ele>
        <time>2016-07-02T08:01:04Z</time>
      </trkpt>
      <trkpt lat="43.60608" lon="3.39965">
        <ele>240.2</ele>
        <time>2016-07-02T08:01:09Z</time>
      </trkpt>
      <trkpt lat="43.60611" lon="3.39955">
        <ele>240.9</ele>
        <time>2016-07-02T08:01:14Z</time>
      </trkpt>
      <trkpt lat="43.60618" lon="3.3995">
        <ele>241.7</ele>
        <time>2016-07-02T08:01:18Z</time>
      </trkpt>
      <trkpt lat="43.60625" lon="3.39949">
        <ele>242.4</ele>
        <time>2016-07-02T08:01:22Z</time>
      </trkpt>
      <trkpt lat="43.60632" lon="3.39947">
        <ele>243.4</ele>
        <time>2016-07-02T08:01:29Z</time>
      </trkpt>
      <trkpt lat="43.6063" lon="3.39946">
        <ele>243.7</ele>
        <time>2016-07-02T08:01:36Z</time>
      </trkpt>
      <trkpt lat="43.60636" lon="3.3994">
        <ele>247.5</ele>
        <time>2016-07-02T08:03:47Z</time>
      </trkpt>
      <trkpt lat="43.60642" lon="3.3993">
        <ele>247.8</ele>
        <time>2016-07-02T08:03:50Z</time>
      </trkpt>
      <trkpt lat="43.60648" lon="3.39923">
        <ele>247.9</ele>
        <time>2016-07-02T08:03:52Z</time>
      </trkpt>
      <trkpt lat="43.60657" lon="3.39915">
        <ele>248</ele>
        <time>2016-07-02T08:03:55Z</time>
      </trkpt>
      <trkpt lat="43.60663" lon="3.39904">
        <ele>248.2</ele>
        <time>2016-07-02T08:03:58Z</time>
      </trkpt>
      <trkpt lat="43.60666" lon="3.39894">
        <ele>249</ele>
        <time>2016-07-02T08:04:00Z</time>
      </trkpt>
      <trkpt lat="43.60669" lon="3.39884">
        <ele>249.7</ele>
        <time>2016-07-02T08:04:02Z</time>
      </trkpt>
      <trkpt lat="43.60674" lon="3.39875">
        <ele>249.9</ele>
        <time>2016-07-02T08:04:04Z</time>
      </trkpt>
      <trkpt lat="43.60674" lon="3.39863">
        <ele>249.9</ele>
        <time>2016-07-02T08:04:07Z</time>
      </trkpt>
      <trkpt lat="43.60677" lon="3.39852">
        <ele>250.3</ele>
        <time>2016-07-02T08:04:09Z</time>
      </trkpt>
      <trkpt lat="43.60683" lon="3.39844">
        <ele>250.3</ele>
        <time>2016-07-02T08:04:11Z</time>
      </trkpt>
      <trkpt lat="43.6069" lon="3.39837">
        <ele>251.4</ele>
        <time>2016-07-02T08:04:13Z</time>
      </trkpt>
      <trkpt lat="43.60699" lon="3.39829">
        <ele>251.8</ele>
        <time>2016-07-02T08:04:15Z</time>
      </trkpt>
      <trkpt lat="43.60708" lon="3.39829">
        <ele>250.8</ele>
        <time>2016-07-02T08:04:17Z</time>
      </trkpt>
      <trkpt lat="43.6072" lon="3.39835">
        <ele>250.2</ele>
        <time>2016-07-02T08:04:19Z</time>
      </trkpt>
      <trkpt lat="43.60727" lon="3.39845">
        <ele>249.1</ele>
        <time>2016-07-02T08:04:21Z</time>
      </trkpt>
      <trkpt lat="43.60731" lon="3.39858">
        <ele>247.5</ele>
        <time>2016-07-02T08:04:23Z</time>
      </trkpt>
      <trkpt lat="43.60731" lon="3.39873">
        <ele>246.7</ele>
        <time>2016-07-02T08:04:25Z</time>
      </trkpt>
      <trkpt lat="43.60734" lon="3.39883">
        <ele>246.4</ele>
        <time>2016-07-02T08:04:28Z</time>
      </trkpt>
      <trkpt lat="43.6074" lon="3.39871">
        <ele>246.1</ele>
        <time>2016-07-02T08:04:32Z</time>
      </trkpt>
      <trkpt lat="43.60744" lon="3.39857">
        <ele>245</ele>
        <time>2016-07-02T08:04:34Z</time>
      </trkpt>
      <trkpt lat="43.60745" lon="3.39843">
        <ele>243.9</ele>
        <time>2016-07-02T08:04:36Z</time>
      </trkpt>
      <trkpt lat="43.60743" lon="3.39829">
        <ele>243.3</ele>
        <time>2016-07-02T08:04:38Z</time>
      </trkpt>
      <trkpt lat="43.60743" lon="3.39812">
        <ele>242.1</ele>
        <time>2016-07-02T08:04:40Z</time>
      </trkpt>
      <trkpt lat="43.60737" lon="3.39803">
        <ele>242</ele>
        <time>2016-07-02T08:04:42Z</time>
      </trkpt>
      <trkpt lat="43.6073" lon="3.39793">
        <ele>241.7</ele>
        <time>2016-07-02T08:04:45Z</time>
      </trkpt>
      <trkpt lat="43.60726" lon="3.39781">
        <ele>241.4</ele>
        <time>2016-07-02T08:04:49Z</time>
      </trkpt>
      <trkpt lat="43.60721" lon="3.39773">
        <ele>241.4</ele>
        <time>2016-07-02T08:04:53Z</time>
      </trkpt>
      <trkpt lat="43.60719" lon="3.39762">
        <ele>241.3</ele>
        <time>2016-07-02T08:04:57Z</time>
      </trkpt>
      <trkpt lat="43.60715" lon="3.39748">
        <ele>241.3</ele>
        <time>2016-07-02T08:05:00Z</time>
      </trkpt>
      <trkpt lat="43.60711" lon="3.39733">
        <ele>241.3</ele>
        <time>2016-07-02T08:05:02Z</time>
      </trkpt>
      <trkpt lat="43.60705" lon="3.39723">
        <ele>240.6</ele>
        <time>2016-07-02T08:05:04Z</time>
      </trkpt>
      <trkpt lat="43.60698" lon="3.39717">
        <ele>240</ele>
        <time>2016-07-02T08:05:06Z</time>
      </trkpt>
      <trkpt lat="43.60699" lon="3.39706">
        <ele>239.5</ele>
        <time>2016-07-02T08:05:10Z</time>
      </trkpt>
      <trkpt lat="43.60706" lon="3.397">
        <ele>239.2</ele>
        <time>2016-07-02T08:05:13Z</time>
      </trkpt>
      <trkpt lat="43.60716" lon="3.39694">
        <ele>238.8</ele>
        <time>2016-07-02T08:05:16Z</time>
      </trkpt>
      <trkpt lat="43.60726" lon="3.39688">
        <ele>238.4</ele>
        <time>2016-07-02T08:05:19Z</time>
      </trkpt>
      <trkpt lat="43.60736" lon="3.39687">
        <ele>238</ele>
        <time>2016-07-02T08:05:22Z</time>
      </trkpt>
      <trkpt lat="43.60746" lon="3.3969">
        <ele>237.6</ele>
        <time>2016-07-02T08:05:25Z</time>
      </trkpt>
      <trkpt lat="43.60756" lon="3.39695">
        <ele>237.3</ele>
        <time>2016-07-02T08:05:27Z</time>
      </trkpt>
      <trkpt lat="43.60761" lon="3.39703">
        <ele>236.9</ele>
        <time>2016-07-02T08:05:29Z</time>
      </trkpt>
      <trkpt lat="43.60766" lon="3.39713">
        <ele>234.7</ele>
        <time>2016-07-02T08:05:31Z</time>
      </trkpt>
      <trkpt lat="43.60775" lon="3.39708">
        <ele>234</ele>
        <time>2016-07-02T08:05:35Z</time>
      </trkpt>
      <trkpt lat="43.60779" lon="3.39699">
        <ele>233.5</ele>
        <time>2016-07-02T08:05:37Z</time>
      </trkpt>
      <trkpt lat="43.6078" lon="3.39689">
        <ele>233.1</ele>
        <time>2016-07-02T08:05:39Z</time>
      </trkpt>
      <trkpt lat="43.60777" lon="3.39678">
        <ele>232.6</ele>
        <time>2016-07-02T08:05:41Z</time>
      </trkpt>
      <trkpt lat="43.60769" lon="3.39667">
        <ele>232</ele>
        <time>2016-07-02T08:05:44Z</time>
      </trkpt>
      <trkpt lat="43.60763" lon="3.39659">
        <ele>231.5</ele>
        <time>2016-07-02T08:05:46Z</time>
      </trkpt>
      <trkpt lat="43.60771" lon="3.39657">
        <ele>230.5</ele>
        <time>2016-07-02T08:05:50Z</time>
      </trkpt>
      <trkpt lat="43.60779" lon="3.3966">
        <ele>227.3</ele>
        <time>2016-07-02T08:05:52Z</time>
      </trkpt>
      <trkpt lat="43.60779" lon="3.39653">
        <ele>225.2</ele>
        <time>2016-07-02T08:06:00Z</time>
      </trkpt>
      <trkpt lat="43.60772" lon="3.39648">
        <ele>224.4</ele>
        <time>2016-07-02T08:06:03Z</time>
      </trkpt>
      <trkpt lat="43.60766" lon="3.39639">
        <ele>223.9</ele>
        <time>2016-07-02T08:06:05Z</time>
      </trkpt>
      <trkpt lat="43.60759" lon="3.3963">
        <ele>219.1</ele>
        <time>2016-07-02T08:06:07Z</time>
      </trkpt>
      <trkpt lat="43.6075" lon="3.39619">
        <ele>215.1</ele>
        <time>2016-07-02T08:06:09Z</time>
      </trkpt>
      <trkpt lat="43.60738" lon="3.39613">
        <ele>212.2</ele>
        <time>2016-07-02T08:06:11Z</time>
      </trkpt>
      <trkpt lat="43.6073" lon="3.39611">
        <ele>210.6</ele>
        <time>2016-07-02T08:06:12Z</time>
      </trkpt>
      <trkpt lat="43.60719" lon="3.39606">
        <ele>209.1</ele>
        <time>2016-07-02T08:06:14Z</time>
      </trkpt>
      <trkpt lat="43.60712" lon="3.39602">
        <ele>208.2</ele>
        <time>2016-07-02T08:06:16Z</time>
      </trkpt>
      <trkpt lat="43.60703" lon="3.396">
        <ele>207.9</ele>
        <time>2016-07-02T08:06:20Z</time>
      </trkpt>
      <trkpt lat="43.60695" lon="3.39599">
        <ele>207.7</ele>
        <time>2016-07-02T08:06:24Z</time>
      </trkpt>
      <trkpt lat="43.60687" lon="3.39595">
        <ele>207.6</ele>
        <time>2016-07-02T08:06:28Z</time>
      </trkpt>
      <trkpt lat="43.60683" lon="3.39587">
        <ele>207.5</ele>
        <time>2016-07-02T08:06:31Z</time>
      </trkpt>
      <trkpt lat="43.60679" lon="3.39575">
        <ele>207.4</ele>
        <time>2016-07-02T08:06:34Z</time>
      </trkpt>
      <trkpt lat="43.60674" lon="3.39566">
        <ele>207.4</ele>
        <time>2016-07-02T08:06:37Z</time>
      </trkpt>
      <trkpt lat="43.60665" lon="3.3956">
        <ele>207.1</ele>
        <time>2016-07-02T08:06:41Z</time>
      </trkpt>
      <trkpt lat="43.60657" lon="3.39554">
        <ele>206.9</ele>
        <time>2016-07-02T08:06:45Z</time>
      </trkpt>
      <trkpt lat="43.60649" lon="3.39547">
        <ele>206.7</ele>
        <time>2016-07-02T08:06:49Z</time>
      </trkpt>
      <trkpt lat="43.60644" lon="3.39538">
        <ele>206.7</ele>
        <time>2016-07-02T08:06:54Z</time>
      </trkpt>
      <trkpt lat="43.60649" lon="3.3953">
        <ele>206.8</ele>
        <time>2016-07-02T08:06:58Z</time>
      </trkpt>
      <trkpt lat="43.60654" lon="3.39521">
        <ele>207.1</ele>
        <time>2016-07-02T08:07:04Z</time>
      </trkpt>
      <trkpt lat="43.60661" lon="3.39516">
        <ele>207.5</ele>
        <time>2016-07-02T08:07:10Z</time>
      </trkpt>
      <trkpt lat="43.60668" lon="3.39509">
        <ele>208</ele>
        <time>2016-07-02T08:07:16Z</time>
      </trkpt>
      <trkpt lat="43.60675" lon="3.39506">
        <ele>208.6</ele>
        <time>2016-07-02T08:07:22Z</time>
      </trkpt>
      <trkpt lat="43.60681" lon="3.39502">
        <ele>209.2</ele>
        <time>2016-07-02T08:07:28Z</time>
      </trkpt>
      <trkpt lat="43.60689" lon="3.39499">
        <ele>210.3</ele>
        <time>2016-07-02T08:07:35Z</time>
      </trkpt>
      <trkpt lat="43.60696" lon="3.39496">
        <ele>211</ele>
        <time>2016-07-02T08:07:40Z</time>
      </trkpt>
      <trkpt lat="43.60704" lon="3.39493">
        <ele>212.2</ele>
        <time>2016-07-02T08:07:46Z</time>
      </trkpt>
      <trkpt lat="43.60711" lon="3.39489">
        <ele>213.3</ele>
        <time>2016-07-02T08:07:51Z</time>
      </trkpt>
      <trkpt lat="43.60718" lon="3.39486">
        <ele>213.8</ele>
        <time>2016-07-02T08:07:55Z</time>
      </trkpt>
      <trkpt lat="43.60725" lon="3.39482">
        <ele>214.4</ele>
        <time>2016-07-02T08:08:00Z</time>
      </trkpt>
      <trkpt lat="43.60732" lon="3.39478">
        <ele>214.9</ele>
        <time>2016-07-02T08:08:04Z</time>
      </trkpt>
      <trkpt lat="43.60739" lon="3.39474">
        <ele>215.9</ele>
        <time>2016-07-02T08:08:10Z</time>
      </trkpt>
      <trkpt lat="43.60745" lon="3.39468">
        <ele>217.2</ele>
        <time>2016-07-02T08:08:17Z</time>
      </trkpt>
      <trkpt lat="43.6075" lon="3.3946">
        <ele>218.2</ele>
        <time>2016-07-02T08:08:23Z</time>
      </trkpt>
      <trkpt lat="43.60755" lon="3.39453">
        <ele>219.5</ele>
        <time>2016-07-02T08:08:29Z</time>
      </trkpt>
      <trkpt lat="43.6076" lon="3.39445">
        <ele>220.3</ele>
        <time>2016-07-02T08:08:33Z</time>
      </trkpt>
      <trkpt lat="43.6076" lon="3.39433">
        <ele>221.5</ele>
        <time>2016-07-02T08:08:40Z</time>
      </trkpt>
      <trkpt lat="43.60757" lon="3.39425">
        <ele>223.1</ele>
        <time>2016-07-02T08:08:47Z</time>
      </trkpt>
      <trkpt lat="43.60755" lon="3.39417">
        <ele>224.4</ele>
        <time>2016-07-02T08:08:54Z</time>
      </trkpt>
      <trkpt lat="43.60752" lon="3.39423">
        <ele>225.4</ele>
        <time>2016-07-02T08:09:01Z</time>
      </trkpt>
      <trkpt lat="43.60755" lon="3.39428">
        <ele>226.4</ele>
        <time>2016-07-02T08:09:08Z</time>
      </trkpt>
      <trkpt lat="43.60756" lon="3.39432">
        <ele>227.2</ele>
        <time>2016-07-02T08:09:22Z</time>
      </trkpt>
      <trkpt lat="43.60755" lon="3.3943">
        <ele>227.8</ele>
        <time>2016-07-02T08:09:50Z</time>
      </trkpt>
      <trkpt lat="43.60753" lon="3.39423">
        <ele>234.6</ele>
        <time>2016-07-02T08:15:22Z</time>
      </trkpt>
      <trkpt lat="43.60751" lon="3.39412">
        <ele>234.8</ele>
        <time>2016-07-02T08:15:26Z</time>
      </trkpt>
      <trkpt lat="43.6075" lon="3.39401">
        <ele>234.8</ele>
        <time>2016-07-02T08:15:30Z</time>
      </trkpt>
      <trkpt lat="43.60748" lon="3.3939">
        <ele>234.8</ele>
        <time>2016-07-02T08:15:34Z</time>
      </trkpt>
      <trkpt lat="43.60746" lon="3.3938">
        <ele>234.8</ele>
        <time>2016-07-02T08:15:38Z</time>
      </trkpt>
      <trkpt lat="43.60744" lon="3.39369">
        <ele>234.8</ele>
        <time>2016-07-02T08:15:42Z</time>
      </trkpt>
      <trkpt lat="43.60739" lon="3.3936">
        <ele>234.7</ele>
        <time>2016-07-02T08:15:46Z</time>
      </trkpt>
      <trkpt lat="43.60736" lon="3.3935">
        <ele>234.6</ele>
        <time>2016-07-02T08:15:50Z</time>
      </trkpt>
      <trkpt lat="43.60732" lon="3.39341">
        <ele>234.6</ele>
        <time>2016-07-02T08:15:54Z</time>
      </trkpt>
      <trkpt lat="43.60729" lon="3.39331">
        <ele>234.7</ele>
        <time>2016-07-02T08:15:58Z</time>
      </trkpt>
      <trkpt lat="43.60727" lon="3.39322">
        <ele>234.9</ele>
        <time>2016-07-02T08:16:02Z</time>
      </trkpt>
      <trkpt lat="43.60725" lon="3.39311">
        <ele>235.2</ele>
        <time>2016-07-02T08:16:06Z</time>
      </trkpt>
      <trkpt lat="43.60722" lon="3.39301">
        <ele>235.4</ele>
        <time>2016-07-02T08:16:09Z</time>
      </trkpt>
      <trkpt lat="43.6072" lon="3.3929">
        <ele>235.8</ele>
        <time>2016-07-02T08:16:13Z</time>
      </trkpt>
      <trkpt lat="43.60717" lon="3.39278">
        <ele>236.3</ele>
        <time>2016-07-02T08:16:17Z</time>
      </trkpt>
      <trkpt lat="43.60715" lon="3.39267">
        <ele>236.7</ele>
        <time>2016-07-02T08:16:21Z</time>
      </trkpt>
      <trkpt lat="43.60713" lon="3.39256">
        <ele>237.1</ele>
        <time>2016-07-02T08:16:25Z</time>
      </trkpt>
      <trkpt lat="43.60712" lon="3.39246">
        <ele>237.5</ele>
        <time>2016-07-02T08:16:29Z</time>
      </trkpt>
      <trkpt lat="43.6071" lon="3.39235">
        <ele>238</ele>
        <time>2016-07-02T08:16:33Z</time>
      </trkpt>
      <trkpt lat="43.60709" lon="3.39224">
        <ele>238.4</ele>
        <time>2016-07-02T08:16:37Z</time>
      </trkpt>
      <trkpt lat="43.60707" lon="3.39214">
        <ele>238.9</ele>
        <time>2016-07-02T08:16:41Z</time>
      </trkpt>
      <trkpt lat="43.60704" lon="3.39205">
        <ele>239.5</ele>
        <time>2016-07-02T08:16:45Z</time>
      </trkpt>
      <trkpt lat="43.607" lon="3.39194">
        <ele>240.2</ele>
        <time>2016-07-02T08:16:50Z</time>
      </trkpt>
      <trkpt lat="43.60697" lon="3.39185">
        <ele>240.9</ele>
        <time>2016-07-02T08:16:54Z</time>
      </trkpt>
      <trkpt lat="43.60695" lon="3.39175">
        <ele>241.5</ele>
        <time>2016-07-02T08:16:58Z</time>
      </trkpt>
      <trkpt lat="43.60694" lon="3.39165">
        <ele>242</ele>
        <time>2016-07-02T08:17:02Z</time>
      </trkpt>
      <trkpt lat="43.60693" lon="3.39155">
        <ele>242.6</ele>
        <time>2016-07-02T08:17:06Z</time>
      </trkpt>
      <trkpt lat="43.60688" lon="3.39145">
        <ele>243.3</ele>
        <time>2016-07-02T08:17:11Z</time>
      </trkpt>
      <trkpt lat="43.60679" lon="3.39144">
        <ele>244.4</ele>
        <time>2016-07-02T08:17:16Z</time>
      </trkpt>
      <trkpt lat="43.60672" lon="3.39147">
        <ele>245.2</ele>
        <time>2016-07-02T08:17:20Z</time>
      </trkpt>
      <trkpt lat="43.60664" lon="3.39151">
        <ele>246</ele>
        <time>2016-07-02T08:17:24Z</time>
      </trkpt>
      <trkpt lat="43.60657" lon="3.39153">
        <ele>246.7</ele>
        <time>2016-07-02T08:17:28Z</time>
      </trkpt>
      <trkpt lat="43.60649" lon="3.39152">
        <ele>247.4</ele>
        <time>2016-07-02T08:17:32Z</time>
      </trkpt>
      <trkpt lat="43.6064" lon="3.39148">
        <ele>248.1</ele>
        <time>2016-07-02T08:17:36Z</time>
      </trkpt>
      <trkpt lat="43.60632" lon="3.39144">
        <ele>248.7</ele>
        <time>2016-07-02T08:17:39Z</time>
      </trkpt>
      <trkpt lat="43.60626" lon="3.39139">
        <ele>249</ele>
        <time>2016-07-02T08:17:42Z</time>
      </trkpt>
      <trkpt lat="43.60618" lon="3.39132">
        <ele>249.5</ele>
        <time>2016-07-02T08:17:46Z</time>
      </trkpt>
      <trkpt lat="43.60613" lon="3.39123">
        <ele>250.1</ele>
        <time>2016-07-02T08:17:50Z</time>
      </trkpt>
      <trkpt lat="43.60608" lon="3.39114">
        <ele>250.8</ele>
        <time>2016-07-02T08:17:54Z</time>
      </trkpt>
      <trkpt lat="43.60604" lon="3.39103">
        <ele>251.6</ele>
        <time>2016-07-02T08:17:58Z</time>
      </trkpt>
      <trkpt lat="43.606" lon="3.39092">
        <ele>252.3</ele>
        <time>2016-07-02T08:18:02Z</time>
      </trkpt>
      <trkpt lat="43.60597" lon="3.3908">
        <ele>252.8</ele>
        <time>2016-07-02T08:18:06Z</time>
      </trkpt>
      <trkpt lat="43.60594" lon="3.39069">
        <ele>253.3</ele>
        <time>2016-07-02T08:18:10Z</time>
      </trkpt>
      <trkpt lat="43.60592" lon="3.39056">
        <ele>253.8</ele>
        <time>2016-07-02T08:18:14Z</time>
      </trkpt>
      <trkpt lat="43.6059" lon="3.39045">
        <ele>254.3</ele>
        <time>2016-07-02T08:18:18Z</time>
      </trkpt>
      <trkpt lat="43.60589" lon="3.39034">
        <ele>254.7</ele>
        <time>2016-07-02T08:18:22Z</time>
      </trkpt>
      <trkpt lat="43.60587" lon="3.39022">
        <ele>255.3</ele>
        <time>2016-07-02T08:18:26Z</time>
      </trkpt>
      <trkpt lat="43.60587" lon="3.39011">
        <ele>255.9</ele>
        <time>2016-07-02T08:18:30Z</time>
      </trkpt>
      <trkpt lat="43.60585" lon="3.39">
        <ele>256.6</ele>
        <time>2016-07-02T08:18:34Z</time>
      </trkpt>
      <trkpt lat="43.60584" lon="3.38989">
        <ele>257.4</ele>
        <time>2016-07-02T08:18:38Z</time>
      </trkpt>
      <trkpt lat="43.60584" lon="3.38978">
        <ele>257.9</ele>
        <time>2016-07-02T08:18:41Z</time>
      </trkpt>
      <trkpt lat="43.60582" lon="3.38968">
        <ele>258.4</ele>
        <time>2016-07-02T08:18:45Z</time>
      </trkpt>
      <trkpt lat="43.60581" lon="3.38956">
        <ele>259</ele>
        <time>2016-07-02T08:18:49Z</time>
      </trkpt>
      <trkpt lat="43.6058" lon="3.38944">
        <ele>259.6</ele>
        <time>2016-07-02T08:18:53Z</time>
      </trkpt>
      <trkpt lat="43.60581" lon="3.38934">
        <ele>260.2</ele>
        <time>2016-07-02T08:18:57Z</time>
      </trkpt>
      <trkpt lat="43.60581" lon="3.38921">
        <ele>260.8</ele>
        <time>2016-07-02T08:19:01Z</time>
      </trkpt>
      <trkpt lat="43.6058" lon="3.38909">
        <ele>261.5</ele>
        <time>2016-07-02T08:19:05Z</time>
      </trkpt>
      <trkpt lat="43.6058" lon="3.38898">
        <ele>262.2</ele>
        <time>2016-07-02T08:19:09Z</time>
      </trkpt>
      <trkpt lat="43.60579" lon="3.38887">
        <ele>262.8</ele>
        <time>2016-07-02T08:19:13Z</time>
      </trkpt>
      <trkpt lat="43.60577" lon="3.38876">
        <ele>263.5</ele>
        <time>2016-07-02T08:19:17Z</time>
      </trkpt>
      <trkpt lat="43.60575" lon="3.38865">
        <ele>264.1</ele>
        <time>2016-07-02T08:19:21Z</time>
      </trkpt>
      <trkpt lat="43.60569" lon="3.38857">
        <ele>264.8</ele>
        <time>2016-07-02T08:19:25Z</time>
      </trkpt>
      <trkpt lat="43.60561" lon="3.38856">
        <ele>265.5</ele>
        <time>2016-07-02T08:19:29Z</time>
      </trkpt>
      <trkpt lat="43.60552" lon="3.38856">
        <ele>266.1</ele>
        <time>2016-07-02T08:19:32Z</time>
      </trkpt>
      <trkpt lat="43.60544" lon="3.38855">
        <ele>266.7</ele>
        <time>2016-07-02T08:19:35Z</time>
      </trkpt>
      <trkpt lat="43.60537" lon="3.38852">
        <ele>267.1</ele>
        <time>2016-07-02T08:19:38Z</time>
      </trkpt>
      <trkpt lat="43.6053" lon="3.38848">
        <ele>267.6</ele>
        <time>2016-07-02T08:19:41Z</time>
      </trkpt>
      <trkpt lat="43.60524" lon="3.38843">
        <ele>268</ele>
        <time>2016-07-02T08:19:44Z</time>
      </trkpt>
      <trkpt lat="43.60518" lon="3.38837">
        <ele>268.3</ele>
        <time>2016-07-02T08:19:47Z</time>
      </trkpt>
      <trkpt lat="43.60514" lon="3.38828">
        <ele>268.6</ele>
        <time>2016-07-02T08:19:50Z</time>
      </trkpt>
      <trkpt lat="43.60511" lon="3.38817">
        <ele>269</ele>
        <time>2016-07-02T08:19:53Z</time>
      </trkpt>
      <trkpt lat="43.6051" lon="3.38805">
        <ele>269.5</ele>
        <time>2016-07-02T08:19:57Z</time>
      </trkpt>
      <trkpt lat="43.6051" lon="3.38793">
        <ele>269.8</ele>
        <time>2016-07-02T08:20:00Z</time>
      </trkpt>
      <trkpt lat="43.60511" lon="3.38782">
        <ele>270.1</ele>
        <time>2016-07-02T08:20:03Z</time>
      </trkpt>
      <trkpt lat="43.60513" lon="3.38771">
        <ele>270.4</ele>
        <time>2016-07-02T08:20:06Z</time>
      </trkpt>
      <trkpt lat="43.60515" lon="3.3876">
        <ele>270.7</ele>
        <time>2016-07-02T08:20:09Z</time>
      </trkpt>
      <trkpt lat="43.60515" lon="3.38749">
        <ele>271</ele>
        <time>2016-07-02T08:20:12Z</time>
      </trkpt>
      <trkpt lat="43.60511" lon="3.3874">
        <ele>271.3</ele>
        <time>2016-07-02T08:20:15Z</time>
      </trkpt>
      <trkpt lat="43.60507" lon="3.38731">
        <ele>271.7</ele>
        <time>2016-07-02T08:20:18Z</time>
      </trkpt>
      <trkpt lat="43.60502" lon="3.38723">
        <ele>272.1</ele>
        <time>2016-07-02T08:20:21Z</time>
      </trkpt>
      <trkpt lat="43.60498" lon="3.38714">
        <ele>272.5</ele>
        <time>2016-07-02T08:20:24Z</time>
      </trkpt>
      <trkpt lat="43.60494" lon="3.38706">
        <ele>272.8</ele>
        <time>2016-07-02T08:20:27Z</time>
      </trkpt>
      <trkpt lat="43.6049" lon="3.38697">
        <ele>273.1</ele>
        <time>2016-07-02T08:20:30Z</time>
      </trkpt>
      <trkpt lat="43.60486" lon="3.38688">
        <ele>273.4</ele>
        <time>2016-07-02T08:20:33Z</time>
      </trkpt>
      <trkpt lat="43.60481" lon="3.3868">
        <ele>273.7</ele>
        <time>2016-07-02T08:20:36Z</time>
      </trkpt>
      <trkpt lat="43.60476" lon="3.38669">
        <ele>274.2</ele>
        <time>2016-07-02T08:20:40Z</time>
      </trkpt>
      <trkpt lat="43.60471" lon="3.3866">
        <ele>274.7</ele>
        <time>2016-07-02T08:20:43Z</time>
      </trkpt>
      <trkpt lat="43.60467" lon="3.38651">
        <ele>275.2</ele>
        <time>2016-07-02T08:20:46Z</time>
      </trkpt>
      <trkpt lat="43.60462" lon="3.38641">
        <ele>275.6</ele>
        <time>2016-07-02T08:20:49Z</time>
      </trkpt>
      <trkpt lat="43.60457" lon="3.38631">
        <ele>275.9</ele>
        <time>2016-07-02T08:20:52Z</time>
      </trkpt>
      <trkpt lat="43.60453" lon="3.38623">
        <ele>276.3</ele>
        <time>2016-07-02T08:20:55Z</time>
      </trkpt>
      <trkpt lat="43.60448" lon="3.38612">
        <ele>276.6</ele>
        <time>2016-07-02T08:20:58Z</time>
      </trkpt>
      <trkpt lat="43.60443" lon="3.38602">
        <ele>276.9</ele>
        <time>2016-07-02T08:21:01Z</time>
      </trkpt>
      <trkpt lat="43.60439" lon="3.38592">
        <ele>277.1</ele>
        <time>2016-07-02T08:21:04Z</time>
      </trkpt>
      <trkpt lat="43.60435" lon="3.38581">
        <ele>277.4</ele>
        <time>2016-07-02T08:21:07Z</time>
      </trkpt>
      <trkpt lat="43.60431" lon="3.3857">
        <ele>277.7</ele>
        <time>2016-07-02T08:21:10Z</time>
      </trkpt>
      <trkpt lat="43.60427" lon="3.38559">
        <ele>277.9</ele>
        <time>2016-07-02T08:21:13Z</time>
      </trkpt>
      <trkpt lat="43.60424" lon="3.38548">
        <ele>278</ele>
        <time>2016-07-02T08:21:16Z</time>
      </trkpt>
      <trkpt lat="43.6042" lon="3.38536">
        <ele>278.2</ele>
        <time>2016-07-02T08:21:19Z</time>
      </trkpt>
      <trkpt lat="43.60417" lon="3.38525">
        <ele>278.3</ele>
        <time>2016-07-02T08:21:22Z</time>
      </trkpt>
      <trkpt lat="43.60414" lon="3.38514">
        <ele>278.6</ele>
        <time>2016-07-02T08:21:25Z</time>
      </trkpt>
      <trkpt lat="43.60411" lon="3.38503">
        <ele>278.8</ele>
        <time>2016-07-02T08:21:28Z</time>
      </trkpt>
      <trkpt lat="43.60408" lon="3.38492">
        <ele>279.1</ele>
        <time>2016-07-02T08:21:31Z</time>
      </trkpt>
      <trkpt lat="43.60405" lon="3.38482">
        <ele>279.4</ele>
        <time>2016-07-02T08:21:34Z</time>
      </trkpt>
      <trkpt lat="43.60402" lon="3.38472">
        <ele>279.6</ele>
        <time>2016-07-02T08:21:37Z</time>
      </trkpt>
      <trkpt lat="43.604" lon="3.38459">
        <ele>279.9</ele>
        <time>2016-07-02T08:21:40Z</time>
      </trkpt>
      <trkpt lat="43.60397" lon="3.38444">
        <ele>280.1</ele>
        <time>2016-07-02T08:21:43Z</time>
      </trkpt>
      <trkpt lat="43.60395" lon="3.38431">
        <ele>280.2</ele>
        <time>2016-07-02T08:21:46Z</time>
      </trkpt>
      <trkpt lat="43.60393" lon="3.3842">
        <ele>280.4</ele>
        <time>2016-07-02T08:21:49Z</time>
      </trkpt>
      <trkpt lat="43.60391" lon="3.3841">
        <ele>280.5</ele>
        <time>2016-07-02T08:21:52Z</time>
      </trkpt>
      <trkpt lat="43.60389" lon="3.38398">
        <ele>280.9</ele>
        <time>2016-07-02T08:21:56Z</time>
      </trkpt>
      <trkpt lat="43.60386" lon="3.38385">
        <ele>281.1</ele>
        <time>2016-07-02T08:22:00Z</time>
      </trkpt>
      <trkpt lat="43.60385" lon="3.38375">
        <ele>281.3</ele>
        <time>2016-07-02T08:22:03Z</time>
      </trkpt>
      <trkpt lat="43.60383" lon="3.38362">
        <ele>281.5</ele>
        <time>2016-07-02T08:22:07Z</time>
      </trkpt>
      <trkpt lat="43.60382" lon="3.3835">
        <ele>281.8</ele>
        <time>2016-07-02T08:22:11Z</time>
      </trkpt>
      <trkpt lat="43.60382" lon="3.3834">
        <ele>281.9</ele>
        <time>2016-07-02T08:22:14Z</time>
      </trkpt>
      <trkpt lat="43.60381" lon="3.38327">
        <ele>282.2</ele>
        <time>2016-07-02T08:22:18Z</time>
      </trkpt>
      <trkpt lat="43.60381" lon="3.38314">
        <ele>282.5</ele>
        <time>2016-07-02T08:22:22Z</time>
      </trkpt>
      <trkpt lat="43.6038" lon="3.38301">
        <ele>282.9</ele>
        <time>2016-07-02T08:22:26Z</time>
      </trkpt>
      <trkpt lat="43.6038" lon="3.38288">
        <ele>283.4</ele>
        <time>2016-07-02T08:22:30Z</time>
      </trkpt>
      <trkpt lat="43.60379" lon="3.38277">
        <ele>283.9</ele>
        <time>2016-07-02T08:22:33Z</time>
      </trkpt>
      <trkpt lat="43.60378" lon="3.38266">
        <ele>284.4</ele>
        <time>2016-07-02T08:22:36Z</time>
      </trkpt>
      <trkpt lat="43.60378" lon="3.38255">
        <ele>284.8</ele>
        <time>2016-07-02T08:22:39Z</time>
      </trkpt>
      <trkpt lat="43.60378" lon="3.38244">
        <ele>285.1</ele>
        <time>2016-07-02T08:22:42Z</time>
      </trkpt>
      <trkpt lat="43.60378" lon="3.38233">
        <ele>285.4</ele>
        <time>2016-07-02T08:22:45Z</time>
      </trkpt>
      <trkpt lat="43.60377" lon="3.38223">
        <ele>285.7</ele>
        <time>2016-07-02T08:22:48Z</time>
      </trkpt>
      <trkpt lat="43.60376" lon="3.38213">
        <ele>286</ele>
        <time>2016-07-02T08:22:51Z</time>
      </trkpt>
      <trkpt lat="43.60375" lon="3.382">
        <ele>286.4</ele>
        <time>2016-07-02T08:22:55Z</time>
      </trkpt>
      <trkpt lat="43.60374" lon="3.3819">
        <ele>286.7</ele>
        <time>2016-07-02T08:22:58Z</time>
      </trkpt>
      <trkpt lat="43.60373" lon="3.38179">
        <ele>287</ele>
        <time>2016-07-02T08:23:01Z</time>
      </trkpt>
      <trkpt lat="43.60372" lon="3.38166">
        <ele>287.4</ele>
        <time>2016-07-02T08:23:05Z</time>
      </trkpt>
      <trkpt lat="43.60371" lon="3.38156">
        <ele>287.7</ele>
        <time>2016-07-02T08:23:08Z</time>
      </trkpt>
      <trkpt lat="43.60371" lon="3.38146">
        <ele>288</ele>
        <time>2016-07-02T08:23:11Z</time>
      </trkpt>
      <trkpt lat="43.6037" lon="3.38135">
        <ele>288.3</ele>
        <time>2016-07-02T08:23:14Z</time>
      </trkpt>
      <trkpt lat="43.60369" lon="3.38124">
        <ele>288.6</ele>
        <time>2016-07-02T08:23:17Z</time>
      </trkpt>
      <trkpt lat="43.60369" lon="3.38113">
        <ele>288.8</ele>
        <time>2016-07-02T08:23:20Z</time>
      </trkpt>
      <trkpt lat="43.60369" lon="3.38103">
        <ele>289</ele>
        <time>2016-07-02T08:23:23Z</time>
      </trkpt>
      <trkpt lat="43.60368" lon="3.38092">
        <ele>289.2</ele>
        <time>2016-07-02T08:23:26Z</time>
      </trkpt>
      <trkpt lat="43.60367" lon="3.38079">
        <ele>289.3</ele>
        <time>2016-07-02T08:23:29Z</time>
      </trkpt>
      <trkpt lat="43.60366" lon="3.38068">
        <ele>289.3</ele>
        <time>2016-07-02T08:23:32Z</time>
      </trkpt>
      <trkpt lat="43.60365" lon="3.38057">
        <ele>289.5</ele>
        <time>2016-07-02T08:23:35Z</time>
      </trkpt>
      <trkpt lat="43.60365" lon="3.38046">
        <ele>289.7</ele>
        <time>2016-07-02T08:23:38Z</time>
      </trkpt>
      <trkpt lat="43.60363" lon="3.38033">
        <ele>290</ele>
        <time>2016-07-02T08:23:42Z</time>
      </trkpt>
      <trkpt lat="43.60363" lon="3.38022">
        <ele>290.1</ele>
        <time>2016-07-02T08:23:47Z</time>
      </trkpt>
      <trkpt lat="43.60363" lon="3.38012">
        <ele>290.3</ele>
        <time>2016-07-02T08:23:52Z</time>
      </trkpt>
      <trkpt lat="43.60361" lon="3.38">
        <ele>290.5</ele>
        <time>2016-07-02T08:23:57Z</time>
      </trkpt>
      <trkpt lat="43.6036" lon="3.37989">
        <ele>290.8</ele>
        <time>2016-07-02T08:24:02Z</time>
      </trkpt>
      <trkpt lat="43.60358" lon="3.37978">
        <ele>291</ele>
        <time>2016-07-02T08:24:07Z</time>
      </trkpt>
      <trkpt lat="43.60356" lon="3.37965">
        <ele>291.4</ele>
        <time>2016-07-02T08:24:12Z</time>
      </trkpt>
      <trkpt lat="43.60356" lon="3.37954">
        <ele>291.6</ele>
        <time>2016-07-02T08:24:16Z</time>
      </trkpt>
      <trkpt lat="43.60355" lon="3.37942">
        <ele>291.7</ele>
        <time>2016-07-02T08:24:21Z</time>
      </trkpt>
      <trkpt lat="43.60354" lon="3.3793">
        <ele>292</ele>
        <time>2016-07-02T08:24:26Z</time>
      </trkpt>
      <trkpt lat="43.60353" lon="3.37919">
        <ele>292.3</ele>
        <time>2016-07-02T08:24:31Z</time>
      </trkpt>
      <trkpt lat="43.60352" lon="3.37907">
        <ele>292.8</ele>
        <time>2016-07-02T08:24:36Z</time>
      </trkpt>
      <trkpt lat="43.60352" lon="3.37897">
        <ele>293.2</ele>
        <time>2016-07-02T08:24:40Z</time>
      </trkpt>
      <trkpt lat="43.60351" lon="3.37887">
        <ele>293.7</ele>
        <time>2016-07-02T08:24:44Z</time>
      </trkpt>
      <trkpt lat="43.6035" lon="3.37874">
        <ele>294.3</ele>
        <time>2016-07-02T08:24:49Z</time>
      </trkpt>
      <trkpt lat="43.60349" lon="3.37863">
        <ele>294.8</ele>
        <time>2016-07-02T08:24:53Z</time>
      </trkpt>
      <trkpt lat="43.60347" lon="3.3785">
        <ele>295.2</ele>
        <time>2016-07-02T08:24:57Z</time>
      </trkpt>
      <trkpt lat="43.60345" lon="3.37838">
        <ele>295.5</ele>
        <time>2016-07-02T08:25:01Z</time>
      </trkpt>
      <trkpt lat="43.60344" lon="3.37828">
        <ele>295.9</ele>
        <time>2016-07-02T08:25:05Z</time>
      </trkpt>
      <trkpt lat="43.60343" lon="3.37818">
        <ele>296.3</ele>
        <time>2016-07-02T08:25:09Z</time>
      </trkpt>
      <trkpt lat="43.6034" lon="3.37806">
        <ele>296.9</ele>
        <time>2016-07-02T08:25:14Z</time>
      </trkpt>
      <trkpt lat="43.60337" lon="3.37794">
        <ele>297.3</ele>
        <time>2016-07-02T08:25:18Z</time>
      </trkpt>
      <trkpt lat="43.60335" lon="3.37785">
        <ele>297.7</ele>
        <time>2016-07-02T08:25:22Z</time>
      </trkpt>
      <trkpt lat="43.60331" lon="3.37775">
        <ele>298.1</ele>
        <time>2016-07-02T08:25:26Z</time>
      </trkpt>
      <trkpt lat="43.60328" lon="3.37764">
        <ele>298.4</ele>
        <time>2016-07-02T08:25:30Z</time>
      </trkpt>
      <trkpt lat="43.60326" lon="3.37753">
        <ele>298.5</ele>
        <time>2016-07-02T08:25:34Z</time>
      </trkpt>
      <trkpt lat="43.60323" lon="3.37741">
        <ele>298.9</ele>
        <time>2016-07-02T08:25:39Z</time>
      </trkpt>
      <trkpt lat="43.60322" lon="3.3773">
        <ele>299.4</ele>
        <time>2016-07-02T08:25:43Z</time>
      </trkpt>
      <trkpt lat="43.60322" lon="3.37718">
        <ele>299.9</ele>
        <time>2016-07-02T08:25:48Z</time>
      </trkpt>
      <trkpt lat="43.60322" lon="3.37708">
        <ele>300.3</ele>
        <time>2016-07-02T08:25:52Z</time>
      </trkpt>
      <trkpt lat="43.60323" lon="3.37696">
        <ele>300.7</ele>
        <time>2016-07-02T08:25:57Z</time>
      </trkpt>
      <trkpt lat="43.60323" lon="3.37686">
        <ele>301.1</ele>
        <time>2016-07-02T08:26:01Z</time>
      </trkpt>
      <trkpt lat="43.60324" lon="3.37676">
        <ele>301.4</ele>
        <time>2016-07-02T08:26:05Z</time>
      </trkpt>
      <trkpt lat="43.60325" lon="3.37666">
        <ele>301.9</ele>
        <time>2016-07-02T08:26:10Z</time>
      </trkpt>
      <trkpt lat="43.60326" lon="3.37654">
        <ele>302.3</ele>
        <time>2016-07-02T08:26:14Z</time>
      </trkpt>
      <trkpt lat="43.60327" lon="3.37642">
        <ele>302.7</ele>
        <time>2016-07-02T08:26:18Z</time>
      </trkpt>
      <trkpt lat="43.60328" lon="3.3763">
        <ele>303.1</ele>
        <time>2016-07-02T08:26:23Z</time>
      </trkpt>
      <trkpt lat="43.60329" lon="3.3762">
        <ele>303.5</ele>
        <time>2016-07-02T08:26:27Z</time>
      </trkpt>
      <trkpt lat="43.6033" lon="3.37608">
        <ele>303.9</ele>
        <time>2016-07-02T08:26:31Z</time>
      </trkpt>
      <trkpt lat="43.60329" lon="3.37596">
        <ele>304.6</ele>
        <time>2016-07-02T08:26:36Z</time>
      </trkpt>
      <trkpt lat="43.60329" lon="3.37585">
        <ele>305.1</ele>
        <time>2016-07-02T08:26:40Z</time>
      </trkpt>
      <trkpt lat="43.60329" lon="3.37573">
        <ele>305.6</ele>
        <time>2016-07-02T08:26:44Z</time>
      </trkpt>
      <trkpt lat="43.60329" lon="3.37562">
        <ele>306.1</ele>
        <time>2016-07-02T08:26:48Z</time>
      </trkpt>
      <trkpt lat="43.60329" lon="3.37549">
        <ele>306.5</ele>
        <time>2016-07-02T08:26:52Z</time>
      </trkpt>
      <trkpt lat="43.60329" lon="3.37538">
        <ele>306.9</ele>
        <time>2016-07-02T08:26:56Z</time>
      </trkpt>
      <trkpt lat="43.60329" lon="3.37527">
        <ele>307.5</ele>
        <time>2016-07-02T08:27:00Z</time>
      </trkpt>
      <trkpt lat="43.60329" lon="3.37516">
        <ele>308</ele>
        <time>2016-07-02T08:27:04Z</time>
      </trkpt>
      <trkpt lat="43.6033" lon="3.37504">
        <ele>308.5</ele>
        <time>2016-07-02T08:27:08Z</time>
      </trkpt>
      <trkpt lat="43.60332" lon="3.37491">
        <ele>308.9</ele>
        <time>2016-07-02T08:27:12Z</time>
      </trkpt>
      <trkpt lat="43.60334" lon="3.37479">
        <ele>309.2</ele>
        <time>2016-07-02T08:27:16Z</time>
      </trkpt>
      <trkpt lat="43.60335" lon="3.37468">
        <ele>309.7</ele>
        <time>2016-07-02T08:27:20Z</time>
      </trkpt>
      <trkpt lat="43.60337" lon="3.37456">
        <ele>310.2</ele>
        <time>2016-07-02T08:27:24Z</time>
      </trkpt>
      <trkpt lat="43.60338" lon="3.37445">
        <ele>310.6</ele>
        <time>2016-07-02T08:27:28Z</time>
      </trkpt>
      <trkpt lat="43.60338" lon="3.37436">
        <ele>310.9</ele>
        <time>2016-07-02T08:27:31Z</time>
      </trkpt>
      <trkpt lat="43.60337" lon="3.37423">
        <ele>311.3</ele>
        <time>2016-07-02T08:27:35Z</time>
      </trkpt>
      <trkpt lat="43.60337" lon="3.37412">
        <ele>311.5</ele>
        <time>2016-07-02T08:27:38Z</time>
      </trkpt>
      <trkpt lat="43.60337" lon="3.37402">
        <ele>311.8</ele>
        <time>2016-07-02T08:27:41Z</time>
      </trkpt>
      <trkpt lat="43.60336" lon="3.37389">
        <ele>312.1</ele>
        <time>2016-07-02T08:27:45Z</time>
      </trkpt>
      <trkpt lat="43.60336" lon="3.37377">
        <ele>312.2</ele>
        <time>2016-07-02T08:27:48Z</time>
      </trkpt>
      <trkpt lat="43.60336" lon="3.37364">
        <ele>312.5</ele>
        <time>2016-07-02T08:27:52Z</time>
      </trkpt>
      <trkpt lat="43.60336" lon="3.37352">
        <ele>312.9</ele>
        <time>2016-07-02T08:27:56Z</time>
      </trkpt>
      <trkpt lat="43.60337" lon="3.37341">
        <ele>313.2</ele>
        <time>2016-07-02T08:28:00Z</time>
      </trkpt>
      <trkpt lat="43.60338" lon="3.37328">
        <ele>313.6</ele>
        <time>2016-07-02T08:28:04Z</time>
      </trkpt>
      <trkpt lat="43.6034" lon="3.37317">
        <ele>313.9</ele>
        <time>2016-07-02T08:28:08Z</time>
      </trkpt>
      <trkpt lat="43.60343" lon="3.37307">
        <ele>314.1</ele>
        <time>2016-07-02T08:28:11Z</time>
      </trkpt>
      <trkpt lat="43.60346" lon="3.37294">
        <ele>314.3</ele>
        <time>2016-07-02T08:28:15Z</time>
      </trkpt>
      <trkpt lat="43.6035" lon="3.37283">
        <ele>314.6</ele>
        <time>2016-07-02T08:28:19Z</time>
      </trkpt>
      <trkpt lat="43.60352" lon="3.37271">
        <ele>314.9</ele>
        <time>2016-07-02T08:28:23Z</time>
      </trkpt>
      <trkpt lat="43.60356" lon="3.37259">
        <ele>315.2</ele>
        <time>2016-07-02T08:28:27Z</time>
      </trkpt>
      <trkpt lat="43.60358" lon="3.37248">
        <ele>315.4</ele>
        <time>2016-07-02T08:28:30Z</time>
      </trkpt>
      <trkpt lat="43.60361" lon="3.37237">
        <ele>315.6</ele>
        <time>2016-07-02T08:28:33Z</time>
      </trkpt>
      <trkpt lat="43.60364" lon="3.37225">
        <ele>315.8</ele>
        <time>2016-07-02T08:28:38Z</time>
      </trkpt>
      <trkpt lat="43.60366" lon="3.37213">
        <ele>316</ele>
        <time>2016-07-02T08:28:41Z</time>
      </trkpt>
      <trkpt lat="43.60368" lon="3.37202">
        <ele>316.1</ele>
        <time>2016-07-02T08:28:45Z</time>
      </trkpt>
      <trkpt lat="43.6037" lon="3.37191">
        <ele>316.3</ele>
        <time>2016-07-02T08:28:50Z</time>
      </trkpt>
      <trkpt lat="43.60372" lon="3.3718">
        <ele>316.7</ele>
        <time>2016-07-02T08:28:55Z</time>
      </trkpt>
      <trkpt lat="43.60374" lon="3.37167">
        <ele>316.9</ele>
        <time>2016-07-02T08:28:59Z</time>
      </trkpt>
      <trkpt lat="43.60375" lon="3.37156">
        <ele>317.1</ele>
        <time>2016-07-02T08:29:03Z</time>
      </trkpt>
      <trkpt lat="43.60375" lon="3.37145">
        <ele>317.2</ele>
        <time>2016-07-02T08:29:06Z</time>
      </trkpt>
      <trkpt lat="43.60376" lon="3.37133">
        <ele>317.2</ele>
        <time>2016-07-02T08:29:10Z</time>
      </trkpt>
      <trkpt lat="43.60376" lon="3.3712">
        <ele>317.3</ele>
        <time>2016-07-02T08:29:14Z</time>
      </trkpt>
      <trkpt lat="43.60375" lon="3.37108">
        <ele>317.4</ele>
        <time>2016-07-02T08:29:18Z</time>
      </trkpt>
      <trkpt lat="43.60375" lon="3.37095">
        <ele>317.6</ele>
        <time>2016-07-02T08:29:22Z</time>
      </trkpt>
      <trkpt lat="43.60375" lon="3.37085">
        <ele>317.8</ele>
        <time>2016-07-02T08:29:25Z</time>
      </trkpt>
      <trkpt lat="43.60376" lon="3.37075">
        <ele>318</ele>
        <time>2016-07-02T08:29:28Z</time>
      </trkpt>
      <trkpt lat="43.60378" lon="3.37062">
        <ele>318.2</ele>
        <time>2016-07-02T08:29:32Z</time>
      </trkpt>
      <trkpt lat="43.60381" lon="3.3705">
        <ele>318.4</ele>
        <time>2016-07-02T08:29:36Z</time>
      </trkpt>
      <trkpt lat="43.60383" lon="3.3704">
        <ele>318.6</ele>
        <time>2016-07-02T08:29:39Z</time>
      </trkpt>
      <trkpt lat="43.60386" lon="3.37028">
        <ele>318.8</ele>
        <time>2016-07-02T08:29:43Z</time>
      </trkpt>
      <trkpt lat="43.60388" lon="3.37015">
        <ele>319.1</ele>
        <time>2016-07-02T08:29:47Z</time>
      </trkpt>
      <trkpt lat="43.60389" lon="3.37004">
        <ele>319.3</ele>
        <time>2016-07-02T08:29:50Z</time>
      </trkpt>
      <trkpt lat="43.60389" lon="3.36994">
        <ele>319.4</ele>
        <time>2016-07-02T08:29:53Z</time>
      </trkpt>
      <trkpt lat="43.6039" lon="3.36984">
        <ele>319.6</ele>
        <time>2016-07-02T08:29:56Z</time>
      </trkpt>
      <trkpt lat="43.6039" lon="3.36973">
        <ele>319.7</ele>
        <time>2016-07-02T08:29:59Z</time>
      </trkpt>
      <trkpt lat="43.6039" lon="3.36962">
        <ele>319.8</ele>
        <time>2016-07-02T08:30:02Z</time>
      </trkpt>
      <trkpt lat="43.6039" lon="3.36952">
        <ele>320</ele>
        <time>2016-07-02T08:30:05Z</time>
      </trkpt>
      <trkpt lat="43.60389" lon="3.36941">
        <ele>320.2</ele>
        <time>2016-07-02T08:30:09Z</time>
      </trkpt>
      <trkpt lat="43.60389" lon="3.3693">
        <ele>320.3</ele>
        <time>2016-07-02T08:30:12Z</time>
      </trkpt>
      <trkpt lat="43.60388" lon="3.3692">
        <ele>320.6</ele>
        <time>2016-07-02T08:30:15Z</time>
      </trkpt>
      <trkpt lat="43.60385" lon="3.36908">
        <ele>321</ele>
        <time>2016-07-02T08:30:19Z</time>
      </trkpt>
      <trkpt lat="43.60382" lon="3.36897">
        <ele>321.2</ele>
        <time>2016-07-02T08:30:22Z</time>
      </trkpt>
      <trkpt lat="43.60378" lon="3.36887">
        <ele>321.4</ele>
        <time>2016-07-02T08:30:25Z</time>
      </trkpt>
      <trkpt lat="43.60375" lon="3.36878">
        <ele>321.6</ele>
        <time>2016-07-02T08:30:28Z</time>
      </trkpt>
      <trkpt lat="43.6037" lon="3.36869">
        <ele>321.8</ele>
        <time>2016-07-02T08:30:31Z</time>
      </trkpt>
      <trkpt lat="43.60367" lon="3.3686">
        <ele>322</ele>
        <time>2016-07-02T08:30:34Z</time>
      </trkpt>
      <trkpt lat="43.60363" lon="3.36852">
        <ele>322.2</ele>
        <time>2016-07-02T08:30:37Z</time>
      </trkpt>
      <trkpt lat="43.60358" lon="3.3684">
        <ele>322.5</ele>
        <time>2016-07-02T08:30:41Z</time>
      </trkpt>
      <trkpt lat="43.60355" lon="3.36831">
        <ele>322.7</ele>
        <time>2016-07-02T08:30:44Z</time>
      </trkpt>
      <trkpt lat="43.60351" lon="3.3682">
        <ele>323.1</ele>
        <time>2016-07-02T08:30:48Z</time>
      </trkpt>
      <trkpt lat="43.60349" lon="3.3681">
        <ele>323.4</ele>
        <time>2016-07-02T08:30:51Z</time>
      </trkpt>
      <trkpt lat="43.60346" lon="3.368">
        <ele>323.7</ele>
        <time>2016-07-02T08:30:54Z</time>
      </trkpt>
      <trkpt lat="43.60344" lon="3.3679">
        <ele>323.8</ele>
        <time>2016-07-02T08:30:57Z</time>
      </trkpt>
      <trkpt lat="43.60341" lon="3.3678">
        <ele>324</ele>
        <time>2016-07-02T08:31:00Z</time>
      </trkpt>
      <trkpt lat="43.60339" lon="3.3677">
        <ele>324.4</ele>
        <time>2016-07-02T08:31:04Z</time>
      </trkpt>
      <trkpt lat="43.60337" lon="3.36759">
        <ele>324.8</ele>
        <time>2016-07-02T08:31:07Z</time>
      </trkpt>
      <trkpt lat="43.60334" lon="3.36749">
        <ele>325.1</ele>
        <time>2016-07-02T08:31:10Z</time>
      </trkpt>
      <trkpt lat="43.60332" lon="3.3674">
        <ele>325.3</ele>
        <time>2016-07-02T08:31:13Z</time>
      </trkpt>
      <trkpt lat="43.60328" lon="3.36729">
        <ele>325.4</ele>
        <time>2016-07-02T08:31:16Z</time>
      </trkpt>
      <trkpt lat="43.60324" lon="3.36719">
        <ele>325.5</ele>
        <time>2016-07-02T08:31:19Z</time>
      </trkpt>
      <trkpt lat="43.60319" lon="3.36711">
        <ele>325.7</ele>
        <time>2016-07-02T08:31:22Z</time>
      </trkpt>
      <trkpt lat="43.60312" lon="3.36701">
        <ele>326</ele>
        <time>2016-07-02T08:31:26Z</time>
      </trkpt>
      <trkpt lat="43.60306" lon="3.36694">
        <ele>326.3</ele>
        <time>2016-07-02T08:31:30Z</time>
      </trkpt>
      <trkpt lat="43.60301" lon="3.36685">
        <ele>326.6</ele>
        <time>2016-07-02T08:31:35Z</time>
      </trkpt>
      <trkpt lat="43.60298" lon="3.36681">
        <ele>327.3</ele>
        <time>2016-07-02T08:31:42Z</time>
      </trkpt>
      <trkpt lat="43.60297" lon="3.36684">
        <ele>328</ele>
        <time>2016-07-02T08:31:49Z</time>
      </trkpt>
      <trkpt lat="43.60298" lon="3.36688">
        <ele>328.6</ele>
        <time>2016-07-02T08:32:03Z</time>
      </trkpt>
      <trkpt lat="43.60297" lon="3.36683">
        <ele>329.7</ele>
        <time>2016-07-02T08:32:30Z</time>
      </trkpt>
      <trkpt lat="43.603" lon="3.36688">
        <ele>331.7</ele>
        <time>2016-07-02T08:34:48Z</time>
      </trkpt>
      <trkpt lat="43.60296" lon="3.36684">
        <ele>332.7</ele>
        <time>2016-07-02T08:36:56Z</time>
      </trkpt>
      <trkpt lat="43.60299" lon="3.36681">
        <ele>332.5</ele>
        <time>2016-07-02T08:39:02Z</time>
      </trkpt>
      <trkpt lat="43.60303" lon="3.36671">
        <ele>332.5</ele>
        <time>2016-07-02T08:39:06Z</time>
      </trkpt>
      <trkpt lat="43.60307" lon="3.36662">
        <ele>332.6</ele>
        <time>2016-07-02T08:39:10Z</time>
      </trkpt>
      <trkpt lat="43.60312" lon="3.36654">
        <ele>332.6</ele>
        <time>2016-07-02T08:39:14Z</time>
      </trkpt>
      <trkpt lat="43.60318" lon="3.36646">
        <ele>332.7</ele>
        <time>2016-07-02T08:39:19Z</time>
      </trkpt>
      <trkpt lat="43.60322" lon="3.36637">
        <ele>332.9</ele>
        <time>2016-07-02T08:39:23Z</time>
      </trkpt>
      <trkpt lat="43.60325" lon="3.36627">
        <ele>333.1</ele>
        <time>2016-07-02T08:39:27Z</time>
      </trkpt>
      <trkpt lat="43.60328" lon="3.36617">
        <ele>333.4</ele>
        <time>2016-07-02T08:39:31Z</time>
      </trkpt>
      <trkpt lat="43.60332" lon="3.36608">
        <ele>333.5</ele>
        <time>2016-07-02T08:39:35Z</time>
      </trkpt>
      <trkpt lat="43.60336" lon="3.36598">
        <ele>333.7</ele>
        <time>2016-07-02T08:39:39Z</time>
      </trkpt>
      <trkpt lat="43.60339" lon="3.36589">
        <ele>333.9</ele>
        <time>2016-07-02T08:39:43Z</time>
      </trkpt>
      <trkpt lat="43.60342" lon="3.3658">
        <ele>334.2</ele>
        <time>2016-07-02T08:39:47Z</time>
      </trkpt>
      <trkpt lat="43.60345" lon="3.3657">
        <ele>334.4</ele>
        <time>2016-07-02T08:39:50Z</time>
      </trkpt>
      <trkpt lat="43.60348" lon="3.36558">
        <ele>334.7</ele>
        <time>2016-07-02T08:39:54Z</time>
      </trkpt>
      <trkpt lat="43.6035" lon="3.36547">
        <ele>335</ele>
        <time>2016-07-02T08:39:58Z</time>
      </trkpt>
      <trkpt lat="43.60352" lon="3.36535">
        <ele>335.2</ele>
        <time>2016-07-02T08:40:02Z</time>
      </trkpt>
      <trkpt lat="43.60355" lon="3.36523">
        <ele>335.6</ele>
        <time>2016-07-02T08:40:06Z</time>
      </trkpt>
      <trkpt lat="43.60356" lon="3.3651">
        <ele>336</ele>
        <time>2016-07-02T08:40:10Z</time>
      </trkpt>
      <trkpt lat="43.60358" lon="3.365">
        <ele>336.2</ele>
        <time>2016-07-02T08:40:13Z</time>
      </trkpt>
      <trkpt lat="43.60359" lon="3.3649">
        <ele>336.4</ele>
        <time>2016-07-02T08:40:16Z</time>
      </trkpt>
      <trkpt lat="43.60361" lon="3.36481">
        <ele>336.7</ele>
        <time>2016-07-02T08:40:19Z</time>
      </trkpt>
      <trkpt lat="43.60363" lon="3.36467">
        <ele>337.2</ele>
        <time>2016-07-02T08:40:23Z</time>
      </trkpt>
      <trkpt lat="43.60364" lon="3.36457">
        <ele>337.5</ele>
        <time>2016-07-02T08:40:26Z</time>
      </trkpt>
      <trkpt lat="43.60365" lon="3.36447">
        <ele>337.9</ele>
        <time>2016-07-02T08:40:29Z</time>
      </trkpt>
      <trkpt lat="43.60367" lon="3.36435">
        <ele>338.2</ele>
        <time>2016-07-02T08:40:32Z</time>
      </trkpt>
      <trkpt lat="43.60369" lon="3.36425">
        <ele>338.5</ele>
        <time>2016-07-02T08:40:35Z</time>
      </trkpt>
      <trkpt lat="43.6037" lon="3.36413">
        <ele>338.7</ele>
        <time>2016-07-02T08:40:38Z</time>
      </trkpt>
      <trkpt lat="43.60372" lon="3.36402">
        <ele>339.1</ele>
        <time>2016-07-02T08:40:42Z</time>
      </trkpt>
      <trkpt lat="43.60373" lon="3.3639">
        <ele>339.3</ele>
        <time>2016-07-02T08:40:45Z</time>
      </trkpt>
      <trkpt lat="43.60375" lon="3.36379">
        <ele>339.5</ele>
        <time>2016-07-02T08:40:48Z</time>
      </trkpt>
      <trkpt lat="43.60376" lon="3.36367">
        <ele>339.7</ele>
        <time>2016-07-02T08:40:51Z</time>
      </trkpt>
      <trkpt lat="43.60376" lon="3.36355">
        <ele>339.9</ele>
        <time>2016-07-02T08:40:54Z</time>
      </trkpt>
      <trkpt lat="43.60378" lon="3.36343">
        <ele>340.1</ele>
        <time>2016-07-02T08:40:57Z</time>
      </trkpt>
      <trkpt lat="43.60379" lon="3.36332">
        <ele>340.3</ele>
        <time>2016-07-02T08:41:00Z</time>
      </trkpt>
      <trkpt lat="43.6038" lon="3.3632">
        <ele>340.6</ele>
        <time>2016-07-02T08:41:04Z</time>
      </trkpt>
      <trkpt lat="43.60382" lon="3.36307">
        <ele>340.8</ele>
        <time>2016-07-02T08:41:07Z</time>
      </trkpt>
      <trkpt lat="43.60383" lon="3.36296">
        <ele>340.9</ele>
        <time>2016-07-02T08:41:10Z</time>
      </trkpt>
      <trkpt lat="43.60383" lon="3.36286">
        <ele>341.1</ele>
        <time>2016-07-02T08:41:13Z</time>
      </trkpt>
      <trkpt lat="43.60384" lon="3.36276">
        <ele>341.3</ele>
        <time>2016-07-02T08:41:16Z</time>
      </trkpt>
      <trkpt lat="43.60386" lon="3.36265">
        <ele>341.6</ele>
        <time>2016-07-02T08:41:19Z</time>
      </trkpt>
      <trkpt lat="43.60387" lon="3.36254">
        <ele>342</ele>
        <time>2016-07-02T08:41:22Z</time>
      </trkpt>
      <trkpt lat="43.60389" lon="3.36244">
        <ele>342.3</ele>
        <time>2016-07-02T08:41:25Z</time>
      </trkpt>
      <trkpt lat="43.6039" lon="3.36234">
        <ele>342.7</ele>
        <time>2016-07-02T08:41:28Z</time>
      </trkpt>
      <trkpt lat="43.60392" lon="3.36224">
        <ele>342.9</ele>
        <time>2016-07-02T08:41:31Z</time>
      </trkpt>
      <trkpt lat="43.60393" lon="3.36214">
        <ele>343.2</ele>
        <time>2016-07-02T08:41:34Z</time>
      </trkpt>
      <trkpt lat="43.60393" lon="3.36203">
        <ele>343.4</ele>
        <time>2016-07-02T08:41:37Z</time>
      </trkpt>
      <trkpt lat="43.60393" lon="3.3619">
        <ele>343.8</ele>
        <time>2016-07-02T08:41:41Z</time>
      </trkpt>
      <trkpt lat="43.60393" lon="3.3618">
        <ele>344.1</ele>
        <time>2016-07-02T08:41:44Z</time>
      </trkpt>
      <trkpt lat="43.60392" lon="3.3617">
        <ele>344.4</ele>
        <time>2016-07-02T08:41:47Z</time>
      </trkpt>
      <trkpt lat="43.60391" lon="3.3616">
        <ele>344.7</ele>
        <time>2016-07-02T08:41:50Z</time>
      </trkpt>
      <trkpt lat="43.6039" lon="3.36149">
        <ele>344.9</ele>
        <time>2016-07-02T08:41:53Z</time>
      </trkpt>
      <trkpt lat="43.60388" lon="3.36138">
        <ele>345.1</ele>
        <time>2016-07-02T08:41:56Z</time>
      </trkpt>
      <trkpt lat="43.60385" lon="3.36127">
        <ele>345.4</ele>
        <time>2016-07-02T08:41:59Z</time>
      </trkpt>
      <trkpt lat="43.60381" lon="3.36116">
        <ele>345.6</ele>
        <time>2016-07-02T08:42:02Z</time>
      </trkpt>
      <trkpt lat="43.60375" lon="3.36106">
        <ele>345.8</ele>
        <time>2016-07-02T08:42:05Z</time>
      </trkpt>
      <trkpt lat="43.60369" lon="3.36098">
        <ele>346</ele>
        <time>2016-07-02T08:42:08Z</time>
      </trkpt>
      <trkpt lat="43.60362" lon="3.3609">
        <ele>346.5</ele>
        <time>2016-07-02T08:42:12Z</time>
      </trkpt>
      <trkpt lat="43.60356" lon="3.36084">
        <ele>346.9</ele>
        <time>2016-07-02T08:42:15Z</time>
      </trkpt>
      <trkpt lat="43.60349" lon="3.36079">
        <ele>347.3</ele>
        <time>2016-07-02T08:42:18Z</time>
      </trkpt>
      <trkpt lat="43.60341" lon="3.36073">
        <ele>347.6</ele>
        <time>2016-07-02T08:42:21Z</time>
      </trkpt>
      <trkpt lat="43.60334" lon="3.36066">
        <ele>347.9</ele>
        <time>2016-07-02T08:42:24Z</time>
      </trkpt>
      <trkpt lat="43.60329" lon="3.36058">
        <ele>348.2</ele>
        <time>2016-07-02T08:42:27Z</time>
      </trkpt>
      <trkpt lat="43.60324" lon="3.3605">
        <ele>348.8</ele>
        <time>2016-07-02T08:42:34Z</time>
      </trkpt>
      <trkpt lat="43.60317" lon="3.36047">
        <ele>349.4</ele>
        <time>2016-07-02T08:42:41Z</time>
      </trkpt>
      <trkpt lat="43.60315" lon="3.36047">
        <ele>350.3</ele>
        <time>2016-07-02T08:42:56Z</time>
      </trkpt>
      <trkpt lat="43.60317" lon="3.36054">
        <ele>350.6</ele>
        <time>2016-07-02T08:42:24Z</time>
      </trkpt>
      <trkpt lat="43.60321" lon="3.36045">
        <ele>352.2</ele>
        <time>2016-07-02T08:47:38Z</time>
      </trkpt>
      <trkpt lat="43.60324" lon="3.36035">
        <ele>352.3</ele>
        <time>2016-07-02T08:47:42Z</time>
      </trkpt>
      <trkpt lat="43.60326" lon="3.36024">
        <ele>352.4</ele>
        <time>2016-07-02T08:47:45Z</time>
      </trkpt>
      <trkpt lat="43.60327" lon="3.36013">
        <ele>352.5</ele>
        <time>2016-07-02T08:47:48Z</time>
      </trkpt>
      <trkpt lat="43.60329" lon="3.36001">
        <ele>352.7</ele>
        <time>2016-07-02T08:47:51Z</time>
      </trkpt>
      <trkpt lat="43.60331" lon="3.35989">
        <ele>352.8</ele>
        <time>2016-07-02T08:47:54Z</time>
      </trkpt>
      <trkpt lat="43.60336" lon="3.35977">
        <ele>352.9</ele>
        <time>2016-07-02T08:47:57Z</time>
      </trkpt>
      <trkpt lat="43.6034" lon="3.35965">
        <ele>353</ele>
        <time>2016-07-02T08:48:00Z</time>
      </trkpt>
      <trkpt lat="43.60344" lon="3.35952">
        <ele>353</ele>
        <time>2016-07-02T08:48:03Z</time>
      </trkpt>
      <trkpt lat="43.60345" lon="3.35942">
        <ele>353</ele>
        <time>2016-07-02T08:48:05Z</time>
      </trkpt>
      <trkpt lat="43.60345" lon="3.35932">
        <ele>353.3</ele>
        <time>2016-07-02T08:48:07Z</time>
      </trkpt>
      <trkpt lat="43.60344" lon="3.35918">
        <ele>353.4</ele>
        <time>2016-07-02T08:48:10Z</time>
      </trkpt>
      <trkpt lat="43.6034" lon="3.35905">
        <ele>353.5</ele>
        <time>2016-07-02T08:48:13Z</time>
      </trkpt>
      <trkpt lat="43.60337" lon="3.35896">
        <ele>353.5</ele>
        <time>2016-07-02T08:48:15Z</time>
      </trkpt>
      <trkpt lat="43.60329" lon="3.35887">
        <ele>353.5</ele>
        <time>2016-07-02T08:48:18Z</time>
      </trkpt>
      <trkpt lat="43.60322" lon="3.35884">
        <ele>353.5</ele>
        <time>2016-07-02T08:48:21Z</time>
      </trkpt>
      <trkpt lat="43.60315" lon="3.35886">
        <ele>353.5</ele>
        <time>2016-07-02T08:48:24Z</time>
      </trkpt>
      <trkpt lat="43.60306" lon="3.35889">
        <ele>353.7</ele>
        <time>2016-07-02T08:48:28Z</time>
      </trkpt>
      <trkpt lat="43.60298" lon="3.35891">
        <ele>353.8</ele>
        <time>2016-07-02T08:48:31Z</time>
      </trkpt>
      <trkpt lat="43.6029" lon="3.35892">
        <ele>354</ele>
        <time>2016-07-02T08:48:34Z</time>
      </trkpt>
      <trkpt lat="43.60282" lon="3.3589">
        <ele>354.1</ele>
        <time>2016-07-02T08:48:37Z</time>
      </trkpt>
      <trkpt lat="43.60272" lon="3.35889">
        <ele>354.3</ele>
        <time>2016-07-02T08:48:40Z</time>
      </trkpt>
      <trkpt lat="43.60261" lon="3.35891">
        <ele>354.4</ele>
        <time>2016-07-02T08:48:43Z</time>
      </trkpt>
      <trkpt lat="43.60252" lon="3.35893">
        <ele>354.5</ele>
        <time>2016-07-02T08:48:46Z</time>
      </trkpt>
      <trkpt lat="43.60243" lon="3.35893">
        <ele>354.6</ele>
        <time>2016-07-02T08:48:49Z</time>
      </trkpt>
      <trkpt lat="43.60237" lon="3.35885">
        <ele>354.8</ele>
        <time>2016-07-02T08:48:52Z</time>
      </trkpt>
      <trkpt lat="43.60237" lon="3.35873">
        <ele>355.1</ele>
        <time>2016-07-02T08:48:56Z</time>
      </trkpt>
      <trkpt lat="43.60244" lon="3.35866">
        <ele>355.5</ele>
        <time>2016-07-02T08:49:00Z</time>
      </trkpt>
      <trkpt lat="43.60253" lon="3.35863">
        <ele>356.1</ele>
        <time>2016-07-02T08:49:04Z</time>
      </trkpt>
      <trkpt lat="43.6026" lon="3.3586">
        <ele>356.4</ele>
        <time>2016-07-02T08:49:07Z</time>
      </trkpt>
      <trkpt lat="43.60267" lon="3.35856">
        <ele>356.8</ele>
        <time>2016-07-02T08:49:10Z</time>
      </trkpt>
      <trkpt lat="43.60274" lon="3.3585">
        <ele>357.1</ele>
        <time>2016-07-02T08:49:13Z</time>
      </trkpt>
      <trkpt lat="43.60281" lon="3.35844">
        <ele>357.5</ele>
        <time>2016-07-02T08:49:16Z</time>
      </trkpt>
      <trkpt lat="43.60287" lon="3.35837">
        <ele>357.9</ele>
        <time>2016-07-02T08:49:19Z</time>
      </trkpt>
      <trkpt lat="43.60293" lon="3.3583">
        <ele>358.2</ele>
        <time>2016-07-02T08:49:22Z</time>
      </trkpt>
      <trkpt lat="43.60298" lon="3.35823">
        <ele>358.5</ele>
        <time>2016-07-02T08:49:25Z</time>
      </trkpt>
      <trkpt lat="43.60304" lon="3.35816">
        <ele>358.8</ele>
        <time>2016-07-02T08:49:28Z</time>
      </trkpt>
      <trkpt lat="43.6031" lon="3.35807">
        <ele>359.1</ele>
        <time>2016-07-02T08:49:31Z</time>
      </trkpt>
      <trkpt lat="43.60314" lon="3.35799">
        <ele>359.3</ele>
        <time>2016-07-02T08:49:34Z</time>
      </trkpt>
      <trkpt lat="43.60319" lon="3.35791">
        <ele>359.7</ele>
        <time>2016-07-02T08:49:37Z</time>
      </trkpt>
      <trkpt lat="43.60325" lon="3.35781">
        <ele>360</ele>
        <time>2016-07-02T08:49:40Z</time>
      </trkpt>
      <trkpt lat="43.60331" lon="3.35772">
        <ele>360.3</ele>
        <time>2016-07-02T08:49:43Z</time>
      </trkpt>
      <trkpt lat="43.60339" lon="3.35762">
        <ele>360.5</ele>
        <time>2016-07-02T08:49:46Z</time>
      </trkpt>
      <trkpt lat="43.60344" lon="3.35755">
        <ele>361.6</ele>
        <time>2016-07-02T08:49:48Z</time>
      </trkpt>
      <trkpt lat="43.60349" lon="3.35745">
        <ele>363</ele>
        <time>2016-07-02T08:49:50Z</time>
      </trkpt>
      <trkpt lat="43.60354" lon="3.35735">
        <ele>363.6</ele>
        <time>2016-07-02T08:49:52Z</time>
      </trkpt>
      <trkpt lat="43.60359" lon="3.35724">
        <ele>364.5</ele>
        <time>2016-07-02T08:49:54Z</time>
      </trkpt>
      <trkpt lat="43.60364" lon="3.35711">
        <ele>365.2</ele>
        <time>2016-07-02T08:49:56Z</time>
      </trkpt>
      <trkpt lat="43.60368" lon="3.35698">
        <ele>366</ele>
        <time>2016-07-02T08:49:58Z</time>
      </trkpt>
      <trkpt lat="43.60372" lon="3.35684">
        <ele>365.5</ele>
        <time>2016-07-02T08:50:00Z</time>
      </trkpt>
      <trkpt lat="43.60375" lon="3.35669">
        <ele>364</ele>
        <time>2016-07-02T08:50:02Z</time>
      </trkpt>
      <trkpt lat="43.60377" lon="3.35658">
        <ele>362.9</ele>
        <time>2016-07-02T08:50:04Z</time>
      </trkpt>
      <trkpt lat="43.60378" lon="3.35647">
        <ele>362.3</ele>
        <time>2016-07-02T08:50:06Z</time>
      </trkpt>
      <trkpt lat="43.60379" lon="3.35634">
        <ele>362.2</ele>
        <time>2016-07-02T08:50:09Z</time>
      </trkpt>
      <trkpt lat="43.6038" lon="3.3562">
        <ele>362.4</ele>
        <time>2016-07-02T08:50:12Z</time>
      </trkpt>
      <trkpt lat="43.60379" lon="3.35606">
        <ele>362.6</ele>
        <time>2016-07-02T08:50:15Z</time>
      </trkpt>
      <trkpt lat="43.60378" lon="3.35593">
        <ele>362.8</ele>
        <time>2016-07-02T08:50:18Z</time>
      </trkpt>
      <trkpt lat="43.60376" lon="3.35583">
        <ele>362.9</ele>
        <time>2016-07-02T08:50:20Z</time>
      </trkpt>
      <trkpt lat="43.60372" lon="3.35571">
        <ele>363.1</ele>
        <time>2016-07-02T08:50:23Z</time>
      </trkpt>
      <trkpt lat="43.60364" lon="3.35561">
        <ele>363.3</ele>
        <time>2016-07-02T08:50:26Z</time>
      </trkpt>
      <trkpt lat="43.60355" lon="3.35556">
        <ele>364.1</ele>
        <time>2016-07-02T08:50:29Z</time>
      </trkpt>
      <trkpt lat="43.60348" lon="3.35552">
        <ele>365.3</ele>
        <time>2016-07-02T08:50:31Z</time>
      </trkpt>
      <trkpt lat="43.60341" lon="3.3555">
        <ele>365.8</ele>
        <time>2016-07-02T08:50:33Z</time>
      </trkpt>
      <trkpt lat="43.6033" lon="3.35547">
        <ele>366.5</ele>
        <time>2016-07-02T08:50:36Z</time>
      </trkpt>
      <trkpt lat="43.60323" lon="3.35546">
        <ele>366.9</ele>
        <time>2016-07-02T08:50:38Z</time>
      </trkpt>
      <trkpt lat="43.60313" lon="3.35544">
        <ele>367.1</ele>
        <time>2016-07-02T08:50:41Z</time>
      </trkpt>
      <trkpt lat="43.60303" lon="3.35543">
        <ele>367.2</ele>
        <time>2016-07-02T08:50:44Z</time>
      </trkpt>
      <trkpt lat="43.60293" lon="3.35542">
        <ele>367.4</ele>
        <time>2016-07-02T08:50:47Z</time>
      </trkpt>
      <trkpt lat="43.60284" lon="3.35541">
        <ele>367.6</ele>
        <time>2016-07-02T08:50:50Z</time>
      </trkpt>
      <trkpt lat="43.60274" lon="3.3554">
        <ele>367.9</ele>
        <time>2016-07-02T08:50:53Z</time>
      </trkpt>
      <trkpt lat="43.60264" lon="3.3554">
        <ele>368.2</ele>
        <time>2016-07-02T08:50:56Z</time>
      </trkpt>
      <trkpt lat="43.60257" lon="3.35539">
        <ele>368.5</ele>
        <time>2016-07-02T08:50:58Z</time>
      </trkpt>
      <trkpt lat="43.60247" lon="3.35536">
        <ele>368.8</ele>
        <time>2016-07-02T08:51:01Z</time>
      </trkpt>
      <trkpt lat="43.60239" lon="3.3553">
        <ele>369</ele>
        <time>2016-07-02T08:51:04Z</time>
      </trkpt>
      <trkpt lat="43.60234" lon="3.3552">
        <ele>369.3</ele>
        <time>2016-07-02T08:51:07Z</time>
      </trkpt>
      <trkpt lat="43.60233" lon="3.35509">
        <ele>369.6</ele>
        <time>2016-07-02T08:51:10Z</time>
      </trkpt>
      <trkpt lat="43.60231" lon="3.35496">
        <ele>369.8</ele>
        <time>2016-07-02T08:51:13Z</time>
      </trkpt>
      <trkpt lat="43.60228" lon="3.35483">
        <ele>370</ele>
        <time>2016-07-02T08:51:16Z</time>
      </trkpt>
      <trkpt lat="43.60223" lon="3.35471">
        <ele>370.3</ele>
        <time>2016-07-02T08:51:19Z</time>
      </trkpt>
      <trkpt lat="43.60217" lon="3.3546">
        <ele>370.5</ele>
        <time>2016-07-02T08:51:22Z</time>
      </trkpt>
      <trkpt lat="43.60211" lon="3.35451">
        <ele>370.7</ele>
        <time>2016-07-02T08:51:25Z</time>
      </trkpt>
      <trkpt lat="43.60205" lon="3.35444">
        <ele>370.9</ele>
        <time>2016-07-02T08:51:27Z</time>
      </trkpt>
      <trkpt lat="43.60199" lon="3.35437">
        <ele>371.3</ele>
        <time>2016-07-02T08:51:30Z</time>
      </trkpt>
      <trkpt lat="43.60191" lon="3.35431">
        <ele>371.7</ele>
        <time>2016-07-02T08:51:33Z</time>
      </trkpt>
      <trkpt lat="43.60182" lon="3.35425">
        <ele>372.1</ele>
        <time>2016-07-02T08:51:36Z</time>
      </trkpt>
      <trkpt lat="43.60174" lon="3.3542">
        <ele>372.4</ele>
        <time>2016-07-02T08:51:39Z</time>
      </trkpt>
      <trkpt lat="43.60166" lon="3.35416">
        <ele>372.8</ele>
        <time>2016-07-02T08:51:42Z</time>
      </trkpt>
      <trkpt lat="43.60157" lon="3.3541">
        <ele>373.1</ele>
        <time>2016-07-02T08:51:45Z</time>
      </trkpt>
      <trkpt lat="43.6015" lon="3.35406">
        <ele>373.5</ele>
        <time>2016-07-02T08:51:48Z</time>
      </trkpt>
      <trkpt lat="43.60142" lon="3.35399">
        <ele>374</ele>
        <time>2016-07-02T08:51:52Z</time>
      </trkpt>
      <trkpt lat="43.60135" lon="3.35394">
        <ele>374.3</ele>
        <time>2016-07-02T08:51:55Z</time>
      </trkpt>
      <trkpt lat="43.60128" lon="3.35389">
        <ele>374.8</ele>
        <time>2016-07-02T08:51:58Z</time>
      </trkpt>
      <trkpt lat="43.6012" lon="3.35385">
        <ele>375.2</ele>
        <time>2016-07-02T08:52:01Z</time>
      </trkpt>
      <trkpt lat="43.6011" lon="3.35384">
        <ele>375.7</ele>
        <time>2016-07-02T08:52:04Z</time>
      </trkpt>
      <trkpt lat="43.60103" lon="3.35383">
        <ele>376.1</ele>
        <time>2016-07-02T08:52:07Z</time>
      </trkpt>
      <trkpt lat="43.60094" lon="3.35382">
        <ele>376.5</ele>
        <time>2016-07-02T08:52:10Z</time>
      </trkpt>
      <trkpt lat="43.60086" lon="3.35376">
        <ele>377</ele>
        <time>2016-07-02T08:52:14Z</time>
      </trkpt>
      <trkpt lat="43.60081" lon="3.35368">
        <ele>377.5</ele>
        <time>2016-07-02T08:52:17Z</time>
      </trkpt>
      <trkpt lat="43.60081" lon="3.35356">
        <ele>377.9</ele>
        <time>2016-07-02T08:52:21Z</time>
      </trkpt>
      <trkpt lat="43.60084" lon="3.35344">
        <ele>378.4</ele>
        <time>2016-07-02T08:52:24Z</time>
      </trkpt>
      <trkpt lat="43.60087" lon="3.35333">
        <ele>379</ele>
        <time>2016-07-02T08:52:27Z</time>
      </trkpt>
      <trkpt lat="43.60091" lon="3.35321">
        <ele>379.9</ele>
        <time>2016-07-02T08:52:31Z</time>
      </trkpt>
      <trkpt lat="43.60095" lon="3.35311">
        <ele>380.5</ele>
        <time>2016-07-02T08:52:34Z</time>
      </trkpt>
      <trkpt lat="43.60099" lon="3.353">
        <ele>380.9</ele>
        <time>2016-07-02T08:52:37Z</time>
      </trkpt>
      <trkpt lat="43.60099" lon="3.35285">
        <ele>381.3</ele>
        <time>2016-07-02T08:52:40Z</time>
      </trkpt>
      <trkpt lat="43.60098" lon="3.35275">
        <ele>381.6</ele>
        <time>2016-07-02T08:52:42Z</time>
      </trkpt>
      <trkpt lat="43.60093" lon="3.35263">
        <ele>381.9</ele>
        <time>2016-07-02T08:52:45Z</time>
      </trkpt>
      <trkpt lat="43.60087" lon="3.35254">
        <ele>382.2</ele>
        <time>2016-07-02T08:52:48Z</time>
      </trkpt>
      <trkpt lat="43.60082" lon="3.35245">
        <ele>382.6</ele>
        <time>2016-07-02T08:52:51Z</time>
      </trkpt>
      <trkpt lat="43.60076" lon="3.35234">
        <ele>383</ele>
        <time>2016-07-02T08:52:54Z</time>
      </trkpt>
      <trkpt lat="43.60072" lon="3.35225">
        <ele>383.5</ele>
        <time>2016-07-02T08:52:57Z</time>
      </trkpt>
      <trkpt lat="43.60068" lon="3.35214">
        <ele>384</ele>
        <time>2016-07-02T08:53:00Z</time>
      </trkpt>
      <trkpt lat="43.60065" lon="3.35205">
        <ele>384.4</ele>
        <time>2016-07-02T08:53:03Z</time>
      </trkpt>
      <trkpt lat="43.60061" lon="3.35194">
        <ele>384.8</ele>
        <time>2016-07-02T08:53:06Z</time>
      </trkpt>
      <trkpt lat="43.60058" lon="3.35185">
        <ele>385.2</ele>
        <time>2016-07-02T08:53:09Z</time>
      </trkpt>
      <trkpt lat="43.60054" lon="3.35177">
        <ele>385.6</ele>
        <time>2016-07-02T08:53:12Z</time>
      </trkpt>
      <trkpt lat="43.60049" lon="3.35167">
        <ele>386</ele>
        <time>2016-07-02T08:53:15Z</time>
      </trkpt>
      <trkpt lat="43.60045" lon="3.35159">
        <ele>386.5</ele>
        <time>2016-07-02T08:53:18Z</time>
      </trkpt>
      <trkpt lat="43.60039" lon="3.3515">
        <ele>387.2</ele>
        <time>2016-07-02T08:53:22Z</time>
      </trkpt>
      <trkpt lat="43.60033" lon="3.35143">
        <ele>387.7</ele>
        <time>2016-07-02T08:53:25Z</time>
      </trkpt>
      <trkpt lat="43.60026" lon="3.35138">
        <ele>388.2</ele>
        <time>2016-07-02T08:53:28Z</time>
      </trkpt>
      <trkpt lat="43.60018" lon="3.35137">
        <ele>388.7</ele>
        <time>2016-07-02T08:53:32Z</time>
      </trkpt>
      <trkpt lat="43.60011" lon="3.35138">
        <ele>389.2</ele>
        <time>2016-07-02T08:53:34Z</time>
      </trkpt>
      <trkpt lat="43.60003" lon="3.35142">
        <ele>389.8</ele>
        <time>2016-07-02T08:53:37Z</time>
      </trkpt>
      <trkpt lat="43.59996" lon="3.35149">
        <ele>390.4</ele>
        <time>2016-07-02T08:53:41Z</time>
      </trkpt>
      <trkpt lat="43.59989" lon="3.35155">
        <ele>391.1</ele>
        <time>2016-07-02T08:53:45Z</time>
      </trkpt>
      <trkpt lat="43.59982" lon="3.35161">
        <ele>391.8</ele>
        <time>2016-07-02T08:53:49Z</time>
      </trkpt>
      <trkpt lat="43.59975" lon="3.35166">
        <ele>392.5</ele>
        <time>2016-07-02T08:53:53Z</time>
      </trkpt>
      <trkpt lat="43.59969" lon="3.35173">
        <ele>393.1</ele>
        <time>2016-07-02T08:53:57Z</time>
      </trkpt>
      <trkpt lat="43.59963" lon="3.35178">
        <ele>393.7</ele>
        <time>2016-07-02T08:54:00Z</time>
      </trkpt>
      <trkpt lat="43.59955" lon="3.35184">
        <ele>394.3</ele>
        <time>2016-07-02T08:54:04Z</time>
      </trkpt>
      <trkpt lat="43.59949" lon="3.3519">
        <ele>394.9</ele>
        <time>2016-07-02T08:54:07Z</time>
      </trkpt>
      <trkpt lat="43.59942" lon="3.35196">
        <ele>395.6</ele>
        <time>2016-07-02T08:54:11Z</time>
      </trkpt>
      <trkpt lat="43.59935" lon="3.35202">
        <ele>396.3</ele>
        <time>2016-07-02T08:54:15Z</time>
      </trkpt>
      <trkpt lat="43.59927" lon="3.35208">
        <ele>397</ele>
        <time>2016-07-02T08:54:19Z</time>
      </trkpt>
      <trkpt lat="43.5992" lon="3.35215">
        <ele>397.7</ele>
        <time>2016-07-02T08:54:23Z</time>
      </trkpt>
      <trkpt lat="43.59913" lon="3.3522">
        <ele>398.3</ele>
        <time>2016-07-02T08:54:27Z</time>
      </trkpt>
      <trkpt lat="43.59904" lon="3.35223">
        <ele>399</ele>
        <time>2016-07-02T08:54:31Z</time>
      </trkpt>
      <trkpt lat="43.59895" lon="3.35225">
        <ele>399.7</ele>
        <time>2016-07-02T08:54:35Z</time>
      </trkpt>
      <trkpt lat="43.59886" lon="3.35226">
        <ele>400.5</ele>
        <time>2016-07-02T08:54:39Z</time>
      </trkpt>
      <trkpt lat="43.59878" lon="3.35228">
        <ele>401.3</ele>
        <time>2016-07-02T08:54:43Z</time>
      </trkpt>
      <trkpt lat="43.59869" lon="3.35231">
        <ele>402.1</ele>
        <time>2016-07-02T08:54:47Z</time>
      </trkpt>
      <trkpt lat="43.59862" lon="3.35233">
        <ele>402.6</ele>
        <time>2016-07-02T08:54:50Z</time>
      </trkpt>
      <trkpt lat="43.59853" lon="3.35235">
        <ele>403.4</ele>
        <time>2016-07-02T08:54:54Z</time>
      </trkpt>
      <trkpt lat="43.59845" lon="3.35233">
        <ele>403.9</ele>
        <time>2016-07-02T08:54:57Z</time>
      </trkpt>
      <trkpt lat="43.59838" lon="3.35228">
        <ele>404.3</ele>
        <time>2016-07-02T08:55:00Z</time>
      </trkpt>
      <trkpt lat="43.59833" lon="3.35219">
        <ele>405</ele>
        <time>2016-07-02T08:55:04Z</time>
      </trkpt>
      <trkpt lat="43.59828" lon="3.35209">
        <ele>405.7</ele>
        <time>2016-07-02T08:55:08Z</time>
      </trkpt>
      <trkpt lat="43.59821" lon="3.35201">
        <ele>406.4</ele>
        <time>2016-07-02T08:55:12Z</time>
      </trkpt>
      <trkpt lat="43.59813" lon="3.35194">
        <ele>407.2</ele>
        <time>2016-07-02T08:55:16Z</time>
      </trkpt>
      <trkpt lat="43.59804" lon="3.3519">
        <ele>407.9</ele>
        <time>2016-07-02T08:55:20Z</time>
      </trkpt>
      <trkpt lat="43.59796" lon="3.35188">
        <ele>408.5</ele>
        <time>2016-07-02T08:55:23Z</time>
      </trkpt>
      <trkpt lat="43.59787" lon="3.35187">
        <ele>409.3</ele>
        <time>2016-07-02T08:55:27Z</time>
      </trkpt>
      <trkpt lat="43.59777" lon="3.35186">
        <ele>410.1</ele>
        <time>2016-07-02T08:55:31Z</time>
      </trkpt>
      <trkpt lat="43.5977" lon="3.35186">
        <ele>410.7</ele>
        <time>2016-07-02T08:55:34Z</time>
      </trkpt>
      <trkpt lat="43.59763" lon="3.35186">
        <ele>411.3</ele>
        <time>2016-07-02T08:55:37Z</time>
      </trkpt>
      <trkpt lat="43.59753" lon="3.35187">
        <ele>412</ele>
        <time>2016-07-02T08:55:41Z</time>
      </trkpt>
      <trkpt lat="43.59745" lon="3.35184">
        <ele>412.7</ele>
        <time>2016-07-02T08:55:45Z</time>
      </trkpt>
      <trkpt lat="43.59738" lon="3.35174">
        <ele>415.9</ele>
        <time>2016-07-02T08:55:48Z</time>
      </trkpt>
      <trkpt lat="43.59732" lon="3.35163">
        <ele>417.9</ele>
        <time>2016-07-02T08:55:50Z</time>
      </trkpt>
      <trkpt lat="43.59726" lon="3.35154">
        <ele>419.1</ele>
        <time>2016-07-02T08:55:52Z</time>
      </trkpt>
      <trkpt lat="43.59722" lon="3.35147">
        <ele>419.2</ele>
        <time>2016-07-02T08:55:54Z</time>
      </trkpt>
      <trkpt lat="43.59716" lon="3.35139">
        <ele>419.3</ele>
        <time>2016-07-02T08:55:56Z</time>
      </trkpt>
      <trkpt lat="43.59712" lon="3.35131">
        <ele>419.3</ele>
        <time>2016-07-02T08:55:59Z</time>
      </trkpt>
      <trkpt lat="43.59709" lon="3.35118">
        <ele>419.2</ele>
        <time>2016-07-02T08:56:02Z</time>
      </trkpt>
      <trkpt lat="43.59708" lon="3.35108">
        <ele>419.1</ele>
        <time>2016-07-02T08:56:04Z</time>
      </trkpt>
      <trkpt lat="43.59706" lon="3.35097">
        <ele>417.3</ele>
        <time>2016-07-02T08:56:06Z</time>
      </trkpt>
      <trkpt lat="43.59704" lon="3.35084">
        <ele>416</ele>
        <time>2016-07-02T08:56:08Z</time>
      </trkpt>
      <trkpt lat="43.59703" lon="3.35072">
        <ele>415.4</ele>
        <time>2016-07-02T08:56:10Z</time>
      </trkpt>
      <trkpt lat="43.59702" lon="3.35056">
        <ele>414.6</ele>
        <time>2016-07-02T08:56:12Z</time>
      </trkpt>
      <trkpt lat="43.59703" lon="3.35039">
        <ele>414.2</ele>
        <time>2016-07-02T08:56:14Z</time>
      </trkpt>
      <trkpt lat="43.59702" lon="3.35028">
        <ele>414.1</ele>
        <time>2016-07-02T08:56:15Z</time>
      </trkpt>
      <trkpt lat="43.59699" lon="3.35009">
        <ele>412.4</ele>
        <time>2016-07-02T08:56:17Z</time>
      </trkpt>
      <trkpt lat="43.59697" lon="3.34999">
        <ele>411.6</ele>
        <time>2016-07-02T08:56:18Z</time>
      </trkpt>
      <trkpt lat="43.59694" lon="3.34981">
        <ele>409.9</ele>
        <time>2016-07-02T08:56:20Z</time>
      </trkpt>
      <trkpt lat="43.59691" lon="3.34963">
        <ele>407.7</ele>
        <time>2016-07-02T08:56:22Z</time>
      </trkpt>
      <trkpt lat="43.5969" lon="3.34951">
        <ele>407.5</ele>
        <time>2016-07-02T08:56:24Z</time>
      </trkpt>
      <trkpt lat="43.59693" lon="3.34946">
        <ele>407.3</ele>
        <time>2016-07-02T08:56:31Z</time>
      </trkpt>
      <trkpt lat="43.59694" lon="3.34935">
        <ele>406.6</ele>
        <time>2016-07-02T08:57:24Z</time>
      </trkpt>
      <trkpt lat="43.59693" lon="3.34926">
        <ele>406.5</ele>
        <time>2016-07-02T08:57:26Z</time>
      </trkpt>
      <trkpt lat="43.5969" lon="3.34913">
        <ele>406.3</ele>
        <time>2016-07-02T08:57:29Z</time>
      </trkpt>
      <trkpt lat="43.59687" lon="3.34902">
        <ele>406.1</ele>
        <time>2016-07-02T08:57:32Z</time>
      </trkpt>
      <trkpt lat="43.59683" lon="3.34891">
        <ele>405.8</ele>
        <time>2016-07-02T08:57:35Z</time>
      </trkpt>
      <trkpt lat="43.5968" lon="3.34878">
        <ele>405.5</ele>
        <time>2016-07-02T08:57:38Z</time>
      </trkpt>
      <trkpt lat="43.59675" lon="3.34869">
        <ele>405.1</ele>
        <time>2016-07-02T08:57:41Z</time>
      </trkpt>
      <trkpt lat="43.59669" lon="3.34863">
        <ele>404.8</ele>
        <time>2016-07-02T08:57:45Z</time>
      </trkpt>
      <trkpt lat="43.59663" lon="3.34854">
        <ele>404.6</ele>
        <time>2016-07-02T08:57:49Z</time>
      </trkpt>
      <trkpt lat="43.59657" lon="3.34845">
        <ele>404.5</ele>
        <time>2016-07-02T08:57:53Z</time>
      </trkpt>
      <trkpt lat="43.59653" lon="3.34836">
        <ele>404.5</ele>
        <time>2016-07-02T08:57:56Z</time>
      </trkpt>
      <trkpt lat="43.59648" lon="3.34827">
        <ele>404.5</ele>
        <time>2016-07-02T08:57:59Z</time>
      </trkpt>
      <trkpt lat="43.59641" lon="3.3482">
        <ele>404.5</ele>
        <time>2016-07-02T08:58:03Z</time>
      </trkpt>
      <trkpt lat="43.59635" lon="3.34813">
        <ele>404.6</ele>
        <time>2016-07-02T08:58:07Z</time>
      </trkpt>
      <trkpt lat="43.59632" lon="3.34803">
        <ele>404.8</ele>
        <time>2016-07-02T08:58:11Z</time>
      </trkpt>
      <trkpt lat="43.59629" lon="3.34792">
        <ele>405</ele>
        <time>2016-07-02T08:58:15Z</time>
      </trkpt>
      <trkpt lat="43.59626" lon="3.34781">
        <ele>405.2</ele>
        <time>2016-07-02T08:58:19Z</time>
      </trkpt>
      <trkpt lat="43.59623" lon="3.34772">
        <ele>405.4</ele>
        <time>2016-07-02T08:58:23Z</time>
      </trkpt>
      <trkpt lat="43.59621" lon="3.34762">
        <ele>405.8</ele>
        <time>2016-07-02T08:58:28Z</time>
      </trkpt>
      <trkpt lat="43.59619" lon="3.34751">
        <ele>406.1</ele>
        <time>2016-07-02T08:58:32Z</time>
      </trkpt>
      <trkpt lat="43.59617" lon="3.34742">
        <ele>406.3</ele>
        <time>2016-07-02T08:58:36Z</time>
      </trkpt>
      <trkpt lat="43.59616" lon="3.34731">
        <ele>406.8</ele>
        <time>2016-07-02T08:58:41Z</time>
      </trkpt>
      <trkpt lat="43.59614" lon="3.34721">
        <ele>407.2</ele>
        <time>2016-07-02T08:58:45Z</time>
      </trkpt>
      <trkpt lat="43.59612" lon="3.34711">
        <ele>407.6</ele>
        <time>2016-07-02T08:58:49Z</time>
      </trkpt>
      <trkpt lat="43.59609" lon="3.34702">
        <ele>408</ele>
        <time>2016-07-02T08:58:53Z</time>
      </trkpt>
      <trkpt lat="43.59607" lon="3.34692">
        <ele>408.7</ele>
        <time>2016-07-02T08:58:58Z</time>
      </trkpt>
      <trkpt lat="43.59603" lon="3.34681">
        <ele>409.7</ele>
        <time>2016-07-02T08:59:03Z</time>
      </trkpt>
      <trkpt lat="43.596" lon="3.34671">
        <ele>410.5</ele>
        <time>2016-07-02T08:59:08Z</time>
      </trkpt>
      <trkpt lat="43.59596" lon="3.34661">
        <ele>411.4</ele>
        <time>2016-07-02T08:59:14Z</time>
      </trkpt>
      <trkpt lat="43.59592" lon="3.34652">
        <ele>412.5</ele>
        <time>2016-07-02T08:59:20Z</time>
      </trkpt>
      <trkpt lat="43.59588" lon="3.34642">
        <ele>413.6</ele>
        <time>2016-07-02T08:59:26Z</time>
      </trkpt>
      <trkpt lat="43.59585" lon="3.34632">
        <ele>414.7</ele>
        <time>2016-07-02T08:59:31Z</time>
      </trkpt>
      <trkpt lat="43.59581" lon="3.34623">
        <ele>415.8</ele>
        <time>2016-07-02T08:59:37Z</time>
      </trkpt>
      <trkpt lat="43.59578" lon="3.34616">
        <ele>417.2</ele>
        <time>2016-07-02T08:59:44Z</time>
      </trkpt>
      <trkpt lat="43.59576" lon="3.34604">
        <ele>418.2</ele>
        <time>2016-07-02T08:59:49Z</time>
      </trkpt>
      <trkpt lat="43.59574" lon="3.34594">
        <ele>419</ele>
        <time>2016-07-02T08:59:53Z</time>
      </trkpt>
      <trkpt lat="43.5957" lon="3.34582">
        <ele>419.6</ele>
        <time>2016-07-02T08:59:57Z</time>
      </trkpt>
      <trkpt lat="43.59567" lon="3.34569">
        <ele>420.1</ele>
        <time>2016-07-02T09:00:00Z</time>
      </trkpt>
      <trkpt lat="43.59565" lon="3.34559">
        <ele>421.2</ele>
        <time>2016-07-02T09:00:02Z</time>
      </trkpt>
      <trkpt lat="43.59561" lon="3.34549">
        <ele>422.5</ele>
        <time>2016-07-02T09:00:04Z</time>
      </trkpt>
      <trkpt lat="43.59556" lon="3.3454">
        <ele>423.5</ele>
        <time>2016-07-02T09:00:06Z</time>
      </trkpt>
      <trkpt lat="43.59552" lon="3.3453">
        <ele>423.9</ele>
        <time>2016-07-02T09:00:08Z</time>
      </trkpt>
      <trkpt lat="43.59547" lon="3.34521">
        <ele>424.1</ele>
        <time>2016-07-02T09:00:10Z</time>
      </trkpt>
      <trkpt lat="43.59541" lon="3.34513">
        <ele>424</ele>
        <time>2016-07-02T09:00:12Z</time>
      </trkpt>
      <trkpt lat="43.59536" lon="3.34503">
        <ele>424.1</ele>
        <time>2016-07-02T09:00:14Z</time>
      </trkpt>
      <trkpt lat="43.5953" lon="3.34495">
        <ele>423.6</ele>
        <time>2016-07-02T09:00:16Z</time>
      </trkpt>
      <trkpt lat="43.59524" lon="3.34486">
        <ele>422.7</ele>
        <time>2016-07-02T09:00:18Z</time>
      </trkpt>
      <trkpt lat="43.59517" lon="3.34478">
        <ele>422.5</ele>
        <time>2016-07-02T09:00:20Z</time>
      </trkpt>
      <trkpt lat="43.5951" lon="3.34467">
        <ele>422.4</ele>
        <time>2016-07-02T09:00:23Z</time>
      </trkpt>
      <trkpt lat="43.59505" lon="3.34459">
        <ele>422.4</ele>
        <time>2016-07-02T09:00:26Z</time>
      </trkpt>
      <trkpt lat="43.59499" lon="3.34449">
        <ele>422.5</ele>
        <time>2016-07-02T09:00:30Z</time>
      </trkpt>
      <trkpt lat="43.59493" lon="3.3444">
        <ele>422.5</ele>
        <time>2016-07-02T09:00:34Z</time>
      </trkpt>
      <trkpt lat="43.59488" lon="3.3443">
        <ele>422.6</ele>
        <time>2016-07-02T09:00:38Z</time>
      </trkpt>
      <trkpt lat="43.59482" lon="3.34423">
        <ele>422.6</ele>
        <time>2016-07-02T09:00:42Z</time>
      </trkpt>
      <trkpt lat="43.59475" lon="3.34415">
        <ele>422.6</ele>
        <time>2016-07-02T09:00:46Z</time>
      </trkpt>
      <trkpt lat="43.5947" lon="3.34407">
        <ele>422.7</ele>
        <time>2016-07-02T09:00:50Z</time>
      </trkpt>
      <trkpt lat="43.59467" lon="3.34397">
        <ele>422.8</ele>
        <time>2016-07-02T09:00:54Z</time>
      </trkpt>
      <trkpt lat="43.59462" lon="3.34389">
        <ele>423</ele>
        <time>2016-07-02T09:00:58Z</time>
      </trkpt>
      <trkpt lat="43.59458" lon="3.3438">
        <ele>423.2</ele>
        <time>2016-07-02T09:01:02Z</time>
      </trkpt>
      <trkpt lat="43.59455" lon="3.34372">
        <ele>423.5</ele>
        <time>2016-07-02T09:01:06Z</time>
      </trkpt>
      <trkpt lat="43.59451" lon="3.34361">
        <ele>424</ele>
        <time>2016-07-02T09:01:10Z</time>
      </trkpt>
      <trkpt lat="43.59447" lon="3.34352">
        <ele>424.4</ele>
        <time>2016-07-02T09:01:14Z</time>
      </trkpt>
      <trkpt lat="43.59443" lon="3.34343">
        <ele>424.9</ele>
        <time>2016-07-02T09:01:18Z</time>
      </trkpt>
      <trkpt lat="43.59439" lon="3.34335">
        <ele>425.5</ele>
        <time>2016-07-02T09:01:22Z</time>
      </trkpt>
      <trkpt lat="43.59432" lon="3.34329">
        <ele>426.6</ele>
        <time>2016-07-02T09:01:29Z</time>
      </trkpt>
      <trkpt lat="43.59427" lon="3.34319">
        <ele>427.4</ele>
        <time>2016-07-02T09:01:34Z</time>
      </trkpt>
      <trkpt lat="43.59424" lon="3.34309">
        <ele>428.2</ele>
        <time>2016-07-02T09:01:39Z</time>
      </trkpt>
      <trkpt lat="43.5942" lon="3.34298">
        <ele>429</ele>
        <time>2016-07-02T09:01:44Z</time>
      </trkpt>
      <trkpt lat="43.59418" lon="3.34287">
        <ele>429.6</ele>
        <time>2016-07-02T09:01:49Z</time>
      </trkpt>
      <trkpt lat="43.59417" lon="3.34275">
        <ele>430.1</ele>
        <time>2016-07-02T09:01:53Z</time>
      </trkpt>
      <trkpt lat="43.59416" lon="3.34265">
        <ele>430.5</ele>
        <time>2016-07-02T09:01:57Z</time>
      </trkpt>
      <trkpt lat="43.59416" lon="3.34251">
        <ele>433</ele>
        <time>2016-07-02T09:03:30Z</time>
      </trkpt>
      <trkpt lat="43.59415" lon="3.34238">
        <ele>433</ele>
        <time>2016-07-02T09:03:32Z</time>
      </trkpt>
      <trkpt lat="43.59415" lon="3.34224">
        <ele>432.2</ele>
        <time>2016-07-02T09:03:34Z</time>
      </trkpt>
      <trkpt lat="43.59416" lon="3.34209">
        <ele>431</ele>
        <time>2016-07-02T09:03:36Z</time>
      </trkpt>
      <trkpt lat="43.59416" lon="3.34197">
        <ele>430.7</ele>
        <time>2016-07-02T09:03:39Z</time>
      </trkpt>
      <trkpt lat="43.59419" lon="3.34188">
        <ele>430.3</ele>
        <time>2016-07-02T09:03:42Z</time>
      </trkpt>
      <trkpt lat="43.59423" lon="3.34178">
        <ele>429.6</ele>
        <time>2016-07-02T09:03:46Z</time>
      </trkpt>
      <trkpt lat="43.59429" lon="3.34172">
        <ele>428.9</ele>
        <time>2016-07-02T09:03:49Z</time>
      </trkpt>
      <trkpt lat="43.59435" lon="3.34163">
        <ele>427.8</ele>
        <time>2016-07-02T09:03:53Z</time>
      </trkpt>
      <trkpt lat="43.59439" lon="3.34154">
        <ele>426.5</ele>
        <time>2016-07-02T09:03:57Z</time>
      </trkpt>
      <trkpt lat="43.59442" lon="3.34143">
        <ele>425.5</ele>
        <time>2016-07-02T09:04:00Z</time>
      </trkpt>
      <trkpt lat="43.59443" lon="3.34132">
        <ele>424</ele>
        <time>2016-07-02T09:04:04Z</time>
      </trkpt>
      <trkpt lat="43.59447" lon="3.34124">
        <ele>422.8</ele>
        <time>2016-07-02T09:04:07Z</time>
      </trkpt>
      <trkpt lat="43.59453" lon="3.34113">
        <ele>421.1</ele>
        <time>2016-07-02T09:04:11Z</time>
      </trkpt>
      <trkpt lat="43.59457" lon="3.34103">
        <ele>419.8</ele>
        <time>2016-07-02T09:04:14Z</time>
      </trkpt>
      <trkpt lat="43.59464" lon="3.34095">
        <ele>417.9</ele>
        <time>2016-07-02T09:04:18Z</time>
      </trkpt>
      <trkpt lat="43.59472" lon="3.34089">
        <ele>415.9</ele>
        <time>2016-07-02T09:04:22Z</time>
      </trkpt>
      <trkpt lat="43.59476" lon="3.34078">
        <ele>413.8</ele>
        <time>2016-07-02T09:04:26Z</time>
      </trkpt>
      <trkpt lat="43.59479" lon="3.34065">
        <ele>411.7</ele>
        <time>2016-07-02T09:04:30Z</time>
      </trkpt>
      <trkpt lat="43.5948" lon="3.34055">
        <ele>410</ele>
        <time>2016-07-02T09:04:33Z</time>
      </trkpt>
      <trkpt lat="43.59477" lon="3.34044">
        <ele>408.3</ele>
        <time>2016-07-02T09:04:36Z</time>
      </trkpt>
      <trkpt lat="43.59474" lon="3.34035">
        <ele>406.6</ele>
        <time>2016-07-02T09:04:39Z</time>
      </trkpt>
      <trkpt lat="43.59479" lon="3.34023">
        <ele>404.4</ele>
        <time>2016-07-02T09:04:43Z</time>
      </trkpt>
      <trkpt lat="43.59483" lon="3.3401">
        <ele>402.6</ele>
        <time>2016-07-02T09:04:46Z</time>
      </trkpt>
      <trkpt lat="43.59484" lon="3.33998">
        <ele>400.6</ele>
        <time>2016-07-02T09:04:49Z</time>
      </trkpt>
      <trkpt lat="43.59487" lon="3.33989">
        <ele>399.4</ele>
        <time>2016-07-02T09:04:51Z</time>
      </trkpt>
      <trkpt lat="43.59493" lon="3.33981">
        <ele>397.5</ele>
        <time>2016-07-02T09:04:54Z</time>
      </trkpt>
      <trkpt lat="43.59498" lon="3.33972">
        <ele>390.6</ele>
        <time>2016-07-02T09:04:56Z</time>
      </trkpt>
      <trkpt lat="43.59502" lon="3.33963">
        <ele>384.8</ele>
        <time>2016-07-02T09:04:58Z</time>
      </trkpt>
      <trkpt lat="43.59505" lon="3.33955">
        <ele>376.5</ele>
        <time>2016-07-02T09:05:00Z</time>
      </trkpt>
      <trkpt lat="43.5951" lon="3.33946">
        <ele>375.4</ele>
        <time>2016-07-02T09:05:03Z</time>
      </trkpt>
      <trkpt lat="43.59512" lon="3.33937">
        <ele>374.4</ele>
        <time>2016-07-02T09:05:06Z</time>
      </trkpt>
      <trkpt lat="43.59509" lon="3.33926">
        <ele>373.2</ele>
        <time>2016-07-02T09:05:09Z</time>
      </trkpt>
      <trkpt lat="43.59506" lon="3.33912">
        <ele>371.9</ele>
        <time>2016-07-02T09:05:12Z</time>
      </trkpt>
      <trkpt lat="43.59505" lon="3.33902">
        <ele>370.6</ele>
        <time>2016-07-02T09:05:15Z</time>
      </trkpt>
      <trkpt lat="43.59501" lon="3.3389">
        <ele>368.8</ele>
        <time>2016-07-02T09:05:19Z</time>
      </trkpt>
      <trkpt lat="43.59495" lon="3.33879">
        <ele>366.6</ele>
        <time>2016-07-02T09:05:23Z</time>
      </trkpt>
      <trkpt lat="43.59492" lon="3.3387">
        <ele>364.4</ele>
        <time>2016-07-02T09:05:27Z</time>
      </trkpt>
      <trkpt lat="43.59491" lon="3.33859">
        <ele>362.5</ele>
        <time>2016-07-02T09:05:30Z</time>
      </trkpt>
      <trkpt lat="43.59495" lon="3.33848">
        <ele>360.6</ele>
        <time>2016-07-02T09:05:33Z</time>
      </trkpt>
      <trkpt lat="43.59494" lon="3.33835">
        <ele>347.7</ele>
        <time>2016-07-02T09:05:36Z</time>
      </trkpt>
      <trkpt lat="43.59493" lon="3.33824">
        <ele>342.7</ele>
        <time>2016-07-02T09:05:38Z</time>
      </trkpt>
      <trkpt lat="43.59495" lon="3.33813">
        <ele>341.4</ele>
        <time>2016-07-02T09:05:41Z</time>
      </trkpt>
      <trkpt lat="43.59491" lon="3.33804">
        <ele>339.7</ele>
        <time>2016-07-02T09:05:45Z</time>
      </trkpt>
      <trkpt lat="43.59487" lon="3.33795">
        <ele>337.9</ele>
        <time>2016-07-02T09:05:49Z</time>
      </trkpt>
      <trkpt lat="43.59488" lon="3.33784">
        <ele>336</ele>
        <time>2016-07-02T09:05:53Z</time>
      </trkpt>
      <trkpt lat="43.59487" lon="3.33774">
        <ele>334.5</ele>
        <time>2016-07-02T09:05:56Z</time>
      </trkpt>
      <trkpt lat="43.59487" lon="3.33763">
        <ele>332.2</ele>
        <time>2016-07-02T09:06:00Z</time>
      </trkpt>
      <trkpt lat="43.59492" lon="3.33752">
        <ele>329.8</ele>
        <time>2016-07-02T09:06:04Z</time>
      </trkpt>
      <trkpt lat="43.59495" lon="3.33743">
        <ele>326.1</ele>
        <time>2016-07-02T09:06:10Z</time>
      </trkpt>
      <trkpt lat="43.59498" lon="3.33732">
        <ele>323.7</ele>
        <time>2016-07-02T09:06:14Z</time>
      </trkpt>
      <trkpt lat="43.595" lon="3.3372">
        <ele>321.2</ele>
        <time>2016-07-02T09:06:18Z</time>
      </trkpt>
      <trkpt lat="43.59499" lon="3.3371">
        <ele>318.8</ele>
        <time>2016-07-02T09:06:22Z</time>
      </trkpt>
      <trkpt lat="43.59507" lon="3.33704">
        <ele>315.6</ele>
        <time>2016-07-02T09:06:27Z</time>
      </trkpt>
      <trkpt lat="43.59514" lon="3.33696">
        <ele>313.6</ele>
        <time>2016-07-02T09:06:30Z</time>
      </trkpt>
      <trkpt lat="43.59519" lon="3.33688">
        <ele>311.5</ele>
        <time>2016-07-02T09:06:33Z</time>
      </trkpt>
      <trkpt lat="43.59528" lon="3.33691">
        <ele>309.4</ele>
        <time>2016-07-02T09:06:36Z</time>
      </trkpt>
      <trkpt lat="43.59537" lon="3.3369">
        <ele>307.3</ele>
        <time>2016-07-02T09:06:39Z</time>
      </trkpt>
      <trkpt lat="43.59537" lon="3.3369">
        <ele>303.7</ele>
        <time>2016-07-02T09:06:46Z</time>
      </trkpt>
      <trkpt lat="43.59537" lon="3.33692">
        <ele>302.6</ele>
        <time>2016-07-02T09:06:53Z</time>
      </trkpt>
      <trkpt lat="43.59535" lon="3.33685">
        <ele>299.5</ele>
        <time>2016-07-02T09:07:10Z</time>
      </trkpt>
      <trkpt lat="43.59533" lon="3.33685">
        <ele>293.7</ele>
        <time>2016-07-02T09:07:28Z</time>
      </trkpt>
      <trkpt lat="43.59531" lon="3.3369">
        <ele>289.2</ele>
        <time>2016-07-02T09:07:40Z</time>
      </trkpt>
      <trkpt lat="43.59528" lon="3.3369">
        <ele>286.9</ele>
        <time>2016-07-02T09:07:47Z</time>
      </trkpt>
      <trkpt lat="43.59524" lon="3.33687">
        <ele>285.3</ele>
        <time>2016-07-02T09:07:54Z</time>
      </trkpt>
      <trkpt lat="43.59519" lon="3.33688">
        <ele>284.4</ele>
        <time>2016-07-02T09:08:01Z</time>
      </trkpt>
      <trkpt lat="43.59514" lon="3.33694">
        <ele>283.7</ele>
        <time>2016-07-02T09:08:08Z</time>
      </trkpt>
      <trkpt lat="43.59512" lon="3.33698">
        <ele>283.3</ele>
        <time>2016-07-02T09:08:15Z</time>
      </trkpt>
      <trkpt lat="43.5951" lon="3.33702">
        <ele>283.2</ele>
        <time>2016-07-02T09:08:22Z</time>
      </trkpt>
      <trkpt lat="43.59507" lon="3.33707">
        <ele>283.1</ele>
        <time>2016-07-02T09:08:43Z</time>
      </trkpt>
      <trkpt lat="43.59504" lon="3.33709">
        <ele>283</ele>
        <time>2016-07-02T09:08:53Z</time>
      </trkpt>
      <trkpt lat="43.59497" lon="3.33715">
        <ele>284.5</ele>
        <time>2016-07-02T09:09:20Z</time>
      </trkpt>
      <trkpt lat="43.59494" lon="3.33713">
        <ele>285.2</ele>
        <time>2016-07-02T09:09:42Z</time>
      </trkpt>
      <trkpt lat="43.59496" lon="3.33713">
        <ele>285.1</ele>
        <time>2016-07-02T09:10:07Z</time>
      </trkpt>
      <trkpt lat="43.59496" lon="3.33715">
        <ele>285.4</ele>
        <time>2016-07-02T09:10:14Z</time>
      </trkpt>
      <trkpt lat="43.59496" lon="3.33712">
        <ele>285.7</ele>
        <time>2016-07-02T09:10:37Z</time>
      </trkpt>
      <trkpt lat="43.59493" lon="3.33709">
        <ele>285.9</ele>
        <time>2016-07-02T09:10:44Z</time>
      </trkpt>
      <trkpt lat="43.595" lon="3.33705">
        <ele>287.6</ele>
        <time>2016-07-02T09:11:23Z</time>
      </trkpt>
      <trkpt lat="43.59503" lon="3.33707">
        <ele>287</ele>
        <time>2016-07-02T09:11:30Z</time>
      </trkpt>
      <trkpt lat="43.59508" lon="3.33706">
        <ele>286.4</ele>
        <time>2016-07-02T09:11:37Z</time>
      </trkpt>
      <trkpt lat="43.59511" lon="3.33703">
        <ele>285.6</ele>
        <time>2016-07-02T09:11:44Z</time>
      </trkpt>
      <trkpt lat="43.59514" lon="3.33695">
        <ele>284.5</ele>
        <time>2016-07-02T09:11:51Z</time>
      </trkpt>
      <trkpt lat="43.59517" lon="3.33692">
        <ele>283.7</ele>
        <time>2016-07-02T09:11:58Z</time>
      </trkpt>
      <trkpt lat="43.59522" lon="3.3369">
        <ele>282.9</ele>
        <time>2016-07-02T09:12:05Z</time>
      </trkpt>
      <trkpt lat="43.59528" lon="3.3369">
        <ele>282.3</ele>
        <time>2016-07-02T09:12:12Z</time>
      </trkpt>
      <trkpt lat="43.59532" lon="3.3369">
        <ele>280.8</ele>
        <time>2016-07-02T09:12:19Z</time>
      </trkpt>
      <trkpt lat="43.59534" lon="3.33694">
        <ele>280.2</ele>
        <time>2016-07-02T09:12:26Z</time>
      </trkpt>
      <trkpt lat="43.59531" lon="3.3369">
        <ele>276.9</ele>
        <time>2016-07-02T09:12:47Z</time>
      </trkpt>
      <trkpt lat="43.59528" lon="3.33681">
        <ele>275.1</ele>
        <time>2016-07-02T09:13:06Z</time>
      </trkpt>
      <trkpt lat="43.59524" lon="3.33676">
        <ele>274.2</ele>
        <time>2016-07-02T09:13:13Z</time>
      </trkpt>
      <trkpt lat="43.59517" lon="3.33671">
        <ele>273.8</ele>
        <time>2016-07-02T09:13:19Z</time>
      </trkpt>
      <trkpt lat="43.59509" lon="3.33675">
        <ele>273.6</ele>
        <time>2016-07-02T09:13:23Z</time>
      </trkpt>
      <trkpt lat="43.59503" lon="3.33681">
        <ele>273.4</ele>
        <time>2016-07-02T09:13:26Z</time>
      </trkpt>
      <trkpt lat="43.59495" lon="3.33685">
        <ele>273.4</ele>
        <time>2016-07-02T09:13:31Z</time>
      </trkpt>
      <trkpt lat="43.59487" lon="3.33689">
        <ele>273.7</ele>
        <time>2016-07-02T09:13:36Z</time>
      </trkpt>
      <trkpt lat="43.59481" lon="3.33699">
        <ele>274</ele>
        <time>2016-07-02T09:13:41Z</time>
      </trkpt>
      <trkpt lat="43.59475" lon="3.33708">
        <ele>274.7</ele>
        <time>2016-07-02T09:13:48Z</time>
      </trkpt>
      <trkpt lat="43.59468" lon="3.33715">
        <ele>275.3</ele>
        <time>2016-07-02T09:13:53Z</time>
      </trkpt>
      <trkpt lat="43.59462" lon="3.33722">
        <ele>275.8</ele>
        <time>2016-07-02T09:13:57Z</time>
      </trkpt>
      <trkpt lat="43.59455" lon="3.33726">
        <ele>275.9</ele>
        <time>2016-07-02T09:13:59Z</time>
      </trkpt>
      <trkpt lat="43.59447" lon="3.3373">
        <ele>276</ele>
        <time>2016-07-02T09:14:02Z</time>
      </trkpt>
      <trkpt lat="43.59441" lon="3.33739">
        <ele>276.2</ele>
        <time>2016-07-02T09:14:06Z</time>
      </trkpt>
      <trkpt lat="43.59433" lon="3.33747">
        <ele>276.4</ele>
        <time>2016-07-02T09:14:10Z</time>
      </trkpt>
      <trkpt lat="43.59426" lon="3.33753">
        <ele>276.4</ele>
        <time>2016-07-02T09:14:13Z</time>
      </trkpt>
      <trkpt lat="43.59419" lon="3.33758">
        <ele>276.8</ele>
        <time>2016-07-02T09:14:17Z</time>
      </trkpt>
      <trkpt lat="43.59412" lon="3.33765">
        <ele>277.1</ele>
        <time>2016-07-02T09:14:21Z</time>
      </trkpt>
      <trkpt lat="43.59405" lon="3.33773">
        <ele>277.5</ele>
        <time>2016-07-02T09:14:26Z</time>
      </trkpt>
      <trkpt lat="43.59403" lon="3.33782">
        <ele>277.7</ele>
        <time>2016-07-02T09:14:33Z</time>
      </trkpt>
      <trkpt lat="43.59397" lon="3.33793">
        <ele>278</ele>
        <time>2016-07-02T09:14:39Z</time>
      </trkpt>
      <trkpt lat="43.59395" lon="3.33804">
        <ele>278.5</ele>
        <time>2016-07-02T09:14:41Z</time>
      </trkpt>
      <trkpt lat="43.59394" lon="3.33817">
        <ele>278.5</ele>
        <time>2016-07-02T09:14:44Z</time>
      </trkpt>
      <trkpt lat="43.59391" lon="3.33826">
        <ele>278.5</ele>
        <time>2016-07-02T09:14:46Z</time>
      </trkpt>
      <trkpt lat="43.59384" lon="3.33839">
        <ele>277</ele>
        <time>2016-07-02T09:14:49Z</time>
      </trkpt>
      <trkpt lat="43.59377" lon="3.33848">
        <ele>275.9</ele>
        <time>2016-07-02T09:14:51Z</time>
      </trkpt>
      <trkpt lat="43.59371" lon="3.33855">
        <ele>275.8</ele>
        <time>2016-07-02T09:14:53Z</time>
      </trkpt>
      <trkpt lat="43.59365" lon="3.33862">
        <ele>275.6</ele>
        <time>2016-07-02T09:14:55Z</time>
      </trkpt>
      <trkpt lat="43.59354" lon="3.3387">
        <ele>274.5</ele>
        <time>2016-07-02T09:14:57Z</time>
      </trkpt>
      <trkpt lat="43.59345" lon="3.33876">
        <ele>273.7</ele>
        <time>2016-07-02T09:14:59Z</time>
      </trkpt>
      <trkpt lat="43.59337" lon="3.33883">
        <ele>271.5</ele>
        <time>2016-07-02T09:15:01Z</time>
      </trkpt>
      <trkpt lat="43.59326" lon="3.33887">
        <ele>269.6</ele>
        <time>2016-07-02T09:15:03Z</time>
      </trkpt>
      <trkpt lat="43.59316" lon="3.33892">
        <ele>269.3</ele>
        <time>2016-07-02T09:15:05Z</time>
      </trkpt>
      <trkpt lat="43.59306" lon="3.33892">
        <ele>267.5</ele>
        <time>2016-07-02T09:15:07Z</time>
      </trkpt>
      <trkpt lat="43.59297" lon="3.33892">
        <ele>265.9</ele>
        <time>2016-07-02T09:15:09Z</time>
      </trkpt>
      <trkpt lat="43.59288" lon="3.33892">
        <ele>265.6</ele>
        <time>2016-07-02T09:15:12Z</time>
      </trkpt>
      <trkpt lat="43.5928" lon="3.33887">
        <ele>264</ele>
        <time>2016-07-02T09:15:14Z</time>
      </trkpt>
      <trkpt lat="43.59274" lon="3.33881">
        <ele>261.3</ele>
        <time>2016-07-02T09:15:16Z</time>
      </trkpt>
      <trkpt lat="43.59267" lon="3.33874">
        <ele>259.8</ele>
        <time>2016-07-02T09:15:18Z</time>
      </trkpt>
      <trkpt lat="43.59259" lon="3.3387">
        <ele>259.4</ele>
        <time>2016-07-02T09:15:21Z</time>
      </trkpt>
      <trkpt lat="43.59251" lon="3.33874">
        <ele>258.7</ele>
        <time>2016-07-02T09:15:25Z</time>
      </trkpt>
      <trkpt lat="43.59246" lon="3.33868">
        <ele>257.6</ele>
        <time>2016-07-02T09:15:31Z</time>
      </trkpt>
      <trkpt lat="43.59246" lon="3.33857">
        <ele>256.8</ele>
        <time>2016-07-02T09:15:34Z</time>
      </trkpt>
      <trkpt lat="43.59243" lon="3.33846">
        <ele>256.1</ele>
        <time>2016-07-02T09:15:37Z</time>
      </trkpt>
      <trkpt lat="43.59237" lon="3.33837">
        <ele>255.6</ele>
        <time>2016-07-02T09:15:39Z</time>
      </trkpt>
      <trkpt lat="43.5923" lon="3.33829">
        <ele>254.7</ele>
        <time>2016-07-02T09:15:42Z</time>
      </trkpt>
      <trkpt lat="43.59222" lon="3.33823">
        <ele>253.8</ele>
        <time>2016-07-02T09:15:45Z</time>
      </trkpt>
      <trkpt lat="43.59214" lon="3.3382">
        <ele>252.9</ele>
        <time>2016-07-02T09:15:48Z</time>
      </trkpt>
      <trkpt lat="43.5921" lon="3.33818">
        <ele>251.3</ele>
        <time>2016-07-02T09:15:55Z</time>
      </trkpt>
      <trkpt lat="43.59204" lon="3.33811">
        <ele>249.5</ele>
        <time>2016-07-02T09:16:04Z</time>
      </trkpt>
      <trkpt lat="43.59193" lon="3.33806">
        <ele>245.5</ele>
        <time>2016-07-02T09:16:07Z</time>
      </trkpt>
      <trkpt lat="43.59185" lon="3.33807">
        <ele>242.5</ele>
        <time>2016-07-02T09:16:09Z</time>
      </trkpt>
      <trkpt lat="43.59177" lon="3.3381">
        <ele>242</ele>
        <time>2016-07-02T09:16:11Z</time>
      </trkpt>
      <trkpt lat="43.59174" lon="3.33819">
        <ele>240.9</ele>
        <time>2016-07-02T09:16:16Z</time>
      </trkpt>
      <trkpt lat="43.59175" lon="3.33831">
        <ele>240</ele>
        <time>2016-07-02T09:16:22Z</time>
      </trkpt>
      <trkpt lat="43.59177" lon="3.3384">
        <ele>239.6</ele>
        <time>2016-07-02T09:16:26Z</time>
      </trkpt>
      <trkpt lat="43.59182" lon="3.33849">
        <ele>239.1</ele>
        <time>2016-07-02T09:16:30Z</time>
      </trkpt>
      <trkpt lat="43.59185" lon="3.33856">
        <ele>238.6</ele>
        <time>2016-07-02T09:16:37Z</time>
      </trkpt>
      <trkpt lat="43.59188" lon="3.33857">
        <ele>238</ele>
        <time>2016-07-02T09:16:49Z</time>
      </trkpt>
      <trkpt lat="43.59187" lon="3.3387">
        <ele>237.8</ele>
        <time>2016-07-02T09:17:06Z</time>
      </trkpt>
      <trkpt lat="43.59186" lon="3.33881">
        <ele>237.7</ele>
        <time>2016-07-02T09:17:09Z</time>
      </trkpt>
      <trkpt lat="43.59182" lon="3.33893">
        <ele>237.6</ele>
        <time>2016-07-02T09:17:12Z</time>
      </trkpt>
      <trkpt lat="43.59177" lon="3.33905">
        <ele>237.4</ele>
        <time>2016-07-02T09:17:15Z</time>
      </trkpt>
      <trkpt lat="43.59173" lon="3.33916">
        <ele>237.3</ele>
        <time>2016-07-02T09:17:18Z</time>
      </trkpt>
      <trkpt lat="43.59169" lon="3.33928">
        <ele>237.2</ele>
        <time>2016-07-02T09:17:21Z</time>
      </trkpt>
      <trkpt lat="43.59165" lon="3.3394">
        <ele>236.2</ele>
        <time>2016-07-02T09:17:23Z</time>
      </trkpt>
      <trkpt lat="43.59161" lon="3.33954">
        <ele>235.6</ele>
        <time>2016-07-02T09:17:25Z</time>
      </trkpt>
      <trkpt lat="43.59159" lon="3.33964">
        <ele>235.6</ele>
        <time>2016-07-02T09:17:27Z</time>
      </trkpt>
      <trkpt lat="43.59155" lon="3.33975">
        <ele>235.5</ele>
        <time>2016-07-02T09:17:30Z</time>
      </trkpt>
      <trkpt lat="43.59152" lon="3.33984">
        <ele>235.6</ele>
        <time>2016-07-02T09:17:32Z</time>
      </trkpt>
      <trkpt lat="43.59148" lon="3.33996">
        <ele>235.7</ele>
        <time>2016-07-02T09:17:35Z</time>
      </trkpt>
      <trkpt lat="43.59144" lon="3.34005">
        <ele>235.8</ele>
        <time>2016-07-02T09:17:37Z</time>
      </trkpt>
      <trkpt lat="43.59139" lon="3.34016">
        <ele>235.9</ele>
        <time>2016-07-02T09:17:40Z</time>
      </trkpt>
      <trkpt lat="43.59136" lon="3.34027">
        <ele>236</ele>
        <time>2016-07-02T09:17:43Z</time>
      </trkpt>
      <trkpt lat="43.59137" lon="3.34038">
        <ele>236.1</ele>
        <time>2016-07-02T09:17:46Z</time>
      </trkpt>
      <trkpt lat="43.59138" lon="3.34049">
        <ele>236.3</ele>
        <time>2016-07-02T09:17:50Z</time>
      </trkpt>
      <trkpt lat="43.59137" lon="3.3406">
        <ele>236.7</ele>
        <time>2016-07-02T09:17:54Z</time>
      </trkpt>
      <trkpt lat="43.59136" lon="3.3407">
        <ele>236.8</ele>
        <time>2016-07-02T09:17:58Z</time>
      </trkpt>
      <trkpt lat="43.59136" lon="3.34083">
        <ele>237.1</ele>
        <time>2016-07-02T09:18:03Z</time>
      </trkpt>
      <trkpt lat="43.59135" lon="3.34096">
        <ele>237.3</ele>
        <time>2016-07-02T09:18:07Z</time>
      </trkpt>
      <trkpt lat="43.59135" lon="3.34103">
        <ele>237.6</ele>
        <time>2016-07-02T09:18:14Z</time>
      </trkpt>
      <trkpt lat="43.59135" lon="3.34115">
        <ele>238</ele>
        <time>2016-07-02T09:18:20Z</time>
      </trkpt>
      <trkpt lat="43.59135" lon="3.34125">
        <ele>238.4</ele>
        <time>2016-07-02T09:18:25Z</time>
      </trkpt>
      <trkpt lat="43.59135" lon="3.34135">
        <ele>238.9</ele>
        <time>2016-07-02T09:18:30Z</time>
      </trkpt>
      <trkpt lat="43.59135" lon="3.34147">
        <ele>239.5</ele>
        <time>2016-07-02T09:18:35Z</time>
      </trkpt>
      <trkpt lat="43.59135" lon="3.34157">
        <ele>239.9</ele>
        <time>2016-07-02T09:18:40Z</time>
      </trkpt>
      <trkpt lat="43.59135" lon="3.3417">
        <ele>240.3</ele>
        <time>2016-07-02T09:18:45Z</time>
      </trkpt>
      <trkpt lat="43.59136" lon="3.34182">
        <ele>240.8</ele>
        <time>2016-07-02T09:18:50Z</time>
      </trkpt>
      <trkpt lat="43.59134" lon="3.34192">
        <ele>241.2</ele>
        <time>2016-07-02T09:18:54Z</time>
      </trkpt>
      <trkpt lat="43.59133" lon="3.34202">
        <ele>241.9</ele>
        <time>2016-07-02T09:18:59Z</time>
      </trkpt>
      <trkpt lat="43.59134" lon="3.34214">
        <ele>242.7</ele>
        <time>2016-07-02T09:19:04Z</time>
      </trkpt>
      <trkpt lat="43.59134" lon="3.34224">
        <ele>243.3</ele>
        <time>2016-07-02T09:19:08Z</time>
      </trkpt>
      <trkpt lat="43.59132" lon="3.34236">
        <ele>244.1</ele>
        <time>2016-07-02T09:19:13Z</time>
      </trkpt>
      <trkpt lat="43.5913" lon="3.34246">
        <ele>244.8</ele>
        <time>2016-07-02T09:19:17Z</time>
      </trkpt>
      <trkpt lat="43.59129" lon="3.34258">
        <ele>245.7</ele>
        <time>2016-07-02T09:19:22Z</time>
      </trkpt>
      <trkpt lat="43.59129" lon="3.3427">
        <ele>246.5</ele>
        <time>2016-07-02T09:19:27Z</time>
      </trkpt>
      <trkpt lat="43.5913" lon="3.3428">
        <ele>246.9</ele>
        <time>2016-07-02T09:19:30Z</time>
      </trkpt>
      <trkpt lat="43.5913" lon="3.34291">
        <ele>248.3</ele>
        <time>2016-07-02T09:19:32Z</time>
      </trkpt>
      <trkpt lat="43.5913" lon="3.34303">
        <ele>249.8</ele>
        <time>2016-07-02T09:19:34Z</time>
      </trkpt>
      <trkpt lat="43.59129" lon="3.34315">
        <ele>249.8</ele>
        <time>2016-07-02T09:19:37Z</time>
      </trkpt>
      <trkpt lat="43.59128" lon="3.34325">
        <ele>249.9</ele>
        <time>2016-07-02T09:19:39Z</time>
      </trkpt>
      <trkpt lat="43.59126" lon="3.34336">
        <ele>250.1</ele>
        <time>2016-07-02T09:19:42Z</time>
      </trkpt>
      <trkpt lat="43.59123" lon="3.34347">
        <ele>250.4</ele>
        <time>2016-07-02T09:19:45Z</time>
      </trkpt>
      <trkpt lat="43.59121" lon="3.34359">
        <ele>250.7</ele>
        <time>2016-07-02T09:19:49Z</time>
      </trkpt>
      <trkpt lat="43.59122" lon="3.34372">
        <ele>251.2</ele>
        <time>2016-07-02T09:19:53Z</time>
      </trkpt>
      <trkpt lat="43.59125" lon="3.34382">
        <ele>251.4</ele>
        <time>2016-07-02T09:19:56Z</time>
      </trkpt>
      <trkpt lat="43.59129" lon="3.34392">
        <ele>251.8</ele>
        <time>2016-07-02T09:19:59Z</time>
      </trkpt>
      <trkpt lat="43.59132" lon="3.34402">
        <ele>251.9</ele>
        <time>2016-07-02T09:20:02Z</time>
      </trkpt>
      <trkpt lat="43.59137" lon="3.34413">
        <ele>252.1</ele>
        <time>2016-07-02T09:20:05Z</time>
      </trkpt>
      <trkpt lat="43.59145" lon="3.34424">
        <ele>252.8</ele>
        <time>2016-07-02T09:20:08Z</time>
      </trkpt>
      <trkpt lat="43.59149" lon="3.34432">
        <ele>252.8</ele>
        <time>2016-07-02T09:20:10Z</time>
      </trkpt>
      <trkpt lat="43.59156" lon="3.34441">
        <ele>253.1</ele>
        <time>2016-07-02T09:20:13Z</time>
      </trkpt>
      <trkpt lat="43.5916" lon="3.34452">
        <ele>253.5</ele>
        <time>2016-07-02T09:20:16Z</time>
      </trkpt>
      <trkpt lat="43.59163" lon="3.34466">
        <ele>253.8</ele>
        <time>2016-07-02T09:20:19Z</time>
      </trkpt>
      <trkpt lat="43.59165" lon="3.34478">
        <ele>255.6</ele>
        <time>2016-07-02T09:20:21Z</time>
      </trkpt>
      <trkpt lat="43.59167" lon="3.34491">
        <ele>257</ele>
        <time>2016-07-02T09:20:23Z</time>
      </trkpt>
      <trkpt lat="43.5917" lon="3.34507">
        <ele>257.1</ele>
        <time>2016-07-02T09:20:25Z</time>
      </trkpt>
      <trkpt lat="43.59173" lon="3.34525">
        <ele>257.7</ele>
        <time>2016-07-02T09:20:27Z</time>
      </trkpt>
      <trkpt lat="43.59176" lon="3.34542">
        <ele>257.9</ele>
        <time>2016-07-02T09:20:29Z</time>
      </trkpt>
      <trkpt lat="43.59178" lon="3.34556">
        <ele>258.2</ele>
        <time>2016-07-02T09:20:31Z</time>
      </trkpt>
      <trkpt lat="43.59182" lon="3.34567">
        <ele>257.5</ele>
        <time>2016-07-02T09:20:33Z</time>
      </trkpt>
      <trkpt lat="43.59185" lon="3.3458">
        <ele>256.5</ele>
        <time>2016-07-02T09:20:35Z</time>
      </trkpt>
      <trkpt lat="43.59187" lon="3.34592">
        <ele>256.3</ele>
        <time>2016-07-02T09:20:37Z</time>
      </trkpt>
      <trkpt lat="43.59188" lon="3.34607">
        <ele>255.8</ele>
        <time>2016-07-02T09:20:39Z</time>
      </trkpt>
      <trkpt lat="43.59191" lon="3.34616">
        <ele>255.5</ele>
        <time>2016-07-02T09:20:41Z</time>
      </trkpt>
      <trkpt lat="43.59197" lon="3.34625">
        <ele>255.5</ele>
        <time>2016-07-02T09:20:44Z</time>
      </trkpt>
      <trkpt lat="43.59201" lon="3.34634">
        <ele>255.5</ele>
        <time>2016-07-02T09:20:48Z</time>
      </trkpt>
      <trkpt lat="43.59204" lon="3.34645">
        <ele>255.5</ele>
        <time>2016-07-02T09:20:52Z</time>
      </trkpt>
      <trkpt lat="43.59207" lon="3.34657">
        <ele>255.5</ele>
        <time>2016-07-02T09:20:56Z</time>
      </trkpt>
      <trkpt lat="43.59209" lon="3.34668">
        <ele>255.5</ele>
        <time>2016-07-02T09:20:59Z</time>
      </trkpt>
      <trkpt lat="43.59212" lon="3.3468">
        <ele>255.6</ele>
        <time>2016-07-02T09:21:02Z</time>
      </trkpt>
      <trkpt lat="43.59215" lon="3.3469">
        <ele>255.6</ele>
        <time>2016-07-02T09:21:05Z</time>
      </trkpt>
      <trkpt lat="43.59219" lon="3.34699">
        <ele>255.7</ele>
        <time>2016-07-02T09:21:08Z</time>
      </trkpt>
      <trkpt lat="43.59222" lon="3.3471">
        <ele>255.6</ele>
        <time>2016-07-02T09:21:11Z</time>
      </trkpt>
      <trkpt lat="43.59225" lon="3.34721">
        <ele>255.6</ele>
        <time>2016-07-02T09:21:14Z</time>
      </trkpt>
      <trkpt lat="43.59227" lon="3.34736">
        <ele>254.9</ele>
        <time>2016-07-02T09:21:17Z</time>
      </trkpt>
      <trkpt lat="43.59227" lon="3.34748">
        <ele>254.4</ele>
        <time>2016-07-02T09:21:19Z</time>
      </trkpt>
      <trkpt lat="43.59227" lon="3.3476">
        <ele>254</ele>
        <time>2016-07-02T09:21:21Z</time>
      </trkpt>
      <trkpt lat="43.59226" lon="3.34771">
        <ele>253.8</ele>
        <time>2016-07-02T09:21:23Z</time>
      </trkpt>
      <trkpt lat="43.59227" lon="3.34783">
        <ele>253.6</ele>
        <time>2016-07-02T09:21:25Z</time>
      </trkpt>
      <trkpt lat="43.59229" lon="3.34795">
        <ele>253.2</ele>
        <time>2016-07-02T09:21:27Z</time>
      </trkpt>
      <trkpt lat="43.59225" lon="3.34805">
        <ele>252.7</ele>
        <time>2016-07-02T09:21:29Z</time>
      </trkpt>
      <trkpt lat="43.59221" lon="3.34814">
        <ele>252</ele>
        <time>2016-07-02T09:21:31Z</time>
      </trkpt>
      <trkpt lat="43.59215" lon="3.34825">
        <ele>251.1</ele>
        <time>2016-07-02T09:21:33Z</time>
      </trkpt>
      <trkpt lat="43.59209" lon="3.34837">
        <ele>250.3</ele>
        <time>2016-07-02T09:21:35Z</time>
      </trkpt>
      <trkpt lat="43.59209" lon="3.3485">
        <ele>249.1</ele>
        <time>2016-07-02T09:21:37Z</time>
      </trkpt>
      <trkpt lat="43.59213" lon="3.3486">
        <ele>247.4</ele>
        <time>2016-07-02T09:21:39Z</time>
      </trkpt>
      <trkpt lat="43.59217" lon="3.34872">
        <ele>246</ele>
        <time>2016-07-02T09:21:41Z</time>
      </trkpt>
      <trkpt lat="43.59222" lon="3.34885">
        <ele>245.1</ele>
        <time>2016-07-02T09:21:43Z</time>
      </trkpt>
      <trkpt lat="43.59229" lon="3.34896">
        <ele>244.1</ele>
        <time>2016-07-02T09:21:45Z</time>
      </trkpt>
      <trkpt lat="43.59234" lon="3.3491">
        <ele>242.7</ele>
        <time>2016-07-02T09:21:47Z</time>
      </trkpt>
      <trkpt lat="43.59236" lon="3.34924">
        <ele>241.5</ele>
        <time>2016-07-02T09:21:49Z</time>
      </trkpt>
      <trkpt lat="43.59238" lon="3.34942">
        <ele>240.4</ele>
        <time>2016-07-02T09:21:51Z</time>
      </trkpt>
      <trkpt lat="43.59238" lon="3.3496">
        <ele>239.3</ele>
        <time>2016-07-02T09:21:53Z</time>
      </trkpt>
      <trkpt lat="43.5924" lon="3.34978">
        <ele>237.9</ele>
        <time>2016-07-02T09:21:55Z</time>
      </trkpt>
      <trkpt lat="43.59244" lon="3.34994">
        <ele>236.2</ele>
        <time>2016-07-02T09:21:57Z</time>
      </trkpt>
      <trkpt lat="43.59248" lon="3.3501">
        <ele>234.8</ele>
        <time>2016-07-02T09:21:59Z</time>
      </trkpt>
      <trkpt lat="43.59252" lon="3.35024">
        <ele>233</ele>
        <time>2016-07-02T09:22:01Z</time>
      </trkpt>
      <trkpt lat="43.59257" lon="3.3504">
        <ele>231</ele>
        <time>2016-07-02T09:22:03Z</time>
      </trkpt>
      <trkpt lat="43.59264" lon="3.35053">
        <ele>229</ele>
        <time>2016-07-02T09:22:05Z</time>
      </trkpt>
      <trkpt lat="43.59267" lon="3.35065">
        <ele>228.1</ele>
        <time>2016-07-02T09:22:07Z</time>
      </trkpt>
      <trkpt lat="43.59261" lon="3.35073">
        <ele>227.9</ele>
        <time>2016-07-02T09:22:10Z</time>
      </trkpt>
      <trkpt lat="43.59251" lon="3.35071">
        <ele>226.5</ele>
        <time>2016-07-02T09:22:12Z</time>
      </trkpt>
      <trkpt lat="43.59242" lon="3.35069">
        <ele>225.1</ele>
        <time>2016-07-02T09:22:14Z</time>
      </trkpt>
      <trkpt lat="43.59232" lon="3.35071">
        <ele>223.4</ele>
        <time>2016-07-02T09:22:16Z</time>
      </trkpt>
      <trkpt lat="43.59221" lon="3.35069">
        <ele>222.3</ele>
        <time>2016-07-02T09:22:18Z</time>
      </trkpt>
      <trkpt lat="43.59212" lon="3.35064">
        <ele>221.5</ele>
        <time>2016-07-02T09:22:20Z</time>
      </trkpt>
      <trkpt lat="43.59201" lon="3.35062">
        <ele>220.8</ele>
        <time>2016-07-02T09:22:22Z</time>
      </trkpt>
      <trkpt lat="43.59196" lon="3.35073">
        <ele>218.8</ele>
        <time>2016-07-02T09:22:25Z</time>
      </trkpt>
      <trkpt lat="43.59197" lon="3.35086">
        <ele>217.1</ele>
        <time>2016-07-02T09:22:27Z</time>
      </trkpt>
      <trkpt lat="43.59203" lon="3.35099">
        <ele>215.8</ele>
        <time>2016-07-02T09:22:29Z</time>
      </trkpt>
      <trkpt lat="43.59209" lon="3.35111">
        <ele>215</ele>
        <time>2016-07-02T09:22:31Z</time>
      </trkpt>
      <trkpt lat="43.59213" lon="3.35128">
        <ele>214.4</ele>
        <time>2016-07-02T09:22:33Z</time>
      </trkpt>
      <trkpt lat="43.59214" lon="3.35147">
        <ele>213.8</ele>
        <time>2016-07-02T09:22:35Z</time>
      </trkpt>
      <trkpt lat="43.59212" lon="3.35165">
        <ele>212.6</ele>
        <time>2016-07-02T09:22:37Z</time>
      </trkpt>
      <trkpt lat="43.59212" lon="3.35183">
        <ele>211.3</ele>
        <time>2016-07-02T09:22:39Z</time>
      </trkpt>
      <trkpt lat="43.59217" lon="3.35199">
        <ele>209.8</ele>
        <time>2016-07-02T09:22:41Z</time>
      </trkpt>
      <trkpt lat="43.59224" lon="3.35209">
        <ele>208.1</ele>
        <time>2016-07-02T09:22:43Z</time>
      </trkpt>
      <trkpt lat="43.59224" lon="3.35219">
        <ele>207.7</ele>
        <time>2016-07-02T09:22:47Z</time>
      </trkpt>
      <trkpt lat="43.59222" lon="3.35229">
        <ele>207.2</ele>
        <time>2016-07-02T09:22:54Z</time>
      </trkpt>
      <trkpt lat="43.59218" lon="3.35239">
        <ele>206.9</ele>
        <time>2016-07-02T09:22:58Z</time>
      </trkpt>
      <trkpt lat="43.59213" lon="3.35248">
        <ele>206.8</ele>
        <time>2016-07-02T09:23:01Z</time>
      </trkpt>
      <trkpt lat="43.59211" lon="3.35258">
        <ele>206.7</ele>
        <time>2016-07-02T09:23:05Z</time>
      </trkpt>
      <trkpt lat="43.59207" lon="3.3527">
        <ele>206.7</ele>
        <time>2016-07-02T09:23:24Z</time>
      </trkpt>
      <trkpt lat="43.59204" lon="3.3528">
        <ele>206.3</ele>
        <time>2016-07-02T09:23:26Z</time>
      </trkpt>
      <trkpt lat="43.59201" lon="3.35291">
        <ele>205.7</ele>
        <time>2016-07-02T09:23:28Z</time>
      </trkpt>
      <trkpt lat="43.59194" lon="3.35305">
        <ele>205</ele>
        <time>2016-07-02T09:23:30Z</time>
      </trkpt>
      <trkpt lat="43.59186" lon="3.35318">
        <ele>203.9</ele>
        <time>2016-07-02T09:23:32Z</time>
      </trkpt>
      <trkpt lat="43.59184" lon="3.35335">
        <ele>202.2</ele>
        <time>2016-07-02T09:23:34Z</time>
      </trkpt>
      <trkpt lat="43.59182" lon="3.3535">
        <ele>201.1</ele>
        <time>2016-07-02T09:23:36Z</time>
      </trkpt>
      <trkpt lat="43.5917" lon="3.35352">
        <ele>199.9</ele>
        <time>2016-07-02T09:23:39Z</time>
      </trkpt>
      <trkpt lat="43.59158" lon="3.3535">
        <ele>198.5</ele>
        <time>2016-07-02T09:23:41Z</time>
      </trkpt>
      <trkpt lat="43.59147" lon="3.35357">
        <ele>197.1</ele>
        <time>2016-07-02T09:23:43Z</time>
      </trkpt>
      <trkpt lat="43.59137" lon="3.35368">
        <ele>196.4</ele>
        <time>2016-07-02T09:23:45Z</time>
      </trkpt>
      <trkpt lat="43.59125" lon="3.35379">
        <ele>195.4</ele>
        <time>2016-07-02T09:23:47Z</time>
      </trkpt>
      <trkpt lat="43.5912" lon="3.35386">
        <ele>194.6</ele>
        <time>2016-07-02T09:23:48Z</time>
      </trkpt>
      <trkpt lat="43.59108" lon="3.35395">
        <ele>193.3</ele>
        <time>2016-07-02T09:23:50Z</time>
      </trkpt>
      <trkpt lat="43.59101" lon="3.35399">
        <ele>192.8</ele>
        <time>2016-07-02T09:23:51Z</time>
      </trkpt>
      <trkpt lat="43.59087" lon="3.35405">
        <ele>192</ele>
        <time>2016-07-02T09:23:53Z</time>
      </trkpt>
      <trkpt lat="43.59081" lon="3.35409">
        <ele>191.2</ele>
        <time>2016-07-02T09:23:54Z</time>
      </trkpt>
      <trkpt lat="43.59073" lon="3.35414">
        <ele>190.5</ele>
        <time>2016-07-02T09:23:55Z</time>
      </trkpt>
      <trkpt lat="43.59065" lon="3.3542">
        <ele>189.7</ele>
        <time>2016-07-02T09:23:56Z</time>
      </trkpt>
      <trkpt lat="43.59058" lon="3.35425">
        <ele>189</ele>
        <time>2016-07-02T09:23:57Z</time>
      </trkpt>
      <trkpt lat="43.59049" lon="3.35431">
        <ele>188</ele>
        <time>2016-07-02T09:23:58Z</time>
      </trkpt>
      <trkpt lat="43.5904" lon="3.35435">
        <ele>187</ele>
        <time>2016-07-02T09:23:59Z</time>
      </trkpt>
      <trkpt lat="43.59033" lon="3.35437">
        <ele>186</ele>
        <time>2016-07-02T09:24:00Z</time>
      </trkpt>
      <trkpt lat="43.59026" lon="3.3544">
        <ele>185.3</ele>
        <time>2016-07-02T09:24:01Z</time>
      </trkpt>
      <trkpt lat="43.59018" lon="3.35443">
        <ele>184.5</ele>
        <time>2016-07-02T09:24:02Z</time>
      </trkpt>
      <trkpt lat="43.59007" lon="3.35455">
        <ele>183.3</ele>
        <time>2016-07-02T09:24:04Z</time>
      </trkpt>
      <trkpt lat="43.59002" lon="3.35461">
        <ele>182.7</ele>
        <time>2016-07-02T09:24:05Z</time>
      </trkpt>
      <trkpt lat="43.58991" lon="3.35474">
        <ele>181.7</ele>
        <time>2016-07-02T09:24:07Z</time>
      </trkpt>
      <trkpt lat="43.58981" lon="3.35488">
        <ele>181.1</ele>
        <time>2016-07-02T09:24:09Z</time>
      </trkpt>
      <trkpt lat="43.58977" lon="3.35496">
        <ele>180.9</ele>
        <time>2016-07-02T09:24:10Z</time>
      </trkpt>
      <trkpt lat="43.58968" lon="3.35513">
        <ele>180.5</ele>
        <time>2016-07-02T09:24:12Z</time>
      </trkpt>
      <trkpt lat="43.58962" lon="3.35529">
        <ele>180.8</ele>
        <time>2016-07-02T09:24:14Z</time>
      </trkpt>
      <trkpt lat="43.58957" lon="3.35546">
        <ele>181</ele>
        <time>2016-07-02T09:24:16Z</time>
      </trkpt>
      <trkpt lat="43.58953" lon="3.35563">
        <ele>181.5</ele>
        <time>2016-07-02T09:24:18Z</time>
      </trkpt>
      <trkpt lat="43.58945" lon="3.35577">
        <ele>180.7</ele>
        <time>2016-07-02T09:24:20Z</time>
      </trkpt>
      <trkpt lat="43.58935" lon="3.3559">
        <ele>179.7</ele>
        <time>2016-07-02T09:24:22Z</time>
      </trkpt>
      <trkpt lat="43.58931" lon="3.35598">
        <ele>179.1</ele>
        <time>2016-07-02T09:24:23Z</time>
      </trkpt>
      <trkpt lat="43.58927" lon="3.35607">
        <ele>178.7</ele>
        <time>2016-07-02T09:24:24Z</time>
      </trkpt>
      <trkpt lat="43.58922" lon="3.35616">
        <ele>178.4</ele>
        <time>2016-07-02T09:24:25Z</time>
      </trkpt>
      <trkpt lat="43.58918" lon="3.35626">
        <ele>178.2</ele>
        <time>2016-07-02T09:24:26Z</time>
      </trkpt>
      <trkpt lat="43.58914" lon="3.35634">
        <ele>178.1</ele>
        <time>2016-07-02T09:24:27Z</time>
      </trkpt>
      <trkpt lat="43.5891" lon="3.35643">
        <ele>178</ele>
        <time>2016-07-02T09:24:28Z</time>
      </trkpt>
      <trkpt lat="43.58907" lon="3.35652">
        <ele>177.8</ele>
        <time>2016-07-02T09:24:29Z</time>
      </trkpt>
      <trkpt lat="43.58902" lon="3.35661">
        <ele>177.4</ele>
        <time>2016-07-02T09:24:30Z</time>
      </trkpt>
      <trkpt lat="43.58894" lon="3.35674">
        <ele>177.4</ele>
        <time>2016-07-02T09:24:32Z</time>
      </trkpt>
      <trkpt lat="43.58887" lon="3.35678">
        <ele>177.5</ele>
        <time>2016-07-02T09:24:33Z</time>
      </trkpt>
      <trkpt lat="43.5888" lon="3.35682">
        <ele>177.4</ele>
        <time>2016-07-02T09:24:34Z</time>
      </trkpt>
      <trkpt lat="43.5887" lon="3.35694">
        <ele>177.6</ele>
        <time>2016-07-02T09:24:36Z</time>
      </trkpt>
      <trkpt lat="43.58863" lon="3.35706">
        <ele>177.7</ele>
        <time>2016-07-02T09:24:38Z</time>
      </trkpt>
      <trkpt lat="43.58855" lon="3.3572">
        <ele>178.9</ele>
        <time>2016-07-02T09:24:40Z</time>
      </trkpt>
      <trkpt lat="43.58845" lon="3.35734">
        <ele>179.7</ele>
        <time>2016-07-02T09:24:42Z</time>
      </trkpt>
      <trkpt lat="43.58835" lon="3.35747">
        <ele>179.9</ele>
        <time>2016-07-02T09:24:44Z</time>
      </trkpt>
      <trkpt lat="43.58827" lon="3.35759">
        <ele>179.8</ele>
        <time>2016-07-02T09:24:46Z</time>
      </trkpt>
      <trkpt lat="43.58818" lon="3.35769">
        <ele>179.6</ele>
        <time>2016-07-02T09:24:48Z</time>
      </trkpt>
      <trkpt lat="43.5881" lon="3.35778">
        <ele>179.3</ele>
        <time>2016-07-02T09:24:50Z</time>
      </trkpt>
      <trkpt lat="43.58802" lon="3.35787">
        <ele>179</ele>
        <time>2016-07-02T09:24:52Z</time>
      </trkpt>
      <trkpt lat="43.58795" lon="3.35796">
        <ele>179</ele>
        <time>2016-07-02T09:24:54Z</time>
      </trkpt>
      <trkpt lat="43.58788" lon="3.35803">
        <ele>179</ele>
        <time>2016-07-02T09:24:56Z</time>
      </trkpt>
      <trkpt lat="43.58782" lon="3.3581">
        <ele>179.2</ele>
        <time>2016-07-02T09:24:58Z</time>
      </trkpt>
      <trkpt lat="43.58775" lon="3.35818">
        <ele>179.2</ele>
        <time>2016-07-02T09:25:01Z</time>
      </trkpt>
      <trkpt lat="43.58769" lon="3.35824">
        <ele>179.3</ele>
        <time>2016-07-02T09:25:04Z</time>
      </trkpt>
      <trkpt lat="43.58761" lon="3.35834">
        <ele>179.3</ele>
        <time>2016-07-02T09:25:08Z</time>
      </trkpt>
      <trkpt lat="43.58753" lon="3.35843">
        <ele>179.3</ele>
        <time>2016-07-02T09:25:11Z</time>
      </trkpt>
      <trkpt lat="43.58747" lon="3.35853">
        <ele>179.3</ele>
        <time>2016-07-02T09:25:14Z</time>
      </trkpt>
      <trkpt lat="43.58739" lon="3.35862">
        <ele>179.3</ele>
        <time>2016-07-02T09:25:17Z</time>
      </trkpt>
      <trkpt lat="43.58733" lon="3.35868">
        <ele>179.3</ele>
        <time>2016-07-02T09:25:20Z</time>
      </trkpt>
      <trkpt lat="43.58724" lon="3.35874">
        <ele>179.4</ele>
        <time>2016-07-02T09:25:24Z</time>
      </trkpt>
      <trkpt lat="43.58717" lon="3.3588">
        <ele>179.4</ele>
        <time>2016-07-02T09:25:27Z</time>
      </trkpt>
      <trkpt lat="43.58709" lon="3.35886">
        <ele>179.6</ele>
        <time>2016-07-02T09:25:30Z</time>
      </trkpt>
      <trkpt lat="43.58702" lon="3.35892">
        <ele>179.7</ele>
        <time>2016-07-02T09:25:32Z</time>
      </trkpt>
      <trkpt lat="43.58694" lon="3.35898">
        <ele>179.4</ele>
        <time>2016-07-02T09:25:34Z</time>
      </trkpt>
      <trkpt lat="43.58688" lon="3.35904">
        <ele>179.1</ele>
        <time>2016-07-02T09:25:36Z</time>
      </trkpt>
      <trkpt lat="43.5868" lon="3.3591">
        <ele>179</ele>
        <time>2016-07-02T09:25:38Z</time>
      </trkpt>
      <trkpt lat="43.58673" lon="3.35916">
        <ele>178.9</ele>
        <time>2016-07-02T09:25:40Z</time>
      </trkpt>
      <trkpt lat="43.58665" lon="3.35922">
        <ele>178.7</ele>
        <time>2016-07-02T09:25:42Z</time>
      </trkpt>
      <trkpt lat="43.58658" lon="3.35927">
        <ele>178.7</ele>
        <time>2016-07-02T09:25:44Z</time>
      </trkpt>
      <trkpt lat="43.58651" lon="3.35933">
        <ele>178.5</ele>
        <time>2016-07-02T09:25:46Z</time>
      </trkpt>
      <trkpt lat="43.58645" lon="3.35938">
        <ele>178.4</ele>
        <time>2016-07-02T09:25:48Z</time>
      </trkpt>
      <trkpt lat="43.58635" lon="3.35944">
        <ele>178.4</ele>
        <time>2016-07-02T09:25:51Z</time>
      </trkpt>
      <trkpt lat="43.58626" lon="3.35949">
        <ele>178.4</ele>
        <time>2016-07-02T09:25:54Z</time>
      </trkpt>
      <trkpt lat="43.58618" lon="3.35953">
        <ele>178.3</ele>
        <time>2016-07-02T09:25:57Z</time>
      </trkpt>
      <trkpt lat="43.5861" lon="3.35955">
        <ele>178.3</ele>
        <time>2016-07-02T09:26:00Z</time>
      </trkpt>
      <trkpt lat="43.58601" lon="3.35957">
        <ele>178.1</ele>
        <time>2016-07-02T09:26:03Z</time>
      </trkpt>
      <trkpt lat="43.58593" lon="3.35959">
        <ele>177.8</ele>
        <time>2016-07-02T09:26:05Z</time>
      </trkpt>
      <trkpt lat="43.58585" lon="3.35962">
        <ele>176.9</ele>
        <time>2016-07-02T09:26:07Z</time>
      </trkpt>
      <trkpt lat="43.58577" lon="3.35966">
        <ele>176.4</ele>
        <time>2016-07-02T09:26:09Z</time>
      </trkpt>
      <trkpt lat="43.58569" lon="3.35971">
        <ele>175.8</ele>
        <time>2016-07-02T09:26:11Z</time>
      </trkpt>
      <trkpt lat="43.5856" lon="3.35977">
        <ele>176.5</ele>
        <time>2016-07-02T09:26:13Z</time>
      </trkpt>
      <trkpt lat="43.58551" lon="3.35984">
        <ele>177</ele>
        <time>2016-07-02T09:26:15Z</time>
      </trkpt>
      <trkpt lat="43.58543" lon="3.3599">
        <ele>177.5</ele>
        <time>2016-07-02T09:26:17Z</time>
      </trkpt>
      <trkpt lat="43.58534" lon="3.35996">
        <ele>177.7</ele>
        <time>2016-07-02T09:26:19Z</time>
      </trkpt>
      <trkpt lat="43.58526" lon="3.36003">
        <ele>176.5</ele>
        <time>2016-07-02T09:26:21Z</time>
      </trkpt>
      <trkpt lat="43.58516" lon="3.3601">
        <ele>175.4</ele>
        <time>2016-07-02T09:26:23Z</time>
      </trkpt>
      <trkpt lat="43.58508" lon="3.36018">
        <ele>174.7</ele>
        <time>2016-07-02T09:26:25Z</time>
      </trkpt>
      <trkpt lat="43.58497" lon="3.36026">
        <ele>175</ele>
        <time>2016-07-02T09:26:27Z</time>
      </trkpt>
      <trkpt lat="43.58487" lon="3.36035">
        <ele>175.4</ele>
        <time>2016-07-02T09:26:29Z</time>
      </trkpt>
      <trkpt lat="43.58478" lon="3.36043">
        <ele>174.9</ele>
        <time>2016-07-02T09:26:31Z</time>
      </trkpt>
      <trkpt lat="43.58469" lon="3.36051">
        <ele>173.8</ele>
        <time>2016-07-02T09:26:33Z</time>
      </trkpt>
      <trkpt lat="43.58461" lon="3.36059">
        <ele>173.3</ele>
        <time>2016-07-02T09:26:35Z</time>
      </trkpt>
      <trkpt lat="43.58454" lon="3.36066">
        <ele>173.4</ele>
        <time>2016-07-02T09:26:37Z</time>
      </trkpt>
      <trkpt lat="43.58447" lon="3.36074">
        <ele>173.8</ele>
        <time>2016-07-02T09:26:39Z</time>
      </trkpt>
      <trkpt lat="43.5844" lon="3.36081">
        <ele>173.8</ele>
        <time>2016-07-02T09:26:41Z</time>
      </trkpt>
      <trkpt lat="43.58434" lon="3.36089">
        <ele>174</ele>
        <time>2016-07-02T09:26:43Z</time>
      </trkpt>
      <trkpt lat="43.58427" lon="3.36097">
        <ele>174.4</ele>
        <time>2016-07-02T09:26:45Z</time>
      </trkpt>
      <trkpt lat="43.5842" lon="3.36107">
        <ele>174.2</ele>
        <time>2016-07-02T09:26:47Z</time>
      </trkpt>
      <trkpt lat="43.58413" lon="3.36116">
        <ele>174.4</ele>
        <time>2016-07-02T09:26:49Z</time>
      </trkpt>
      <trkpt lat="43.58406" lon="3.36125">
        <ele>174.6</ele>
        <time>2016-07-02T09:26:51Z</time>
      </trkpt>
      <trkpt lat="43.58399" lon="3.36135">
        <ele>174.8</ele>
        <time>2016-07-02T09:26:53Z</time>
      </trkpt>
      <trkpt lat="43.58392" lon="3.36144">
        <ele>175</ele>
        <time>2016-07-02T09:26:55Z</time>
      </trkpt>
      <trkpt lat="43.58386" lon="3.36152">
        <ele>175.3</ele>
        <time>2016-07-02T09:26:57Z</time>
      </trkpt>
      <trkpt lat="43.5838" lon="3.36161">
        <ele>175.5</ele>
        <time>2016-07-02T09:26:59Z</time>
      </trkpt>
      <trkpt lat="43.58373" lon="3.36169">
        <ele>175.5</ele>
        <time>2016-07-02T09:27:01Z</time>
      </trkpt>
      <trkpt lat="43.58367" lon="3.36175">
        <ele>175.7</ele>
        <time>2016-07-02T09:27:03Z</time>
      </trkpt>
      <trkpt lat="43.5836" lon="3.3618">
        <ele>174.9</ele>
        <time>2016-07-02T09:27:05Z</time>
      </trkpt>
      <trkpt lat="43.58353" lon="3.36184">
        <ele>173.9</ele>
        <time>2016-07-02T09:27:07Z</time>
      </trkpt>
      <trkpt lat="43.58345" lon="3.36188">
        <ele>173.1</ele>
        <time>2016-07-02T09:27:09Z</time>
      </trkpt>
      <trkpt lat="43.58336" lon="3.3619">
        <ele>173.1</ele>
        <time>2016-07-02T09:27:11Z</time>
      </trkpt>
      <trkpt lat="43.58327" lon="3.36192">
        <ele>172.5</ele>
        <time>2016-07-02T09:27:14Z</time>
      </trkpt>
      <trkpt lat="43.58317" lon="3.36195">
        <ele>172.6</ele>
        <time>2016-07-02T09:27:17Z</time>
      </trkpt>
      <trkpt lat="43.58307" lon="3.36198">
        <ele>172.7</ele>
        <time>2016-07-02T09:27:20Z</time>
      </trkpt>
      <trkpt lat="43.58298" lon="3.36201">
        <ele>172.7</ele>
        <time>2016-07-02T09:27:23Z</time>
      </trkpt>
      <trkpt lat="43.58289" lon="3.36204">
        <ele>172.8</ele>
        <time>2016-07-02T09:27:26Z</time>
      </trkpt>
      <trkpt lat="43.5828" lon="3.36206">
        <ele>173</ele>
        <time>2016-07-02T09:27:29Z</time>
      </trkpt>
      <trkpt lat="43.5827" lon="3.36211">
        <ele>173</ele>
        <time>2016-07-02T09:27:32Z</time>
      </trkpt>
      <trkpt lat="43.58262" lon="3.36215">
        <ele>173.3</ele>
        <time>2016-07-02T09:27:34Z</time>
      </trkpt>
      <trkpt lat="43.58254" lon="3.36219">
        <ele>173.1</ele>
        <time>2016-07-02T09:27:36Z</time>
      </trkpt>
      <trkpt lat="43.58245" lon="3.36224">
        <ele>172.5</ele>
        <time>2016-07-02T09:27:38Z</time>
      </trkpt>
      <trkpt lat="43.58236" lon="3.36229">
        <ele>171.9</ele>
        <time>2016-07-02T09:27:40Z</time>
      </trkpt>
      <trkpt lat="43.58227" lon="3.36233">
        <ele>171.5</ele>
        <time>2016-07-02T09:27:42Z</time>
      </trkpt>
      <trkpt lat="43.58219" lon="3.36238">
        <ele>171.2</ele>
        <time>2016-07-02T09:27:44Z</time>
      </trkpt>
      <trkpt lat="43.58211" lon="3.36244">
        <ele>171.1</ele>
        <time>2016-07-02T09:27:46Z</time>
      </trkpt>
      <trkpt lat="43.58201" lon="3.36249">
        <ele>171</ele>
        <time>2016-07-02T09:27:48Z</time>
      </trkpt>
      <trkpt lat="43.58191" lon="3.36254">
        <ele>170.9</ele>
        <time>2016-07-02T09:27:50Z</time>
      </trkpt>
      <trkpt lat="43.58182" lon="3.36259">
        <ele>170.7</ele>
        <time>2016-07-02T09:27:52Z</time>
      </trkpt>
      <trkpt lat="43.58172" lon="3.36265">
        <ele>170.4</ele>
        <time>2016-07-02T09:27:54Z</time>
      </trkpt>
      <trkpt lat="43.58163" lon="3.3627">
        <ele>170.2</ele>
        <time>2016-07-02T09:27:56Z</time>
      </trkpt>
      <trkpt lat="43.58154" lon="3.36275">
        <ele>169.9</ele>
        <time>2016-07-02T09:27:58Z</time>
      </trkpt>
      <trkpt lat="43.58145" lon="3.36279">
        <ele>169.6</ele>
        <time>2016-07-02T09:28:00Z</time>
      </trkpt>
      <trkpt lat="43.58136" lon="3.36284">
        <ele>169.3</ele>
        <time>2016-07-02T09:28:02Z</time>
      </trkpt>
      <trkpt lat="43.58126" lon="3.3629">
        <ele>169</ele>
        <time>2016-07-02T09:28:04Z</time>
      </trkpt>
      <trkpt lat="43.58115" lon="3.36295">
        <ele>168.6</ele>
        <time>2016-07-02T09:28:06Z</time>
      </trkpt>
      <trkpt lat="43.58105" lon="3.36301">
        <ele>168.2</ele>
        <time>2016-07-02T09:28:08Z</time>
      </trkpt>
      <trkpt lat="43.58095" lon="3.36306">
        <ele>168</ele>
        <time>2016-07-02T09:28:10Z</time>
      </trkpt>
      <trkpt lat="43.58085" lon="3.36312">
        <ele>167.7</ele>
        <time>2016-07-02T09:28:12Z</time>
      </trkpt>
      <trkpt lat="43.58075" lon="3.36318">
        <ele>167.7</ele>
        <time>2016-07-02T09:28:14Z</time>
      </trkpt>
      <trkpt lat="43.58066" lon="3.36323">
        <ele>167.7</ele>
        <time>2016-07-02T09:28:16Z</time>
      </trkpt>
      <trkpt lat="43.58057" lon="3.36329">
        <ele>167.8</ele>
        <time>2016-07-02T09:28:18Z</time>
      </trkpt>
      <trkpt lat="43.58047" lon="3.36334">
        <ele>167.8</ele>
        <time>2016-07-02T09:28:20Z</time>
      </trkpt>
      <trkpt lat="43.58036" lon="3.36339">
        <ele>167.8</ele>
        <time>2016-07-02T09:28:22Z</time>
      </trkpt>
      <trkpt lat="43.58025" lon="3.36343">
        <ele>167.7</ele>
        <time>2016-07-02T09:28:24Z</time>
      </trkpt>
      <trkpt lat="43.58015" lon="3.36346">
        <ele>167.6</ele>
        <time>2016-07-02T09:28:26Z</time>
      </trkpt>
      <trkpt lat="43.58005" lon="3.36348">
        <ele>167.5</ele>
        <time>2016-07-02T09:28:28Z</time>
      </trkpt>
      <trkpt lat="43.57994" lon="3.3635">
        <ele>167.4</ele>
        <time>2016-07-02T09:28:30Z</time>
      </trkpt>
      <trkpt lat="43.57983" lon="3.36352">
        <ele>167.1</ele>
        <time>2016-07-02T09:28:32Z</time>
      </trkpt>
      <trkpt lat="43.57974" lon="3.36354">
        <ele>167.2</ele>
        <time>2016-07-02T09:28:34Z</time>
      </trkpt>
      <trkpt lat="43.57965" lon="3.36356">
        <ele>167.4</ele>
        <time>2016-07-02T09:28:36Z</time>
      </trkpt>
      <trkpt lat="43.57956" lon="3.36358">
        <ele>167.7</ele>
        <time>2016-07-02T09:28:38Z</time>
      </trkpt>
      <trkpt lat="43.57947" lon="3.36359">
        <ele>167.9</ele>
        <time>2016-07-02T09:28:40Z</time>
      </trkpt>
      <trkpt lat="43.57938" lon="3.36362">
        <ele>168</ele>
        <time>2016-07-02T09:28:42Z</time>
      </trkpt>
      <trkpt lat="43.57929" lon="3.36363">
        <ele>168</ele>
        <time>2016-07-02T09:28:44Z</time>
      </trkpt>
      <trkpt lat="43.57919" lon="3.36366">
        <ele>168</ele>
        <time>2016-07-02T09:28:46Z</time>
      </trkpt>
      <trkpt lat="43.5791" lon="3.36368">
        <ele>168</ele>
        <time>2016-07-02T09:28:48Z</time>
      </trkpt>
      <trkpt lat="43.57901" lon="3.3637">
        <ele>168.1</ele>
        <time>2016-07-02T09:28:50Z</time>
      </trkpt>
      <trkpt lat="43.57893" lon="3.36372">
        <ele>168.1</ele>
        <time>2016-07-02T09:28:52Z</time>
      </trkpt>
      <trkpt lat="43.57884" lon="3.36374">
        <ele>168.2</ele>
        <time>2016-07-02T09:28:54Z</time>
      </trkpt>
      <trkpt lat="43.57876" lon="3.36376">
        <ele>168.2</ele>
        <time>2016-07-02T09:28:56Z</time>
      </trkpt>
      <trkpt lat="43.57867" lon="3.36374">
        <ele>168.2</ele>
        <time>2016-07-02T09:28:58Z</time>
      </trkpt>
      <trkpt lat="43.57861" lon="3.36368">
        <ele>168.3</ele>
        <time>2016-07-02T09:29:00Z</time>
      </trkpt>
      <trkpt lat="43.57854" lon="3.36361">
        <ele>168.3</ele>
        <time>2016-07-02T09:29:03Z</time>
      </trkpt>
      <trkpt lat="43.57849" lon="3.36354">
        <ele>168.4</ele>
        <time>2016-07-02T09:29:07Z</time>
      </trkpt>
      <trkpt lat="43.57842" lon="3.36346">
        <ele>168.6</ele>
        <time>2016-07-02T09:29:12Z</time>
      </trkpt>
      <trkpt lat="43.57834" lon="3.36338">
        <ele>168.7</ele>
        <time>2016-07-02T09:29:16Z</time>
      </trkpt>
      <trkpt lat="43.57826" lon="3.36332">
        <ele>168.9</ele>
        <time>2016-07-02T09:29:20Z</time>
      </trkpt>
      <trkpt lat="43.5782" lon="3.36327">
        <ele>169</ele>
        <time>2016-07-02T09:29:23Z</time>
      </trkpt>
      <trkpt lat="43.57812" lon="3.36321">
        <ele>169.1</ele>
        <time>2016-07-02T09:29:27Z</time>
      </trkpt>
      <trkpt lat="43.57805" lon="3.36317">
        <ele>169.3</ele>
        <time>2016-07-02T09:29:30Z</time>
      </trkpt>
      <trkpt lat="43.57796" lon="3.36313">
        <ele>169.4</ele>
        <time>2016-07-02T09:29:34Z</time>
      </trkpt>
      <trkpt lat="43.57789" lon="3.36311">
        <ele>169.6</ele>
        <time>2016-07-02T09:29:37Z</time>
      </trkpt>
      <trkpt lat="43.5778" lon="3.36311">
        <ele>170.2</ele>
        <time>2016-07-02T09:29:42Z</time>
      </trkpt>
      <trkpt lat="43.57772" lon="3.3631">
        <ele>170.9</ele>
        <time>2016-07-02T09:29:46Z</time>
      </trkpt>
      <trkpt lat="43.5776" lon="3.36307">
        <ele>171.5</ele>
        <time>2016-07-02T09:29:49Z</time>
      </trkpt>
      <trkpt lat="43.5775" lon="3.36305">
        <ele>173.2</ele>
        <time>2016-07-02T09:29:51Z</time>
      </trkpt>
      <trkpt lat="43.57746" lon="3.36293">
        <ele>173.4</ele>
        <time>2016-07-02T09:29:54Z</time>
      </trkpt>
      <trkpt lat="43.57741" lon="3.36282">
        <ele>173.3</ele>
        <time>2016-07-02T09:29:57Z</time>
      </trkpt>
      <trkpt lat="43.57737" lon="3.36271">
        <ele>173.3</ele>
        <time>2016-07-02T09:30:03Z</time>
      </trkpt>
      <trkpt lat="43.57735" lon="3.36261">
        <ele>173.7</ele>
        <time>2016-07-02T09:30:10Z</time>
      </trkpt>
      <trkpt lat="43.57737" lon="3.36259">
        <ele>173.9</ele>
        <time>2016-07-02T09:30:17Z</time>
      </trkpt>
      <trkpt lat="43.57735" lon="3.36256">
        <ele>174.5</ele>
        <time>2016-07-02T09:31:01Z</time>
      </trkpt>
      <trkpt lat="43.57734" lon="3.3626">
        <ele>174.4</ele>
        <time>2016-07-02T09:31:08Z</time>
      </trkpt>
    </trkseg>
  </trk>
</gpx>